<?xml version='1.0' encoding='UTF-8'?><gpx version="1.1" creator="JPX - https://github.com/jenetics/jpx" xmlns="http://www.topografix.com/GPX/1/1"><trk><trkseg><trkpt lat="39.9451206" lon="9.0727573"><ele>601.0</ele><time>2026-05-01T08:59:21.356Z</time></trkpt><trkpt lat="39.9450686" lon="9.0728088"><ele>601.0</ele><time>2026-05-01T08:59:29.356Z</time></trkpt><trkpt lat="39.9449942" lon="9.0728261"><ele>601.0</ele><time>2026-05-01T09:03:31.353Z</time></trkpt><trkpt lat="39.9449071" lon="9.0728952"><ele>601.0</ele><time>2026-05-01T09:03:51.353Z</time></trkpt><trkpt lat="39.9448254" lon="9.0730341"><ele>601.0</ele><time>2026-05-01T09:03:53.352Z</time></trkpt><trkpt lat="39.9447931" lon="9.0731148"><ele>601.0</ele><time>2026-05-01T09:03:54.351Z</time></trkpt><trkpt lat="39.9447645" lon="9.0731903"><ele>600.5</ele><time>2026-05-01T09:03:55.354Z</time></trkpt><trkpt lat="39.9447302" lon="9.0733443"><ele>600.0</ele><time>2026-05-01T09:03:57.355Z</time></trkpt><trkpt lat="39.9447318" lon="9.0734321"><ele>599.5</ele><time>2026-05-01T09:03:58.354Z</time></trkpt><trkpt lat="39.9447297" lon="9.0735251"><ele>599.0</ele><time>2026-05-01T09:03:59.354Z</time></trkpt><trkpt lat="39.9447292" lon="9.0736284"><ele>598.5</ele><time>2026-05-01T09:04:00.353Z</time></trkpt><trkpt lat="39.9447302" lon="9.073732"><ele>598.0</ele><time>2026-05-01T09:04:01.355Z</time></trkpt><trkpt lat="39.9447342" lon="9.0738324"><ele>598.0</ele><time>2026-05-01T09:04:02.353Z</time></trkpt><trkpt lat="39.9447426" lon="9.0739356"><ele>598.0</ele><time>2026-05-01T09:04:03.359Z</time></trkpt><trkpt lat="39.9447544" lon="9.0740449"><ele>598.0</ele><time>2026-05-01T09:04:04.348Z</time></trkpt><trkpt lat="39.9447757" lon="9.0741606"><ele>598.0</ele><time>2026-05-01T09:04:05.353Z</time></trkpt><trkpt lat="39.9448003" lon="9.0742709"><ele>598.0</ele><time>2026-05-01T09:04:06.354Z</time></trkpt><trkpt lat="39.9448437" lon="9.0743942"><ele>598.0</ele><time>2026-05-01T09:04:07.361Z</time></trkpt><trkpt lat="39.9449519" lon="9.0746254"><ele>598.0</ele><time>2026-05-01T09:04:09.359Z</time></trkpt><trkpt lat="39.9450029" lon="9.0747485"><ele>598.0</ele><time>2026-05-01T09:04:10.361Z</time></trkpt><trkpt lat="39.9450382" lon="9.0748757"><ele>598.0</ele><time>2026-05-01T09:04:11.351Z</time></trkpt><trkpt lat="39.9450624" lon="9.075011"><ele>598.0</ele><time>2026-05-01T09:04:12.359Z</time></trkpt><trkpt lat="39.9450688" lon="9.0751447"><ele>598.0</ele><time>2026-05-01T09:04:13.354Z</time></trkpt><trkpt lat="39.9450632" lon="9.0752781"><ele>598.0</ele><time>2026-05-01T09:04:14.352Z</time></trkpt><trkpt lat="39.9450562" lon="9.0754029"><ele>598.0</ele><time>2026-05-01T09:04:15.35Z</time></trkpt><trkpt lat="39.9450225" lon="9.0755311"><ele>598.0</ele><time>2026-05-01T09:04:16.352Z</time></trkpt><trkpt lat="39.9449598" lon="9.0756508"><ele>598.0</ele><time>2026-05-01T09:04:17.353Z</time></trkpt><trkpt lat="39.9448686" lon="9.0757486"><ele>598.0</ele><time>2026-05-01T09:04:18.355Z</time></trkpt><trkpt lat="39.9447503" lon="9.0758146"><ele>596.25</ele><time>2026-05-01T09:04:19.36Z</time></trkpt><trkpt lat="39.9446269" lon="9.0758681"><ele>594.5</ele><time>2026-05-01T09:04:20.355Z</time></trkpt><trkpt lat="39.9444961" lon="9.0759192"><ele>592.75</ele><time>2026-05-01T09:04:21.354Z</time></trkpt><trkpt lat="39.9443629" lon="9.075969"><ele>591.0</ele><time>2026-05-01T09:04:22.355Z</time></trkpt><trkpt lat="39.944237" lon="9.0760089"><ele>594.75</ele><time>2026-05-01T09:04:23.354Z</time></trkpt><trkpt lat="39.9441181" lon="9.0760534"><ele>598.5</ele><time>2026-05-01T09:04:24.361Z</time></trkpt><trkpt lat="39.9440068" lon="9.0761132"><ele>602.25</ele><time>2026-05-01T09:04:25.355Z</time></trkpt><trkpt lat="39.9439059" lon="9.0762003"><ele>606.0</ele><time>2026-05-01T09:04:26.353Z</time></trkpt><trkpt lat="39.9438244" lon="9.0763169"><ele>606.0</ele><time>2026-05-01T09:04:27.354Z</time></trkpt><trkpt lat="39.9437615" lon="9.0764658"><ele>606.0</ele><time>2026-05-01T09:04:28.353Z</time></trkpt><trkpt lat="39.9437433" lon="9.0766754"><ele>606.0</ele><time>2026-05-01T09:04:29.358Z</time></trkpt><trkpt lat="39.9437586" lon="9.0768802"><ele>602.6666666666666</ele><time>2026-05-01T09:04:30.354Z</time></trkpt><trkpt lat="39.9438076" lon="9.0770858"><ele>599.3333333333333</ele><time>2026-05-01T09:04:31.351Z</time></trkpt><trkpt lat="39.9438813" lon="9.077276"><ele>596.0</ele><time>2026-05-01T09:04:32.353Z</time></trkpt><trkpt lat="39.943955" lon="9.0774716"><ele>596.0</ele><time>2026-05-01T09:04:33.354Z</time></trkpt><trkpt lat="39.943984" lon="9.0776918"><ele>596.0</ele><time>2026-05-01T09:04:34.355Z</time></trkpt><trkpt lat="39.9439677" lon="9.0778836"><ele>596.0</ele><time>2026-05-01T09:04:35.355Z</time></trkpt><trkpt lat="39.9439184" lon="9.078051"><ele>596.0</ele><time>2026-05-01T09:04:36.355Z</time></trkpt><trkpt lat="39.9438226" lon="9.0781813"><ele>596.0</ele><time>2026-05-01T09:04:37.353Z</time></trkpt><trkpt lat="39.9437141" lon="9.0782932"><ele>596.0</ele><time>2026-05-01T09:04:38.36Z</time></trkpt><trkpt lat="39.9435927" lon="9.0783847"><ele>596.0</ele><time>2026-05-01T09:04:39.357Z</time></trkpt><trkpt lat="39.943475" lon="9.0784688"><ele>600.25</ele><time>2026-05-01T09:04:40.354Z</time></trkpt><trkpt lat="39.9433678" lon="9.0785609"><ele>604.5</ele><time>2026-05-01T09:04:41.352Z</time></trkpt><trkpt lat="39.9432752" lon="9.0786694"><ele>608.75</ele><time>2026-05-01T09:04:42.352Z</time></trkpt><trkpt lat="39.9431999" lon="9.0787911"><ele>613.0</ele><time>2026-05-01T09:04:43.352Z</time></trkpt><trkpt lat="39.9431341" lon="9.0789067"><ele>613.0</ele><time>2026-05-01T09:04:44.351Z</time></trkpt><trkpt lat="39.9430782" lon="9.0790101"><ele>613.0</ele><time>2026-05-01T09:04:45.351Z</time></trkpt><trkpt lat="39.9430252" lon="9.0791101"><ele>613.0</ele><time>2026-05-01T09:04:46.355Z</time></trkpt><trkpt lat="39.9429702" lon="9.0792039"><ele>613.0</ele><time>2026-05-01T09:04:47.351Z</time></trkpt><trkpt lat="39.9429089" lon="9.0793003"><ele>613.0</ele><time>2026-05-01T09:04:48.35Z</time></trkpt><trkpt lat="39.9428381" lon="9.0794001"><ele>610.8</ele><time>2026-05-01T09:04:49.353Z</time></trkpt><trkpt lat="39.9427727" lon="9.0795024"><ele>608.5999999999999</ele><time>2026-05-01T09:04:50.355Z</time></trkpt><trkpt lat="39.9427124" lon="9.0796034"><ele>606.4000000000001</ele><time>2026-05-01T09:04:51.357Z</time></trkpt><trkpt lat="39.942652" lon="9.0797097"><ele>604.2</ele><time>2026-05-01T09:04:52.351Z</time></trkpt><trkpt lat="39.9426151" lon="9.0798352"><ele>602.0</ele><time>2026-05-01T09:04:53.353Z</time></trkpt><trkpt lat="39.9426117" lon="9.0799811"><ele>601.75</ele><time>2026-05-01T09:04:54.352Z</time></trkpt><trkpt lat="39.9426667" lon="9.0801502"><ele>601.5</ele><time>2026-05-01T09:04:55.351Z</time></trkpt><trkpt lat="39.942739" lon="9.080305"><ele>601.25</ele><time>2026-05-01T09:04:56.353Z</time></trkpt><trkpt lat="39.9428168" lon="9.080463"><ele>601.0</ele><time>2026-05-01T09:04:57.351Z</time></trkpt><trkpt lat="39.9429027" lon="9.0806303"><ele>605.3333333333334</ele><time>2026-05-01T09:04:58.358Z</time></trkpt><trkpt lat="39.9429985" lon="9.0807895"><ele>609.6666666666666</ele><time>2026-05-01T09:04:59.349Z</time></trkpt><trkpt lat="39.9431165" lon="9.0809207"><ele>614.0</ele><time>2026-05-01T09:05:00.352Z</time></trkpt><trkpt lat="39.943241" lon="9.0810408"><ele>614.0</ele><time>2026-05-01T09:05:01.358Z</time></trkpt><trkpt lat="39.9433413" lon="9.0811613"><ele>614.0</ele><time>2026-05-01T09:05:02.35Z</time></trkpt><trkpt lat="39.9434078" lon="9.0812845"><ele>614.0</ele><time>2026-05-01T09:05:03.354Z</time></trkpt><trkpt lat="39.943456" lon="9.0814222"><ele>614.0</ele><time>2026-05-01T09:05:04.352Z</time></trkpt><trkpt lat="39.943469" lon="9.0815673"><ele>613.25</ele><time>2026-05-01T09:05:05.355Z</time></trkpt><trkpt lat="39.9434392" lon="9.08172"><ele>612.5</ele><time>2026-05-01T09:05:06.359Z</time></trkpt><trkpt lat="39.9434053" lon="9.0818832"><ele>611.75</ele><time>2026-05-01T09:05:07.355Z</time></trkpt><trkpt lat="39.943359" lon="9.0820297"><ele>611.0</ele><time>2026-05-01T09:05:08.355Z</time></trkpt><trkpt lat="39.9433012" lon="9.0821678"><ele>611.5</ele><time>2026-05-01T09:05:09.354Z</time></trkpt><trkpt lat="39.9432207" lon="9.0822818"><ele>612.0</ele><time>2026-05-01T09:05:10.354Z</time></trkpt><trkpt lat="39.9431162" lon="9.082356"><ele>612.5</ele><time>2026-05-01T09:05:11.36Z</time></trkpt><trkpt lat="39.942998" lon="9.0824222"><ele>613.0</ele><time>2026-05-01T09:05:12.353Z</time></trkpt><trkpt lat="39.9428832" lon="9.0825058"><ele>613.0</ele><time>2026-05-01T09:05:13.353Z</time></trkpt><trkpt lat="39.9427932" lon="9.0826173"><ele>613.0</ele><time>2026-05-01T09:05:14.358Z</time></trkpt><trkpt lat="39.9427077" lon="9.0827303"><ele>613.0</ele><time>2026-05-01T09:05:15.353Z</time></trkpt><trkpt lat="39.9426222" lon="9.0828238"><ele>613.0</ele><time>2026-05-01T09:05:16.355Z</time></trkpt><trkpt lat="39.9425315" lon="9.0828703"><ele>615.25</ele><time>2026-05-01T09:05:17.353Z</time></trkpt><trkpt lat="39.9424082" lon="9.0828248"><ele>617.5</ele><time>2026-05-01T09:05:18.36Z</time></trkpt><trkpt lat="39.9422812" lon="9.08278"><ele>619.75</ele><time>2026-05-01T09:05:19.357Z</time></trkpt><trkpt lat="39.9421525" lon="9.082769"><ele>622.0</ele><time>2026-05-01T09:05:20.351Z</time></trkpt><trkpt lat="39.9420537" lon="9.0828115"><ele>622.0</ele><time>2026-05-01T09:05:21.369Z</time></trkpt><trkpt lat="39.9419603" lon="9.0828983"><ele>622.0</ele><time>2026-05-01T09:05:22.353Z</time></trkpt><trkpt lat="39.941888" lon="9.0829845"><ele>622.0</ele><time>2026-05-01T09:05:23.352Z</time></trkpt><trkpt lat="39.9418273" lon="9.0830768"><ele>622.0</ele><time>2026-05-01T09:05:24.351Z</time></trkpt><trkpt lat="39.9417782" lon="9.0831675"><ele>622.0</ele><time>2026-05-01T09:05:25.352Z</time></trkpt><trkpt lat="39.9417517" lon="9.0832608"><ele>619.1666666666667</ele><time>2026-05-01T09:05:26.356Z</time></trkpt><trkpt lat="39.9417275" lon="9.0833653"><ele>616.3333333333334</ele><time>2026-05-01T09:05:27.353Z</time></trkpt><trkpt lat="39.9417018" lon="9.0834673"><ele>613.5</ele><time>2026-05-01T09:05:28.353Z</time></trkpt><trkpt lat="39.9416855" lon="9.0835545"><ele>610.6666666666666</ele><time>2026-05-01T09:05:29.353Z</time></trkpt><trkpt lat="39.9416727" lon="9.0836582"><ele>607.8333333333333</ele><time>2026-05-01T09:05:31.352Z</time></trkpt><trkpt lat="39.9416265" lon="9.0837247"><ele>605.0</ele><time>2026-05-01T09:05:35.353Z</time></trkpt><trkpt lat="39.9415787" lon="9.0838575"><ele>605.0</ele><time>2026-05-01T09:05:38.354Z</time></trkpt><trkpt lat="39.941507" lon="9.0839547"><ele>605.0</ele><time>2026-05-01T09:05:39.353Z</time></trkpt><trkpt lat="39.9414215" lon="9.0840417"><ele>605.0</ele><time>2026-05-01T09:05:40.356Z</time></trkpt><trkpt lat="39.9413172" lon="9.0841082"><ele>605.0</ele><time>2026-05-01T09:05:41.353Z</time></trkpt><trkpt lat="39.9412007" lon="9.0841412"><ele>605.0</ele><time>2026-05-01T09:05:42.353Z</time></trkpt><trkpt lat="39.9410803" lon="9.0841387"><ele>605.6</ele><time>2026-05-01T09:05:43.352Z</time></trkpt><trkpt lat="39.9409663" lon="9.0841225"><ele>606.2</ele><time>2026-05-01T09:05:44.351Z</time></trkpt><trkpt lat="39.9408563" lon="9.0841332"><ele>606.8</ele><time>2026-05-01T09:05:45.351Z</time></trkpt><trkpt lat="39.940756" lon="9.0841733"><ele>607.4</ele><time>2026-05-01T09:05:46.353Z</time></trkpt><trkpt lat="39.9406697" lon="9.0842588"><ele>608.0</ele><time>2026-05-01T09:05:47.351Z</time></trkpt><trkpt lat="39.940575" lon="9.0843157"><ele>608.0</ele><time>2026-05-01T09:05:48.351Z</time></trkpt><trkpt lat="39.9404757" lon="9.0843207"><ele>608.0</ele><time>2026-05-01T09:05:49.355Z</time></trkpt><trkpt lat="39.9403712" lon="9.0842783"><ele>608.0</ele><time>2026-05-01T09:05:50.351Z</time></trkpt><trkpt lat="39.9402563" lon="9.084196"><ele>608.0</ele><time>2026-05-01T09:05:51.368Z</time></trkpt><trkpt lat="39.9401383" lon="9.0840983"><ele>602.75</ele><time>2026-05-01T09:05:52.352Z</time></trkpt><trkpt lat="39.9400255" lon="9.0840133"><ele>597.5</ele><time>2026-05-01T09:05:53.349Z</time></trkpt><trkpt lat="39.9399142" lon="9.0839315"><ele>592.25</ele><time>2026-05-01T09:05:54.35Z</time></trkpt><trkpt lat="39.9398063" lon="9.0838387"><ele>587.0</ele><time>2026-05-01T09:05:55.351Z</time></trkpt><trkpt lat="39.9397137" lon="9.083727"><ele>587.0</ele><time>2026-05-01T09:05:56.351Z</time></trkpt><trkpt lat="39.9396353" lon="9.0835957"><ele>587.0</ele><time>2026-05-01T09:05:57.358Z</time></trkpt><trkpt lat="39.9395778" lon="9.083435"><ele>587.0</ele><time>2026-05-01T09:05:58.351Z</time></trkpt><trkpt lat="39.9395253" lon="9.0832717"><ele>587.0</ele><time>2026-05-01T09:05:59.35Z</time></trkpt><trkpt lat="39.9394642" lon="9.0831188"><ele>587.75</ele><time>2026-05-01T09:06:00.35Z</time></trkpt><trkpt lat="39.93938" lon="9.0829802"><ele>588.5</ele><time>2026-05-01T09:06:01.35Z</time></trkpt><trkpt lat="39.9392838" lon="9.0828537"><ele>589.25</ele><time>2026-05-01T09:06:02.35Z</time></trkpt><trkpt lat="39.939164" lon="9.0827375"><ele>590.0</ele><time>2026-05-01T09:06:03.357Z</time></trkpt><trkpt lat="39.9390343" lon="9.0826332"><ele>590.0</ele><time>2026-05-01T09:06:04.351Z</time></trkpt><trkpt lat="39.9389038" lon="9.082536"><ele>590.0</ele><time>2026-05-01T09:06:05.353Z</time></trkpt><trkpt lat="39.9387683" lon="9.0824548"><ele>590.0</ele><time>2026-05-01T09:06:06.352Z</time></trkpt><trkpt lat="39.9386285" lon="9.0824157"><ele>590.0</ele><time>2026-05-01T09:06:07.355Z</time></trkpt><trkpt lat="39.9384763" lon="9.0823863"><ele>584.0</ele><time>2026-05-01T09:06:08.35Z</time></trkpt><trkpt lat="39.9383337" lon="9.0823497"><ele>578.0</ele><time>2026-05-01T09:06:09.353Z</time></trkpt><trkpt lat="39.938187" lon="9.0822903"><ele>572.0</ele><time>2026-05-01T09:06:10.352Z</time></trkpt><trkpt lat="39.9380525" lon="9.082213"><ele>566.0</ele><time>2026-05-01T09:06:11.355Z</time></trkpt><trkpt lat="39.937924" lon="9.0821207"><ele>566.0</ele><time>2026-05-01T09:06:12.35Z</time></trkpt><trkpt lat="39.9378042" lon="9.0820412"><ele>566.0</ele><time>2026-05-01T09:06:13.354Z</time></trkpt><trkpt lat="39.9377042" lon="9.0819708"><ele>566.0</ele><time>2026-05-01T09:06:14.353Z</time></trkpt><trkpt lat="39.9375972" lon="9.0819243"><ele>566.0</ele><time>2026-05-01T09:06:15.354Z</time></trkpt><trkpt lat="39.9374802" lon="9.0818988"><ele>567.2</ele><time>2026-05-01T09:06:16.355Z</time></trkpt><trkpt lat="39.937364" lon="9.0818868"><ele>568.4000000000001</ele><time>2026-05-01T09:06:17.352Z</time></trkpt><trkpt lat="39.9372482" lon="9.0818765"><ele>569.6</ele><time>2026-05-01T09:06:18.351Z</time></trkpt><trkpt lat="39.9371437" lon="9.0818803"><ele>570.8000000000001</ele><time>2026-05-01T09:06:19.353Z</time></trkpt><trkpt lat="39.9370472" lon="9.0819415"><ele>572.0</ele><time>2026-05-01T09:06:20.35Z</time></trkpt><trkpt lat="39.9369585" lon="9.082035"><ele>572.0</ele><time>2026-05-01T09:06:21.354Z</time></trkpt><trkpt lat="39.9368782" lon="9.0821372"><ele>572.0</ele><time>2026-05-01T09:06:22.35Z</time></trkpt><trkpt lat="39.9368138" lon="9.0822615"><ele>572.0</ele><time>2026-05-01T09:06:23.351Z</time></trkpt><trkpt lat="39.9367683" lon="9.082405"><ele>572.0</ele><time>2026-05-01T09:06:24.349Z</time></trkpt><trkpt lat="39.9367375" lon="9.0825652"><ele>572.0</ele><time>2026-05-01T09:06:25.351Z</time></trkpt><trkpt lat="39.9366892" lon="9.0827205"><ele>572.0</ele><time>2026-05-01T09:06:26.351Z</time></trkpt><trkpt lat="39.9366298" lon="9.0828617"><ele>572.0</ele><time>2026-05-01T09:06:27.352Z</time></trkpt><trkpt lat="39.9365432" lon="9.082958"><ele>572.0</ele><time>2026-05-01T09:06:28.353Z</time></trkpt><trkpt lat="39.9364143" lon="9.0830167"><ele>572.0</ele><time>2026-05-01T09:06:29.359Z</time></trkpt><trkpt lat="39.9362733" lon="9.0830677"><ele>572.0</ele><time>2026-05-01T09:06:30.358Z</time></trkpt><trkpt lat="39.9361273" lon="9.0831233"><ele>572.0</ele><time>2026-05-01T09:06:31.354Z</time></trkpt><trkpt lat="39.9359772" lon="9.0831888"><ele>570.75</ele><time>2026-05-01T09:06:32.352Z</time></trkpt><trkpt lat="39.935861" lon="9.0832662"><ele>569.5</ele><time>2026-05-01T09:06:33.352Z</time></trkpt><trkpt lat="39.9357542" lon="9.083364"><ele>568.25</ele><time>2026-05-01T09:06:34.353Z</time></trkpt><trkpt lat="39.9356497" lon="9.0834845"><ele>567.0</ele><time>2026-05-01T09:06:35.351Z</time></trkpt><trkpt lat="39.935567" lon="9.0836517"><ele>567.0</ele><time>2026-05-01T09:06:36.352Z</time></trkpt><trkpt lat="39.935497" lon="9.0838458"><ele>567.0</ele><time>2026-05-01T09:06:37.356Z</time></trkpt><trkpt lat="39.9354035" lon="9.0840165"><ele>567.0</ele><time>2026-05-01T09:06:38.35Z</time></trkpt><trkpt lat="39.9352857" lon="9.0841678"><ele>562.0</ele><time>2026-05-01T09:06:39.354Z</time></trkpt><trkpt lat="39.9351708" lon="9.0843147"><ele>557.0</ele><time>2026-05-01T09:06:40.354Z</time></trkpt><trkpt lat="39.9350692" lon="9.0844515"><ele>552.0</ele><time>2026-05-01T09:06:41.352Z</time></trkpt><trkpt lat="39.934993" lon="9.0845943"><ele>547.0</ele><time>2026-05-01T09:06:42.352Z</time></trkpt><trkpt lat="39.9349425" lon="9.084726"><ele>547.0</ele><time>2026-05-01T09:06:43.357Z</time></trkpt><trkpt lat="39.9349215" lon="9.084855"><ele>547.0</ele><time>2026-05-01T09:06:44.354Z</time></trkpt><trkpt lat="39.9349253" lon="9.0849882"><ele>547.0</ele><time>2026-05-01T09:06:45.353Z</time></trkpt><trkpt lat="39.934967" lon="9.0851282"><ele>547.0</ele><time>2026-05-01T09:06:46.358Z</time></trkpt><trkpt lat="39.9350072" lon="9.0852748"><ele>547.0</ele><time>2026-05-01T09:06:47.351Z</time></trkpt><trkpt lat="39.935003" lon="9.085426"><ele>549.25</ele><time>2026-05-01T09:06:48.352Z</time></trkpt><trkpt lat="39.9349405" lon="9.0855553"><ele>551.5</ele><time>2026-05-01T09:06:49.351Z</time></trkpt><trkpt lat="39.9348305" lon="9.0856607"><ele>553.75</ele><time>2026-05-01T09:06:50.357Z</time></trkpt><trkpt lat="39.9346963" lon="9.0857535"><ele>556.0</ele><time>2026-05-01T09:06:51.355Z</time></trkpt><trkpt lat="39.934556" lon="9.0858408"><ele>558.0</ele><time>2026-05-01T09:06:52.353Z</time></trkpt><trkpt lat="39.9344355" lon="9.0859448"><ele>560.0</ele><time>2026-05-01T09:06:53.352Z</time></trkpt><trkpt lat="39.9343283" lon="9.0860838"><ele>562.0</ele><time>2026-05-01T09:06:54.352Z</time></trkpt><trkpt lat="39.9342285" lon="9.0862323"><ele>564.0</ele><time>2026-05-01T09:06:55.352Z</time></trkpt><trkpt lat="39.934151" lon="9.0864043"><ele>560.0</ele><time>2026-05-01T09:06:56.353Z</time></trkpt><trkpt lat="39.934092" lon="9.0865618"><ele>556.0</ele><time>2026-05-01T09:06:57.361Z</time></trkpt><trkpt lat="39.9340438" lon="9.0867042"><ele>552.0</ele><time>2026-05-01T09:06:58.354Z</time></trkpt><trkpt lat="39.9339907" lon="9.0868155"><ele>548.0</ele><time>2026-05-01T09:06:59.351Z</time></trkpt><trkpt lat="39.9339113" lon="9.0869097"><ele>548.0</ele><time>2026-05-01T09:07:00.352Z</time></trkpt><trkpt lat="39.933816" lon="9.08699"><ele>548.0</ele><time>2026-05-01T09:07:01.352Z</time></trkpt><trkpt lat="39.9336953" lon="9.08704"><ele>548.0</ele><time>2026-05-01T09:07:02.353Z</time></trkpt><trkpt lat="39.9335632" lon="9.0870918"><ele>548.0</ele><time>2026-05-01T09:07:03.353Z</time></trkpt><trkpt lat="39.9334333" lon="9.0871655"><ele>545.5</ele><time>2026-05-01T09:07:04.353Z</time></trkpt><trkpt lat="39.9333123" lon="9.0872587"><ele>543.0</ele><time>2026-05-01T09:07:05.353Z</time></trkpt><trkpt lat="39.9332003" lon="9.0873682"><ele>540.5</ele><time>2026-05-01T09:07:06.353Z</time></trkpt><trkpt lat="39.9331062" lon="9.0875315"><ele>538.0</ele><time>2026-05-01T09:07:07.354Z</time></trkpt><trkpt lat="39.9330157" lon="9.0877023"><ele>538.0</ele><time>2026-05-01T09:07:08.357Z</time></trkpt><trkpt lat="39.9329255" lon="9.0878758"><ele>538.0</ele><time>2026-05-01T09:07:09.353Z</time></trkpt><trkpt lat="39.9328498" lon="9.0880455"><ele>538.0</ele><time>2026-05-01T09:07:10.354Z</time></trkpt><trkpt lat="39.932803" lon="9.0882147"><ele>538.0</ele><time>2026-05-01T09:07:11.355Z</time></trkpt><trkpt lat="39.9327575" lon="9.0883637"><ele>541.1999999999999</ele><time>2026-05-01T09:07:12.35Z</time></trkpt><trkpt lat="39.9327262" lon="9.0885073"><ele>544.4</ele><time>2026-05-01T09:07:13.355Z</time></trkpt><trkpt lat="39.9327335" lon="9.0886563"><ele>547.5999999999999</ele><time>2026-05-01T09:07:14.352Z</time></trkpt><trkpt lat="39.9327412" lon="9.0887885"><ele>550.8</ele><time>2026-05-01T09:07:15.351Z</time></trkpt><trkpt lat="39.9327387" lon="9.0889292"><ele>554.0</ele><time>2026-05-01T09:07:16.362Z</time></trkpt><trkpt lat="39.9327217" lon="9.0890555"><ele>554.6</ele><time>2026-05-01T09:07:17.352Z</time></trkpt><trkpt lat="39.9326813" lon="9.0891635"><ele>555.2</ele><time>2026-05-01T09:07:18.355Z</time></trkpt><trkpt lat="39.9326235" lon="9.0892653"><ele>555.8000000000001</ele><time>2026-05-01T09:07:19.357Z</time></trkpt><trkpt lat="39.9325195" lon="9.0893233"><ele>556.4</ele><time>2026-05-01T09:07:20.353Z</time></trkpt><trkpt lat="39.932395" lon="9.0893498"><ele>557.0</ele><time>2026-05-01T09:07:21.355Z</time></trkpt><trkpt lat="39.9322658" lon="9.089352"><ele>548.5</ele><time>2026-05-01T09:07:22.352Z</time></trkpt><trkpt lat="39.9321463" lon="9.0893083"><ele>540.0</ele><time>2026-05-01T09:07:23.352Z</time></trkpt><trkpt lat="39.9320473" lon="9.0891985"><ele>531.5</ele><time>2026-05-01T09:07:24.351Z</time></trkpt><trkpt lat="39.931945" lon="9.0890728"><ele>523.0</ele><time>2026-05-01T09:07:25.354Z</time></trkpt><trkpt lat="39.931832" lon="9.0889528"><ele>516.5</ele><time>2026-05-01T09:07:26.351Z</time></trkpt><trkpt lat="39.9317198" lon="9.088843"><ele>510.0</ele><time>2026-05-01T09:07:27.357Z</time></trkpt><trkpt lat="39.9316153" lon="9.088758"><ele>503.5</ele><time>2026-05-01T09:07:28.351Z</time></trkpt><trkpt lat="39.931522" lon="9.0887225"><ele>497.0</ele><time>2026-05-01T09:07:29.35Z</time></trkpt><trkpt lat="39.9314302" lon="9.088747"><ele>497.0</ele><time>2026-05-01T09:07:30.351Z</time></trkpt><trkpt lat="39.9313447" lon="9.0888412"><ele>497.0</ele><time>2026-05-01T09:07:31.35Z</time></trkpt><trkpt lat="39.9312945" lon="9.0889908"><ele>497.0</ele><time>2026-05-01T09:07:32.352Z</time></trkpt><trkpt lat="39.9312623" lon="9.0891602"><ele>497.0</ele><time>2026-05-01T09:07:33.354Z</time></trkpt><trkpt lat="39.9312308" lon="9.0893198"><ele>499.20000000000005</ele><time>2026-05-01T09:07:34.355Z</time></trkpt><trkpt lat="39.9311945" lon="9.08945"><ele>501.40000000000003</ele><time>2026-05-01T09:07:35.36Z</time></trkpt><trkpt lat="39.9311448" lon="9.0895492"><ele>503.59999999999997</ele><time>2026-05-01T09:07:36.356Z</time></trkpt><trkpt lat="39.931065" lon="9.0895942"><ele>505.79999999999995</ele><time>2026-05-01T09:07:37.355Z</time></trkpt><trkpt lat="39.930966" lon="9.0895633"><ele>508.0</ele><time>2026-05-01T09:07:38.351Z</time></trkpt><trkpt lat="39.9308765" lon="9.0894757"><ele>508.0</ele><time>2026-05-01T09:07:39.353Z</time></trkpt><trkpt lat="39.9308233" lon="9.0893385"><ele>508.0</ele><time>2026-05-01T09:07:40.352Z</time></trkpt><trkpt lat="39.9307917" lon="9.0891818"><ele>508.0</ele><time>2026-05-01T09:07:41.354Z</time></trkpt><trkpt lat="39.9307592" lon="9.0890232"><ele>508.0</ele><time>2026-05-01T09:07:42.351Z</time></trkpt><trkpt lat="39.9307208" lon="9.0888398"><ele>504.75</ele><time>2026-05-01T09:07:43.352Z</time></trkpt><trkpt lat="39.930687" lon="9.0886662"><ele>501.5</ele><time>2026-05-01T09:07:44.355Z</time></trkpt><trkpt lat="39.930649" lon="9.0885135"><ele>498.25</ele><time>2026-05-01T09:07:45.357Z</time></trkpt><trkpt lat="39.9305982" lon="9.088399"><ele>495.0</ele><time>2026-05-01T09:07:46.353Z</time></trkpt><trkpt lat="39.930534" lon="9.0883072"><ele>494.75</ele><time>2026-05-01T09:07:47.359Z</time></trkpt><trkpt lat="39.9304475" lon="9.0882395"><ele>494.5</ele><time>2026-05-01T09:07:48.356Z</time></trkpt><trkpt lat="39.9303027" lon="9.0882138"><ele>494.25</ele><time>2026-05-01T09:07:49.353Z</time></trkpt><trkpt lat="39.930148" lon="9.0882008"><ele>494.0</ele><time>2026-05-01T09:07:50.353Z</time></trkpt><trkpt lat="39.9299835" lon="9.0881672"><ele>494.0</ele><time>2026-05-01T09:07:51.353Z</time></trkpt><trkpt lat="39.9298452" lon="9.0881352"><ele>494.0</ele><time>2026-05-01T09:07:52.353Z</time></trkpt><trkpt lat="39.9297443" lon="9.0881012"><ele>494.0</ele><time>2026-05-01T09:07:53.352Z</time></trkpt><trkpt lat="39.9296618" lon="9.0880667"><ele>494.0</ele><time>2026-05-01T09:07:54.351Z</time></trkpt><trkpt lat="39.9295832" lon="9.0880267"><ele>494.0</ele><time>2026-05-01T09:07:56.352Z</time></trkpt><trkpt lat="39.929507" lon="9.0880072"><ele>493.99999999999994</ele><time>2026-05-01T09:07:59.36Z</time></trkpt><trkpt lat="39.9294328" lon="9.0880157"><ele>494.0</ele><time>2026-05-01T09:08:02.352Z</time></trkpt><trkpt lat="39.9293473" lon="9.0880267"><ele>494.0</ele><time>2026-05-01T09:08:06.356Z</time></trkpt><trkpt lat="39.9292483" lon="9.0880095"><ele>494.0</ele><time>2026-05-01T09:08:08.355Z</time></trkpt><trkpt lat="39.9291745" lon="9.0880042"><ele>493.99999999999994</ele><time>2026-05-01T09:08:09.353Z</time></trkpt><trkpt lat="39.9290947" lon="9.0880035"><ele>494.0</ele><time>2026-05-01T09:08:10.353Z</time></trkpt><trkpt lat="39.9290113" lon="9.0880023"><ele>493.66666666666663</ele><time>2026-05-01T09:08:11.361Z</time></trkpt><trkpt lat="39.9289305" lon="9.0880107"><ele>493.3333333333333</ele><time>2026-05-01T09:08:12.353Z</time></trkpt><trkpt lat="39.9288578" lon="9.0880313"><ele>493.0</ele><time>2026-05-01T09:08:13.353Z</time></trkpt><trkpt lat="39.9287963" lon="9.0880652"><ele>492.66666666666663</ele><time>2026-05-01T09:08:14.352Z</time></trkpt><trkpt lat="39.9286968" lon="9.0881817"><ele>492.3333333333333</ele><time>2026-05-01T09:08:16.353Z</time></trkpt><trkpt lat="39.9286583" lon="9.0882685"><ele>492.0</ele><time>2026-05-01T09:08:17.353Z</time></trkpt><trkpt lat="39.9286127" lon="9.08837"><ele>492.40000000000003</ele><time>2026-05-01T09:08:18.358Z</time></trkpt><trkpt lat="39.9285647" lon="9.0884793"><ele>492.80000000000007</ele><time>2026-05-01T09:08:19.354Z</time></trkpt><trkpt lat="39.9285103" lon="9.0885912"><ele>493.2</ele><time>2026-05-01T09:08:20.353Z</time></trkpt><trkpt lat="39.928455" lon="9.0887115"><ele>493.6</ele><time>2026-05-01T09:08:21.354Z</time></trkpt><trkpt lat="39.9284003" lon="9.0888335"><ele>494.0</ele><time>2026-05-01T09:08:22.351Z</time></trkpt><trkpt lat="39.9283413" lon="9.0889462"><ele>494.0</ele><time>2026-05-01T09:08:23.36Z</time></trkpt><trkpt lat="39.9282733" lon="9.0890445"><ele>494.0</ele><time>2026-05-01T09:08:24.353Z</time></trkpt><trkpt lat="39.9281902" lon="9.0891268"><ele>494.0</ele><time>2026-05-01T09:08:25.353Z</time></trkpt><trkpt lat="39.92809" lon="9.089179"><ele>494.0</ele><time>2026-05-01T09:08:26.353Z</time></trkpt><trkpt lat="39.9279752" lon="9.0892112"><ele>494.0</ele><time>2026-05-01T09:08:27.353Z</time></trkpt><trkpt lat="39.9278488" lon="9.0892098"><ele>495.75</ele><time>2026-05-01T09:08:28.352Z</time></trkpt><trkpt lat="39.9277197" lon="9.0891863"><ele>497.5</ele><time>2026-05-01T09:08:29.353Z</time></trkpt><trkpt lat="39.9275875" lon="9.0891393"><ele>499.25</ele><time>2026-05-01T09:08:30.352Z</time></trkpt><trkpt lat="39.9274647" lon="9.0890765"><ele>501.0</ele><time>2026-05-01T09:08:31.355Z</time></trkpt><trkpt lat="39.927343" lon="9.0890148"><ele>501.0</ele><time>2026-05-01T09:08:32.357Z</time></trkpt><trkpt lat="39.927219" lon="9.0889798"><ele>501.0</ele><time>2026-05-01T09:08:33.353Z</time></trkpt><trkpt lat="39.9271007" lon="9.0889857"><ele>501.0</ele><time>2026-05-01T09:08:34.353Z</time></trkpt><trkpt lat="39.9269735" lon="9.0890098"><ele>501.0</ele><time>2026-05-01T09:08:35.352Z</time></trkpt><trkpt lat="39.92685" lon="9.0890773"><ele>502.25</ele><time>2026-05-01T09:08:36.352Z</time></trkpt><trkpt lat="39.9267382" lon="9.0891883"><ele>503.5</ele><time>2026-05-01T09:08:37.354Z</time></trkpt><trkpt lat="39.9266427" lon="9.0893082"><ele>504.75</ele><time>2026-05-01T09:08:38.353Z</time></trkpt><trkpt lat="39.926561" lon="9.0894148"><ele>506.0</ele><time>2026-05-01T09:08:39.355Z</time></trkpt><trkpt lat="39.9264788" lon="9.0894752"><ele>506.20000000000005</ele><time>2026-05-01T09:08:40.354Z</time></trkpt><trkpt lat="39.9263857" lon="9.0894918"><ele>506.40000000000003</ele><time>2026-05-01T09:08:41.354Z</time></trkpt><trkpt lat="39.9262753" lon="9.0894723"><ele>506.6</ele><time>2026-05-01T09:08:42.357Z</time></trkpt><trkpt lat="39.926157" lon="9.0894312"><ele>506.8</ele><time>2026-05-01T09:08:43.352Z</time></trkpt><trkpt lat="39.9260438" lon="9.0893772"><ele>507.0</ele><time>2026-05-01T09:08:44.352Z</time></trkpt><trkpt lat="39.9259233" lon="9.0893052"><ele>508.5</ele><time>2026-05-01T09:08:45.351Z</time></trkpt><trkpt lat="39.9258113" lon="9.0892148"><ele>510.0</ele><time>2026-05-01T09:08:46.352Z</time></trkpt><trkpt lat="39.925708" lon="9.089112"><ele>511.5</ele><time>2026-05-01T09:08:47.354Z</time></trkpt><trkpt lat="39.9256155" lon="9.0890148"><ele>513.0</ele><time>2026-05-01T09:08:48.353Z</time></trkpt><trkpt lat="39.9255317" lon="9.0889045"><ele>513.8</ele><time>2026-05-01T09:08:49.356Z</time></trkpt><trkpt lat="39.9254472" lon="9.0888087"><ele>514.5999999999999</ele><time>2026-05-01T09:08:50.352Z</time></trkpt><trkpt lat="39.925375" lon="9.0887325"><ele>515.4000000000001</ele><time>2026-05-01T09:08:51.352Z</time></trkpt><trkpt lat="39.9253032" lon="9.088735"><ele>516.2</ele><time>2026-05-01T09:08:52.351Z</time></trkpt><trkpt lat="39.925238" lon="9.0887905"><ele>517.0</ele><time>2026-05-01T09:08:53.352Z</time></trkpt><trkpt lat="39.925172" lon="9.0888885"><ele>517.0</ele><time>2026-05-01T09:08:54.351Z</time></trkpt><trkpt lat="39.9250967" lon="9.0889957"><ele>517.0</ele><time>2026-05-01T09:08:55.355Z</time></trkpt><trkpt lat="39.9250083" lon="9.0890885"><ele>517.0</ele><time>2026-05-01T09:08:56.352Z</time></trkpt><trkpt lat="39.9249005" lon="9.0891478"><ele>517.0</ele><time>2026-05-01T09:08:57.352Z</time></trkpt><trkpt lat="39.9247802" lon="9.0891848"><ele>516.75</ele><time>2026-05-01T09:08:58.354Z</time></trkpt><trkpt lat="39.9246497" lon="9.0891905"><ele>516.5</ele><time>2026-05-01T09:08:59.355Z</time></trkpt><trkpt lat="39.9245157" lon="9.0891943"><ele>516.25</ele><time>2026-05-01T09:09:00.359Z</time></trkpt><trkpt lat="39.9243762" lon="9.0891947"><ele>516.0</ele><time>2026-05-01T09:09:01.353Z</time></trkpt><trkpt lat="39.9242292" lon="9.0891892"><ele>516.0</ele><time>2026-05-01T09:09:02.351Z</time></trkpt><trkpt lat="39.9240822" lon="9.0891782"><ele>516.0</ele><time>2026-05-01T09:09:03.351Z</time></trkpt><trkpt lat="39.9239512" lon="9.089171"><ele>516.0</ele><time>2026-05-01T09:09:04.351Z</time></trkpt><trkpt lat="39.9238082" lon="9.0891727"><ele>516.0</ele><time>2026-05-01T09:09:05.352Z</time></trkpt><trkpt lat="39.9236712" lon="9.089192"><ele>516.0</ele><time>2026-05-01T09:09:06.353Z</time></trkpt><trkpt lat="39.9235423" lon="9.0892542"><ele>516.0</ele><time>2026-05-01T09:09:07.353Z</time></trkpt><trkpt lat="39.923423" lon="9.0893368"><ele>516.0</ele><time>2026-05-01T09:09:08.352Z</time></trkpt><trkpt lat="39.9233013" lon="9.0894283"><ele>516.0</ele><time>2026-05-01T09:09:09.353Z</time></trkpt><trkpt lat="39.923178" lon="9.0895383"><ele>516.5</ele><time>2026-05-01T09:09:10.357Z</time></trkpt><trkpt lat="39.9230635" lon="9.0896483"><ele>517.0</ele><time>2026-05-01T09:09:11.351Z</time></trkpt><trkpt lat="39.9229457" lon="9.0897458"><ele>517.5</ele><time>2026-05-01T09:09:12.353Z</time></trkpt><trkpt lat="39.9228147" lon="9.0898452"><ele>518.0</ele><time>2026-05-01T09:09:13.353Z</time></trkpt><trkpt lat="39.9226818" lon="9.0899403"><ele>520.25</ele><time>2026-05-01T09:09:14.355Z</time></trkpt><trkpt lat="39.9225587" lon="9.0900342"><ele>522.5</ele><time>2026-05-01T09:09:15.353Z</time></trkpt><trkpt lat="39.922444" lon="9.0901238"><ele>524.75</ele><time>2026-05-01T09:09:16.353Z</time></trkpt><trkpt lat="39.9223238" lon="9.0901632"><ele>527.0</ele><time>2026-05-01T09:09:17.352Z</time></trkpt><trkpt lat="39.9222057" lon="9.0901815"><ele>527.0</ele><time>2026-05-01T09:09:18.352Z</time></trkpt><trkpt lat="39.922109" lon="9.0902098"><ele>527.0</ele><time>2026-05-01T09:09:19.351Z</time></trkpt><trkpt lat="39.9220237" lon="9.0903002"><ele>527.0</ele><time>2026-05-01T09:09:20.353Z</time></trkpt><trkpt lat="39.921951" lon="9.0904148"><ele>527.0</ele><time>2026-05-01T09:09:21.355Z</time></trkpt><trkpt lat="39.921899" lon="9.0905332"><ele>527.0</ele><time>2026-05-01T09:09:22.363Z</time></trkpt><trkpt lat="39.9218812" lon="9.0906748"><ele>530.5</ele><time>2026-05-01T09:09:23.353Z</time></trkpt><trkpt lat="39.9218702" lon="9.0908212"><ele>534.0</ele><time>2026-05-01T09:09:24.359Z</time></trkpt><trkpt lat="39.9218447" lon="9.090971"><ele>537.5</ele><time>2026-05-01T09:09:25.356Z</time></trkpt><trkpt lat="39.9218135" lon="9.0911197"><ele>541.0</ele><time>2026-05-01T09:09:26.351Z</time></trkpt><trkpt lat="39.9217803" lon="9.0912602"><ele>541.0</ele><time>2026-05-01T09:09:27.35Z</time></trkpt><trkpt lat="39.9217395" lon="9.0913848"><ele>541.0</ele><time>2026-05-01T09:09:28.353Z</time></trkpt><trkpt lat="39.9216902" lon="9.0915003"><ele>541.0</ele><time>2026-05-01T09:09:29.352Z</time></trkpt><trkpt lat="39.9216207" lon="9.0916002"><ele>541.0</ele><time>2026-05-01T09:09:30.353Z</time></trkpt><trkpt lat="39.9215293" lon="9.0916857"><ele>541.0</ele><time>2026-05-01T09:09:31.359Z</time></trkpt><trkpt lat="39.9214193" lon="9.0917483"><ele>539.0</ele><time>2026-05-01T09:09:32.352Z</time></trkpt><trkpt lat="39.9212975" lon="9.0917837"><ele>537.0</ele><time>2026-05-01T09:09:33.352Z</time></trkpt><trkpt lat="39.9211678" lon="9.0917862"><ele>535.0</ele><time>2026-05-01T09:09:34.352Z</time></trkpt><trkpt lat="39.9210392" lon="9.0917448"><ele>533.0</ele><time>2026-05-01T09:09:35.357Z</time></trkpt><trkpt lat="39.9209112" lon="9.0916712"><ele>535.5</ele><time>2026-05-01T09:09:36.363Z</time></trkpt><trkpt lat="39.9207817" lon="9.0915767"><ele>538.0</ele><time>2026-05-01T09:09:37.353Z</time></trkpt><trkpt lat="39.9206623" lon="9.0914777"><ele>540.5</ele><time>2026-05-01T09:09:38.359Z</time></trkpt><trkpt lat="39.9205612" lon="9.0913857"><ele>543.0</ele><time>2026-05-01T09:09:39.353Z</time></trkpt><trkpt lat="39.9204682" lon="9.0913035"><ele>543.0</ele><time>2026-05-01T09:09:40.351Z</time></trkpt><trkpt lat="39.9203803" lon="9.0912517"><ele>543.0</ele><time>2026-05-01T09:09:41.352Z</time></trkpt><trkpt lat="39.9202882" lon="9.091245"><ele>543.0</ele><time>2026-05-01T09:09:42.351Z</time></trkpt><trkpt lat="39.920204" lon="9.0912642"><ele>543.0</ele><time>2026-05-01T09:09:43.356Z</time></trkpt><trkpt lat="39.920105" lon="9.0913345"><ele>543.0</ele><time>2026-05-01T09:09:44.351Z</time></trkpt><trkpt lat="39.9200032" lon="9.0914288"><ele>542.0</ele><time>2026-05-01T09:09:45.352Z</time></trkpt><trkpt lat="39.9198923" lon="9.0915278"><ele>541.0</ele><time>2026-05-01T09:09:46.353Z</time></trkpt><trkpt lat="39.9197787" lon="9.091623"><ele>540.0</ele><time>2026-05-01T09:09:47.355Z</time></trkpt><trkpt lat="39.9196607" lon="9.0917168"><ele>539.0</ele><time>2026-05-01T09:09:48.353Z</time></trkpt><trkpt lat="39.9195442" lon="9.091811"><ele>539.0</ele><time>2026-05-01T09:09:49.355Z</time></trkpt><trkpt lat="39.9194285" lon="9.0919022"><ele>539.0</ele><time>2026-05-01T09:09:50.351Z</time></trkpt><trkpt lat="39.9193125" lon="9.0919897"><ele>539.0</ele><time>2026-05-01T09:09:51.351Z</time></trkpt><trkpt lat="39.9191937" lon="9.0920707"><ele>539.0</ele><time>2026-05-01T09:09:52.352Z</time></trkpt><trkpt lat="39.9190658" lon="9.0921328"><ele>543.25</ele><time>2026-05-01T09:09:53.352Z</time></trkpt><trkpt lat="39.9189322" lon="9.0921828"><ele>547.5</ele><time>2026-05-01T09:09:54.353Z</time></trkpt><trkpt lat="39.9187832" lon="9.0922157"><ele>551.75</ele><time>2026-05-01T09:09:55.358Z</time></trkpt><trkpt lat="39.9186327" lon="9.0922645"><ele>556.0</ele><time>2026-05-01T09:09:56.354Z</time></trkpt><trkpt lat="39.9184865" lon="9.0923113"><ele>553.0</ele><time>2026-05-01T09:09:57.35Z</time></trkpt><trkpt lat="39.9183315" lon="9.0923633"><ele>550.0</ele><time>2026-05-01T09:09:58.351Z</time></trkpt><trkpt lat="39.9181787" lon="9.092417"><ele>547.0</ele><time>2026-05-01T09:09:59.351Z</time></trkpt><trkpt lat="39.9180237" lon="9.0924757"><ele>547.0</ele><time>2026-05-01T09:10:00.35Z</time></trkpt><trkpt lat="39.9178612" lon="9.0925437"><ele>547.0</ele><time>2026-05-01T09:10:01.356Z</time></trkpt><trkpt lat="39.9177057" lon="9.0926143"><ele>547.0</ele><time>2026-05-01T09:10:02.351Z</time></trkpt><trkpt lat="39.9175528" lon="9.0926908"><ele>551.25</ele><time>2026-05-01T09:10:03.358Z</time></trkpt><trkpt lat="39.9174105" lon="9.0927605"><ele>555.5</ele><time>2026-05-01T09:10:04.354Z</time></trkpt><trkpt lat="39.9172773" lon="9.092821"><ele>559.75</ele><time>2026-05-01T09:10:05.354Z</time></trkpt><trkpt lat="39.9171603" lon="9.0928577"><ele>564.0</ele><time>2026-05-01T09:10:06.352Z</time></trkpt><trkpt lat="39.9170637" lon="9.092894"><ele>564.0</ele><time>2026-05-01T09:10:07.354Z</time></trkpt><trkpt lat="39.9169767" lon="9.0929397"><ele>564.0</ele><time>2026-05-01T09:10:08.351Z</time></trkpt><trkpt lat="39.9169033" lon="9.093047"><ele>564.0</ele><time>2026-05-01T09:10:09.352Z</time></trkpt><trkpt lat="39.9168585" lon="9.0931722"><ele>564.0</ele><time>2026-05-01T09:10:10.352Z</time></trkpt><trkpt lat="39.9168012" lon="9.0933003"><ele>564.0</ele><time>2026-05-01T09:10:11.352Z</time></trkpt><trkpt lat="39.9167217" lon="9.0934023"><ele>562.0</ele><time>2026-05-01T09:10:12.351Z</time></trkpt><trkpt lat="39.9166307" lon="9.093489"><ele>560.0</ele><time>2026-05-01T09:10:13.351Z</time></trkpt><trkpt lat="39.9165258" lon="9.0935655"><ele>558.0</ele><time>2026-05-01T09:10:14.351Z</time></trkpt><trkpt lat="39.916411" lon="9.093635"><ele>556.0</ele><time>2026-05-01T09:10:15.352Z</time></trkpt><trkpt lat="39.9162878" lon="9.0936995"><ele>556.0</ele><time>2026-05-01T09:10:16.352Z</time></trkpt><trkpt lat="39.9161607" lon="9.0937557"><ele>556.0</ele><time>2026-05-01T09:10:17.354Z</time></trkpt><trkpt lat="39.9160327" lon="9.0938027"><ele>556.0</ele><time>2026-05-01T09:10:18.355Z</time></trkpt><trkpt lat="39.915898" lon="9.0938312"><ele>556.0</ele><time>2026-05-01T09:10:19.352Z</time></trkpt><trkpt lat="39.9157607" lon="9.093834"><ele>559.1666666666667</ele><time>2026-05-01T09:10:20.359Z</time></trkpt><trkpt lat="39.9156412" lon="9.0938235"><ele>562.3333333333334</ele><time>2026-05-01T09:10:21.353Z</time></trkpt><trkpt lat="39.9155425" lon="9.0938147"><ele>565.5</ele><time>2026-05-01T09:10:22.352Z</time></trkpt><trkpt lat="39.915455" lon="9.0938237"><ele>568.6666666666666</ele><time>2026-05-01T09:10:23.353Z</time></trkpt><trkpt lat="39.915398" lon="9.093867"><ele>571.8333333333333</ele><time>2026-05-01T09:10:24.351Z</time></trkpt><trkpt lat="39.9153495" lon="9.093938"><ele>575.0</ele><time>2026-05-01T09:10:25.353Z</time></trkpt><trkpt lat="39.9153105" lon="9.0940213"><ele>577.2</ele><time>2026-05-01T09:10:26.359Z</time></trkpt><trkpt lat="39.9152683" lon="9.0941272"><ele>579.4</ele><time>2026-05-01T09:10:27.352Z</time></trkpt><trkpt lat="39.9152257" lon="9.0942505"><ele>581.6</ele><time>2026-05-01T09:10:28.352Z</time></trkpt><trkpt lat="39.915168" lon="9.0943792"><ele>583.8</ele><time>2026-05-01T09:10:29.351Z</time></trkpt><trkpt lat="39.9150927" lon="9.0945102"><ele>586.0</ele><time>2026-05-01T09:10:30.352Z</time></trkpt><trkpt lat="39.9150082" lon="9.0946405"><ele>586.0</ele><time>2026-05-01T09:10:31.357Z</time></trkpt><trkpt lat="39.9149187" lon="9.0947678"><ele>586.0</ele><time>2026-05-01T09:10:32.352Z</time></trkpt><trkpt lat="39.9148195" lon="9.0948817"><ele>586.0</ele><time>2026-05-01T09:10:33.351Z</time></trkpt><trkpt lat="39.9147168" lon="9.0949792"><ele>586.0</ele><time>2026-05-01T09:10:34.351Z</time></trkpt><trkpt lat="39.9145912" lon="9.0950462"><ele>587.0</ele><time>2026-05-01T09:10:35.353Z</time></trkpt><trkpt lat="39.914454" lon="9.0950882"><ele>588.0</ele><time>2026-05-01T09:10:36.353Z</time></trkpt><trkpt lat="39.9143133" lon="9.0951282"><ele>589.0</ele><time>2026-05-01T09:10:37.354Z</time></trkpt><trkpt lat="39.9141773" lon="9.0951593"><ele>590.0</ele><time>2026-05-01T09:10:38.359Z</time></trkpt><trkpt lat="39.9140427" lon="9.0952153"><ele>590.0</ele><time>2026-05-01T09:10:39.351Z</time></trkpt><trkpt lat="39.9139083" lon="9.0953072"><ele>590.0</ele><time>2026-05-01T09:10:40.351Z</time></trkpt><trkpt lat="39.9137785" lon="9.0954002"><ele>590.0</ele><time>2026-05-01T09:10:41.35Z</time></trkpt><trkpt lat="39.9136587" lon="9.0954895"><ele>590.0</ele><time>2026-05-01T09:10:42.353Z</time></trkpt><trkpt lat="39.9135397" lon="9.0955458"><ele>590.0</ele><time>2026-05-01T09:10:43.351Z</time></trkpt><trkpt lat="39.913408" lon="9.095598"><ele>590.0</ele><time>2026-05-01T09:10:44.352Z</time></trkpt><trkpt lat="39.9132667" lon="9.0956462"><ele>590.0</ele><time>2026-05-01T09:10:45.352Z</time></trkpt><trkpt lat="39.9131285" lon="9.0956923"><ele>590.0</ele><time>2026-05-01T09:10:46.352Z</time></trkpt><trkpt lat="39.9129905" lon="9.0957268"><ele>594.75</ele><time>2026-05-01T09:10:47.353Z</time></trkpt><trkpt lat="39.9128492" lon="9.0957485"><ele>599.5</ele><time>2026-05-01T09:10:48.351Z</time></trkpt><trkpt lat="39.9127058" lon="9.0957433"><ele>604.25</ele><time>2026-05-01T09:10:49.35Z</time></trkpt><trkpt lat="39.9125513" lon="9.095715"><ele>609.0</ele><time>2026-05-01T09:10:50.352Z</time></trkpt><trkpt lat="39.9123987" lon="9.0956847"><ele>612.5</ele><time>2026-05-01T09:10:51.352Z</time></trkpt><trkpt lat="39.9122538" lon="9.0956657"><ele>616.0</ele><time>2026-05-01T09:10:52.353Z</time></trkpt><trkpt lat="39.9121105" lon="9.0956532"><ele>619.5</ele><time>2026-05-01T09:10:53.35Z</time></trkpt><trkpt lat="39.9119662" lon="9.0956773"><ele>623.0</ele><time>2026-05-01T09:10:54.355Z</time></trkpt><trkpt lat="39.911813" lon="9.0957"><ele>625.0</ele><time>2026-05-01T09:10:55.351Z</time></trkpt><trkpt lat="39.9116683" lon="9.0957132"><ele>627.0</ele><time>2026-05-01T09:10:56.352Z</time></trkpt><trkpt lat="39.9115218" lon="9.0957235"><ele>629.0</ele><time>2026-05-01T09:10:57.353Z</time></trkpt><trkpt lat="39.9113813" lon="9.0957163"><ele>631.0</ele><time>2026-05-01T09:10:58.35Z</time></trkpt><trkpt lat="39.9112658" lon="9.0956917"><ele>631.0</ele><time>2026-05-01T09:10:59.356Z</time></trkpt><trkpt lat="39.9111682" lon="9.0956715"><ele>631.0</ele><time>2026-05-01T09:11:00.351Z</time></trkpt><trkpt lat="39.911088" lon="9.0956758"><ele>631.0</ele><time>2026-05-01T09:11:01.353Z</time></trkpt><trkpt lat="39.9110063" lon="9.0957158"><ele>631.0</ele><time>2026-05-01T09:11:02.351Z</time></trkpt><trkpt lat="39.9109528" lon="9.0958402"><ele>631.0</ele><time>2026-05-01T09:11:03.35Z</time></trkpt><trkpt lat="39.910898" lon="9.0960068"><ele>628.75</ele><time>2026-05-01T09:11:04.355Z</time></trkpt><trkpt lat="39.9108553" lon="9.0961695"><ele>626.5</ele><time>2026-05-01T09:11:05.351Z</time></trkpt><trkpt lat="39.9108032" lon="9.096334"><ele>624.25</ele><time>2026-05-01T09:11:06.349Z</time></trkpt><trkpt lat="39.9107478" lon="9.0965012"><ele>622.0</ele><time>2026-05-01T09:11:07.351Z</time></trkpt><trkpt lat="39.9106853" lon="9.096671"><ele>619.5</ele><time>2026-05-01T09:11:08.351Z</time></trkpt><trkpt lat="39.9106217" lon="9.0968433"><ele>617.0</ele><time>2026-05-01T09:11:09.359Z</time></trkpt><trkpt lat="39.9105663" lon="9.0970027"><ele>614.5</ele><time>2026-05-01T09:11:10.357Z</time></trkpt><trkpt lat="39.9105113" lon="9.0971345"><ele>612.0</ele><time>2026-05-01T09:11:11.354Z</time></trkpt><trkpt lat="39.9104382" lon="9.0972513"><ele>612.0</ele><time>2026-05-01T09:11:12.358Z</time></trkpt><trkpt lat="39.9103335" lon="9.0973438"><ele>612.0</ele><time>2026-05-01T09:11:13.354Z</time></trkpt><trkpt lat="39.9102143" lon="9.0974143"><ele>612.0</ele><time>2026-05-01T09:11:14.353Z</time></trkpt><trkpt lat="39.910089" lon="9.0974617"><ele>612.0</ele><time>2026-05-01T09:11:15.354Z</time></trkpt><trkpt lat="39.9099622" lon="9.0974762"><ele>613.25</ele><time>2026-05-01T09:11:16.352Z</time></trkpt><trkpt lat="39.909833" lon="9.0974308"><ele>614.5</ele><time>2026-05-01T09:11:17.351Z</time></trkpt><trkpt lat="39.9097138" lon="9.0973463"><ele>615.75</ele><time>2026-05-01T09:11:18.353Z</time></trkpt><trkpt lat="39.9096072" lon="9.0972358"><ele>617.0</ele><time>2026-05-01T09:11:19.351Z</time></trkpt><trkpt lat="39.9095022" lon="9.0971277"><ele>620.25</ele><time>2026-05-01T09:11:20.351Z</time></trkpt><trkpt lat="39.9094097" lon="9.0970078"><ele>623.5</ele><time>2026-05-01T09:11:21.352Z</time></trkpt><trkpt lat="39.9093338" lon="9.096887"><ele>626.75</ele><time>2026-05-01T09:11:22.35Z</time></trkpt><trkpt lat="39.9092667" lon="9.0967598"><ele>630.0</ele><time>2026-05-01T09:11:23.358Z</time></trkpt><trkpt lat="39.909193" lon="9.0966362"><ele>635.5</ele><time>2026-05-01T09:11:24.353Z</time></trkpt><trkpt lat="39.9091105" lon="9.096525"><ele>641.0</ele><time>2026-05-01T09:11:25.353Z</time></trkpt><trkpt lat="39.9090035" lon="9.0964273"><ele>646.5</ele><time>2026-05-01T09:11:26.358Z</time></trkpt><trkpt lat="39.9088937" lon="9.0963635"><ele>652.0</ele><time>2026-05-01T09:11:27.353Z</time></trkpt><trkpt lat="39.9087975" lon="9.0963288"><ele>652.0</ele><time>2026-05-01T09:11:28.352Z</time></trkpt><trkpt lat="39.9087" lon="9.0963122"><ele>652.0</ele><time>2026-05-01T09:11:29.359Z</time></trkpt><trkpt lat="39.90861" lon="9.0963415"><ele>652.0</ele><time>2026-05-01T09:11:30.352Z</time></trkpt><trkpt lat="39.908538" lon="9.0964325"><ele>652.0</ele><time>2026-05-01T09:11:31.351Z</time></trkpt><trkpt lat="39.9084847" lon="9.096548"><ele>652.0</ele><time>2026-05-01T09:11:32.352Z</time></trkpt><trkpt lat="39.9084327" lon="9.0966622"><ele>651.0</ele><time>2026-05-01T09:11:33.352Z</time></trkpt><trkpt lat="39.908389" lon="9.0967875"><ele>650.0</ele><time>2026-05-01T09:11:34.352Z</time></trkpt><trkpt lat="39.9083285" lon="9.096916"><ele>649.0</ele><time>2026-05-01T09:11:35.35Z</time></trkpt><trkpt lat="39.9082662" lon="9.0970543"><ele>648.0</ele><time>2026-05-01T09:11:36.353Z</time></trkpt><trkpt lat="39.9082005" lon="9.0971922"><ele>648.0</ele><time>2026-05-01T09:11:37.352Z</time></trkpt><trkpt lat="39.9081368" lon="9.0973387"><ele>648.0</ele><time>2026-05-01T09:11:38.35Z</time></trkpt><trkpt lat="39.908073" lon="9.0974892"><ele>648.0</ele><time>2026-05-01T09:11:39.359Z</time></trkpt><trkpt lat="39.908008" lon="9.0976402"><ele>648.0</ele><time>2026-05-01T09:11:40.352Z</time></trkpt><trkpt lat="39.9079338" lon="9.097789"><ele>646.0</ele><time>2026-05-01T09:11:41.353Z</time></trkpt><trkpt lat="39.9078577" lon="9.0979403"><ele>644.0</ele><time>2026-05-01T09:11:42.352Z</time></trkpt><trkpt lat="39.9077858" lon="9.0980833"><ele>642.0</ele><time>2026-05-01T09:11:43.35Z</time></trkpt><trkpt lat="39.9077083" lon="9.0982208"><ele>640.0</ele><time>2026-05-01T09:11:44.35Z</time></trkpt><trkpt lat="39.9076453" lon="9.0983523"><ele>638.8</ele><time>2026-05-01T09:11:45.351Z</time></trkpt><trkpt lat="39.9075918" lon="9.098481"><ele>637.6</ele><time>2026-05-01T09:11:46.352Z</time></trkpt><trkpt lat="39.9075873" lon="9.0986008"><ele>636.4</ele><time>2026-05-01T09:11:47.356Z</time></trkpt><trkpt lat="39.9076257" lon="9.098724"><ele>635.2</ele><time>2026-05-01T09:11:48.35Z</time></trkpt><trkpt lat="39.9077078" lon="9.0988385"><ele>634.0</ele><time>2026-05-01T09:11:49.35Z</time></trkpt><trkpt lat="39.9077775" lon="9.098956"><ele>633.0</ele><time>2026-05-01T09:11:50.351Z</time></trkpt><trkpt lat="39.9078203" lon="9.0990867"><ele>632.0</ele><time>2026-05-01T09:11:51.351Z</time></trkpt><trkpt lat="39.9078122" lon="9.0992212"><ele>631.0</ele><time>2026-05-01T09:11:52.349Z</time></trkpt><trkpt lat="39.9077488" lon="9.0993437"><ele>630.0</ele><time>2026-05-01T09:11:53.353Z</time></trkpt><trkpt lat="39.907668" lon="9.0994365"><ele>629.0</ele><time>2026-05-01T09:11:54.351Z</time></trkpt><trkpt lat="39.9075497" lon="9.0995193"><ele>633.5</ele><time>2026-05-01T09:11:55.357Z</time></trkpt><trkpt lat="39.907422" lon="9.099595"><ele>638.0</ele><time>2026-05-01T09:11:56.353Z</time></trkpt><trkpt lat="39.9073032" lon="9.0996892"><ele>642.5</ele><time>2026-05-01T09:11:57.352Z</time></trkpt><trkpt lat="39.9071925" lon="9.0998067"><ele>647.0</ele><time>2026-05-01T09:11:58.352Z</time></trkpt><trkpt lat="39.9071002" lon="9.0999455"><ele>647.0</ele><time>2026-05-01T09:11:59.353Z</time></trkpt><trkpt lat="39.9070148" lon="9.100086"><ele>647.0</ele><time>2026-05-01T09:12:00.351Z</time></trkpt><trkpt lat="39.906923" lon="9.1002208"><ele>647.0</ele><time>2026-05-01T09:12:01.352Z</time></trkpt><trkpt lat="39.9068153" lon="9.1003292"><ele>647.0</ele><time>2026-05-01T09:12:02.353Z</time></trkpt><trkpt lat="39.9067005" lon="9.1003997"><ele>654.25</ele><time>2026-05-01T09:12:03.352Z</time></trkpt><trkpt lat="39.9065838" lon="9.1004622"><ele>661.5</ele><time>2026-05-01T09:12:04.353Z</time></trkpt><trkpt lat="39.906453" lon="9.1005295"><ele>668.75</ele><time>2026-05-01T09:12:05.35Z</time></trkpt><trkpt lat="39.9063295" lon="9.1005993"><ele>676.0</ele><time>2026-05-01T09:12:06.351Z</time></trkpt><trkpt lat="39.906213" lon="9.1006705"><ele>676.0</ele><time>2026-05-01T09:12:07.352Z</time></trkpt><trkpt lat="39.9061107" lon="9.1007382"><ele>676.0</ele><time>2026-05-01T09:12:08.352Z</time></trkpt><trkpt lat="39.9060315" lon="9.1008203"><ele>676.0</ele><time>2026-05-01T09:12:09.351Z</time></trkpt><trkpt lat="39.9060013" lon="9.1009223"><ele>676.0</ele><time>2026-05-01T09:12:10.356Z</time></trkpt><trkpt lat="39.906016" lon="9.1010305"><ele>676.0</ele><time>2026-05-01T09:12:11.35Z</time></trkpt><trkpt lat="39.906066" lon="9.1011387"><ele>673.5</ele><time>2026-05-01T09:12:12.351Z</time></trkpt><trkpt lat="39.9061517" lon="9.1012223"><ele>671.0</ele><time>2026-05-01T09:12:13.351Z</time></trkpt><trkpt lat="39.9062773" lon="9.1012618"><ele>668.5</ele><time>2026-05-01T09:12:14.351Z</time></trkpt><trkpt lat="39.906417" lon="9.1012485"><ele>666.0</ele><time>2026-05-01T09:12:15.359Z</time></trkpt><trkpt lat="39.9065377" lon="9.1012468"><ele>666.0</ele><time>2026-05-01T09:12:16.353Z</time></trkpt><trkpt lat="39.906635" lon="9.1012858"><ele>666.0</ele><time>2026-05-01T09:12:17.352Z</time></trkpt><trkpt lat="39.9067027" lon="9.1013607"><ele>666.0</ele><time>2026-05-01T09:12:18.353Z</time></trkpt><trkpt lat="39.9067135" lon="9.1014865"><ele>666.0</ele><time>2026-05-01T09:12:19.352Z</time></trkpt><trkpt lat="39.9066723" lon="9.1016115"><ele>666.0</ele><time>2026-05-01T09:12:20.352Z</time></trkpt><trkpt lat="39.9066015" lon="9.101726"><ele>667.5</ele><time>2026-05-01T09:12:21.359Z</time></trkpt><trkpt lat="39.9065133" lon="9.101845"><ele>669.0</ele><time>2026-05-01T09:12:22.356Z</time></trkpt><trkpt lat="39.9064202" lon="9.101961"><ele>670.5</ele><time>2026-05-01T09:12:23.357Z</time></trkpt><trkpt lat="39.9063268" lon="9.1020857"><ele>672.0</ele><time>2026-05-01T09:12:24.351Z</time></trkpt><trkpt lat="39.9062393" lon="9.1022232"><ele>672.0</ele><time>2026-05-01T09:12:25.351Z</time></trkpt><trkpt lat="39.9061552" lon="9.1023895"><ele>672.0</ele><time>2026-05-01T09:12:26.352Z</time></trkpt><trkpt lat="39.9060725" lon="9.1025555"><ele>672.0</ele><time>2026-05-01T09:12:27.353Z</time></trkpt><trkpt lat="39.9060012" lon="9.1027168"><ele>672.0</ele><time>2026-05-01T09:12:28.359Z</time></trkpt><trkpt lat="39.9059388" lon="9.1028842"><ele>679.6666666666666</ele><time>2026-05-01T09:12:29.351Z</time></trkpt><trkpt lat="39.9058745" lon="9.103067"><ele>687.3333333333333</ele><time>2026-05-01T09:12:30.354Z</time></trkpt><trkpt lat="39.9058242" lon="9.103259"><ele>695.0</ele><time>2026-05-01T09:12:31.353Z</time></trkpt><trkpt lat="39.9057742" lon="9.1034505"><ele>695.0</ele><time>2026-05-01T09:12:32.353Z</time></trkpt><trkpt lat="39.9057287" lon="9.1036553"><ele>695.0</ele><time>2026-05-01T09:12:33.354Z</time></trkpt><trkpt lat="39.905685" lon="9.1038473"><ele>695.0</ele><time>2026-05-01T09:12:34.351Z</time></trkpt><trkpt lat="39.9056335" lon="9.104033"><ele>693.75</ele><time>2026-05-01T09:12:35.355Z</time></trkpt><trkpt lat="39.9055915" lon="9.1042078"><ele>692.5</ele><time>2026-05-01T09:12:36.353Z</time></trkpt><trkpt lat="39.9055488" lon="9.104389"><ele>691.25</ele><time>2026-05-01T09:12:37.352Z</time></trkpt><trkpt lat="39.9055003" lon="9.1045462"><ele>690.0</ele><time>2026-05-01T09:12:38.353Z</time></trkpt><trkpt lat="39.9054455" lon="9.104703"><ele>690.0</ele><time>2026-05-01T09:12:39.35Z</time></trkpt><trkpt lat="39.9053867" lon="9.1048452"><ele>690.0</ele><time>2026-05-01T09:12:40.352Z</time></trkpt><trkpt lat="39.9052978" lon="9.1049393"><ele>690.0</ele><time>2026-05-01T09:12:41.357Z</time></trkpt><trkpt lat="39.9051797" lon="9.105008"><ele>690.0</ele><time>2026-05-01T09:12:42.353Z</time></trkpt><trkpt lat="39.9050458" lon="9.105053"><ele>694.4</ele><time>2026-05-01T09:12:43.352Z</time></trkpt><trkpt lat="39.904942" lon="9.1050827"><ele>698.8</ele><time>2026-05-01T09:12:44.351Z</time></trkpt><trkpt lat="39.9048543" lon="9.1051047"><ele>703.2</ele><time>2026-05-01T09:12:45.354Z</time></trkpt><trkpt lat="39.904749" lon="9.1050085"><ele>707.6</ele><time>2026-05-01T09:12:47.353Z</time></trkpt><trkpt lat="39.9047638" lon="9.1049128"><ele>712.0</ele><time>2026-05-01T09:12:48.353Z</time></trkpt><trkpt lat="39.9048448" lon="9.1048168"><ele>715.5</ele><time>2026-05-01T09:12:49.353Z</time></trkpt><trkpt lat="39.9049423" lon="9.1047468"><ele>719.0</ele><time>2026-05-01T09:12:50.352Z</time></trkpt><trkpt lat="39.9050427" lon="9.1046775"><ele>722.5</ele><time>2026-05-01T09:12:51.351Z</time></trkpt><trkpt lat="39.9051365" lon="9.104596"><ele>726.0</ele><time>2026-05-01T09:12:52.356Z</time></trkpt><trkpt lat="39.9052093" lon="9.1044713"><ele>718.25</ele><time>2026-05-01T09:12:53.35Z</time></trkpt><trkpt lat="39.9052478" lon="9.104332"><ele>710.5</ele><time>2026-05-01T09:12:54.35Z</time></trkpt><trkpt lat="39.9052508" lon="9.1041692"><ele>702.75</ele><time>2026-05-01T09:12:55.351Z</time></trkpt><trkpt lat="39.9052478" lon="9.1039943"><ele>695.0</ele><time>2026-05-01T09:12:56.352Z</time></trkpt><trkpt lat="39.9052442" lon="9.1038087"><ele>695.0</ele><time>2026-05-01T09:12:57.355Z</time></trkpt><trkpt lat="39.905251" lon="9.1036248"><ele>695.0</ele><time>2026-05-01T09:12:58.35Z</time></trkpt><trkpt lat="39.9052593" lon="9.1034562"><ele>695.0</ele><time>2026-05-01T09:12:59.352Z</time></trkpt><trkpt lat="39.905264" lon="9.1033025"><ele>695.0</ele><time>2026-05-01T09:13:00.359Z</time></trkpt><trkpt lat="39.905263" lon="9.103168"><ele>695.3333333333333</ele><time>2026-05-01T09:13:01.353Z</time></trkpt><trkpt lat="39.9052493" lon="9.1030388"><ele>695.6666666666666</ele><time>2026-05-01T09:13:02.353Z</time></trkpt><trkpt lat="39.9052042" lon="9.102959"><ele>696.0</ele><time>2026-05-01T09:13:03.353Z</time></trkpt><trkpt lat="39.9051332" lon="9.1029477"><ele>696.3333333333334</ele><time>2026-05-01T09:13:04.351Z</time></trkpt><trkpt lat="39.9050673" lon="9.1030183"><ele>696.6666666666667</ele><time>2026-05-01T09:13:05.351Z</time></trkpt><trkpt lat="39.9050248" lon="9.103156"><ele>697.0</ele><time>2026-05-01T09:13:06.352Z</time></trkpt><trkpt lat="39.905011" lon="9.1033023"><ele>705.5</ele><time>2026-05-01T09:13:07.351Z</time></trkpt><trkpt lat="39.9050205" lon="9.103452"><ele>714.0</ele><time>2026-05-01T09:13:08.35Z</time></trkpt><trkpt lat="39.9050228" lon="9.1036005"><ele>722.5</ele><time>2026-05-01T09:13:09.35Z</time></trkpt><trkpt lat="39.9050323" lon="9.1037638"><ele>731.0</ele><time>2026-05-01T09:13:10.352Z</time></trkpt><trkpt lat="39.9050293" lon="9.1039237"><ele>729.75</ele><time>2026-05-01T09:13:11.351Z</time></trkpt><trkpt lat="39.9050125" lon="9.1040842"><ele>728.5</ele><time>2026-05-01T09:13:12.35Z</time></trkpt><trkpt lat="39.9049743" lon="9.104248"><ele>727.25</ele><time>2026-05-01T09:13:13.351Z</time></trkpt><trkpt lat="39.9049023" lon="9.104391"><ele>726.0</ele><time>2026-05-01T09:13:14.352Z</time></trkpt><trkpt lat="39.9048073" lon="9.1045083"><ele>726.0</ele><time>2026-05-01T09:13:15.35Z</time></trkpt><trkpt lat="39.9046855" lon="9.104619"><ele>726.0</ele><time>2026-05-01T09:13:16.349Z</time></trkpt><trkpt lat="39.9045555" lon="9.104736"><ele>726.0</ele><time>2026-05-01T09:13:17.351Z</time></trkpt><trkpt lat="39.9044185" lon="9.104853"><ele>729.25</ele><time>2026-05-01T09:13:18.353Z</time></trkpt><trkpt lat="39.9042908" lon="9.1049623"><ele>732.5</ele><time>2026-05-01T09:13:19.351Z</time></trkpt><trkpt lat="39.9041748" lon="9.1050752"><ele>735.75</ele><time>2026-05-01T09:13:20.35Z</time></trkpt><trkpt lat="39.9040565" lon="9.1051652"><ele>739.0</ele><time>2026-05-01T09:13:21.357Z</time></trkpt><trkpt lat="39.9039328" lon="9.1052237"><ele>739.0</ele><time>2026-05-01T09:13:22.351Z</time></trkpt><trkpt lat="39.9038077" lon="9.1052715"><ele>739.0</ele><time>2026-05-01T09:13:23.352Z</time></trkpt><trkpt lat="39.903675" lon="9.1053002"><ele>739.0</ele><time>2026-05-01T09:13:24.351Z</time></trkpt><trkpt lat="39.9035332" lon="9.1053242"><ele>739.0</ele><time>2026-05-01T09:13:25.351Z</time></trkpt><trkpt lat="39.9033793" lon="9.1053405"><ele>743.75</ele><time>2026-05-01T09:13:26.356Z</time></trkpt><trkpt lat="39.9032338" lon="9.1053645"><ele>748.5</ele><time>2026-05-01T09:13:27.352Z</time></trkpt><trkpt lat="39.9030972" lon="9.1054072"><ele>753.25</ele><time>2026-05-01T09:13:28.35Z</time></trkpt><trkpt lat="39.9029545" lon="9.1054497"><ele>758.0</ele><time>2026-05-01T09:13:29.357Z</time></trkpt><trkpt lat="39.9028147" lon="9.1054877"><ele>758.0</ele><time>2026-05-01T09:13:30.349Z</time></trkpt><trkpt lat="39.902671" lon="9.1055272"><ele>758.0</ele><time>2026-05-01T09:13:31.35Z</time></trkpt><trkpt lat="39.902529" lon="9.1055718"><ele>758.0</ele><time>2026-05-01T09:13:32.351Z</time></trkpt><trkpt lat="39.9023805" lon="9.1056102"><ele>758.0</ele><time>2026-05-01T09:13:33.351Z</time></trkpt><trkpt lat="39.9022363" lon="9.105647"><ele>757.5</ele><time>2026-05-01T09:13:34.358Z</time></trkpt><trkpt lat="39.9020988" lon="9.1056795"><ele>757.0</ele><time>2026-05-01T09:13:35.353Z</time></trkpt><trkpt lat="39.9019832" lon="9.1057108"><ele>756.5</ele><time>2026-05-01T09:13:36.352Z</time></trkpt><trkpt lat="39.9018688" lon="9.1057382"><ele>756.0</ele><time>2026-05-01T09:13:37.352Z</time></trkpt><trkpt lat="39.9017597" lon="9.1057612"><ele>759.25</ele><time>2026-05-01T09:13:38.353Z</time></trkpt><trkpt lat="39.901645" lon="9.1057677"><ele>762.5</ele><time>2026-05-01T09:13:39.351Z</time></trkpt><trkpt lat="39.9015238" lon="9.10577"><ele>765.75</ele><time>2026-05-01T09:13:40.35Z</time></trkpt><trkpt lat="39.9013997" lon="9.105763"><ele>769.0</ele><time>2026-05-01T09:13:41.353Z</time></trkpt><trkpt lat="39.9012723" lon="9.105753"><ele>770.5</ele><time>2026-05-01T09:13:42.349Z</time></trkpt><trkpt lat="39.90114" lon="9.1057403"><ele>772.0</ele><time>2026-05-01T09:13:43.351Z</time></trkpt><trkpt lat="39.9010153" lon="9.105729"><ele>773.5</ele><time>2026-05-01T09:13:44.357Z</time></trkpt><trkpt lat="39.9009057" lon="9.1057337"><ele>775.0</ele><time>2026-05-01T09:13:45.353Z</time></trkpt><trkpt lat="39.9008068" lon="9.1057573"><ele>775.0</ele><time>2026-05-01T09:13:46.351Z</time></trkpt><trkpt lat="39.9007238" lon="9.1058093"><ele>775.0</ele><time>2026-05-01T09:13:47.349Z</time></trkpt><trkpt lat="39.900659" lon="9.1058862"><ele>775.0</ele><time>2026-05-01T09:13:48.349Z</time></trkpt><trkpt lat="39.9006138" lon="9.1059832"><ele>775.0</ele><time>2026-05-01T09:13:49.35Z</time></trkpt><trkpt lat="39.900581" lon="9.1061068"><ele>775.0</ele><time>2026-05-01T09:13:50.352Z</time></trkpt><trkpt lat="39.9005507" lon="9.1062433"><ele>775.0</ele><time>2026-05-01T09:13:51.351Z</time></trkpt><trkpt lat="39.9005265" lon="9.1063915"><ele>775.0</ele><time>2026-05-01T09:13:52.357Z</time></trkpt><trkpt lat="39.9005167" lon="9.1065392"><ele>775.0</ele><time>2026-05-01T09:13:53.352Z</time></trkpt><trkpt lat="39.900522" lon="9.106688"><ele>775.0</ele><time>2026-05-01T09:13:54.352Z</time></trkpt><trkpt lat="39.9005282" lon="9.1068375"><ele>776.0</ele><time>2026-05-01T09:13:55.351Z</time></trkpt><trkpt lat="39.9005263" lon="9.1069903"><ele>777.0</ele><time>2026-05-01T09:13:56.351Z</time></trkpt><trkpt lat="39.9005247" lon="9.1071427"><ele>778.0</ele><time>2026-05-01T09:13:57.35Z</time></trkpt><trkpt lat="39.9005182" lon="9.1072917"><ele>779.0</ele><time>2026-05-01T09:13:58.351Z</time></trkpt><trkpt lat="39.900487" lon="9.1074402"><ele>781.0</ele><time>2026-05-01T09:13:59.352Z</time></trkpt><trkpt lat="39.9004442" lon="9.1075898"><ele>783.0</ele><time>2026-05-01T09:14:00.351Z</time></trkpt><trkpt lat="39.9003915" lon="9.1077345"><ele>785.0</ele><time>2026-05-01T09:14:01.353Z</time></trkpt><trkpt lat="39.9003342" lon="9.1078773"><ele>787.0</ele><time>2026-05-01T09:14:02.354Z</time></trkpt><trkpt lat="39.90028" lon="9.108023"><ele>787.0</ele><time>2026-05-01T09:14:03.352Z</time></trkpt><trkpt lat="39.9002217" lon="9.1081732"><ele>787.0</ele><time>2026-05-01T09:14:04.356Z</time></trkpt><trkpt lat="39.9001563" lon="9.1083215"><ele>787.0</ele><time>2026-05-01T09:14:05.354Z</time></trkpt><trkpt lat="39.9000802" lon="9.1084575"><ele>787.0</ele><time>2026-05-01T09:14:06.353Z</time></trkpt><trkpt lat="39.8999915" lon="9.1085835"><ele>788.5</ele><time>2026-05-01T09:14:07.353Z</time></trkpt><trkpt lat="39.8998988" lon="9.1087015"><ele>790.0</ele><time>2026-05-01T09:14:08.353Z</time></trkpt><trkpt lat="39.8998052" lon="9.1088252"><ele>791.5</ele><time>2026-05-01T09:14:09.351Z</time></trkpt><trkpt lat="39.8997177" lon="9.108949"><ele>793.0</ele><time>2026-05-01T09:14:10.355Z</time></trkpt><trkpt lat="39.8996322" lon="9.1090793"><ele>793.25</ele><time>2026-05-01T09:14:11.354Z</time></trkpt><trkpt lat="39.899551" lon="9.1092162"><ele>793.5</ele><time>2026-05-01T09:14:12.351Z</time></trkpt><trkpt lat="39.8994717" lon="9.1093533"><ele>793.75</ele><time>2026-05-01T09:14:13.351Z</time></trkpt><trkpt lat="39.8993885" lon="9.109496"><ele>794.0</ele><time>2026-05-01T09:14:14.352Z</time></trkpt><trkpt lat="39.8993072" lon="9.1096373"><ele>795.0</ele><time>2026-05-01T09:14:15.352Z</time></trkpt><trkpt lat="39.899216" lon="9.1097718"><ele>796.0</ele><time>2026-05-01T09:14:16.352Z</time></trkpt><trkpt lat="39.8991192" lon="9.1098928"><ele>797.0</ele><time>2026-05-01T09:14:17.357Z</time></trkpt><trkpt lat="39.8990097" lon="9.1100125"><ele>798.0</ele><time>2026-05-01T09:14:18.353Z</time></trkpt><trkpt lat="39.8988987" lon="9.110125"><ele>798.75</ele><time>2026-05-01T09:14:19.352Z</time></trkpt><trkpt lat="39.898787" lon="9.1102397"><ele>799.5</ele><time>2026-05-01T09:14:20.357Z</time></trkpt><trkpt lat="39.8986763" lon="9.110366"><ele>800.25</ele><time>2026-05-01T09:14:21.351Z</time></trkpt><trkpt lat="39.8985703" lon="9.1104832"><ele>801.0</ele><time>2026-05-01T09:14:22.35Z</time></trkpt><trkpt lat="39.8984508" lon="9.1106032"><ele>800.6666666666667</ele><time>2026-05-01T09:14:23.353Z</time></trkpt><trkpt lat="39.8983307" lon="9.1107282"><ele>800.3333333333334</ele><time>2026-05-01T09:14:24.351Z</time></trkpt><trkpt lat="39.8982132" lon="9.1108445"><ele>800.0</ele><time>2026-05-01T09:14:25.357Z</time></trkpt><trkpt lat="39.8980963" lon="9.110974"><ele>801.3333333333334</ele><time>2026-05-01T09:14:26.351Z</time></trkpt><trkpt lat="39.8979827" lon="9.1111003"><ele>802.6666666666667</ele><time>2026-05-01T09:14:27.35Z</time></trkpt><trkpt lat="39.8978607" lon="9.1112378"><ele>804.0</ele><time>2026-05-01T09:14:28.351Z</time></trkpt><trkpt lat="39.8977413" lon="9.1113635"><ele>804.0</ele><time>2026-05-01T09:14:29.35Z</time></trkpt><trkpt lat="39.8976233" lon="9.11149"><ele>804.0</ele><time>2026-05-01T09:14:30.352Z</time></trkpt><trkpt lat="39.8975018" lon="9.1116218"><ele>804.0</ele><time>2026-05-01T09:14:31.358Z</time></trkpt><trkpt lat="39.8973873" lon="9.1117522"><ele>807.0</ele><time>2026-05-01T09:14:32.353Z</time></trkpt><trkpt lat="39.897268" lon="9.1118797"><ele>810.0</ele><time>2026-05-01T09:14:33.352Z</time></trkpt><trkpt lat="39.8971363" lon="9.1119918"><ele>813.0</ele><time>2026-05-01T09:14:34.354Z</time></trkpt><trkpt lat="39.8969857" lon="9.1120825"><ele>813.0</ele><time>2026-05-01T09:14:35.352Z</time></trkpt><trkpt lat="39.8968425" lon="9.1121708"><ele>813.0</ele><time>2026-05-01T09:14:36.351Z</time></trkpt><trkpt lat="39.896711" lon="9.1122568"><ele>813.0</ele><time>2026-05-01T09:14:37.354Z</time></trkpt><trkpt lat="39.896581" lon="9.1123382"><ele>814.75</ele><time>2026-05-01T09:14:38.352Z</time></trkpt><trkpt lat="39.8964535" lon="9.1124077"><ele>816.5</ele><time>2026-05-01T09:14:39.351Z</time></trkpt><trkpt lat="39.896322" lon="9.1124817"><ele>818.25</ele><time>2026-05-01T09:14:40.358Z</time></trkpt><trkpt lat="39.8961945" lon="9.1125652"><ele>820.0</ele><time>2026-05-01T09:14:41.351Z</time></trkpt><trkpt lat="39.8960633" lon="9.1126455"><ele>820.0</ele><time>2026-05-01T09:14:42.352Z</time></trkpt><trkpt lat="39.8959393" lon="9.1127275"><ele>820.0</ele><time>2026-05-01T09:14:43.35Z</time></trkpt><trkpt lat="39.8958182" lon="9.1128085"><ele>820.0</ele><time>2026-05-01T09:14:44.352Z</time></trkpt><trkpt lat="39.8956925" lon="9.1128835"><ele>820.0</ele><time>2026-05-01T09:14:45.353Z</time></trkpt><trkpt lat="39.8955592" lon="9.1129528"><ele>819.75</ele><time>2026-05-01T09:14:46.351Z</time></trkpt><trkpt lat="39.8954277" lon="9.113024"><ele>819.5</ele><time>2026-05-01T09:14:47.36Z</time></trkpt><trkpt lat="39.895294" lon="9.1130847"><ele>819.25</ele><time>2026-05-01T09:14:48.352Z</time></trkpt><trkpt lat="39.8951715" lon="9.1131417"><ele>819.0</ele><time>2026-05-01T09:14:49.351Z</time></trkpt><trkpt lat="39.8950572" lon="9.1132027"><ele>820.0</ele><time>2026-05-01T09:14:50.352Z</time></trkpt><trkpt lat="39.8949423" lon="9.1132623"><ele>821.0</ele><time>2026-05-01T09:14:51.353Z</time></trkpt><trkpt lat="39.8948395" lon="9.1133162"><ele>822.0</ele><time>2026-05-01T09:14:52.354Z</time></trkpt><trkpt lat="39.8947385" lon="9.1133772"><ele>823.0</ele><time>2026-05-01T09:14:53.35Z</time></trkpt><trkpt lat="39.8946545" lon="9.1134392"><ele>824.0</ele><time>2026-05-01T09:14:54.356Z</time></trkpt><trkpt lat="39.8945828" lon="9.1135058"><ele>824.0</ele><time>2026-05-01T09:14:55.35Z</time></trkpt><trkpt lat="39.8945212" lon="9.113591"><ele>824.0</ele><time>2026-05-01T09:14:56.351Z</time></trkpt><trkpt lat="39.894466" lon="9.1136938"><ele>824.0</ele><time>2026-05-01T09:14:57.352Z</time></trkpt><trkpt lat="39.8944143" lon="9.1138133"><ele>824.0</ele><time>2026-05-01T09:14:58.351Z</time></trkpt><trkpt lat="39.8943527" lon="9.113947"><ele>824.0</ele><time>2026-05-01T09:14:59.365Z</time></trkpt><trkpt lat="39.894282" lon="9.1140977"><ele>824.5</ele><time>2026-05-01T09:15:00.353Z</time></trkpt><trkpt lat="39.8942087" lon="9.114247"><ele>825.0</ele><time>2026-05-01T09:15:01.353Z</time></trkpt><trkpt lat="39.894135" lon="9.1143958"><ele>825.5</ele><time>2026-05-01T09:15:02.353Z</time></trkpt><trkpt lat="39.89406" lon="9.1145508"><ele>826.0</ele><time>2026-05-01T09:15:03.353Z</time></trkpt><trkpt lat="39.8939798" lon="9.1147017"><ele>826.0</ele><time>2026-05-01T09:15:04.358Z</time></trkpt><trkpt lat="39.8938903" lon="9.114858"><ele>826.0</ele><time>2026-05-01T09:15:05.353Z</time></trkpt><trkpt lat="39.8938102" lon="9.1150295"><ele>826.0</ele><time>2026-05-01T09:15:06.351Z</time></trkpt><trkpt lat="39.893738" lon="9.115211"><ele>827.3333333333333</ele><time>2026-05-01T09:15:07.352Z</time></trkpt><trkpt lat="39.8936747" lon="9.1154005"><ele>828.6666666666667</ele><time>2026-05-01T09:15:08.35Z</time></trkpt><trkpt lat="39.893617" lon="9.1155965"><ele>830.0</ele><time>2026-05-01T09:15:09.359Z</time></trkpt><trkpt lat="39.8935628" lon="9.1157993"><ele>831.0</ele><time>2026-05-01T09:15:10.352Z</time></trkpt><trkpt lat="39.8935057" lon="9.1160027"><ele>832.0</ele><time>2026-05-01T09:15:11.353Z</time></trkpt><trkpt lat="39.8934428" lon="9.1161983"><ele>833.0</ele><time>2026-05-01T09:15:12.353Z</time></trkpt><trkpt lat="39.8933567" lon="9.1163785"><ele>833.0</ele><time>2026-05-01T09:15:13.36Z</time></trkpt><trkpt lat="39.8932652" lon="9.1165492"><ele>833.0</ele><time>2026-05-01T09:15:14.355Z</time></trkpt><trkpt lat="39.8931668" lon="9.1167023"><ele>833.0</ele><time>2026-05-01T09:15:15.358Z</time></trkpt><trkpt lat="39.8930723" lon="9.1168257"><ele>833.0</ele><time>2026-05-01T09:15:16.353Z</time></trkpt><trkpt lat="39.8929792" lon="9.1169458"><ele>833.2</ele><time>2026-05-01T09:15:17.351Z</time></trkpt><trkpt lat="39.8928962" lon="9.1170527"><ele>833.4</ele><time>2026-05-01T09:15:18.351Z</time></trkpt><trkpt lat="39.8928338" lon="9.1171482"><ele>833.6</ele><time>2026-05-01T09:15:19.352Z</time></trkpt><trkpt lat="39.8927745" lon="9.117234"><ele>833.8000000000001</ele><time>2026-05-01T09:15:20.351Z</time></trkpt><trkpt lat="39.892718" lon="9.1173215"><ele>834.0</ele><time>2026-05-01T09:15:21.359Z</time></trkpt><trkpt lat="39.8926668" lon="9.1173947"><ele>834.4000000000001</ele><time>2026-05-01T09:15:22.35Z</time></trkpt><trkpt lat="39.8926182" lon="9.1174742"><ele>834.8</ele><time>2026-05-01T09:15:23.351Z</time></trkpt><trkpt lat="39.8925733" lon="9.117548"><ele>835.2</ele><time>2026-05-01T09:15:24.351Z</time></trkpt><trkpt lat="39.8925055" lon="9.1176613"><ele>835.5999999999999</ele><time>2026-05-01T09:15:26.352Z</time></trkpt><trkpt lat="39.8924248" lon="9.1177657"><ele>836.0</ele><time>2026-05-01T09:15:28.355Z</time></trkpt><trkpt lat="39.8923448" lon="9.1178683"><ele>836.0000000000001</ele><time>2026-05-01T09:15:30.35Z</time></trkpt><trkpt lat="39.892255" lon="9.1179795"><ele>836.0</ele><time>2026-05-01T09:15:32.351Z</time></trkpt><trkpt lat="39.8921973" lon="9.1180413"><ele>836.0</ele><time>2026-05-01T09:15:33.351Z</time></trkpt><trkpt lat="39.8921463" lon="9.1181192"><ele>836.0</ele><time>2026-05-01T09:15:34.352Z</time></trkpt><trkpt lat="39.892099" lon="9.1182063"><ele>836.0000000000001</ele><time>2026-05-01T09:15:35.353Z</time></trkpt><trkpt lat="39.8920603" lon="9.1182972"><ele>836.0</ele><time>2026-05-01T09:15:36.351Z</time></trkpt><trkpt lat="39.8920272" lon="9.11839"><ele>836.3333333333334</ele><time>2026-05-01T09:15:37.358Z</time></trkpt><trkpt lat="39.8920068" lon="9.118478"><ele>836.6666666666667</ele><time>2026-05-01T09:15:38.352Z</time></trkpt><trkpt lat="39.8919975" lon="9.1185613"><ele>837.0</ele><time>2026-05-01T09:15:39.352Z</time></trkpt><trkpt lat="39.8919758" lon="9.1186875"><ele>837.3333333333333</ele><time>2026-05-01T09:15:41.351Z</time></trkpt><trkpt lat="39.891918" lon="9.1187455"><ele>837.6666666666666</ele><time>2026-05-01T09:15:43.352Z</time></trkpt><trkpt lat="39.8918417" lon="9.1187642"><ele>838.0</ele><time>2026-05-01T09:15:45.352Z</time></trkpt><trkpt lat="39.8917343" lon="9.1187642"><ele>837.9999999999999</ele><time>2026-05-01T09:15:47.351Z</time></trkpt><trkpt lat="39.891611" lon="9.1187823"><ele>838.0</ele><time>2026-05-01T09:15:49.35Z</time></trkpt><trkpt lat="39.8915478" lon="9.1187895"><ele>838.0</ele><time>2026-05-01T09:15:50.356Z</time></trkpt><trkpt lat="39.8914787" lon="9.1187918"><ele>838.0</ele><time>2026-05-01T09:15:51.35Z</time></trkpt><trkpt lat="39.8914098" lon="9.1187995"><ele>837.9999999999999</ele><time>2026-05-01T09:15:52.351Z</time></trkpt><trkpt lat="39.8913467" lon="9.1188123"><ele>838.0</ele><time>2026-05-01T09:15:53.353Z</time></trkpt><trkpt lat="39.8912213" lon="9.1188555"><ele>837.9999999999999</ele><time>2026-05-01T09:15:55.35Z</time></trkpt><trkpt lat="39.8911585" lon="9.1188863"><ele>838.0</ele><time>2026-05-01T09:15:56.35Z</time></trkpt><trkpt lat="39.8911008" lon="9.1189312"><ele>838.0</ele><time>2026-05-01T09:15:57.357Z</time></trkpt><trkpt lat="39.8910587" lon="9.1190025"><ele>838.0</ele><time>2026-05-01T09:15:58.351Z</time></trkpt><trkpt lat="39.8910458" lon="9.1190993"><ele>838.0</ele><time>2026-05-01T09:15:59.35Z</time></trkpt><trkpt lat="39.8910487" lon="9.119198"><ele>837.9999999999999</ele><time>2026-05-01T09:16:00.356Z</time></trkpt><trkpt lat="39.8910495" lon="9.1192895"><ele>838.0</ele><time>2026-05-01T09:16:01.35Z</time></trkpt><trkpt lat="39.8910425" lon="9.1193732"><ele>838.4999999999999</ele><time>2026-05-01T09:16:02.353Z</time></trkpt><trkpt lat="39.8910318" lon="9.1194643"><ele>839.0</ele><time>2026-05-01T09:16:03.352Z</time></trkpt><trkpt lat="39.8910068" lon="9.1195505"><ele>839.5</ele><time>2026-05-01T09:16:04.352Z</time></trkpt><trkpt lat="39.890966" lon="9.1196343"><ele>840.0</ele><time>2026-05-01T09:16:05.352Z</time></trkpt><trkpt lat="39.8909102" lon="9.1197157"><ele>840.4999999999999</ele><time>2026-05-01T09:16:06.351Z</time></trkpt><trkpt lat="39.8908447" lon="9.1198103"><ele>841.0</ele><time>2026-05-01T09:16:07.352Z</time></trkpt><trkpt lat="39.8907693" lon="9.1199235"><ele>842.5</ele><time>2026-05-01T09:16:08.352Z</time></trkpt><trkpt lat="39.8906872" lon="9.1200308"><ele>844.0</ele><time>2026-05-01T09:16:09.353Z</time></trkpt><trkpt lat="39.8906038" lon="9.1201438"><ele>845.5</ele><time>2026-05-01T09:16:10.359Z</time></trkpt><trkpt lat="39.8905122" lon="9.1202612"><ele>847.0</ele><time>2026-05-01T09:16:11.349Z</time></trkpt><trkpt lat="39.8904203" lon="9.1203855"><ele>847.0</ele><time>2026-05-01T09:16:12.349Z</time></trkpt><trkpt lat="39.8903278" lon="9.1205163"><ele>847.0</ele><time>2026-05-01T09:16:13.349Z</time></trkpt><trkpt lat="39.8902377" lon="9.1206498"><ele>847.0</ele><time>2026-05-01T09:16:14.35Z</time></trkpt><trkpt lat="39.89014" lon="9.1207905"><ele>847.0</ele><time>2026-05-01T09:16:15.35Z</time></trkpt><trkpt lat="39.8900327" lon="9.1209352"><ele>849.6666666666666</ele><time>2026-05-01T09:16:16.352Z</time></trkpt><trkpt lat="39.8899292" lon="9.1210728"><ele>852.3333333333333</ele><time>2026-05-01T09:16:17.35Z</time></trkpt><trkpt lat="39.8898238" lon="9.1212133"><ele>855.0</ele><time>2026-05-01T09:16:18.35Z</time></trkpt><trkpt lat="39.8897088" lon="9.1213427"><ele>855.0</ele><time>2026-05-01T09:16:19.35Z</time></trkpt><trkpt lat="39.889588" lon="9.1214722"><ele>855.0</ele><time>2026-05-01T09:16:20.35Z</time></trkpt><trkpt lat="39.8894515" lon="9.1215868"><ele>855.0</ele><time>2026-05-01T09:16:21.351Z</time></trkpt><trkpt lat="39.8893052" lon="9.1216768"><ele>856.6666666666667</ele><time>2026-05-01T09:16:22.351Z</time></trkpt><trkpt lat="39.8891635" lon="9.121763"><ele>858.3333333333334</ele><time>2026-05-01T09:16:23.351Z</time></trkpt><trkpt lat="39.889013" lon="9.1218382"><ele>860.0</ele><time>2026-05-01T09:16:24.349Z</time></trkpt><trkpt lat="39.8888627" lon="9.1219"><ele>860.0</ele><time>2026-05-01T09:16:25.35Z</time></trkpt><trkpt lat="39.888706" lon="9.1219438"><ele>860.0</ele><time>2026-05-01T09:16:26.35Z</time></trkpt><trkpt lat="39.8885532" lon="9.1219817"><ele>860.0</ele><time>2026-05-01T09:16:27.351Z</time></trkpt><trkpt lat="39.888415" lon="9.1220317"><ele>859.0</ele><time>2026-05-01T09:16:28.351Z</time></trkpt><trkpt lat="39.8882827" lon="9.1220697"><ele>858.0</ele><time>2026-05-01T09:16:29.35Z</time></trkpt><trkpt lat="39.8881658" lon="9.1221173"><ele>857.0</ele><time>2026-05-01T09:16:30.352Z</time></trkpt><trkpt lat="39.8880565" lon="9.1221607"><ele>856.0</ele><time>2026-05-01T09:16:31.352Z</time></trkpt><trkpt lat="39.8879655" lon="9.1222003"><ele>855.9999999999999</ele><time>2026-05-01T09:16:32.354Z</time></trkpt><trkpt lat="39.8878947" lon="9.1222428"><ele>856.0</ele><time>2026-05-01T09:16:33.352Z</time></trkpt><trkpt lat="39.8878548" lon="9.1223085"><ele>856.0</ele><time>2026-05-01T09:16:35.353Z</time></trkpt><trkpt lat="39.8878853" lon="9.122389"><ele>856.0</ele><time>2026-05-01T09:16:37.354Z</time></trkpt><trkpt lat="39.8879673" lon="9.1224388"><ele>855.9999999999999</ele><time>2026-05-01T09:16:39.352Z</time></trkpt><trkpt lat="39.8880385" lon="9.1224268"><ele>856.0</ele><time>2026-05-01T09:16:41.351Z</time></trkpt><trkpt lat="39.8881517" lon="9.1223755"><ele>856.0</ele><time>2026-05-01T09:17:24.353Z</time></trkpt><trkpt lat="39.888225" lon="9.122344"><ele>855.9999999999999</ele><time>2026-05-01T09:17:25.352Z</time></trkpt><trkpt lat="39.8883167" lon="9.1223095"><ele>855.9999999999999</ele><time>2026-05-01T09:17:26.352Z</time></trkpt><trkpt lat="39.8884232" lon="9.1222688"><ele>856.0</ele><time>2026-05-01T09:17:27.352Z</time></trkpt><trkpt lat="39.8885375" lon="9.122229"><ele>856.0</ele><time>2026-05-01T09:17:28.351Z</time></trkpt><trkpt lat="39.8886447" lon="9.1221928"><ele>856.8</ele><time>2026-05-01T09:17:29.351Z</time></trkpt><trkpt lat="39.8887345" lon="9.122163"><ele>857.5999999999999</ele><time>2026-05-01T09:17:30.353Z</time></trkpt><trkpt lat="39.8888013" lon="9.1221345"><ele>858.4</ele><time>2026-05-01T09:17:31.353Z</time></trkpt><trkpt lat="39.8889157" lon="9.122132"><ele>859.2</ele><time>2026-05-01T09:17:33.352Z</time></trkpt><trkpt lat="39.8889682" lon="9.122225"><ele>860.0</ele><time>2026-05-01T09:17:35.357Z</time></trkpt><trkpt lat="39.8889492" lon="9.1224"><ele>860.0</ele><time>2026-05-01T09:17:37.349Z</time></trkpt><trkpt lat="39.8889203" lon="9.1225117"><ele>860.0</ele><time>2026-05-01T09:17:38.352Z</time></trkpt><trkpt lat="39.8888888" lon="9.1226457"><ele>860.0</ele><time>2026-05-01T09:17:39.353Z</time></trkpt><trkpt lat="39.8888495" lon="9.1227917"><ele>860.0</ele><time>2026-05-01T09:17:40.35Z</time></trkpt><trkpt lat="39.888797" lon="9.1229567"><ele>860.0</ele><time>2026-05-01T09:17:41.355Z</time></trkpt><trkpt lat="39.888742" lon="9.1231408"><ele>860.0</ele><time>2026-05-01T09:17:42.352Z</time></trkpt><trkpt lat="39.888696" lon="9.1233272"><ele>860.0</ele><time>2026-05-01T09:17:43.353Z</time></trkpt><trkpt lat="39.8886495" lon="9.1235117"><ele>859.0</ele><time>2026-05-01T09:17:44.349Z</time></trkpt><trkpt lat="39.8886047" lon="9.1236905"><ele>858.0</ele><time>2026-05-01T09:17:45.35Z</time></trkpt><trkpt lat="39.888553" lon="9.1238545"><ele>857.0</ele><time>2026-05-01T09:17:46.35Z</time></trkpt><trkpt lat="39.888506" lon="9.1240083"><ele>856.0</ele><time>2026-05-01T09:17:47.354Z</time></trkpt><trkpt lat="39.8884683" lon="9.124167"><ele>855.5999999999999</ele><time>2026-05-01T09:17:48.351Z</time></trkpt><trkpt lat="39.8884297" lon="9.1243182"><ele>855.1999999999999</ele><time>2026-05-01T09:17:49.351Z</time></trkpt><trkpt lat="39.8884058" lon="9.1244568"><ele>854.8000000000001</ele><time>2026-05-01T09:17:50.351Z</time></trkpt><trkpt lat="39.888381" lon="9.124584"><ele>854.4000000000001</ele><time>2026-05-01T09:17:51.353Z</time></trkpt><trkpt lat="39.8883545" lon="9.1247038"><ele>854.0</ele><time>2026-05-01T09:17:52.349Z</time></trkpt><trkpt lat="39.8883253" lon="9.1248077"><ele>854.0</ele><time>2026-05-01T09:17:53.35Z</time></trkpt><trkpt lat="39.8882803" lon="9.1248892"><ele>854.0000000000001</ele><time>2026-05-01T09:17:54.35Z</time></trkpt><trkpt lat="39.8882005" lon="9.1249538"><ele>854.0000000000001</ele><time>2026-05-01T09:17:55.356Z</time></trkpt><trkpt lat="39.8880885" lon="9.1250052"><ele>854.0</ele><time>2026-05-01T09:17:56.35Z</time></trkpt><trkpt lat="39.8879728" lon="9.125081"><ele>854.0</ele><time>2026-05-01T09:17:57.35Z</time></trkpt><trkpt lat="39.8878553" lon="9.1251853"><ele>852.6666666666667</ele><time>2026-05-01T09:17:58.351Z</time></trkpt><trkpt lat="39.8877398" lon="9.1253203"><ele>851.3333333333333</ele><time>2026-05-01T09:17:59.349Z</time></trkpt><trkpt lat="39.8876258" lon="9.1254597"><ele>850.0</ele><time>2026-05-01T09:18:00.351Z</time></trkpt><trkpt lat="39.8875157" lon="9.1255907"><ele>849.75</ele><time>2026-05-01T09:18:01.351Z</time></trkpt><trkpt lat="39.8874067" lon="9.1256968"><ele>849.5</ele><time>2026-05-01T09:18:02.352Z</time></trkpt><trkpt lat="39.8872915" lon="9.1258073"><ele>849.25</ele><time>2026-05-01T09:18:03.351Z</time></trkpt><trkpt lat="39.8871765" lon="9.1259298"><ele>849.0</ele><time>2026-05-01T09:18:04.351Z</time></trkpt><trkpt lat="39.8870728" lon="9.1260588"><ele>847.6666666666667</ele><time>2026-05-01T09:18:05.351Z</time></trkpt><trkpt lat="39.8869748" lon="9.1262087"><ele>846.3333333333334</ele><time>2026-05-01T09:18:06.35Z</time></trkpt><trkpt lat="39.8868832" lon="9.1263653"><ele>845.0</ele><time>2026-05-01T09:18:07.352Z</time></trkpt><trkpt lat="39.8867878" lon="9.126515"><ele>844.25</ele><time>2026-05-01T09:18:08.352Z</time></trkpt><trkpt lat="39.8866775" lon="9.126645"><ele>843.5</ele><time>2026-05-01T09:18:09.353Z</time></trkpt><trkpt lat="39.8865743" lon="9.1267795"><ele>842.75</ele><time>2026-05-01T09:18:10.352Z</time></trkpt><trkpt lat="39.886474" lon="9.1269118"><ele>842.0</ele><time>2026-05-01T09:18:11.351Z</time></trkpt><trkpt lat="39.8863742" lon="9.127045"><ele>842.0</ele><time>2026-05-01T09:18:12.351Z</time></trkpt><trkpt lat="39.8862797" lon="9.1271763"><ele>842.0</ele><time>2026-05-01T09:18:13.351Z</time></trkpt><trkpt lat="39.8861983" lon="9.1272965"><ele>842.0</ele><time>2026-05-01T09:18:14.351Z</time></trkpt><trkpt lat="39.886125" lon="9.1274017"><ele>842.0</ele><time>2026-05-01T09:18:15.353Z</time></trkpt><trkpt lat="39.8860495" lon="9.1274973"><ele>841.6666666666667</ele><time>2026-05-01T09:18:16.352Z</time></trkpt><trkpt lat="39.8859885" lon="9.1275903"><ele>841.3333333333334</ele><time>2026-05-01T09:18:17.354Z</time></trkpt><trkpt lat="39.885935" lon="9.1276718"><ele>841.0</ele><time>2026-05-01T09:18:18.351Z</time></trkpt><trkpt lat="39.88588" lon="9.127754"><ele>840.6666666666667</ele><time>2026-05-01T09:18:19.352Z</time></trkpt><trkpt lat="39.885819" lon="9.1278345"><ele>840.3333333333334</ele><time>2026-05-01T09:18:20.352Z</time></trkpt><trkpt lat="39.8857555" lon="9.1279235"><ele>840.0</ele><time>2026-05-01T09:18:21.35Z</time></trkpt><trkpt lat="39.885677" lon="9.1280138"><ele>840.0</ele><time>2026-05-01T09:18:22.351Z</time></trkpt><trkpt lat="39.8855915" lon="9.1281175"><ele>840.0</ele><time>2026-05-01T09:18:23.351Z</time></trkpt><trkpt lat="39.8855032" lon="9.1282382"><ele>840.0</ele><time>2026-05-01T09:18:24.349Z</time></trkpt><trkpt lat="39.8854143" lon="9.1283677"><ele>840.0</ele><time>2026-05-01T09:18:25.353Z</time></trkpt><trkpt lat="39.885323" lon="9.1285137"><ele>839.6666666666667</ele><time>2026-05-01T09:18:26.353Z</time></trkpt><trkpt lat="39.8852212" lon="9.1286657"><ele>839.3333333333334</ele><time>2026-05-01T09:18:27.351Z</time></trkpt><trkpt lat="39.8851225" lon="9.1288053"><ele>839.0</ele><time>2026-05-01T09:18:28.35Z</time></trkpt><trkpt lat="39.8850157" lon="9.1289433"><ele>838.6666666666667</ele><time>2026-05-01T09:18:29.351Z</time></trkpt><trkpt lat="39.8849147" lon="9.12909"><ele>838.3333333333333</ele><time>2026-05-01T09:18:30.354Z</time></trkpt><trkpt lat="39.88481" lon="9.1292388"><ele>838.0</ele><time>2026-05-01T09:18:31.356Z</time></trkpt><trkpt lat="39.8847018" lon="9.1293847"><ele>838.0</ele><time>2026-05-01T09:18:32.357Z</time></trkpt><trkpt lat="39.8845905" lon="9.1295385"><ele>838.0</ele><time>2026-05-01T09:18:33.354Z</time></trkpt><trkpt lat="39.884472" lon="9.1296895"><ele>838.0</ele><time>2026-05-01T09:18:34.351Z</time></trkpt><trkpt lat="39.884357" lon="9.129837"><ele>837.6666666666666</ele><time>2026-05-01T09:18:35.353Z</time></trkpt><trkpt lat="39.8842527" lon="9.1300027"><ele>837.3333333333333</ele><time>2026-05-01T09:18:36.354Z</time></trkpt><trkpt lat="39.8841413" lon="9.1301645"><ele>837.0</ele><time>2026-05-01T09:18:37.35Z</time></trkpt><trkpt lat="39.8840228" lon="9.1303263"><ele>837.0</ele><time>2026-05-01T09:18:38.352Z</time></trkpt><trkpt lat="39.8839057" lon="9.1304728"><ele>837.0</ele><time>2026-05-01T09:18:39.351Z</time></trkpt><trkpt lat="39.8837937" lon="9.1306312"><ele>837.0</ele><time>2026-05-01T09:18:40.351Z</time></trkpt><trkpt lat="39.8836813" lon="9.1307845"><ele>836.6666666666667</ele><time>2026-05-01T09:18:41.356Z</time></trkpt><trkpt lat="39.8835673" lon="9.1309303"><ele>836.3333333333334</ele><time>2026-05-01T09:18:42.351Z</time></trkpt><trkpt lat="39.8834562" lon="9.1310872"><ele>836.0</ele><time>2026-05-01T09:18:43.352Z</time></trkpt><trkpt lat="39.8833473" lon="9.1312442"><ele>835.6666666666667</ele><time>2026-05-01T09:18:44.357Z</time></trkpt><trkpt lat="39.8832392" lon="9.1313935"><ele>835.3333333333333</ele><time>2026-05-01T09:18:45.351Z</time></trkpt><trkpt lat="39.8831345" lon="9.131542"><ele>835.0</ele><time>2026-05-01T09:18:46.352Z</time></trkpt><trkpt lat="39.8830233" lon="9.1316903"><ele>835.0</ele><time>2026-05-01T09:18:47.359Z</time></trkpt><trkpt lat="39.8829128" lon="9.1318445"><ele>835.0</ele><time>2026-05-01T09:18:48.352Z</time></trkpt><trkpt lat="39.8828047" lon="9.1320028"><ele>835.0</ele><time>2026-05-01T09:18:49.356Z</time></trkpt><trkpt lat="39.8826918" lon="9.1321588"><ele>834.6666666666666</ele><time>2026-05-01T09:18:50.354Z</time></trkpt><trkpt lat="39.8825703" lon="9.1323105"><ele>834.3333333333333</ele><time>2026-05-01T09:18:51.353Z</time></trkpt><trkpt lat="39.8824522" lon="9.132473"><ele>834.0</ele><time>2026-05-01T09:18:52.351Z</time></trkpt><trkpt lat="39.882345" lon="9.1326327"><ele>834.0</ele><time>2026-05-01T09:18:53.351Z</time></trkpt><trkpt lat="39.882233" lon="9.1327917"><ele>834.0</ele><time>2026-05-01T09:18:54.358Z</time></trkpt><trkpt lat="39.8821238" lon="9.1329528"><ele>834.0</ele><time>2026-05-01T09:18:55.352Z</time></trkpt><trkpt lat="39.8820125" lon="9.1331058"><ele>834.0</ele><time>2026-05-01T09:18:56.351Z</time></trkpt><trkpt lat="39.8818997" lon="9.1332562"><ele>834.0</ele><time>2026-05-01T09:18:57.351Z</time></trkpt><trkpt lat="39.8817942" lon="9.1334038"><ele>834.0</ele><time>2026-05-01T09:18:58.352Z</time></trkpt><trkpt lat="39.8816902" lon="9.1335488"><ele>833.75</ele><time>2026-05-01T09:18:59.352Z</time></trkpt><trkpt lat="39.8815898" lon="9.1336948"><ele>833.5</ele><time>2026-05-01T09:19:00.353Z</time></trkpt><trkpt lat="39.8814915" lon="9.1338428"><ele>833.25</ele><time>2026-05-01T09:19:01.352Z</time></trkpt><trkpt lat="39.8813922" lon="9.1339727"><ele>833.0</ele><time>2026-05-01T09:19:02.354Z</time></trkpt><trkpt lat="39.8812858" lon="9.1341055"><ele>833.0</ele><time>2026-05-01T09:19:03.351Z</time></trkpt><trkpt lat="39.8811883" lon="9.1342213"><ele>833.0</ele><time>2026-05-01T09:19:04.352Z</time></trkpt><trkpt lat="39.8810815" lon="9.134337"><ele>833.0</ele><time>2026-05-01T09:19:05.352Z</time></trkpt><trkpt lat="39.8809747" lon="9.1344408"><ele>833.0</ele><time>2026-05-01T09:19:06.352Z</time></trkpt><trkpt lat="39.8808692" lon="9.1345425"><ele>833.0</ele><time>2026-05-01T09:19:07.351Z</time></trkpt><trkpt lat="39.8807675" lon="9.1346408"><ele>833.0</ele><time>2026-05-01T09:19:08.35Z</time></trkpt><trkpt lat="39.8806555" lon="9.1347412"><ele>833.0</ele><time>2026-05-01T09:19:09.352Z</time></trkpt><trkpt lat="39.8805363" lon="9.1348348"><ele>833.0</ele><time>2026-05-01T09:19:10.353Z</time></trkpt><trkpt lat="39.8804148" lon="9.1349227"><ele>833.0</ele><time>2026-05-01T09:19:11.351Z</time></trkpt><trkpt lat="39.8802943" lon="9.1350185"><ele>833.0</ele><time>2026-05-01T09:19:12.351Z</time></trkpt><trkpt lat="39.8801813" lon="9.1351165"><ele>833.0</ele><time>2026-05-01T09:19:13.353Z</time></trkpt><trkpt lat="39.880065" lon="9.1352258"><ele>833.0</ele><time>2026-05-01T09:19:14.352Z</time></trkpt><trkpt lat="39.879953" lon="9.1353155"><ele>833.0</ele><time>2026-05-01T09:19:15.351Z</time></trkpt><trkpt lat="39.8798392" lon="9.1354038"><ele>833.0</ele><time>2026-05-01T09:19:16.356Z</time></trkpt><trkpt lat="39.879719" lon="9.1354995"><ele>833.0</ele><time>2026-05-01T09:19:17.35Z</time></trkpt><trkpt lat="39.8795927" lon="9.1355995"><ele>833.0</ele><time>2026-05-01T09:19:18.352Z</time></trkpt><trkpt lat="39.8794653" lon="9.1356985"><ele>833.25</ele><time>2026-05-01T09:19:19.351Z</time></trkpt><trkpt lat="39.8793395" lon="9.135798"><ele>833.5</ele><time>2026-05-01T09:19:20.353Z</time></trkpt><trkpt lat="39.8792187" lon="9.1358962"><ele>833.75</ele><time>2026-05-01T09:19:21.358Z</time></trkpt><trkpt lat="39.8790983" lon="9.1359907"><ele>834.0</ele><time>2026-05-01T09:19:22.351Z</time></trkpt><trkpt lat="39.8789697" lon="9.1360897"><ele>834.0</ele><time>2026-05-01T09:19:23.352Z</time></trkpt><trkpt lat="39.8788495" lon="9.1361915"><ele>834.0</ele><time>2026-05-01T09:19:24.351Z</time></trkpt><trkpt lat="39.8787293" lon="9.1362918"><ele>834.0</ele><time>2026-05-01T09:19:25.351Z</time></trkpt><trkpt lat="39.8786078" lon="9.1363913"><ele>834.0</ele><time>2026-05-01T09:19:26.355Z</time></trkpt><trkpt lat="39.878479" lon="9.1364867"><ele>833.25</ele><time>2026-05-01T09:19:27.352Z</time></trkpt><trkpt lat="39.8783565" lon="9.136591"><ele>832.5</ele><time>2026-05-01T09:19:28.352Z</time></trkpt><trkpt lat="39.8782315" lon="9.1366933"><ele>831.75</ele><time>2026-05-01T09:19:29.35Z</time></trkpt><trkpt lat="39.8781007" lon="9.1367937"><ele>831.0</ele><time>2026-05-01T09:19:30.351Z</time></trkpt><trkpt lat="39.8779737" lon="9.1368873"><ele>831.0</ele><time>2026-05-01T09:19:31.352Z</time></trkpt><trkpt lat="39.8778458" lon="9.1369878"><ele>831.0</ele><time>2026-05-01T09:19:32.35Z</time></trkpt><trkpt lat="39.8777185" lon="9.1370852"><ele>831.0</ele><time>2026-05-01T09:19:33.352Z</time></trkpt><trkpt lat="39.8776012" lon="9.1371788"><ele>831.0</ele><time>2026-05-01T09:19:34.356Z</time></trkpt><trkpt lat="39.8774807" lon="9.1372842"><ele>830.5</ele><time>2026-05-01T09:19:35.351Z</time></trkpt><trkpt lat="39.8773482" lon="9.137393"><ele>830.0</ele><time>2026-05-01T09:19:36.355Z</time></trkpt><trkpt lat="39.8772262" lon="9.137492"><ele>829.5</ele><time>2026-05-01T09:19:37.352Z</time></trkpt><trkpt lat="39.877101" lon="9.1375952"><ele>829.0</ele><time>2026-05-01T09:19:38.351Z</time></trkpt><trkpt lat="39.876975" lon="9.1376978"><ele>829.0</ele><time>2026-05-01T09:19:39.353Z</time></trkpt><trkpt lat="39.876848" lon="9.1378045"><ele>829.0</ele><time>2026-05-01T09:19:40.353Z</time></trkpt><trkpt lat="39.8767248" lon="9.1379087"><ele>829.0</ele><time>2026-05-01T09:19:41.351Z</time></trkpt><trkpt lat="39.8765953" lon="9.1380222"><ele>828.0</ele><time>2026-05-01T09:19:42.351Z</time></trkpt><trkpt lat="39.87647" lon="9.1381302"><ele>827.0</ele><time>2026-05-01T09:19:43.35Z</time></trkpt><trkpt lat="39.876347" lon="9.1382353"><ele>826.0</ele><time>2026-05-01T09:19:44.35Z</time></trkpt><trkpt lat="39.8762203" lon="9.1383388"><ele>825.0</ele><time>2026-05-01T09:19:45.351Z</time></trkpt><trkpt lat="39.8761037" lon="9.1384338"><ele>825.0</ele><time>2026-05-01T09:19:46.351Z</time></trkpt><trkpt lat="39.87599" lon="9.1385225"><ele>825.0</ele><time>2026-05-01T09:19:47.349Z</time></trkpt><trkpt lat="39.875885" lon="9.1386193"><ele>825.0</ele><time>2026-05-01T09:19:48.349Z</time></trkpt><trkpt lat="39.8757675" lon="9.1387117"><ele>825.0</ele><time>2026-05-01T09:19:49.352Z</time></trkpt><trkpt lat="39.875654" lon="9.138805"><ele>824.25</ele><time>2026-05-01T09:19:50.352Z</time></trkpt><trkpt lat="39.8755453" lon="9.1388873"><ele>823.5</ele><time>2026-05-01T09:19:51.352Z</time></trkpt><trkpt lat="39.8754427" lon="9.1389537"><ele>822.75</ele><time>2026-05-01T09:19:52.35Z</time></trkpt><trkpt lat="39.8753373" lon="9.1390203"><ele>822.0</ele><time>2026-05-01T09:19:53.352Z</time></trkpt><trkpt lat="39.8752263" lon="9.1390647"><ele>822.0</ele><time>2026-05-01T09:19:54.353Z</time></trkpt><trkpt lat="39.8751058" lon="9.1391082"><ele>822.0</ele><time>2026-05-01T09:19:55.351Z</time></trkpt><trkpt lat="39.8749782" lon="9.1391392"><ele>822.0</ele><time>2026-05-01T09:19:56.353Z</time></trkpt><trkpt lat="39.8748555" lon="9.139171"><ele>822.0</ele><time>2026-05-01T09:19:57.352Z</time></trkpt><trkpt lat="39.8747387" lon="9.139218"><ele>824.0</ele><time>2026-05-01T09:19:58.349Z</time></trkpt><trkpt lat="39.8746215" lon="9.139272"><ele>826.0</ele><time>2026-05-01T09:19:59.35Z</time></trkpt><trkpt lat="39.8745093" lon="9.1393327"><ele>828.0</ele><time>2026-05-01T09:20:00.351Z</time></trkpt><trkpt lat="39.8744012" lon="9.1394013"><ele>830.0</ele><time>2026-05-01T09:20:01.35Z</time></trkpt><trkpt lat="39.8742983" lon="9.1394757"><ele>831.25</ele><time>2026-05-01T09:20:02.351Z</time></trkpt><trkpt lat="39.8741927" lon="9.1395562"><ele>832.5</ele><time>2026-05-01T09:20:03.35Z</time></trkpt><trkpt lat="39.874097" lon="9.1396562"><ele>833.75</ele><time>2026-05-01T09:20:04.349Z</time></trkpt><trkpt lat="39.8740065" lon="9.1397655"><ele>835.0</ele><time>2026-05-01T09:20:05.35Z</time></trkpt><trkpt lat="39.8739232" lon="9.1398862"><ele>832.5</ele><time>2026-05-01T09:20:06.352Z</time></trkpt><trkpt lat="39.8738487" lon="9.1400223"><ele>830.0</ele><time>2026-05-01T09:20:07.351Z</time></trkpt><trkpt lat="39.873782" lon="9.1401685"><ele>827.5</ele><time>2026-05-01T09:20:08.352Z</time></trkpt><trkpt lat="39.873716" lon="9.1403138"><ele>825.0</ele><time>2026-05-01T09:20:09.351Z</time></trkpt><trkpt lat="39.8736487" lon="9.1404545"><ele>825.0</ele><time>2026-05-01T09:20:10.353Z</time></trkpt><trkpt lat="39.8735865" lon="9.1405937"><ele>825.0</ele><time>2026-05-01T09:20:11.355Z</time></trkpt><trkpt lat="39.8735187" lon="9.1407155"><ele>825.0</ele><time>2026-05-01T09:20:12.35Z</time></trkpt><trkpt lat="39.8734363" lon="9.1408262"><ele>825.0</ele><time>2026-05-01T09:20:13.352Z</time></trkpt><trkpt lat="39.8733522" lon="9.1409162"><ele>826.5</ele><time>2026-05-01T09:20:14.351Z</time></trkpt><trkpt lat="39.8732833" lon="9.1410002"><ele>828.0</ele><time>2026-05-01T09:20:15.35Z</time></trkpt><trkpt lat="39.8732365" lon="9.1410838"><ele>829.5</ele><time>2026-05-01T09:20:16.352Z</time></trkpt><trkpt lat="39.8732005" lon="9.1411545"><ele>831.0</ele><time>2026-05-01T09:20:17.352Z</time></trkpt><trkpt lat="39.8731517" lon="9.1412793"><ele>832.5</ele><time>2026-05-01T09:20:19.35Z</time></trkpt><trkpt lat="39.873107" lon="9.1413927"><ele>834.0</ele><time>2026-05-01T09:20:21.35Z</time></trkpt><trkpt lat="39.8730667" lon="9.1414938"><ele>834.0</ele><time>2026-05-01T09:20:23.349Z</time></trkpt><trkpt lat="39.8730238" lon="9.141584"><ele>834.0</ele><time>2026-05-01T09:20:25.351Z</time></trkpt><trkpt lat="39.8730698" lon="9.1415053"><ele>834.0</ele><time>2026-05-01T09:20:33.35Z</time></trkpt><trkpt lat="39.8731032" lon="9.1413957"><ele>834.0</ele><time>2026-05-01T09:20:34.352Z</time></trkpt><trkpt lat="39.8731418" lon="9.1412833"><ele>834.0</ele><time>2026-05-01T09:20:35.35Z</time></trkpt><trkpt lat="39.8731835" lon="9.1411743"><ele>834.0</ele><time>2026-05-01T09:20:36.35Z</time></trkpt><trkpt lat="39.873225" lon="9.1410728"><ele>834.0</ele><time>2026-05-01T09:20:37.353Z</time></trkpt><trkpt lat="39.8732727" lon="9.1409775"><ele>834.0</ele><time>2026-05-01T09:20:38.35Z</time></trkpt><trkpt lat="39.873324" lon="9.1408948"><ele>834.0</ele><time>2026-05-01T09:20:39.352Z</time></trkpt><trkpt lat="39.8733683" lon="9.1408298"><ele>834.0</ele><time>2026-05-01T09:20:40.349Z</time></trkpt><trkpt lat="39.873336" lon="9.140752"><ele>834.0</ele><time>2026-05-01T09:20:48.352Z</time></trkpt><trkpt lat="39.8732807" lon="9.1408387"><ele>834.0</ele><time>2026-05-01T09:20:52.354Z</time></trkpt><trkpt lat="39.8732527" lon="9.1409235"><ele>834.0</ele><time>2026-05-01T09:20:54.35Z</time></trkpt><trkpt lat="39.8732182" lon="9.1409922"><ele>834.0</ele><time>2026-05-01T09:20:55.353Z</time></trkpt><trkpt lat="39.8731618" lon="9.1410487"><ele>834.0</ele><time>2026-05-01T09:20:56.351Z</time></trkpt><trkpt lat="39.8730883" lon="9.1410928"><ele>834.0</ele><time>2026-05-01T09:20:57.354Z</time></trkpt><trkpt lat="39.8730032" lon="9.1411447"><ele>834.0</ele><time>2026-05-01T09:20:58.352Z</time></trkpt><trkpt lat="39.8729115" lon="9.1411995"><ele>834.0</ele><time>2026-05-01T09:20:59.352Z</time></trkpt><trkpt lat="39.8728157" lon="9.1412527"><ele>834.0</ele><time>2026-05-01T09:21:00.356Z</time></trkpt><trkpt lat="39.8727245" lon="9.1413097"><ele>834.0</ele><time>2026-05-01T09:21:01.35Z</time></trkpt><trkpt lat="39.8726398" lon="9.1413603"><ele>834.0</ele><time>2026-05-01T09:21:02.351Z</time></trkpt><trkpt lat="39.872556" lon="9.1413937"><ele>834.0</ele><time>2026-05-01T09:21:03.352Z</time></trkpt><trkpt lat="39.872476" lon="9.1414213"><ele>834.0</ele><time>2026-05-01T09:21:04.354Z</time></trkpt><trkpt lat="39.8723917" lon="9.1414347"><ele>834.0</ele><time>2026-05-01T09:21:05.352Z</time></trkpt><trkpt lat="39.8723093" lon="9.1414373"><ele>834.0</ele><time>2026-05-01T09:21:06.354Z</time></trkpt><trkpt lat="39.872219" lon="9.141449"><ele>834.0</ele><time>2026-05-01T09:21:07.353Z</time></trkpt><trkpt lat="39.8721227" lon="9.1414633"><ele>834.0</ele><time>2026-05-01T09:21:08.352Z</time></trkpt><trkpt lat="39.872028" lon="9.1414743"><ele>834.0</ele><time>2026-05-01T09:21:09.352Z</time></trkpt><trkpt lat="39.8719317" lon="9.1414908"><ele>834.0</ele><time>2026-05-01T09:21:10.355Z</time></trkpt><trkpt lat="39.8718325" lon="9.141507"><ele>834.0</ele><time>2026-05-01T09:21:11.352Z</time></trkpt><trkpt lat="39.8717318" lon="9.1415203"><ele>834.0</ele><time>2026-05-01T09:21:12.349Z</time></trkpt><trkpt lat="39.8716233" lon="9.1415318"><ele>834.0</ele><time>2026-05-01T09:21:13.358Z</time></trkpt><trkpt lat="39.8715115" lon="9.1415505"><ele>834.0</ele><time>2026-05-01T09:21:14.352Z</time></trkpt><trkpt lat="39.8713982" lon="9.1415728"><ele>834.2</ele><time>2026-05-01T09:21:15.35Z</time></trkpt><trkpt lat="39.8712858" lon="9.1415897"><ele>834.4000000000001</ele><time>2026-05-01T09:21:16.35Z</time></trkpt><trkpt lat="39.8711883" lon="9.141612"><ele>834.6</ele><time>2026-05-01T09:21:17.354Z</time></trkpt><trkpt lat="39.8710962" lon="9.141619"><ele>834.8</ele><time>2026-05-01T09:21:18.351Z</time></trkpt><trkpt lat="39.8710047" lon="9.141606"><ele>835.0</ele><time>2026-05-01T09:21:19.352Z</time></trkpt><trkpt lat="39.8709183" lon="9.1415685"><ele>834.2</ele><time>2026-05-01T09:21:20.351Z</time></trkpt><trkpt lat="39.8708357" lon="9.1415025"><ele>833.4</ele><time>2026-05-01T09:21:21.351Z</time></trkpt><trkpt lat="39.870744" lon="9.1414235"><ele>832.5999999999999</ele><time>2026-05-01T09:21:22.352Z</time></trkpt><trkpt lat="39.8706478" lon="9.1413427"><ele>831.8</ele><time>2026-05-01T09:21:23.353Z</time></trkpt><trkpt lat="39.8705488" lon="9.1412478"><ele>831.0</ele><time>2026-05-01T09:21:24.35Z</time></trkpt><trkpt lat="39.870449" lon="9.1411477"><ele>831.0</ele><time>2026-05-01T09:21:25.35Z</time></trkpt><trkpt lat="39.8703407" lon="9.1410537"><ele>831.0</ele><time>2026-05-01T09:21:26.357Z</time></trkpt><trkpt lat="39.8702278" lon="9.1409525"><ele>831.0</ele><time>2026-05-01T09:21:27.351Z</time></trkpt><trkpt lat="39.8701175" lon="9.140848"><ele>831.0</ele><time>2026-05-01T09:21:28.352Z</time></trkpt><trkpt lat="39.8700125" lon="9.140752"><ele>830.1999999999999</ele><time>2026-05-01T09:21:29.35Z</time></trkpt><trkpt lat="39.8699152" lon="9.1406793"><ele>829.4</ele><time>2026-05-01T09:21:30.351Z</time></trkpt><trkpt lat="39.8698258" lon="9.1406208"><ele>828.6</ele><time>2026-05-01T09:21:31.354Z</time></trkpt><trkpt lat="39.8697342" lon="9.1405842"><ele>827.8</ele><time>2026-05-01T09:21:32.352Z</time></trkpt><trkpt lat="39.8696315" lon="9.1405718"><ele>827.0</ele><time>2026-05-01T09:21:33.353Z</time></trkpt><trkpt lat="39.8695228" lon="9.140556"><ele>827.0</ele><time>2026-05-01T09:21:34.361Z</time></trkpt><trkpt lat="39.8694225" lon="9.140551"><ele>827.0</ele><time>2026-05-01T09:21:35.353Z</time></trkpt><trkpt lat="39.8693183" lon="9.1405675"><ele>827.0</ele><time>2026-05-01T09:21:36.352Z</time></trkpt><trkpt lat="39.8691992" lon="9.1406088"><ele>827.0</ele><time>2026-05-01T09:21:37.357Z</time></trkpt><trkpt lat="39.869091" lon="9.1406658"><ele>827.0</ele><time>2026-05-01T09:21:38.352Z</time></trkpt><trkpt lat="39.8689792" lon="9.1407182"><ele>827.25</ele><time>2026-05-01T09:21:39.351Z</time></trkpt><trkpt lat="39.8688622" lon="9.1407665"><ele>827.5</ele><time>2026-05-01T09:21:40.353Z</time></trkpt><trkpt lat="39.868742" lon="9.140799"><ele>827.75</ele><time>2026-05-01T09:21:41.353Z</time></trkpt><trkpt lat="39.8686168" lon="9.140812"><ele>828.0</ele><time>2026-05-01T09:21:42.35Z</time></trkpt><trkpt lat="39.868487" lon="9.1408122"><ele>827.0</ele><time>2026-05-01T09:21:43.351Z</time></trkpt><trkpt lat="39.8683565" lon="9.1407958"><ele>826.0</ele><time>2026-05-01T09:21:44.35Z</time></trkpt><trkpt lat="39.868226" lon="9.140774"><ele>825.0</ele><time>2026-05-01T09:21:45.349Z</time></trkpt><trkpt lat="39.8680923" lon="9.1407503"><ele>824.0</ele><time>2026-05-01T09:21:46.351Z</time></trkpt><trkpt lat="39.8679588" lon="9.1407268"><ele>822.75</ele><time>2026-05-01T09:21:47.352Z</time></trkpt><trkpt lat="39.8678335" lon="9.1407093"><ele>821.5</ele><time>2026-05-01T09:21:48.351Z</time></trkpt><trkpt lat="39.8677075" lon="9.1406918"><ele>820.25</ele><time>2026-05-01T09:21:49.352Z</time></trkpt><trkpt lat="39.8675837" lon="9.1406815"><ele>819.0</ele><time>2026-05-01T09:21:50.353Z</time></trkpt><trkpt lat="39.8674642" lon="9.1406707"><ele>818.25</ele><time>2026-05-01T09:21:51.351Z</time></trkpt><trkpt lat="39.8673443" lon="9.140656"><ele>817.5</ele><time>2026-05-01T09:21:52.355Z</time></trkpt><trkpt lat="39.867225" lon="9.1406278"><ele>816.75</ele><time>2026-05-01T09:21:53.35Z</time></trkpt><trkpt lat="39.867114" lon="9.1405923"><ele>816.0</ele><time>2026-05-01T09:21:54.353Z</time></trkpt><trkpt lat="39.867004" lon="9.1405453"><ele>816.0</ele><time>2026-05-01T09:21:55.351Z</time></trkpt><trkpt lat="39.866898" lon="9.1405092"><ele>816.0</ele><time>2026-05-01T09:21:56.352Z</time></trkpt><trkpt lat="39.8667818" lon="9.1404708"><ele>816.0</ele><time>2026-05-01T09:21:57.351Z</time></trkpt><trkpt lat="39.8666717" lon="9.1404295"><ele>816.0</ele><time>2026-05-01T09:21:58.35Z</time></trkpt><trkpt lat="39.8665672" lon="9.140377"><ele>816.0</ele><time>2026-05-01T09:21:59.349Z</time></trkpt><trkpt lat="39.8664623" lon="9.1403093"><ele>816.0</ele><time>2026-05-01T09:22:00.353Z</time></trkpt><trkpt lat="39.8663543" lon="9.1402337"><ele>816.0</ele><time>2026-05-01T09:22:01.351Z</time></trkpt><trkpt lat="39.8662525" lon="9.140166"><ele>816.0</ele><time>2026-05-01T09:22:02.354Z</time></trkpt><trkpt lat="39.8661592" lon="9.1400983"><ele>816.0</ele><time>2026-05-01T09:22:03.351Z</time></trkpt><trkpt lat="39.8660732" lon="9.1400288"><ele>816.0</ele><time>2026-05-01T09:22:04.35Z</time></trkpt><trkpt lat="39.8660007" lon="9.1399617"><ele>816.0</ele><time>2026-05-01T09:22:05.353Z</time></trkpt><trkpt lat="39.86595" lon="9.1399023"><ele>816.0</ele><time>2026-05-01T09:22:06.352Z</time></trkpt><trkpt lat="39.8659052" lon="9.1398352"><ele>816.0</ele><time>2026-05-01T09:22:07.353Z</time></trkpt><trkpt lat="39.8658747" lon="9.1397472"><ele>816.0</ele><time>2026-05-01T09:22:08.351Z</time></trkpt><trkpt lat="39.865857" lon="9.1396372"><ele>815.1999999999999</ele><time>2026-05-01T09:22:09.351Z</time></trkpt><trkpt lat="39.8658375" lon="9.1395085"><ele>814.4</ele><time>2026-05-01T09:22:10.351Z</time></trkpt><trkpt lat="39.8658075" lon="9.1393818"><ele>813.6</ele><time>2026-05-01T09:22:11.351Z</time></trkpt><trkpt lat="39.8657742" lon="9.1392592"><ele>812.8</ele><time>2026-05-01T09:22:12.351Z</time></trkpt><trkpt lat="39.8657413" lon="9.1391412"><ele>812.0</ele><time>2026-05-01T09:22:13.35Z</time></trkpt><trkpt lat="39.865705" lon="9.139033"><ele>812.0000000000001</ele><time>2026-05-01T09:22:14.35Z</time></trkpt><trkpt lat="39.8656793" lon="9.1389357"><ele>812.0</ele><time>2026-05-01T09:22:15.351Z</time></trkpt><trkpt lat="39.8656553" lon="9.1388463"><ele>812.0</ele><time>2026-05-01T09:22:16.352Z</time></trkpt><trkpt lat="39.8656313" lon="9.1387687"><ele>812.0</ele><time>2026-05-01T09:22:17.351Z</time></trkpt><trkpt lat="39.865604" lon="9.1386872"><ele>812.0000000000001</ele><time>2026-05-01T09:22:18.35Z</time></trkpt><trkpt lat="39.8655635" lon="9.138566"><ele>812.0</ele><time>2026-05-01T09:22:20.35Z</time></trkpt><trkpt lat="39.8654988" lon="9.138586"><ele>812.0000000000001</ele><time>2026-05-01T09:22:58.35Z</time></trkpt><trkpt lat="39.8654273" lon="9.138631"><ele>812.0</ele><time>2026-05-01T09:23:00.351Z</time></trkpt><trkpt lat="39.8653658" lon="9.1386743"><ele>812.0</ele><time>2026-05-01T09:23:01.353Z</time></trkpt><trkpt lat="39.8652905" lon="9.1387165"><ele>812.0</ele><time>2026-05-01T09:23:02.351Z</time></trkpt><trkpt lat="39.8652013" lon="9.138765"><ele>812.0000000000001</ele><time>2026-05-01T09:23:03.349Z</time></trkpt><trkpt lat="39.8651097" lon="9.138818"><ele>812.0</ele><time>2026-05-01T09:23:04.351Z</time></trkpt><trkpt lat="39.865016" lon="9.1388697"><ele>812.0</ele><time>2026-05-01T09:23:05.351Z</time></trkpt><trkpt lat="39.8649263" lon="9.1389175"><ele>812.0</ele><time>2026-05-01T09:23:06.35Z</time></trkpt><trkpt lat="39.86483" lon="9.138963"><ele>812.0</ele><time>2026-05-01T09:23:07.349Z</time></trkpt><trkpt lat="39.8647303" lon="9.139018"><ele>812.0</ele><time>2026-05-01T09:23:08.351Z</time></trkpt><trkpt lat="39.8646235" lon="9.139082"><ele>812.0</ele><time>2026-05-01T09:23:09.353Z</time></trkpt><trkpt lat="39.8645193" lon="9.1391378"><ele>812.0000000000001</ele><time>2026-05-01T09:23:10.351Z</time></trkpt><trkpt lat="39.8644258" lon="9.1391848"><ele>812.0</ele><time>2026-05-01T09:23:11.351Z</time></trkpt><trkpt lat="39.8643457" lon="9.1392332"><ele>812.0</ele><time>2026-05-01T09:23:12.351Z</time></trkpt><trkpt lat="39.8642732" lon="9.1392815"><ele>812.0</ele><time>2026-05-01T09:23:13.352Z</time></trkpt><trkpt lat="39.8642035" lon="9.1393255"><ele>812.0000000000001</ele><time>2026-05-01T09:23:14.349Z</time></trkpt><trkpt lat="39.8641335" lon="9.1393687"><ele>812.0</ele><time>2026-05-01T09:23:15.352Z</time></trkpt><trkpt lat="39.8640583" lon="9.1394135"><ele>811.2</ele><time>2026-05-01T09:23:16.351Z</time></trkpt><trkpt lat="39.8639782" lon="9.1394547"><ele>810.4000000000001</ele><time>2026-05-01T09:23:17.349Z</time></trkpt><trkpt lat="39.863892" lon="9.1395042"><ele>809.5999999999999</ele><time>2026-05-01T09:23:18.351Z</time></trkpt><trkpt lat="39.8637972" lon="9.1395578"><ele>808.8</ele><time>2026-05-01T09:23:19.349Z</time></trkpt><trkpt lat="39.8636975" lon="9.1396138"><ele>808.0</ele><time>2026-05-01T09:23:20.36Z</time></trkpt><trkpt lat="39.8635983" lon="9.1396757"><ele>808.0</ele><time>2026-05-01T09:23:21.351Z</time></trkpt><trkpt lat="39.8634983" lon="9.1397382"><ele>808.0</ele><time>2026-05-01T09:23:22.352Z</time></trkpt><trkpt lat="39.8633985" lon="9.1397972"><ele>808.0</ele><time>2026-05-01T09:23:23.352Z</time></trkpt><trkpt lat="39.863309" lon="9.1398523"><ele>808.0</ele><time>2026-05-01T09:23:24.352Z</time></trkpt><trkpt lat="39.8632353" lon="9.139896"><ele>808.0</ele><time>2026-05-01T09:23:25.353Z</time></trkpt><trkpt lat="39.8631668" lon="9.1399303"><ele>807.6666666666666</ele><time>2026-05-01T09:23:26.352Z</time></trkpt><trkpt lat="39.863084" lon="9.1399795"><ele>807.3333333333333</ele><time>2026-05-01T09:23:28.353Z</time></trkpt><trkpt lat="39.8630187" lon="9.1400203"><ele>807.0</ele><time>2026-05-01T09:23:30.351Z</time></trkpt><trkpt lat="39.8629563" lon="9.1400567"><ele>806.6666666666667</ele><time>2026-05-01T09:23:32.354Z</time></trkpt><trkpt lat="39.862879" lon="9.1401018"><ele>806.3333333333334</ele><time>2026-05-01T09:23:34.351Z</time></trkpt><trkpt lat="39.8627853" lon="9.1401463"><ele>806.0</ele><time>2026-05-01T09:23:36.353Z</time></trkpt><trkpt lat="39.8627202" lon="9.140171"><ele>806.0000000000001</ele><time>2026-05-01T09:23:37.352Z</time></trkpt><trkpt lat="39.8626548" lon="9.1402063"><ele>806.0</ele><time>2026-05-01T09:23:38.352Z</time></trkpt><trkpt lat="39.8625888" lon="9.1402457"><ele>806.0</ele><time>2026-05-01T09:23:39.351Z</time></trkpt><trkpt lat="39.8625202" lon="9.140286"><ele>806.0</ele><time>2026-05-01T09:23:40.35Z</time></trkpt><trkpt lat="39.8624497" lon="9.140327"><ele>806.0000000000001</ele><time>2026-05-01T09:23:41.353Z</time></trkpt><trkpt lat="39.862381" lon="9.1403747"><ele>806.0</ele><time>2026-05-01T09:23:42.351Z</time></trkpt><trkpt lat="39.8623073" lon="9.1404157"><ele>805.6666666666667</ele><time>2026-05-01T09:23:43.352Z</time></trkpt><trkpt lat="39.86224" lon="9.1404543"><ele>805.3333333333334</ele><time>2026-05-01T09:23:44.352Z</time></trkpt><trkpt lat="39.8621827" lon="9.1404912"><ele>805.0</ele><time>2026-05-01T09:23:45.353Z</time></trkpt><trkpt lat="39.8620833" lon="9.1405488"><ele>804.6666666666667</ele><time>2026-05-01T09:23:47.353Z</time></trkpt><trkpt lat="39.862027" lon="9.1406022"><ele>804.3333333333334</ele><time>2026-05-01T09:23:49.352Z</time></trkpt><trkpt lat="39.8619357" lon="9.1406368"><ele>804.0</ele><time>2026-05-01T09:24:06.354Z</time></trkpt><trkpt lat="39.861852" lon="9.1406752"><ele>804.2857142857142</ele><time>2026-05-01T09:24:08.36Z</time></trkpt><trkpt lat="39.8617702" lon="9.140734"><ele>804.5714285714287</ele><time>2026-05-01T09:24:10.354Z</time></trkpt><trkpt lat="39.8617158" lon="9.1407753"><ele>804.8571428571429</ele><time>2026-05-01T09:24:12.353Z</time></trkpt><trkpt lat="39.861661" lon="9.1408195"><ele>805.1428571428571</ele><time>2026-05-01T09:26:11.351Z</time></trkpt><trkpt lat="39.8616" lon="9.1408472"><ele>805.4285714285713</ele><time>2026-05-01T09:26:13.352Z</time></trkpt><trkpt lat="39.8615183" lon="9.1408905"><ele>805.7142857142858</ele><time>2026-05-01T09:26:15.35Z</time></trkpt><trkpt lat="39.8614507" lon="9.1409203"><ele>806.0</ele><time>2026-05-01T09:26:17.353Z</time></trkpt><trkpt lat="39.8613778" lon="9.1409562"><ele>806.0000000000001</ele><time>2026-05-01T09:26:22.351Z</time></trkpt><trkpt lat="39.8613035" lon="9.14099"><ele>806.0</ele><time>2026-05-01T09:26:26.351Z</time></trkpt><trkpt lat="39.8612178" lon="9.1410223"><ele>806.0</ele><time>2026-05-01T09:26:30.352Z</time></trkpt><trkpt lat="39.8611535" lon="9.1410593"><ele>806.0</ele><time>2026-05-01T09:26:32.353Z</time></trkpt><trkpt lat="39.8610703" lon="9.1411185"><ele>806.0000000000001</ele><time>2026-05-01T09:26:34.35Z</time></trkpt><trkpt lat="39.8609985" lon="9.14116"><ele>806.0</ele><time>2026-05-01T09:26:36.35Z</time></trkpt><trkpt lat="39.8609205" lon="9.1411972"><ele>805.5000000000001</ele><time>2026-05-01T09:26:39.35Z</time></trkpt><trkpt lat="39.8608553" lon="9.1412483"><ele>805.0</ele><time>2026-05-01T09:26:41.35Z</time></trkpt><trkpt lat="39.8607877" lon="9.1413067"><ele>804.5</ele><time>2026-05-01T09:26:43.353Z</time></trkpt><trkpt lat="39.8607213" lon="9.1413608"><ele>804.0</ele><time>2026-05-01T09:26:45.351Z</time></trkpt><trkpt lat="39.8606223" lon="9.1414325"><ele>803.5000000000001</ele><time>2026-05-01T09:26:50.35Z</time></trkpt><trkpt lat="39.860544" lon="9.1414688"><ele>803.0</ele><time>2026-05-01T09:26:52.35Z</time></trkpt><trkpt lat="39.8604653" lon="9.1415088"><ele>803.8</ele><time>2026-05-01T09:26:54.349Z</time></trkpt><trkpt lat="39.860367" lon="9.1415548"><ele>804.5999999999999</ele><time>2026-05-01T09:26:56.352Z</time></trkpt><trkpt lat="39.8602492" lon="9.1416083"><ele>805.4000000000001</ele><time>2026-05-01T09:26:58.351Z</time></trkpt><trkpt lat="39.8601477" lon="9.1416647"><ele>806.2</ele><time>2026-05-01T09:27:00.351Z</time></trkpt><trkpt lat="39.8600495" lon="9.141719"><ele>807.0</ele><time>2026-05-01T09:27:02.35Z</time></trkpt><trkpt lat="39.8599708" lon="9.1417647"><ele>807.0</ele><time>2026-05-01T09:27:04.353Z</time></trkpt><trkpt lat="39.8598912" lon="9.1417977"><ele>807.0</ele><time>2026-05-01T09:27:06.349Z</time></trkpt><trkpt lat="39.8598007" lon="9.1418452"><ele>807.0</ele><time>2026-05-01T09:27:08.351Z</time></trkpt><trkpt lat="39.8596817" lon="9.1419185"><ele>807.0</ele><time>2026-05-01T09:27:10.35Z</time></trkpt><trkpt lat="39.8596128" lon="9.1419593"><ele>807.0</ele><time>2026-05-01T09:27:11.348Z</time></trkpt><trkpt lat="39.8595437" lon="9.1420077"><ele>807.0</ele><time>2026-05-01T09:27:12.354Z</time></trkpt><trkpt lat="39.859468" lon="9.1420437"><ele>807.0</ele><time>2026-05-01T09:27:13.349Z</time></trkpt><trkpt lat="39.8593965" lon="9.1420807"><ele>807.0</ele><time>2026-05-01T09:27:14.35Z</time></trkpt><trkpt lat="39.859333" lon="9.142114"><ele>807.0</ele><time>2026-05-01T09:27:15.351Z</time></trkpt><trkpt lat="39.8592663" lon="9.1421488"><ele>807.0</ele><time>2026-05-01T09:27:16.35Z</time></trkpt><trkpt lat="39.8591988" lon="9.1421903"><ele>807.0</ele><time>2026-05-01T09:27:17.353Z</time></trkpt><trkpt lat="39.8591263" lon="9.1422328"><ele>807.0</ele><time>2026-05-01T09:27:18.349Z</time></trkpt><trkpt lat="39.859052" lon="9.142269"><ele>807.0</ele><time>2026-05-01T09:27:19.354Z</time></trkpt><trkpt lat="39.8589765" lon="9.1423115"><ele>807.0</ele><time>2026-05-01T09:27:20.35Z</time></trkpt><trkpt lat="39.858905" lon="9.1423552"><ele>807.0</ele><time>2026-05-01T09:27:21.35Z</time></trkpt><trkpt lat="39.8588408" lon="9.142395"><ele>807.0</ele><time>2026-05-01T09:27:22.35Z</time></trkpt><trkpt lat="39.8587262" lon="9.1424647"><ele>807.0</ele><time>2026-05-01T09:27:24.356Z</time></trkpt><trkpt lat="39.8586712" lon="9.1425113"><ele>807.3333333333334</ele><time>2026-05-01T09:27:25.35Z</time></trkpt><trkpt lat="39.85861" lon="9.1425552"><ele>807.6666666666667</ele><time>2026-05-01T09:27:26.35Z</time></trkpt><trkpt lat="39.8585487" lon="9.1425978"><ele>808.0</ele><time>2026-05-01T09:27:27.35Z</time></trkpt><trkpt lat="39.8584373" lon="9.1426472"><ele>808.3333333333334</ele><time>2026-05-01T09:27:29.35Z</time></trkpt><trkpt lat="39.8583535" lon="9.1427007"><ele>808.6666666666667</ele><time>2026-05-01T09:27:31.353Z</time></trkpt><trkpt lat="39.8582792" lon="9.1427482"><ele>809.0</ele><time>2026-05-01T09:27:33.354Z</time></trkpt><trkpt lat="39.8581845" lon="9.1427983"><ele>809.0</ele><time>2026-05-01T09:27:35.35Z</time></trkpt><trkpt lat="39.858126" lon="9.1428383"><ele>809.0</ele><time>2026-05-01T09:27:36.352Z</time></trkpt><trkpt lat="39.85806" lon="9.1428795"><ele>809.0</ele><time>2026-05-01T09:27:37.357Z</time></trkpt><trkpt lat="39.8579933" lon="9.1429153"><ele>809.0</ele><time>2026-05-01T09:27:38.351Z</time></trkpt><trkpt lat="39.8579233" lon="9.142954"><ele>809.0</ele><time>2026-05-01T09:27:39.351Z</time></trkpt><trkpt lat="39.8578567" lon="9.1429917"><ele>809.0</ele><time>2026-05-01T09:27:40.352Z</time></trkpt><trkpt lat="39.8577972" lon="9.1430238"><ele>809.0</ele><time>2026-05-01T09:27:41.35Z</time></trkpt><trkpt lat="39.8576882" lon="9.1430882"><ele>809.4000000000001</ele><time>2026-05-01T09:27:43.349Z</time></trkpt><trkpt lat="39.8575798" lon="9.1431462"><ele>809.8</ele><time>2026-05-01T09:27:45.35Z</time></trkpt><trkpt lat="39.8574632" lon="9.1432025"><ele>810.2</ele><time>2026-05-01T09:27:47.351Z</time></trkpt><trkpt lat="39.8573395" lon="9.143251"><ele>810.5999999999999</ele><time>2026-05-01T09:27:49.352Z</time></trkpt><trkpt lat="39.8572728" lon="9.1432897"><ele>811.0</ele><time>2026-05-01T09:27:50.351Z</time></trkpt><trkpt lat="39.8572015" lon="9.143337"><ele>810.9999999999999</ele><time>2026-05-01T09:27:51.356Z</time></trkpt><trkpt lat="39.8571358" lon="9.143376"><ele>811.0</ele><time>2026-05-01T09:27:52.349Z</time></trkpt><trkpt lat="39.8570758" lon="9.1434143"><ele>811.0</ele><time>2026-05-01T09:27:53.35Z</time></trkpt><trkpt lat="39.856966" lon="9.143475"><ele>811.0</ele><time>2026-05-01T09:27:55.35Z</time></trkpt><trkpt lat="39.856854" lon="9.1435397"><ele>810.9999999999999</ele><time>2026-05-01T09:27:57.352Z</time></trkpt><trkpt lat="39.8567968" lon="9.1435743"><ele>811.0</ele><time>2026-05-01T09:27:58.35Z</time></trkpt><trkpt lat="39.8567363" lon="9.1436038"><ele>810.9999999999999</ele><time>2026-05-01T09:27:59.352Z</time></trkpt><trkpt lat="39.856643" lon="9.143651"><ele>811.0</ele><time>2026-05-01T09:28:01.349Z</time></trkpt><trkpt lat="39.8565882" lon="9.1436928"><ele>811.0</ele><time>2026-05-01T09:28:13.359Z</time></trkpt><trkpt lat="39.8565295" lon="9.1437368"><ele>811.0</ele><time>2026-05-01T09:28:16.35Z</time></trkpt><trkpt lat="39.8564418" lon="9.14379"><ele>810.9999999999999</ele><time>2026-05-01T09:28:18.351Z</time></trkpt><trkpt lat="39.8563493" lon="9.1438207"><ele>811.0</ele><time>2026-05-01T09:28:20.356Z</time></trkpt><trkpt lat="39.856249" lon="9.143871"><ele>811.0</ele><time>2026-05-01T09:28:22.35Z</time></trkpt><trkpt lat="39.856148" lon="9.1439408"><ele>811.0</ele><time>2026-05-01T09:28:24.349Z</time></trkpt><trkpt lat="39.8560388" lon="9.1440103"><ele>811.0</ele><time>2026-05-01T09:28:26.351Z</time></trkpt><trkpt lat="39.8559342" lon="9.1440797"><ele>811.0</ele><time>2026-05-01T09:28:28.353Z</time></trkpt><trkpt lat="39.8558193" lon="9.1441385"><ele>811.6666666666666</ele><time>2026-05-01T09:28:30.351Z</time></trkpt><trkpt lat="39.8557253" lon="9.1441895"><ele>812.3333333333333</ele><time>2026-05-01T09:28:32.351Z</time></trkpt><trkpt lat="39.8556517" lon="9.1442313"><ele>813.0</ele><time>2026-05-01T09:28:34.351Z</time></trkpt><trkpt lat="39.8555828" lon="9.1442973"><ele>813.6666666666667</ele><time>2026-05-01T09:28:36.351Z</time></trkpt><trkpt lat="39.8554922" lon="9.1443685"><ele>814.3333333333334</ele><time>2026-05-01T09:28:38.356Z</time></trkpt><trkpt lat="39.855434" lon="9.1444055"><ele>815.0</ele><time>2026-05-01T09:28:39.352Z</time></trkpt><trkpt lat="39.8553135" lon="9.144463"><ele>815.0</ele><time>2026-05-01T09:28:41.349Z</time></trkpt><trkpt lat="39.8552507" lon="9.1444898"><ele>815.0</ele><time>2026-05-01T09:28:42.351Z</time></trkpt><trkpt lat="39.855187" lon="9.1445145"><ele>815.0</ele><time>2026-05-01T09:28:43.35Z</time></trkpt><trkpt lat="39.8551255" lon="9.1445368"><ele>815.0</ele><time>2026-05-01T09:28:44.351Z</time></trkpt><trkpt lat="39.8550637" lon="9.1445612"><ele>815.0</ele><time>2026-05-01T09:28:45.349Z</time></trkpt><trkpt lat="39.8550008" lon="9.1445928"><ele>815.0</ele><time>2026-05-01T09:28:46.352Z</time></trkpt><trkpt lat="39.8549077" lon="9.144659"><ele>815.0</ele><time>2026-05-01T09:28:48.35Z</time></trkpt><trkpt lat="39.8548067" lon="9.1447137"><ele>815.0000000000001</ele><time>2026-05-01T09:28:50.352Z</time></trkpt><trkpt lat="39.8547473" lon="9.1447432"><ele>815.0</ele><time>2026-05-01T09:28:51.349Z</time></trkpt><trkpt lat="39.8546867" lon="9.1447795"><ele>815.0</ele><time>2026-05-01T09:28:52.353Z</time></trkpt><trkpt lat="39.8546252" lon="9.1448152"><ele>815.0</ele><time>2026-05-01T09:28:53.35Z</time></trkpt><trkpt lat="39.8545645" lon="9.1448535"><ele>815.0000000000001</ele><time>2026-05-01T09:28:54.351Z</time></trkpt><trkpt lat="39.8544612" lon="9.1449195"><ele>815.0</ele><time>2026-05-01T09:28:56.349Z</time></trkpt><trkpt lat="39.854353" lon="9.1449648"><ele>815.6</ele><time>2026-05-01T09:28:58.352Z</time></trkpt><trkpt lat="39.8542462" lon="9.1450108"><ele>816.2</ele><time>2026-05-01T09:29:00.352Z</time></trkpt><trkpt lat="39.8541447" lon="9.1450628"><ele>816.8</ele><time>2026-05-01T09:29:02.354Z</time></trkpt><trkpt lat="39.8540415" lon="9.1451342"><ele>817.4</ele><time>2026-05-01T09:29:04.35Z</time></trkpt><trkpt lat="39.8539637" lon="9.1451843"><ele>818.0</ele><time>2026-05-01T09:29:06.357Z</time></trkpt><trkpt lat="39.8538992" lon="9.1452242"><ele>818.0000000000001</ele><time>2026-05-01T09:29:08.352Z</time></trkpt><trkpt lat="39.8538493" lon="9.1452807"><ele>818.0</ele><time>2026-05-01T09:30:00.35Z</time></trkpt><trkpt lat="39.8537943" lon="9.1453348"><ele>818.0</ele><time>2026-05-01T09:30:02.354Z</time></trkpt><trkpt lat="39.853708" lon="9.1453917"><ele>818.0</ele><time>2026-05-01T09:30:04.352Z</time></trkpt><trkpt lat="39.8536062" lon="9.145453"><ele>818.0000000000001</ele><time>2026-05-01T09:30:06.354Z</time></trkpt><trkpt lat="39.8535465" lon="9.1454817"><ele>818.0</ele><time>2026-05-01T09:30:07.351Z</time></trkpt><trkpt lat="39.853487" lon="9.1455135"><ele>817.75</ele><time>2026-05-01T09:30:08.351Z</time></trkpt><trkpt lat="39.8533722" lon="9.1455755"><ele>817.5</ele><time>2026-05-01T09:30:10.351Z</time></trkpt><trkpt lat="39.8532783" lon="9.1456183"><ele>817.25</ele><time>2026-05-01T09:30:12.35Z</time></trkpt><trkpt lat="39.8531827" lon="9.145679"><ele>817.0</ele><time>2026-05-01T09:30:14.35Z</time></trkpt><trkpt lat="39.8530698" lon="9.1457502"><ele>816.8333333333333</ele><time>2026-05-01T09:30:16.351Z</time></trkpt><trkpt lat="39.85297" lon="9.1458073"><ele>816.6666666666666</ele><time>2026-05-01T09:30:18.357Z</time></trkpt><trkpt lat="39.8528623" lon="9.1458647"><ele>816.5</ele><time>2026-05-01T09:30:20.353Z</time></trkpt><trkpt lat="39.8528047" lon="9.1459002"><ele>816.3333333333333</ele><time>2026-05-01T09:30:21.352Z</time></trkpt><trkpt lat="39.8527442" lon="9.1459338"><ele>816.1666666666666</ele><time>2026-05-01T09:30:22.35Z</time></trkpt><trkpt lat="39.8526845" lon="9.1459743"><ele>816.0</ele><time>2026-05-01T09:30:23.355Z</time></trkpt><trkpt lat="39.852582" lon="9.1460157"><ele>816.0</ele><time>2026-05-01T09:30:25.349Z</time></trkpt><trkpt lat="39.8525033" lon="9.146042"><ele>816.0</ele><time>2026-05-01T09:30:27.351Z</time></trkpt><trkpt lat="39.8524137" lon="9.1461045"><ele>816.0</ele><time>2026-05-01T09:30:29.351Z</time></trkpt><trkpt lat="39.8523118" lon="9.1461637"><ele>816.0</ele><time>2026-05-01T09:30:31.353Z</time></trkpt><trkpt lat="39.8521982" lon="9.146237"><ele>816.0</ele><time>2026-05-01T09:30:33.357Z</time></trkpt><trkpt lat="39.8521393" lon="9.146266"><ele>816.0</ele><time>2026-05-01T09:30:34.351Z</time></trkpt><trkpt lat="39.852081" lon="9.1463008"><ele>816.0</ele><time>2026-05-01T09:30:35.352Z</time></trkpt><trkpt lat="39.8520207" lon="9.1463348"><ele>816.0</ele><time>2026-05-01T09:30:36.352Z</time></trkpt><trkpt lat="39.851963" lon="9.1463695"><ele>816.0</ele><time>2026-05-01T09:30:37.35Z</time></trkpt><trkpt lat="39.8518512" lon="9.1464367"><ele>816.0</ele><time>2026-05-01T09:30:39.349Z</time></trkpt><trkpt lat="39.8517935" lon="9.1464727"><ele>816.0</ele><time>2026-05-01T09:30:40.355Z</time></trkpt><trkpt lat="39.8516795" lon="9.1465392"><ele>816.1999999999999</ele><time>2026-05-01T09:30:42.349Z</time></trkpt><trkpt lat="39.85157" lon="9.146602"><ele>816.4</ele><time>2026-05-01T09:30:44.353Z</time></trkpt><trkpt lat="39.8515095" lon="9.1466393"><ele>816.6</ele><time>2026-05-01T09:30:45.35Z</time></trkpt><trkpt lat="39.8513977" lon="9.1466912"><ele>816.8</ele><time>2026-05-01T09:30:47.352Z</time></trkpt><trkpt lat="39.8512953" lon="9.1467543"><ele>817.0</ele><time>2026-05-01T09:30:49.351Z</time></trkpt><trkpt lat="39.8512362" lon="9.1467872"><ele>816.9999999999999</ele><time>2026-05-01T09:30:50.35Z</time></trkpt><trkpt lat="39.8511768" lon="9.1468165"><ele>817.0</ele><time>2026-05-01T09:30:51.351Z</time></trkpt><trkpt lat="39.8511137" lon="9.1468565"><ele>817.0</ele><time>2026-05-01T09:30:52.352Z</time></trkpt><trkpt lat="39.8510485" lon="9.1468963"><ele>817.0</ele><time>2026-05-01T09:30:53.351Z</time></trkpt><trkpt lat="39.8509818" lon="9.146928"><ele>817.0</ele><time>2026-05-01T09:30:54.349Z</time></trkpt><trkpt lat="39.8509138" lon="9.146957"><ele>816.9999999999999</ele><time>2026-05-01T09:30:55.355Z</time></trkpt><trkpt lat="39.850845" lon="9.1469875"><ele>817.0</ele><time>2026-05-01T09:30:56.35Z</time></trkpt><trkpt lat="39.8507765" lon="9.1470237"><ele>816.8333333333333</ele><time>2026-05-01T09:30:57.35Z</time></trkpt><trkpt lat="39.8507145" lon="9.147063"><ele>816.6666666666666</ele><time>2026-05-01T09:30:58.349Z</time></trkpt><trkpt lat="39.8506533" lon="9.1470978"><ele>816.5</ele><time>2026-05-01T09:30:59.351Z</time></trkpt><trkpt lat="39.8505948" lon="9.1471357"><ele>816.3333333333333</ele><time>2026-05-01T09:31:00.35Z</time></trkpt><trkpt lat="39.8505365" lon="9.1471708"><ele>816.1666666666666</ele><time>2026-05-01T09:31:01.351Z</time></trkpt><trkpt lat="39.8504328" lon="9.1472368"><ele>816.0</ele><time>2026-05-01T09:31:03.35Z</time></trkpt><trkpt lat="39.8503537" lon="9.1472962"><ele>816.0</ele><time>2026-05-01T09:31:05.351Z</time></trkpt><trkpt lat="39.8502932" lon="9.147325"><ele>816.0</ele><time>2026-05-01T09:31:07.353Z</time></trkpt><trkpt lat="39.8502228" lon="9.147354"><ele>816.0</ele><time>2026-05-01T09:31:09.351Z</time></trkpt><trkpt lat="39.8501337" lon="9.1473903"><ele>816.0</ele><time>2026-05-01T09:31:11.352Z</time></trkpt><trkpt lat="39.850033" lon="9.1474467"><ele>816.0</ele><time>2026-05-01T09:31:13.349Z</time></trkpt><trkpt lat="39.8499233" lon="9.1475017"><ele>817.1999999999999</ele><time>2026-05-01T09:31:15.35Z</time></trkpt><trkpt lat="39.8498068" lon="9.147569"><ele>818.4</ele><time>2026-05-01T09:31:17.35Z</time></trkpt><trkpt lat="39.8497478" lon="9.1476153"><ele>819.6</ele><time>2026-05-01T09:31:18.349Z</time></trkpt><trkpt lat="39.8496857" lon="9.1476627"><ele>820.8</ele><time>2026-05-01T09:31:19.354Z</time></trkpt><trkpt lat="39.8496323" lon="9.147715"><ele>822.0</ele><time>2026-05-01T09:31:20.351Z</time></trkpt><trkpt lat="39.8495157" lon="9.1477668"><ele>822.0</ele><time>2026-05-01T09:31:22.352Z</time></trkpt><trkpt lat="39.8494055" lon="9.147822"><ele>822.0</ele><time>2026-05-01T09:31:24.35Z</time></trkpt><trkpt lat="39.8492932" lon="9.1478872"><ele>822.0</ele><time>2026-05-01T09:31:26.355Z</time></trkpt><trkpt lat="39.8491835" lon="9.147949"><ele>822.0</ele><time>2026-05-01T09:31:28.35Z</time></trkpt><trkpt lat="39.8491183" lon="9.1479853"><ele>822.0</ele><time>2026-05-01T09:31:29.352Z</time></trkpt><trkpt lat="39.8490517" lon="9.148022"><ele>821.6666666666666</ele><time>2026-05-01T09:31:30.351Z</time></trkpt><trkpt lat="39.8489813" lon="9.1480623"><ele>821.3333333333333</ele><time>2026-05-01T09:31:31.355Z</time></trkpt><trkpt lat="39.8489157" lon="9.1481067"><ele>821.0</ele><time>2026-05-01T09:31:32.351Z</time></trkpt><trkpt lat="39.8488453" lon="9.1481535"><ele>820.6666666666666</ele><time>2026-05-01T09:31:33.356Z</time></trkpt><trkpt lat="39.8487728" lon="9.1481968"><ele>820.3333333333333</ele><time>2026-05-01T09:31:34.35Z</time></trkpt><trkpt lat="39.8487027" lon="9.1482315"><ele>820.0</ele><time>2026-05-01T09:31:35.351Z</time></trkpt><trkpt lat="39.8486327" lon="9.1482685"><ele>819.9999999999999</ele><time>2026-05-01T09:31:36.353Z</time></trkpt><trkpt lat="39.8485613" lon="9.1483048"><ele>820.0</ele><time>2026-05-01T09:31:37.351Z</time></trkpt><trkpt lat="39.8484968" lon="9.148339"><ele>820.0</ele><time>2026-05-01T09:31:38.355Z</time></trkpt><trkpt lat="39.8484365" lon="9.1483763"><ele>820.0</ele><time>2026-05-01T09:31:39.352Z</time></trkpt><trkpt lat="39.8483777" lon="9.148413"><ele>819.9999999999999</ele><time>2026-05-01T09:31:40.353Z</time></trkpt><trkpt lat="39.8483195" lon="9.1484477"><ele>820.0</ele><time>2026-05-01T09:31:41.352Z</time></trkpt><trkpt lat="39.8482155" lon="9.1485127"><ele>819.8333333333333</ele><time>2026-05-01T09:31:43.352Z</time></trkpt><trkpt lat="39.8481238" lon="9.1485497"><ele>819.6666666666666</ele><time>2026-05-01T09:31:45.351Z</time></trkpt><trkpt lat="39.8480395" lon="9.1485957"><ele>819.5</ele><time>2026-05-01T09:31:48.352Z</time></trkpt><trkpt lat="39.84797" lon="9.1486388"><ele>819.3333333333333</ele><time>2026-05-01T09:31:51.351Z</time></trkpt><trkpt lat="39.8479042" lon="9.148675"><ele>819.1666666666666</ele><time>2026-05-01T09:31:54.353Z</time></trkpt><trkpt lat="39.847815" lon="9.148734"><ele>819.0</ele><time>2026-05-01T09:31:57.351Z</time></trkpt><trkpt lat="39.8477257" lon="9.1487727"><ele>819.3333333333334</ele><time>2026-05-01T09:31:59.357Z</time></trkpt><trkpt lat="39.8476207" lon="9.148832"><ele>819.6666666666667</ele><time>2026-05-01T09:32:01.351Z</time></trkpt><trkpt lat="39.8475577" lon="9.1488718"><ele>820.0</ele><time>2026-05-01T09:32:02.352Z</time></trkpt><trkpt lat="39.8474963" lon="9.1489117"><ele>820.3333333333334</ele><time>2026-05-01T09:32:03.352Z</time></trkpt><trkpt lat="39.8474342" lon="9.1489463"><ele>820.6666666666667</ele><time>2026-05-01T09:32:04.358Z</time></trkpt><trkpt lat="39.8473207" lon="9.149002"><ele>821.0</ele><time>2026-05-01T09:32:06.349Z</time></trkpt><trkpt lat="39.8472562" lon="9.1490415"><ele>821.1428571428572</ele><time>2026-05-01T09:32:07.352Z</time></trkpt><trkpt lat="39.8471898" lon="9.1490808"><ele>821.2857142857143</ele><time>2026-05-01T09:32:08.351Z</time></trkpt><trkpt lat="39.8471232" lon="9.1491227"><ele>821.4285714285714</ele><time>2026-05-01T09:32:09.355Z</time></trkpt><trkpt lat="39.8470633" lon="9.1491718"><ele>821.5714285714287</ele><time>2026-05-01T09:32:10.354Z</time></trkpt><trkpt lat="39.8470035" lon="9.149224"><ele>821.7142857142857</ele><time>2026-05-01T09:32:11.352Z</time></trkpt><trkpt lat="39.8469367" lon="9.1492637"><ele>821.8571428571429</ele><time>2026-05-01T09:32:12.353Z</time></trkpt><trkpt lat="39.8468723" lon="9.1493035"><ele>822.0</ele><time>2026-05-01T09:32:13.351Z</time></trkpt><trkpt lat="39.8468047" lon="9.1493462"><ele>821.6666666666666</ele><time>2026-05-01T09:32:14.35Z</time></trkpt><trkpt lat="39.8467327" lon="9.1493907"><ele>821.3333333333333</ele><time>2026-05-01T09:32:15.351Z</time></trkpt><trkpt lat="39.8466618" lon="9.1494343"><ele>821.0</ele><time>2026-05-01T09:32:16.351Z</time></trkpt><trkpt lat="39.8465817" lon="9.1494793"><ele>820.6666666666666</ele><time>2026-05-01T09:32:17.35Z</time></trkpt><trkpt lat="39.8465" lon="9.149523"><ele>820.3333333333333</ele><time>2026-05-01T09:32:18.352Z</time></trkpt><trkpt lat="39.8464153" lon="9.1495707"><ele>820.0</ele><time>2026-05-01T09:32:19.351Z</time></trkpt><trkpt lat="39.8463252" lon="9.1496305"><ele>820.0</ele><time>2026-05-01T09:32:20.35Z</time></trkpt><trkpt lat="39.8462317" lon="9.1496792"><ele>820.0</ele><time>2026-05-01T09:32:21.351Z</time></trkpt><trkpt lat="39.8461307" lon="9.1497313"><ele>820.0</ele><time>2026-05-01T09:32:22.351Z</time></trkpt><trkpt lat="39.8460385" lon="9.1497852"><ele>820.0</ele><time>2026-05-01T09:32:23.351Z</time></trkpt><trkpt lat="39.8459478" lon="9.1498372"><ele>820.0</ele><time>2026-05-01T09:32:24.35Z</time></trkpt><trkpt lat="39.8458582" lon="9.1498907"><ele>820.1666666666666</ele><time>2026-05-01T09:32:25.357Z</time></trkpt><trkpt lat="39.8457692" lon="9.1499413"><ele>820.3333333333333</ele><time>2026-05-01T09:32:26.353Z</time></trkpt><trkpt lat="39.8456862" lon="9.1499903"><ele>820.5</ele><time>2026-05-01T09:32:27.353Z</time></trkpt><trkpt lat="39.845602" lon="9.15004"><ele>820.6666666666667</ele><time>2026-05-01T09:32:28.351Z</time></trkpt><trkpt lat="39.8455247" lon="9.1500842"><ele>820.8333333333334</ele><time>2026-05-01T09:32:29.35Z</time></trkpt><trkpt lat="39.8454475" lon="9.1501282"><ele>821.0</ele><time>2026-05-01T09:32:30.352Z</time></trkpt><trkpt lat="39.8453745" lon="9.1501743"><ele>821.0000000000001</ele><time>2026-05-01T09:32:31.352Z</time></trkpt><trkpt lat="39.8453023" lon="9.1502208"><ele>821.0</ele><time>2026-05-01T09:32:32.352Z</time></trkpt><trkpt lat="39.8452233" lon="9.1502712"><ele>821.0</ele><time>2026-05-01T09:32:33.353Z</time></trkpt><trkpt lat="39.8451402" lon="9.150322"><ele>821.0</ele><time>2026-05-01T09:32:34.351Z</time></trkpt><trkpt lat="39.8450557" lon="9.1503578"><ele>821.0000000000001</ele><time>2026-05-01T09:32:35.352Z</time></trkpt><trkpt lat="39.844972" lon="9.1503893"><ele>821.0</ele><time>2026-05-01T09:32:36.351Z</time></trkpt><trkpt lat="39.8448903" lon="9.1504087"><ele>822.3333333333334</ele><time>2026-05-01T09:32:37.352Z</time></trkpt><trkpt lat="39.8448105" lon="9.1504328"><ele>823.6666666666667</ele><time>2026-05-01T09:32:38.353Z</time></trkpt><trkpt lat="39.844732" lon="9.1504672"><ele>825.0</ele><time>2026-05-01T09:32:39.356Z</time></trkpt><trkpt lat="39.8446567" lon="9.1505075"><ele>826.3333333333333</ele><time>2026-05-01T09:32:40.357Z</time></trkpt><trkpt lat="39.84458" lon="9.1505573"><ele>827.6666666666666</ele><time>2026-05-01T09:32:41.352Z</time></trkpt><trkpt lat="39.8444943" lon="9.150607"><ele>829.0</ele><time>2026-05-01T09:32:42.352Z</time></trkpt><trkpt lat="39.8444007" lon="9.1506583"><ele>828.6</ele><time>2026-05-01T09:32:43.351Z</time></trkpt><trkpt lat="39.8443037" lon="9.1507098"><ele>828.2</ele><time>2026-05-01T09:32:44.352Z</time></trkpt><trkpt lat="39.8442113" lon="9.150764"><ele>827.8000000000001</ele><time>2026-05-01T09:32:45.353Z</time></trkpt><trkpt lat="39.8441183" lon="9.1508103"><ele>827.4000000000001</ele><time>2026-05-01T09:32:46.351Z</time></trkpt><trkpt lat="39.8440282" lon="9.1508577"><ele>827.0</ele><time>2026-05-01T09:32:47.352Z</time></trkpt><trkpt lat="39.8439502" lon="9.1509007"><ele>828.0000000000001</ele><time>2026-05-01T09:32:48.351Z</time></trkpt><trkpt lat="39.8438812" lon="9.1509547"><ele>829.0</ele><time>2026-05-01T09:32:49.351Z</time></trkpt><trkpt lat="39.8438207" lon="9.1510253"><ele>830.0</ele><time>2026-05-01T09:32:50.352Z</time></trkpt><trkpt lat="39.8437748" lon="9.1511095"><ele>831.0</ele><time>2026-05-01T09:32:51.355Z</time></trkpt><trkpt lat="39.8437188" lon="9.1511963"><ele>832.0000000000001</ele><time>2026-05-01T09:32:52.35Z</time></trkpt><trkpt lat="39.8436617" lon="9.151294"><ele>833.0</ele><time>2026-05-01T09:32:53.35Z</time></trkpt><trkpt lat="39.8436" lon="9.1513977"><ele>833.0</ele><time>2026-05-01T09:32:54.351Z</time></trkpt><trkpt lat="39.8435375" lon="9.1515037"><ele>833.0</ele><time>2026-05-01T09:32:55.352Z</time></trkpt><trkpt lat="39.8434818" lon="9.1516115"><ele>833.0</ele><time>2026-05-01T09:32:56.351Z</time></trkpt><trkpt lat="39.8434315" lon="9.151722"><ele>833.0</ele><time>2026-05-01T09:32:57.356Z</time></trkpt><trkpt lat="39.843389" lon="9.1518213"><ele>833.0</ele><time>2026-05-01T09:32:58.351Z</time></trkpt><trkpt lat="39.8433492" lon="9.1519075"><ele>833.3333333333334</ele><time>2026-05-01T09:32:59.353Z</time></trkpt><trkpt lat="39.843316" lon="9.1520013"><ele>833.6666666666667</ele><time>2026-05-01T09:33:00.353Z</time></trkpt><trkpt lat="39.843282" lon="9.1521025"><ele>834.0</ele><time>2026-05-01T09:33:01.353Z</time></trkpt><trkpt lat="39.8432535" lon="9.1522123"><ele>834.3333333333333</ele><time>2026-05-01T09:33:02.355Z</time></trkpt><trkpt lat="39.8432238" lon="9.152318"><ele>834.6666666666666</ele><time>2026-05-01T09:33:03.352Z</time></trkpt><trkpt lat="39.8431977" lon="9.1524233"><ele>835.0</ele><time>2026-05-01T09:33:04.357Z</time></trkpt><trkpt lat="39.8431705" lon="9.1525327"><ele>835.0000000000001</ele><time>2026-05-01T09:33:05.354Z</time></trkpt><trkpt lat="39.8431542" lon="9.1526352"><ele>835.0</ele><time>2026-05-01T09:33:06.352Z</time></trkpt><trkpt lat="39.843133" lon="9.1527302"><ele>835.0</ele><time>2026-05-01T09:33:07.352Z</time></trkpt><trkpt lat="39.8431095" lon="9.1528172"><ele>835.0</ele><time>2026-05-01T09:33:08.352Z</time></trkpt><trkpt lat="39.8430858" lon="9.1528967"><ele>835.0</ele><time>2026-05-01T09:33:09.352Z</time></trkpt><trkpt lat="39.843063" lon="9.1529793"><ele>835.0000000000001</ele><time>2026-05-01T09:33:10.358Z</time></trkpt><trkpt lat="39.8430445" lon="9.1530668"><ele>835.0</ele><time>2026-05-01T09:33:11.353Z</time></trkpt><trkpt lat="39.8430153" lon="9.1531493"><ele>834.7142857142858</ele><time>2026-05-01T09:33:12.352Z</time></trkpt><trkpt lat="39.8429818" lon="9.153219"><ele>834.4285714285714</ele><time>2026-05-01T09:33:13.352Z</time></trkpt><trkpt lat="39.8429342" lon="9.1532835"><ele>834.1428571428571</ele><time>2026-05-01T09:33:14.352Z</time></trkpt><trkpt lat="39.8428855" lon="9.1533542"><ele>833.8571428571429</ele><time>2026-05-01T09:33:15.352Z</time></trkpt><trkpt lat="39.8428347" lon="9.1534132"><ele>833.5714285714286</ele><time>2026-05-01T09:33:16.351Z</time></trkpt><trkpt lat="39.8427798" lon="9.1534697"><ele>833.2857142857143</ele><time>2026-05-01T09:33:17.352Z</time></trkpt><trkpt lat="39.8427218" lon="9.153529"><ele>833.0</ele><time>2026-05-01T09:33:18.351Z</time></trkpt><trkpt lat="39.8426658" lon="9.1535903"><ele>833.8333333333334</ele><time>2026-05-01T09:33:19.352Z</time></trkpt><trkpt lat="39.8426117" lon="9.1536502"><ele>834.6666666666667</ele><time>2026-05-01T09:33:20.352Z</time></trkpt><trkpt lat="39.8425565" lon="9.1537102"><ele>835.5</ele><time>2026-05-01T09:33:21.356Z</time></trkpt><trkpt lat="39.8425035" lon="9.1537813"><ele>836.3333333333333</ele><time>2026-05-01T09:33:22.353Z</time></trkpt><trkpt lat="39.8424413" lon="9.1538538"><ele>837.1666666666666</ele><time>2026-05-01T09:33:23.353Z</time></trkpt><trkpt lat="39.84237" lon="9.1539343"><ele>838.0</ele><time>2026-05-01T09:33:24.351Z</time></trkpt><trkpt lat="39.8422948" lon="9.154013"><ele>837.4</ele><time>2026-05-01T09:33:25.348Z</time></trkpt><trkpt lat="39.8422215" lon="9.1541007"><ele>836.8</ele><time>2026-05-01T09:33:26.35Z</time></trkpt><trkpt lat="39.8421472" lon="9.1541783"><ele>836.2</ele><time>2026-05-01T09:33:27.351Z</time></trkpt><trkpt lat="39.8420723" lon="9.1542497"><ele>835.6</ele><time>2026-05-01T09:33:28.352Z</time></trkpt><trkpt lat="39.8420022" lon="9.1543267"><ele>835.0</ele><time>2026-05-01T09:33:29.352Z</time></trkpt><trkpt lat="39.841938" lon="9.1543987"><ele>835.0</ele><time>2026-05-01T09:33:30.352Z</time></trkpt><trkpt lat="39.8418687" lon="9.1544702"><ele>835.0</ele><time>2026-05-01T09:33:31.352Z</time></trkpt><trkpt lat="39.8418033" lon="9.1545483"><ele>835.0</ele><time>2026-05-01T09:33:32.35Z</time></trkpt><trkpt lat="39.841738" lon="9.1546313"><ele>835.0</ele><time>2026-05-01T09:33:33.351Z</time></trkpt><trkpt lat="39.8416678" lon="9.1547202"><ele>835.0</ele><time>2026-05-01T09:33:34.353Z</time></trkpt><trkpt lat="39.8416063" lon="9.1548028"><ele>833.6666666666666</ele><time>2026-05-01T09:33:35.355Z</time></trkpt><trkpt lat="39.8415455" lon="9.154879"><ele>832.3333333333333</ele><time>2026-05-01T09:33:36.35Z</time></trkpt><trkpt lat="39.8414928" lon="9.1549515"><ele>831.0</ele><time>2026-05-01T09:33:37.352Z</time></trkpt><trkpt lat="39.841435" lon="9.1550197"><ele>829.6666666666667</ele><time>2026-05-01T09:33:38.35Z</time></trkpt><trkpt lat="39.8413777" lon="9.1550862"><ele>828.3333333333334</ele><time>2026-05-01T09:33:39.35Z</time></trkpt><trkpt lat="39.8413208" lon="9.1551533"><ele>827.0</ele><time>2026-05-01T09:33:40.352Z</time></trkpt><trkpt lat="39.841266" lon="9.1552072"><ele>827.0</ele><time>2026-05-01T09:33:41.354Z</time></trkpt><trkpt lat="39.8412083" lon="9.1552542"><ele>827.0</ele><time>2026-05-01T09:33:42.349Z</time></trkpt><trkpt lat="39.841157" lon="9.155306"><ele>827.0</ele><time>2026-05-01T09:33:43.352Z</time></trkpt><trkpt lat="39.8410973" lon="9.155366"><ele>827.0</ele><time>2026-05-01T09:33:44.351Z</time></trkpt><trkpt lat="39.8410422" lon="9.1554283"><ele>827.0</ele><time>2026-05-01T09:33:45.351Z</time></trkpt><trkpt lat="39.840987" lon="9.1554987"><ele>827.0</ele><time>2026-05-01T09:33:46.351Z</time></trkpt><trkpt lat="39.8409337" lon="9.1555657"><ele>827.0</ele><time>2026-05-01T09:33:47.353Z</time></trkpt><trkpt lat="39.8408853" lon="9.1556395"><ele>825.6</ele><time>2026-05-01T09:33:48.351Z</time></trkpt><trkpt lat="39.8408533" lon="9.1557417"><ele>824.2</ele><time>2026-05-01T09:33:49.35Z</time></trkpt><trkpt lat="39.8408253" lon="9.155861"><ele>822.8</ele><time>2026-05-01T09:33:50.351Z</time></trkpt><trkpt lat="39.8407875" lon="9.1559827"><ele>821.4</ele><time>2026-05-01T09:33:51.349Z</time></trkpt><trkpt lat="39.8407503" lon="9.1561112"><ele>820.0</ele><time>2026-05-01T09:33:52.351Z</time></trkpt><trkpt lat="39.8407152" lon="9.1562478"><ele>820.0</ele><time>2026-05-01T09:33:53.349Z</time></trkpt><trkpt lat="39.8406827" lon="9.1563822"><ele>820.0</ele><time>2026-05-01T09:33:54.349Z</time></trkpt><trkpt lat="39.8406475" lon="9.1565047"><ele>820.0</ele><time>2026-05-01T09:33:55.35Z</time></trkpt><trkpt lat="39.8406045" lon="9.1566098"><ele>820.0</ele><time>2026-05-01T09:33:56.348Z</time></trkpt><trkpt lat="39.8405658" lon="9.156702"><ele>820.0</ele><time>2026-05-01T09:33:57.35Z</time></trkpt><trkpt lat="39.8405212" lon="9.156795"><ele>818.8</ele><time>2026-05-01T09:33:58.35Z</time></trkpt><trkpt lat="39.840474" lon="9.1568887"><ele>817.6</ele><time>2026-05-01T09:33:59.349Z</time></trkpt><trkpt lat="39.840423" lon="9.1569892"><ele>816.4000000000001</ele><time>2026-05-01T09:34:00.355Z</time></trkpt><trkpt lat="39.8403672" lon="9.1570858"><ele>815.2</ele><time>2026-05-01T09:34:01.35Z</time></trkpt><trkpt lat="39.8403083" lon="9.1571997"><ele>814.0</ele><time>2026-05-01T09:34:02.349Z</time></trkpt><trkpt lat="39.8402515" lon="9.1573212"><ele>814.2</ele><time>2026-05-01T09:34:03.352Z</time></trkpt><trkpt lat="39.8401985" lon="9.157445"><ele>814.4000000000001</ele><time>2026-05-01T09:34:04.352Z</time></trkpt><trkpt lat="39.8401492" lon="9.1575618"><ele>814.6</ele><time>2026-05-01T09:34:05.351Z</time></trkpt><trkpt lat="39.8401005" lon="9.157671"><ele>814.8</ele><time>2026-05-01T09:34:06.351Z</time></trkpt><trkpt lat="39.8400552" lon="9.1577783"><ele>815.0</ele><time>2026-05-01T09:34:07.35Z</time></trkpt><trkpt lat="39.8400098" lon="9.1578813"><ele>813.8333333333334</ele><time>2026-05-01T09:34:08.35Z</time></trkpt><trkpt lat="39.8399775" lon="9.1579833"><ele>812.6666666666667</ele><time>2026-05-01T09:34:09.353Z</time></trkpt><trkpt lat="39.83995" lon="9.1580932"><ele>811.5</ele><time>2026-05-01T09:34:10.35Z</time></trkpt><trkpt lat="39.839928" lon="9.1582018"><ele>810.3333333333333</ele><time>2026-05-01T09:34:11.35Z</time></trkpt><trkpt lat="39.8399178" lon="9.1583128"><ele>809.1666666666666</ele><time>2026-05-01T09:34:12.35Z</time></trkpt><trkpt lat="39.839908" lon="9.1584203"><ele>808.0</ele><time>2026-05-01T09:34:13.35Z</time></trkpt><trkpt lat="39.8398985" lon="9.1585288"><ele>807.4999999999999</ele><time>2026-05-01T09:34:14.355Z</time></trkpt><trkpt lat="39.8398935" lon="9.1586412"><ele>807.0</ele><time>2026-05-01T09:34:15.351Z</time></trkpt><trkpt lat="39.839886" lon="9.1587507"><ele>806.5</ele><time>2026-05-01T09:34:16.352Z</time></trkpt><trkpt lat="39.8398843" lon="9.1588603"><ele>806.0</ele><time>2026-05-01T09:34:17.352Z</time></trkpt><trkpt lat="39.8398832" lon="9.1589717"><ele>805.4999999999999</ele><time>2026-05-01T09:34:18.35Z</time></trkpt><trkpt lat="39.8398798" lon="9.1590847"><ele>805.0</ele><time>2026-05-01T09:34:19.35Z</time></trkpt><trkpt lat="39.8398782" lon="9.1591818"><ele>804.4285714285714</ele><time>2026-05-01T09:34:20.349Z</time></trkpt><trkpt lat="39.8398735" lon="9.159269"><ele>803.8571428571429</ele><time>2026-05-01T09:34:21.354Z</time></trkpt><trkpt lat="39.8398638" lon="9.1593505"><ele>803.2857142857142</ele><time>2026-05-01T09:34:22.353Z</time></trkpt><trkpt lat="39.8398468" lon="9.1594318"><ele>802.7142857142858</ele><time>2026-05-01T09:34:23.353Z</time></trkpt><trkpt lat="39.8398013" lon="9.1594972"><ele>802.1428571428571</ele><time>2026-05-01T09:34:24.352Z</time></trkpt><trkpt lat="39.8397417" lon="9.1595537"><ele>801.5714285714286</ele><time>2026-05-01T09:34:25.353Z</time></trkpt><trkpt lat="39.8396865" lon="9.1596188"><ele>801.0</ele><time>2026-05-01T09:34:26.354Z</time></trkpt><trkpt lat="39.8396352" lon="9.1596927"><ele>801.0</ele><time>2026-05-01T09:34:27.356Z</time></trkpt><trkpt lat="39.8395918" lon="9.1597725"><ele>801.0</ele><time>2026-05-01T09:34:28.35Z</time></trkpt><trkpt lat="39.839556" lon="9.1598607"><ele>801.0</ele><time>2026-05-01T09:34:29.353Z</time></trkpt><trkpt lat="39.8395192" lon="9.1599487"><ele>801.0</ele><time>2026-05-01T09:34:30.348Z</time></trkpt><trkpt lat="39.8394795" lon="9.1600428"><ele>801.0</ele><time>2026-05-01T09:34:31.351Z</time></trkpt><trkpt lat="39.8394422" lon="9.16015"><ele>801.0</ele><time>2026-05-01T09:34:32.35Z</time></trkpt><trkpt lat="39.8394062" lon="9.1602417"><ele>800.5</ele><time>2026-05-01T09:34:33.351Z</time></trkpt><trkpt lat="39.8393652" lon="9.1603392"><ele>800.0</ele><time>2026-05-01T09:34:34.353Z</time></trkpt><trkpt lat="39.8393188" lon="9.1604323"><ele>799.5</ele><time>2026-05-01T09:34:35.352Z</time></trkpt><trkpt lat="39.8392792" lon="9.1605337"><ele>799.0</ele><time>2026-05-01T09:34:36.355Z</time></trkpt><trkpt lat="39.8392365" lon="9.1606262"><ele>798.5</ele><time>2026-05-01T09:34:37.353Z</time></trkpt><trkpt lat="39.8391992" lon="9.1607182"><ele>798.0</ele><time>2026-05-01T09:34:38.352Z</time></trkpt><trkpt lat="39.8391677" lon="9.1607992"><ele>796.4</ele><time>2026-05-01T09:34:39.353Z</time></trkpt><trkpt lat="39.8391005" lon="9.1609435"><ele>794.8</ele><time>2026-05-01T09:34:41.353Z</time></trkpt><trkpt lat="39.8390687" lon="9.1610363"><ele>793.2</ele><time>2026-05-01T09:34:42.353Z</time></trkpt><trkpt lat="39.8390265" lon="9.1611282"><ele>791.6</ele><time>2026-05-01T09:34:43.351Z</time></trkpt><trkpt lat="39.8389683" lon="9.1612193"><ele>790.0</ele><time>2026-05-01T09:34:44.357Z</time></trkpt><trkpt lat="39.8389013" lon="9.1613097"><ele>790.0</ele><time>2026-05-01T09:34:45.352Z</time></trkpt><trkpt lat="39.8388287" lon="9.161374"><ele>790.0</ele><time>2026-05-01T09:34:46.353Z</time></trkpt><trkpt lat="39.8387422" lon="9.1614222"><ele>790.0</ele><time>2026-05-01T09:34:47.353Z</time></trkpt><trkpt lat="39.8386487" lon="9.161434"><ele>790.0</ele><time>2026-05-01T09:34:48.352Z</time></trkpt><trkpt lat="39.8385488" lon="9.1614333"><ele>790.0</ele><time>2026-05-01T09:34:49.357Z</time></trkpt><trkpt lat="39.838436" lon="9.1614398"><ele>789.8</ele><time>2026-05-01T09:34:50.353Z</time></trkpt><trkpt lat="39.8383293" lon="9.1614515"><ele>789.6</ele><time>2026-05-01T09:34:51.351Z</time></trkpt><trkpt lat="39.8382388" lon="9.1614768"><ele>789.4000000000001</ele><time>2026-05-01T09:34:52.351Z</time></trkpt><trkpt lat="39.8381575" lon="9.16152"><ele>789.2</ele><time>2026-05-01T09:34:53.354Z</time></trkpt><trkpt lat="39.8380772" lon="9.1615768"><ele>789.0</ele><time>2026-05-01T09:34:54.352Z</time></trkpt><trkpt lat="39.8379992" lon="9.1616377"><ele>789.0</ele><time>2026-05-01T09:34:55.351Z</time></trkpt><trkpt lat="39.8379312" lon="9.1617045"><ele>789.0</ele><time>2026-05-01T09:34:56.357Z</time></trkpt><trkpt lat="39.8378703" lon="9.1617765"><ele>789.0</ele><time>2026-05-01T09:34:57.351Z</time></trkpt><trkpt lat="39.8378198" lon="9.1618542"><ele>789.0</ele><time>2026-05-01T09:34:58.352Z</time></trkpt><trkpt lat="39.837785" lon="9.1619372"><ele>789.0</ele><time>2026-05-01T09:34:59.352Z</time></trkpt><trkpt lat="39.8377555" lon="9.1620347"><ele>789.0</ele><time>2026-05-01T09:35:00.351Z</time></trkpt><trkpt lat="39.8377318" lon="9.1621472"><ele>789.0</ele><time>2026-05-01T09:35:01.35Z</time></trkpt><trkpt lat="39.8377385" lon="9.1622773"><ele>789.0</ele><time>2026-05-01T09:35:02.35Z</time></trkpt><trkpt lat="39.8377512" lon="9.1624043"><ele>789.0</ele><time>2026-05-01T09:35:03.353Z</time></trkpt><trkpt lat="39.8377765" lon="9.1625293"><ele>789.0</ele><time>2026-05-01T09:35:04.35Z</time></trkpt><trkpt lat="39.8377998" lon="9.1626443"><ele>789.0</ele><time>2026-05-01T09:35:05.352Z</time></trkpt><trkpt lat="39.8378238" lon="9.1627472"><ele>787.6</ele><time>2026-05-01T09:35:06.351Z</time></trkpt><trkpt lat="39.8378443" lon="9.1628587"><ele>786.2</ele><time>2026-05-01T09:35:07.358Z</time></trkpt><trkpt lat="39.8378603" lon="9.1629838"><ele>784.8000000000001</ele><time>2026-05-01T09:35:08.352Z</time></trkpt><trkpt lat="39.8378715" lon="9.1631152"><ele>783.4000000000001</ele><time>2026-05-01T09:35:09.352Z</time></trkpt><trkpt lat="39.8378713" lon="9.1632492"><ele>782.0</ele><time>2026-05-01T09:35:10.353Z</time></trkpt><trkpt lat="39.8378737" lon="9.163382"><ele>781.5000000000001</ele><time>2026-05-01T09:35:11.351Z</time></trkpt><trkpt lat="39.8378682" lon="9.1635065"><ele>781.0</ele><time>2026-05-01T09:35:12.351Z</time></trkpt><trkpt lat="39.837862" lon="9.1636348"><ele>780.5</ele><time>2026-05-01T09:35:13.35Z</time></trkpt><trkpt lat="39.8378522" lon="9.1637548"><ele>780.0</ele><time>2026-05-01T09:35:14.351Z</time></trkpt><trkpt lat="39.8378293" lon="9.1638522"><ele>779.5000000000001</ele><time>2026-05-01T09:35:15.349Z</time></trkpt><trkpt lat="39.837784" lon="9.163933"><ele>779.0</ele><time>2026-05-01T09:35:16.35Z</time></trkpt><trkpt lat="39.8377287" lon="9.164004"><ele>779.1666666666667</ele><time>2026-05-01T09:35:17.352Z</time></trkpt><trkpt lat="39.8376677" lon="9.1640743"><ele>779.3333333333334</ele><time>2026-05-01T09:35:18.354Z</time></trkpt><trkpt lat="39.8376127" lon="9.1641462"><ele>779.5</ele><time>2026-05-01T09:35:19.351Z</time></trkpt><trkpt lat="39.837551" lon="9.164204"><ele>779.6666666666667</ele><time>2026-05-01T09:35:20.351Z</time></trkpt><trkpt lat="39.8374918" lon="9.1642583"><ele>779.8333333333334</ele><time>2026-05-01T09:35:21.35Z</time></trkpt><trkpt lat="39.8374317" lon="9.1643098"><ele>780.0</ele><time>2026-05-01T09:35:22.35Z</time></trkpt><trkpt lat="39.8373753" lon="9.1643653"><ele>779.3333333333334</ele><time>2026-05-01T09:35:23.35Z</time></trkpt><trkpt lat="39.8373258" lon="9.1644207"><ele>778.6666666666667</ele><time>2026-05-01T09:35:24.351Z</time></trkpt><trkpt lat="39.8372788" lon="9.164489"><ele>778.0</ele><time>2026-05-01T09:35:25.35Z</time></trkpt><trkpt lat="39.8372345" lon="9.164557"><ele>777.3333333333334</ele><time>2026-05-01T09:35:26.352Z</time></trkpt><trkpt lat="39.8371887" lon="9.1646395"><ele>776.6666666666667</ele><time>2026-05-01T09:35:27.351Z</time></trkpt><trkpt lat="39.8371322" lon="9.1647288"><ele>776.0</ele><time>2026-05-01T09:35:28.353Z</time></trkpt><trkpt lat="39.8370693" lon="9.16481"><ele>775.8333333333334</ele><time>2026-05-01T09:35:29.358Z</time></trkpt><trkpt lat="39.8369998" lon="9.164887"><ele>775.6666666666667</ele><time>2026-05-01T09:35:30.351Z</time></trkpt><trkpt lat="39.8369233" lon="9.1649647"><ele>775.5</ele><time>2026-05-01T09:35:31.351Z</time></trkpt><trkpt lat="39.836857" lon="9.1650367"><ele>775.3333333333333</ele><time>2026-05-01T09:35:32.352Z</time></trkpt><trkpt lat="39.8367882" lon="9.1651075"><ele>775.1666666666666</ele><time>2026-05-01T09:35:33.351Z</time></trkpt><trkpt lat="39.836724" lon="9.1651537"><ele>775.0</ele><time>2026-05-01T09:35:34.358Z</time></trkpt><trkpt lat="39.8366585" lon="9.1651923"><ele>774.9999999999999</ele><time>2026-05-01T09:35:35.35Z</time></trkpt><trkpt lat="39.8365977" lon="9.1652295"><ele>775.0</ele><time>2026-05-01T09:35:36.351Z</time></trkpt><trkpt lat="39.8364927" lon="9.1652972"><ele>775.0</ele><time>2026-05-01T09:35:38.351Z</time></trkpt><trkpt lat="39.8364207" lon="9.165365"><ele>775.0</ele><time>2026-05-01T09:35:40.35Z</time></trkpt><trkpt lat="39.836345" lon="9.1654568"><ele>774.9999999999999</ele><time>2026-05-01T09:35:42.35Z</time></trkpt><trkpt lat="39.8363043" lon="9.1655207"><ele>775.0</ele><time>2026-05-01T09:35:43.352Z</time></trkpt><trkpt lat="39.8362602" lon="9.1655878"><ele>775.0</ele><time>2026-05-01T09:35:44.348Z</time></trkpt><trkpt lat="39.8361913" lon="9.1656558"><ele>775.0</ele><time>2026-05-01T09:35:45.35Z</time></trkpt><trkpt lat="39.8361165" lon="9.1657182"><ele>775.0</ele><time>2026-05-01T09:35:46.351Z</time></trkpt><trkpt lat="39.8360408" lon="9.1657808"><ele>775.0</ele><time>2026-05-01T09:35:47.351Z</time></trkpt><trkpt lat="39.8359667" lon="9.1658543"><ele>775.0</ele><time>2026-05-01T09:35:48.351Z</time></trkpt><trkpt lat="39.8358843" lon="9.1659255"><ele>774.4</ele><time>2026-05-01T09:35:49.351Z</time></trkpt><trkpt lat="39.8357933" lon="9.1660062"><ele>773.8</ele><time>2026-05-01T09:35:50.352Z</time></trkpt><trkpt lat="39.8357022" lon="9.1660858"><ele>773.2</ele><time>2026-05-01T09:35:51.353Z</time></trkpt><trkpt lat="39.8356148" lon="9.166183"><ele>772.6</ele><time>2026-05-01T09:35:52.35Z</time></trkpt><trkpt lat="39.8355405" lon="9.1662867"><ele>772.0</ele><time>2026-05-01T09:35:53.35Z</time></trkpt><trkpt lat="39.8354858" lon="9.1663912"><ele>771.9999999999999</ele><time>2026-05-01T09:35:54.351Z</time></trkpt><trkpt lat="39.8354532" lon="9.1664973"><ele>772.0</ele><time>2026-05-01T09:35:55.352Z</time></trkpt><trkpt lat="39.8354412" lon="9.1666145"><ele>772.0</ele><time>2026-05-01T09:35:56.35Z</time></trkpt><trkpt lat="39.835424" lon="9.166727"><ele>772.0</ele><time>2026-05-01T09:35:57.351Z</time></trkpt><trkpt lat="39.8353985" lon="9.1668268"><ele>771.9999999999999</ele><time>2026-05-01T09:35:58.35Z</time></trkpt><trkpt lat="39.8353625" lon="9.1669135"><ele>772.0</ele><time>2026-05-01T09:35:59.351Z</time></trkpt><trkpt lat="39.8352785" lon="9.1670192"><ele>771.4999999999999</ele><time>2026-05-01T09:36:01.352Z</time></trkpt><trkpt lat="39.8351758" lon="9.1670647"><ele>771.0</ele><time>2026-05-01T09:36:03.352Z</time></trkpt><trkpt lat="39.8351077" lon="9.1670778"><ele>770.5</ele><time>2026-05-01T09:36:04.352Z</time></trkpt><trkpt lat="39.8350367" lon="9.1670957"><ele>770.0</ele><time>2026-05-01T09:36:05.354Z</time></trkpt><trkpt lat="39.8349673" lon="9.1671083"><ele>769.4999999999999</ele><time>2026-05-01T09:36:06.35Z</time></trkpt><trkpt lat="39.8348955" lon="9.1671083"><ele>769.0</ele><time>2026-05-01T09:36:07.353Z</time></trkpt><trkpt lat="39.8348203" lon="9.1671082"><ele>768.9999999999999</ele><time>2026-05-01T09:36:08.357Z</time></trkpt><trkpt lat="39.8347362" lon="9.1671082"><ele>769.0</ele><time>2026-05-01T09:36:09.353Z</time></trkpt><trkpt lat="39.8346453" lon="9.167122"><ele>769.0</ele><time>2026-05-01T09:36:10.351Z</time></trkpt><trkpt lat="39.8345508" lon="9.1671563"><ele>769.0</ele><time>2026-05-01T09:36:11.353Z</time></trkpt><trkpt lat="39.8344743" lon="9.1671892"><ele>768.9999999999999</ele><time>2026-05-01T09:36:12.349Z</time></trkpt><trkpt lat="39.8343983" lon="9.1672188"><ele>769.0</ele><time>2026-05-01T09:36:13.352Z</time></trkpt><trkpt lat="39.8343303" lon="9.1672428"><ele>770.8571428571428</ele><time>2026-05-01T09:36:14.349Z</time></trkpt><trkpt lat="39.8342643" lon="9.1672607"><ele>772.7142857142858</ele><time>2026-05-01T09:36:15.352Z</time></trkpt><trkpt lat="39.8341913" lon="9.1672647"><ele>774.5714285714286</ele><time>2026-05-01T09:36:16.352Z</time></trkpt><trkpt lat="39.8341168" lon="9.1672622"><ele>776.4285714285713</ele><time>2026-05-01T09:36:17.352Z</time></trkpt><trkpt lat="39.8340438" lon="9.1672572"><ele>778.2857142857142</ele><time>2026-05-01T09:36:18.358Z</time></trkpt><trkpt lat="39.8339748" lon="9.1672653"><ele>780.1428571428571</ele><time>2026-05-01T09:36:19.35Z</time></trkpt><trkpt lat="39.8338915" lon="9.1672772"><ele>782.0</ele><time>2026-05-01T09:36:21.352Z</time></trkpt><trkpt lat="39.8338282" lon="9.1672517"><ele>782.0</ele><time>2026-05-01T09:36:23.356Z</time></trkpt><trkpt lat="39.8337567" lon="9.1671753"><ele>782.0</ele><time>2026-05-01T09:36:25.352Z</time></trkpt><trkpt lat="39.8337123" lon="9.1671118"><ele>782.0</ele><time>2026-05-01T09:36:26.358Z</time></trkpt><trkpt lat="39.8336628" lon="9.166983"><ele>782.0</ele><time>2026-05-01T09:36:28.35Z</time></trkpt><trkpt lat="39.8336535" lon="9.1668445"><ele>782.0</ele><time>2026-05-01T09:36:30.35Z</time></trkpt><trkpt lat="39.8336617" lon="9.1666935"><ele>782.0000000000001</ele><time>2026-05-01T09:36:32.351Z</time></trkpt><trkpt lat="39.8336648" lon="9.1666108"><ele>782.0</ele><time>2026-05-01T09:36:33.352Z</time></trkpt><trkpt lat="39.833662" lon="9.1665215"><ele>782.0</ele><time>2026-05-01T09:36:34.353Z</time></trkpt><trkpt lat="39.8336553" lon="9.1664242"><ele>782.0</ele><time>2026-05-01T09:36:35.354Z</time></trkpt><trkpt lat="39.8336448" lon="9.1663277"><ele>782.0000000000001</ele><time>2026-05-01T09:36:36.352Z</time></trkpt><trkpt lat="39.8336357" lon="9.1662408"><ele>782.0</ele><time>2026-05-01T09:36:37.354Z</time></trkpt><trkpt lat="39.833629" lon="9.1660872"><ele>783.6</ele><time>2026-05-01T09:36:39.355Z</time></trkpt><trkpt lat="39.8336222" lon="9.1659463"><ele>785.2</ele><time>2026-05-01T09:36:41.35Z</time></trkpt><trkpt lat="39.833623" lon="9.1658168"><ele>786.8</ele><time>2026-05-01T09:36:43.351Z</time></trkpt><trkpt lat="39.8336313" lon="9.165676"><ele>788.4</ele><time>2026-05-01T09:36:45.352Z</time></trkpt><trkpt lat="39.8336262" lon="9.165517"><ele>790.0</ele><time>2026-05-01T09:36:47.351Z</time></trkpt><trkpt lat="39.8336127" lon="9.1653635"><ele>791.6666666666666</ele><time>2026-05-01T09:36:49.355Z</time></trkpt><trkpt lat="39.8336055" lon="9.1652787"><ele>793.3333333333333</ele><time>2026-05-01T09:36:50.352Z</time></trkpt><trkpt lat="39.8335928" lon="9.1651887"><ele>795.0</ele><time>2026-05-01T09:36:51.353Z</time></trkpt><trkpt lat="39.8335783" lon="9.1651013"><ele>796.6666666666667</ele><time>2026-05-01T09:36:52.351Z</time></trkpt><trkpt lat="39.8335433" lon="9.164961"><ele>798.3333333333334</ele><time>2026-05-01T09:36:54.354Z</time></trkpt><trkpt lat="39.833477" lon="9.164838"><ele>800.0</ele><time>2026-05-01T09:36:56.354Z</time></trkpt><trkpt lat="39.833442" lon="9.1647587"><ele>804.4</ele><time>2026-05-01T09:36:57.352Z</time></trkpt><trkpt lat="39.8334108" lon="9.1646777"><ele>808.8</ele><time>2026-05-01T09:36:58.351Z</time></trkpt><trkpt lat="39.8334017" lon="9.1645273"><ele>813.2</ele><time>2026-05-01T09:37:00.351Z</time></trkpt><trkpt lat="39.8333972" lon="9.1643892"><ele>817.6</ele><time>2026-05-01T09:37:02.357Z</time></trkpt><trkpt lat="39.8333818" lon="9.1642533"><ele>822.0</ele><time>2026-05-01T09:37:04.352Z</time></trkpt><trkpt lat="39.8333818" lon="9.1641183"><ele>823.6666666666666</ele><time>2026-05-01T09:37:06.352Z</time></trkpt><trkpt lat="39.833361" lon="9.163945"><ele>825.3333333333333</ele><time>2026-05-01T09:37:08.352Z</time></trkpt><trkpt lat="39.8333452" lon="9.163848"><ele>827.0</ele><time>2026-05-01T09:37:09.354Z</time></trkpt><trkpt lat="39.8333282" lon="9.1637542"><ele>828.6666666666666</ele><time>2026-05-01T09:37:10.352Z</time></trkpt><trkpt lat="39.8333122" lon="9.1636637"><ele>830.3333333333333</ele><time>2026-05-01T09:37:11.353Z</time></trkpt><trkpt lat="39.8332852" lon="9.1635785"><ele>832.0</ele><time>2026-05-01T09:37:12.358Z</time></trkpt><trkpt lat="39.8332642" lon="9.163499"><ele>832.0</ele><time>2026-05-01T09:37:13.35Z</time></trkpt><trkpt lat="39.8332425" lon="9.163384"><ele>832.0</ele><time>2026-05-01T09:37:15.352Z</time></trkpt><trkpt lat="39.8331812" lon="9.1634293"><ele>832.0</ele><time>2026-05-01T09:39:42.352Z</time></trkpt><trkpt lat="39.833112" lon="9.163398"><ele>832.0</ele><time>2026-05-01T09:39:47.352Z</time></trkpt></trkseg><trkseg><trkpt lat="39.8340403" lon="9.1672603"><ele>782.0000000000001</ele><time>2026-05-01T09:42:25.35Z</time></trkpt><trkpt lat="39.8341517" lon="9.1672395"><ele>782.0</ele><time>2026-05-01T09:42:27.347Z</time></trkpt><trkpt lat="39.8342205" lon="9.1672388"><ele>782.0</ele><time>2026-05-01T09:42:28.356Z</time></trkpt><trkpt lat="39.8342898" lon="9.1672415"><ele>782.0</ele><time>2026-05-01T09:42:29.352Z</time></trkpt><trkpt lat="39.8343562" lon="9.1672443"><ele>782.0000000000001</ele><time>2026-05-01T09:42:30.352Z</time></trkpt><trkpt lat="39.834454" lon="9.1672328"><ele>782.0</ele><time>2026-05-01T09:42:32.353Z</time></trkpt><trkpt lat="39.8345493" lon="9.1671945"><ele>779.4000000000001</ele><time>2026-05-01T09:42:34.356Z</time></trkpt><trkpt lat="39.8346303" lon="9.16714"><ele>776.8000000000001</ele><time>2026-05-01T09:42:36.35Z</time></trkpt><trkpt lat="39.8347342" lon="9.1670907"><ele>774.2</ele><time>2026-05-01T09:42:38.352Z</time></trkpt><trkpt lat="39.8348382" lon="9.1670702"><ele>771.6</ele><time>2026-05-01T09:42:40.351Z</time></trkpt><trkpt lat="39.8349467" lon="9.1670727"><ele>769.0</ele><time>2026-05-01T09:42:42.35Z</time></trkpt><trkpt lat="39.8350425" lon="9.167075"><ele>768.9999999999999</ele><time>2026-05-01T09:42:44.349Z</time></trkpt><trkpt lat="39.8351383" lon="9.1670567"><ele>769.0</ele><time>2026-05-01T09:42:53.352Z</time></trkpt><trkpt lat="39.8352083" lon="9.1670457"><ele>769.0</ele><time>2026-05-01T09:42:55.351Z</time></trkpt><trkpt lat="39.835116" lon="9.1670627"><ele>769.0</ele><time>2026-05-01T09:44:06.351Z</time></trkpt><trkpt lat="39.8350245" lon="9.1670903"><ele>768.9999999999999</ele><time>2026-05-01T09:44:08.352Z</time></trkpt><trkpt lat="39.8349308" lon="9.1670987"><ele>769.0</ele><time>2026-05-01T09:44:10.349Z</time></trkpt><trkpt lat="39.8348325" lon="9.1670983"><ele>768.9999999999999</ele><time>2026-05-01T09:44:12.352Z</time></trkpt><trkpt lat="39.8347397" lon="9.1671103"><ele>769.0</ele><time>2026-05-01T09:44:14.351Z</time></trkpt><trkpt lat="39.8346485" lon="9.1671355"><ele>769.0</ele><time>2026-05-01T09:44:16.351Z</time></trkpt><trkpt lat="39.83457" lon="9.1671668"><ele>769.0</ele><time>2026-05-01T09:44:18.35Z</time></trkpt><trkpt lat="39.8344963" lon="9.1671918"><ele>768.9999999999999</ele><time>2026-05-01T09:44:41.35Z</time></trkpt><trkpt lat="39.83442" lon="9.1672255"><ele>769.0</ele><time>2026-05-01T09:44:44.352Z</time></trkpt><trkpt lat="39.8343312" lon="9.1672463"><ele>772.25</ele><time>2026-05-01T09:44:46.354Z</time></trkpt><trkpt lat="39.8342095" lon="9.1672478"><ele>775.5</ele><time>2026-05-01T09:44:48.351Z</time></trkpt><trkpt lat="39.8340842" lon="9.1672538"><ele>778.75</ele><time>2026-05-01T09:44:50.349Z</time></trkpt><trkpt lat="39.8339768" lon="9.1672598"><ele>782.0</ele><time>2026-05-01T09:44:52.351Z</time></trkpt><trkpt lat="39.8338763" lon="9.16726"><ele>782.0</ele><time>2026-05-01T09:44:54.35Z</time></trkpt><trkpt lat="39.8337977" lon="9.1672212"><ele>782.0</ele><time>2026-05-01T09:44:56.349Z</time></trkpt><trkpt lat="39.8337452" lon="9.1671545"><ele>782.0</ele><time>2026-05-01T09:44:58.359Z</time></trkpt><trkpt lat="39.8336877" lon="9.1670368"><ele>782.0</ele><time>2026-05-01T09:45:00.352Z</time></trkpt><trkpt lat="39.8336653" lon="9.1669162"><ele>782.0</ele><time>2026-05-01T09:45:02.351Z</time></trkpt><trkpt lat="39.833657" lon="9.1667997"><ele>782.0000000000001</ele><time>2026-05-01T09:45:04.355Z</time></trkpt><trkpt lat="39.8336587" lon="9.1667065"><ele>782.0</ele><time>2026-05-01T09:45:06.358Z</time></trkpt><trkpt lat="39.8336615" lon="9.1666042"><ele>782.0</ele><time>2026-05-01T09:45:09.354Z</time></trkpt><trkpt lat="39.833655" lon="9.1665023"><ele>782.0</ele><time>2026-05-01T09:45:11.353Z</time></trkpt><trkpt lat="39.8336417" lon="9.1663828"><ele>782.0000000000001</ele><time>2026-05-01T09:45:13.35Z</time></trkpt><trkpt lat="39.8336323" lon="9.1662547"><ele>782.0</ele><time>2026-05-01T09:45:15.351Z</time></trkpt><trkpt lat="39.8336285" lon="9.1661187"><ele>783.6</ele><time>2026-05-01T09:45:17.352Z</time></trkpt><trkpt lat="39.8336205" lon="9.1660028"><ele>785.2</ele><time>2026-05-01T09:45:19.354Z</time></trkpt><trkpt lat="39.8336238" lon="9.1658852"><ele>786.8</ele><time>2026-05-01T09:45:21.357Z</time></trkpt><trkpt lat="39.8336248" lon="9.16575"><ele>788.4</ele><time>2026-05-01T09:45:23.35Z</time></trkpt><trkpt lat="39.8336113" lon="9.1656103"><ele>790.0</ele><time>2026-05-01T09:45:25.351Z</time></trkpt><trkpt lat="39.8336023" lon="9.1654727"><ele>791.6666666666666</ele><time>2026-05-01T09:45:27.352Z</time></trkpt><trkpt lat="39.8335755" lon="9.1653763"><ele>793.3333333333333</ele><time>2026-05-01T09:46:05.353Z</time></trkpt><trkpt lat="39.8335593" lon="9.1652512"><ele>795.0</ele><time>2026-05-01T09:46:07.358Z</time></trkpt><trkpt lat="39.8335543" lon="9.1651655"><ele>796.6666666666667</ele><time>2026-05-01T09:46:08.352Z</time></trkpt><trkpt lat="39.8335432" lon="9.16508"><ele>798.3333333333334</ele><time>2026-05-01T09:46:09.352Z</time></trkpt><trkpt lat="39.8335083" lon="9.164943"><ele>800.0</ele><time>2026-05-01T09:46:11.359Z</time></trkpt><trkpt lat="39.8334578" lon="9.1648398"><ele>804.4</ele><time>2026-05-01T09:46:13.351Z</time></trkpt><trkpt lat="39.8334152" lon="9.1647198"><ele>808.8</ele><time>2026-05-01T09:46:15.352Z</time></trkpt><trkpt lat="39.8333942" lon="9.1645838"><ele>813.2</ele><time>2026-05-01T09:46:17.351Z</time></trkpt><trkpt lat="39.8333907" lon="9.1644382"><ele>817.6</ele><time>2026-05-01T09:46:19.352Z</time></trkpt><trkpt lat="39.8333897" lon="9.1642888"><ele>822.0</ele><time>2026-05-01T09:46:21.352Z</time></trkpt><trkpt lat="39.8333727" lon="9.1641425"><ele>824.0</ele><time>2026-05-01T09:46:23.352Z</time></trkpt><trkpt lat="39.8333495" lon="9.1639918"><ele>826.0</ele><time>2026-05-01T09:46:25.356Z</time></trkpt><trkpt lat="39.8333413" lon="9.163855"><ele>828.0</ele><time>2026-05-01T09:46:27.351Z</time></trkpt><trkpt lat="39.833316" lon="9.1637245"><ele>830.0</ele><time>2026-05-01T09:46:29.351Z</time></trkpt><trkpt lat="39.8332875" lon="9.1635937"><ele>832.0</ele><time>2026-05-01T09:46:31.35Z</time></trkpt><trkpt lat="39.833262" lon="9.1634703"><ele>832.0</ele><time>2026-05-01T09:46:33.351Z</time></trkpt><trkpt lat="39.8332175" lon="9.1633918"><ele>832.0</ele><time>2026-05-01T09:46:35.352Z</time></trkpt><trkpt lat="39.8331528" lon="9.1633753"><ele>832.0</ele><time>2026-05-01T09:46:37.349Z</time></trkpt><trkpt lat="39.8331013" lon="9.163452"><ele>832.0</ele><time>2026-05-01T09:46:40.35Z</time></trkpt><trkpt lat="39.8330558" lon="9.1635087"><ele>832.0</ele><time>2026-05-01T09:46:42.35Z</time></trkpt><trkpt lat="39.8329967" lon="9.1635898"><ele>832.0</ele><time>2026-05-01T09:46:44.35Z</time></trkpt><trkpt lat="39.8329565" lon="9.1636595"><ele>832.0</ele><time>2026-05-01T09:46:46.351Z</time></trkpt><trkpt lat="39.8329178" lon="9.1637258"><ele>831.9999999999999</ele><time>2026-05-01T09:46:50.351Z</time></trkpt><trkpt lat="39.8328402" lon="9.1638117"><ele>832.0</ele><time>2026-05-01T09:46:53.35Z</time></trkpt><trkpt lat="39.8327918" lon="9.1638822"><ele>832.0</ele><time>2026-05-01T09:46:55.352Z</time></trkpt><trkpt lat="39.8328338" lon="9.1639565"><ele>832.0</ele><time>2026-05-01T09:47:00.352Z</time></trkpt><trkpt lat="39.832867" lon="9.1640368"><ele>831.9999999999999</ele><time>2026-05-01T09:47:05.358Z</time></trkpt><trkpt lat="39.8328048" lon="9.1640538"><ele>832.0</ele><time>2026-05-01T09:47:39.352Z</time></trkpt><trkpt lat="39.8328097" lon="9.163942"><ele>831.9999999999999</ele><time>2026-05-01T09:47:42.354Z</time></trkpt><trkpt lat="39.8328308" lon="9.1638605"><ele>832.0</ele><time>2026-05-01T09:47:44.359Z</time></trkpt><trkpt lat="39.8328702" lon="9.1637742"><ele>832.0</ele><time>2026-05-01T09:47:46.35Z</time></trkpt><trkpt lat="39.8329413" lon="9.1637135"><ele>832.0</ele><time>2026-05-01T09:47:48.352Z</time></trkpt><trkpt lat="39.8329978" lon="9.163643"><ele>831.9999999999999</ele><time>2026-05-01T09:47:50.351Z</time></trkpt><trkpt lat="39.8330635" lon="9.1635343"><ele>832.0</ele><time>2026-05-01T09:47:52.357Z</time></trkpt><trkpt lat="39.8331065" lon="9.163473"><ele>831.9999999999999</ele><time>2026-05-01T09:47:53.351Z</time></trkpt><trkpt lat="39.8331825" lon="9.163411"><ele>832.0</ele><time>2026-05-01T09:47:55.352Z</time></trkpt><trkpt lat="39.8332523" lon="9.1634185"><ele>832.0</ele><time>2026-05-01T09:47:57.351Z</time></trkpt><trkpt lat="39.8333098" lon="9.1634755"><ele>832.0</ele><time>2026-05-01T09:47:59.349Z</time></trkpt><trkpt lat="39.833328" lon="9.163586"><ele>831.9999999999999</ele><time>2026-05-01T09:48:01.354Z</time></trkpt><trkpt lat="39.8333337" lon="9.1637257"><ele>832.0</ele><time>2026-05-01T09:48:03.357Z</time></trkpt><trkpt lat="39.8333527" lon="9.163853"><ele>831.9999999999999</ele><time>2026-05-01T09:48:05.354Z</time></trkpt><trkpt lat="39.8333608" lon="9.1639522"><ele>832.0</ele><time>2026-05-01T09:48:07.356Z</time></trkpt><trkpt lat="39.8333547" lon="9.1640467"><ele>832.0</ele><time>2026-05-01T09:48:09.352Z</time></trkpt><trkpt lat="39.833362" lon="9.1641705"><ele>832.0</ele><time>2026-05-01T09:48:11.351Z</time></trkpt><trkpt lat="39.8333898" lon="9.164305"><ele>831.9999999999999</ele><time>2026-05-01T09:48:13.35Z</time></trkpt><trkpt lat="39.8334033" lon="9.164412"><ele>832.0</ele><time>2026-05-01T09:48:15.352Z</time></trkpt><trkpt lat="39.8334105" lon="9.1645277"><ele>830.3333333333333</ele><time>2026-05-01T09:48:17.352Z</time></trkpt><trkpt lat="39.8334157" lon="9.1646512"><ele>828.6666666666666</ele><time>2026-05-01T09:48:19.351Z</time></trkpt><trkpt lat="39.8334268" lon="9.164747"><ele>827.0</ele><time>2026-05-01T09:48:21.353Z</time></trkpt><trkpt lat="39.8334577" lon="9.164855"><ele>825.3333333333333</ele><time>2026-05-01T09:48:24.352Z</time></trkpt><trkpt lat="39.8334952" lon="9.1649412"><ele>823.6666666666666</ele><time>2026-05-01T09:48:26.357Z</time></trkpt><trkpt lat="39.8335492" lon="9.1650292"><ele>822.0</ele><time>2026-05-01T09:48:28.355Z</time></trkpt><trkpt lat="39.8335852" lon="9.1651233"><ele>818.3333333333334</ele><time>2026-05-01T09:48:30.356Z</time></trkpt><trkpt lat="39.8335912" lon="9.1652308"><ele>814.6666666666667</ele><time>2026-05-01T09:48:32.351Z</time></trkpt><trkpt lat="39.833599" lon="9.1653318"><ele>811.0</ele><time>2026-05-01T09:48:34.353Z</time></trkpt><trkpt lat="39.8336143" lon="9.1654377"><ele>807.3333333333334</ele><time>2026-05-01T09:48:36.352Z</time></trkpt><trkpt lat="39.8336202" lon="9.1655565"><ele>803.6666666666667</ele><time>2026-05-01T09:48:38.352Z</time></trkpt><trkpt lat="39.8336325" lon="9.1657003"><ele>800.0</ele><time>2026-05-01T09:48:40.353Z</time></trkpt><trkpt lat="39.8336392" lon="9.1658562"><ele>798.0</ele><time>2026-05-01T09:48:42.352Z</time></trkpt><trkpt lat="39.8336375" lon="9.1660097"><ele>796.0</ele><time>2026-05-01T09:48:44.352Z</time></trkpt><trkpt lat="39.8336365" lon="9.1661262"><ele>794.0</ele><time>2026-05-01T09:48:46.353Z</time></trkpt><trkpt lat="39.8336433" lon="9.1662558"><ele>792.0</ele><time>2026-05-01T09:48:48.352Z</time></trkpt><trkpt lat="39.8336577" lon="9.1663792"><ele>790.0</ele><time>2026-05-01T09:48:50.352Z</time></trkpt><trkpt lat="39.8336715" lon="9.1665097"><ele>788.4</ele><time>2026-05-01T09:48:52.349Z</time></trkpt><trkpt lat="39.8336798" lon="9.1666563"><ele>786.8</ele><time>2026-05-01T09:48:54.352Z</time></trkpt><trkpt lat="39.8336802" lon="9.1667937"><ele>785.2</ele><time>2026-05-01T09:48:56.351Z</time></trkpt><trkpt lat="39.833682" lon="9.1669098"><ele>783.6</ele><time>2026-05-01T09:48:58.351Z</time></trkpt><trkpt lat="39.8336952" lon="9.1670063"><ele>782.0</ele><time>2026-05-01T09:49:00.351Z</time></trkpt><trkpt lat="39.8337347" lon="9.1671003"><ele>782.0000000000001</ele><time>2026-05-01T09:49:02.349Z</time></trkpt><trkpt lat="39.8337878" lon="9.1671803"><ele>782.0</ele><time>2026-05-01T09:49:04.352Z</time></trkpt><trkpt lat="39.8338488" lon="9.1672348"><ele>782.0</ele><time>2026-05-01T09:49:06.35Z</time></trkpt><trkpt lat="39.8339125" lon="9.1672825"><ele>782.0</ele><time>2026-05-01T09:49:24.351Z</time></trkpt><trkpt lat="39.8339867" lon="9.1672892"><ele>782.0000000000001</ele><time>2026-05-01T09:49:26.351Z</time></trkpt><trkpt lat="39.8340743" lon="9.1672677"><ele>782.0</ele><time>2026-05-01T09:49:28.349Z</time></trkpt><trkpt lat="39.834146" lon="9.1672512"><ele>782.0000000000001</ele><time>2026-05-01T09:49:30.352Z</time></trkpt><trkpt lat="39.8342242" lon="9.1672483"><ele>782.0</ele><time>2026-05-01T09:49:32.353Z</time></trkpt><trkpt lat="39.8343123" lon="9.1672473"><ele>782.0</ele><time>2026-05-01T09:49:35.353Z</time></trkpt><trkpt lat="39.8344078" lon="9.1672362"><ele>782.0</ele><time>2026-05-01T09:49:38.351Z</time></trkpt><trkpt lat="39.8344795" lon="9.1672295"><ele>782.0000000000001</ele><time>2026-05-01T09:49:41.352Z</time></trkpt><trkpt lat="39.8345362" lon="9.1671923"><ele>782.0</ele><time>2026-05-01T09:49:45.352Z</time></trkpt><trkpt lat="39.8346317" lon="9.1670667"><ele>779.8333333333334</ele><time>2026-05-01T09:53:45.351Z</time></trkpt><trkpt lat="39.8347217" lon="9.1670367"><ele>777.6666666666667</ele><time>2026-05-01T09:53:47.35Z</time></trkpt><trkpt lat="39.8348017" lon="9.167024"><ele>775.5</ele><time>2026-05-01T09:53:48.351Z</time></trkpt><trkpt lat="39.8348862" lon="9.1670167"><ele>773.3333333333333</ele><time>2026-05-01T09:53:49.347Z</time></trkpt><trkpt lat="39.8349657" lon="9.1670108"><ele>771.1666666666666</ele><time>2026-05-01T09:53:50.349Z</time></trkpt><trkpt lat="39.8350367" lon="9.1670045"><ele>769.0</ele><time>2026-05-01T09:53:51.349Z</time></trkpt><trkpt lat="39.8351008" lon="9.1669875"><ele>768.8333333333333</ele><time>2026-05-01T09:53:52.348Z</time></trkpt><trkpt lat="39.8351693" lon="9.1669693"><ele>768.6666666666666</ele><time>2026-05-01T09:53:53.345Z</time></trkpt><trkpt lat="39.8352323" lon="9.1669448"><ele>768.5</ele><time>2026-05-01T09:53:54.347Z</time></trkpt><trkpt lat="39.8353282" lon="9.1668977"><ele>768.3333333333333</ele><time>2026-05-01T09:53:56.353Z</time></trkpt><trkpt lat="39.8353958" lon="9.1668418"><ele>768.1666666666666</ele><time>2026-05-01T09:53:58.348Z</time></trkpt><trkpt lat="39.8354565" lon="9.1667618"><ele>768.0</ele><time>2026-05-01T09:54:00.35Z</time></trkpt><trkpt lat="39.8354957" lon="9.1666693"><ele>768.0</ele><time>2026-05-01T09:54:02.348Z</time></trkpt><trkpt lat="39.8355302" lon="9.166556"><ele>768.0</ele><time>2026-05-01T09:54:04.351Z</time></trkpt><trkpt lat="39.8355548" lon="9.1664203"><ele>768.0</ele><time>2026-05-01T09:54:06.349Z</time></trkpt><trkpt lat="39.8355645" lon="9.1663323"><ele>768.0</ele><time>2026-05-01T09:54:07.35Z</time></trkpt><trkpt lat="39.835582" lon="9.1662433"><ele>768.0</ele><time>2026-05-01T09:54:08.35Z</time></trkpt><trkpt lat="39.835612" lon="9.1661673"><ele>768.0</ele><time>2026-05-01T09:54:09.349Z</time></trkpt><trkpt lat="39.8356595" lon="9.1660992"><ele>768.5714285714286</ele><time>2026-05-01T09:54:10.348Z</time></trkpt><trkpt lat="39.8357132" lon="9.1660473"><ele>769.1428571428571</ele><time>2026-05-01T09:54:11.351Z</time></trkpt><trkpt lat="39.8357702" lon="9.1659978"><ele>769.7142857142858</ele><time>2026-05-01T09:54:12.351Z</time></trkpt><trkpt lat="39.835834" lon="9.1659517"><ele>770.2857142857142</ele><time>2026-05-01T09:54:13.35Z</time></trkpt><trkpt lat="39.8358973" lon="9.1658985"><ele>770.8571428571429</ele><time>2026-05-01T09:54:14.347Z</time></trkpt><trkpt lat="39.8359572" lon="9.1658418"><ele>771.4285714285714</ele><time>2026-05-01T09:54:15.347Z</time></trkpt><trkpt lat="39.8360167" lon="9.165789"><ele>772.0</ele><time>2026-05-01T09:54:16.349Z</time></trkpt><trkpt lat="39.836074" lon="9.1657427"><ele>772.4999999999999</ele><time>2026-05-01T09:54:17.355Z</time></trkpt><trkpt lat="39.836135" lon="9.1656915"><ele>773.0</ele><time>2026-05-01T09:54:18.35Z</time></trkpt><trkpt lat="39.8361925" lon="9.1656425"><ele>773.5</ele><time>2026-05-01T09:54:19.351Z</time></trkpt><trkpt lat="39.8362505" lon="9.165594"><ele>774.0</ele><time>2026-05-01T09:54:20.344Z</time></trkpt><trkpt lat="39.8363118" lon="9.1655508"><ele>774.4999999999999</ele><time>2026-05-01T09:54:21.348Z</time></trkpt><trkpt lat="39.8363678" lon="9.1655063"><ele>775.0</ele><time>2026-05-01T09:54:22.349Z</time></trkpt><trkpt lat="39.836449" lon="9.165411"><ele>774.9999999999999</ele><time>2026-05-01T09:54:24.348Z</time></trkpt><trkpt lat="39.8365102" lon="9.1653163"><ele>775.0</ele><time>2026-05-01T09:54:26.347Z</time></trkpt><trkpt lat="39.8366067" lon="9.1652187"><ele>775.0</ele><time>2026-05-01T09:54:28.346Z</time></trkpt><trkpt lat="39.8366667" lon="9.1651668"><ele>775.0</ele><time>2026-05-01T09:54:29.349Z</time></trkpt><trkpt lat="39.8367317" lon="9.1651185"><ele>774.9999999999999</ele><time>2026-05-01T09:54:30.351Z</time></trkpt><trkpt lat="39.8367973" lon="9.1650727"><ele>775.0</ele><time>2026-05-01T09:54:31.349Z</time></trkpt><trkpt lat="39.8368613" lon="9.1650235"><ele>774.8333333333333</ele><time>2026-05-01T09:54:32.348Z</time></trkpt><trkpt lat="39.8369195" lon="9.1649718"><ele>774.6666666666666</ele><time>2026-05-01T09:54:33.348Z</time></trkpt><trkpt lat="39.8369723" lon="9.1649003"><ele>774.5</ele><time>2026-05-01T09:54:34.349Z</time></trkpt><trkpt lat="39.8370247" lon="9.164827"><ele>774.3333333333333</ele><time>2026-05-01T09:54:35.352Z</time></trkpt><trkpt lat="39.8370778" lon="9.1647522"><ele>774.1666666666666</ele><time>2026-05-01T09:54:36.35Z</time></trkpt><trkpt lat="39.8371303" lon="9.1646723"><ele>774.0</ele><time>2026-05-01T09:54:37.352Z</time></trkpt><trkpt lat="39.8371895" lon="9.164595"><ele>774.3333333333334</ele><time>2026-05-01T09:54:38.36Z</time></trkpt><trkpt lat="39.837246" lon="9.1645093"><ele>774.6666666666667</ele><time>2026-05-01T09:54:39.349Z</time></trkpt><trkpt lat="39.8373045" lon="9.1644243"><ele>775.0</ele><time>2026-05-01T09:54:40.35Z</time></trkpt><trkpt lat="39.8373505" lon="9.164332"><ele>775.3333333333334</ele><time>2026-05-01T09:54:41.355Z</time></trkpt><trkpt lat="39.8373877" lon="9.1642543"><ele>775.6666666666667</ele><time>2026-05-01T09:54:42.35Z</time></trkpt><trkpt lat="39.8374298" lon="9.164193"><ele>776.0</ele><time>2026-05-01T09:54:43.351Z</time></trkpt><trkpt lat="39.837479" lon="9.1641413"><ele>776.0000000000001</ele><time>2026-05-01T09:54:44.351Z</time></trkpt><trkpt lat="39.837527" lon="9.1640793"><ele>776.0</ele><time>2026-05-01T09:54:45.35Z</time></trkpt><trkpt lat="39.8375798" lon="9.1640135"><ele>776.0</ele><time>2026-05-01T09:54:46.356Z</time></trkpt><trkpt lat="39.8376223" lon="9.1639445"><ele>776.0</ele><time>2026-05-01T09:54:47.351Z</time></trkpt><trkpt lat="39.8376688" lon="9.163881"><ele>776.0000000000001</ele><time>2026-05-01T09:54:48.352Z</time></trkpt><trkpt lat="39.8377147" lon="9.1638117"><ele>776.0</ele><time>2026-05-01T09:54:49.35Z</time></trkpt><trkpt lat="39.8377948" lon="9.1636993"><ele>776.5000000000001</ele><time>2026-05-01T09:54:51.35Z</time></trkpt><trkpt lat="39.8378602" lon="9.1635737"><ele>777.0</ele><time>2026-05-01T09:54:53.35Z</time></trkpt><trkpt lat="39.8378842" lon="9.1634962"><ele>777.5</ele><time>2026-05-01T09:54:54.35Z</time></trkpt><trkpt lat="39.8378968" lon="9.1633945"><ele>778.0</ele><time>2026-05-01T09:54:55.349Z</time></trkpt><trkpt lat="39.8378985" lon="9.163282"><ele>778.5000000000001</ele><time>2026-05-01T09:54:56.349Z</time></trkpt><trkpt lat="39.8379002" lon="9.1631708"><ele>779.0</ele><time>2026-05-01T09:54:57.348Z</time></trkpt><trkpt lat="39.8378978" lon="9.1630487"><ele>779.6</ele><time>2026-05-01T09:54:58.35Z</time></trkpt><trkpt lat="39.837893" lon="9.1629243"><ele>780.2</ele><time>2026-05-01T09:54:59.349Z</time></trkpt><trkpt lat="39.8378822" lon="9.1628063"><ele>780.8000000000001</ele><time>2026-05-01T09:55:00.349Z</time></trkpt><trkpt lat="39.8378648" lon="9.162684"><ele>781.4000000000001</ele><time>2026-05-01T09:55:01.353Z</time></trkpt><trkpt lat="39.837843" lon="9.1625623"><ele>782.0</ele><time>2026-05-01T09:55:02.347Z</time></trkpt><trkpt lat="39.8378268" lon="9.1624565"><ele>781.9999999999999</ele><time>2026-05-01T09:55:03.35Z</time></trkpt><trkpt lat="39.8378118" lon="9.1623648"><ele>782.0</ele><time>2026-05-01T09:55:04.348Z</time></trkpt><trkpt lat="39.8377988" lon="9.1622772"><ele>782.0</ele><time>2026-05-01T09:55:05.349Z</time></trkpt><trkpt lat="39.8377953" lon="9.1621793"><ele>782.0</ele><time>2026-05-01T09:55:06.35Z</time></trkpt><trkpt lat="39.8377935" lon="9.1620737"><ele>782.0</ele><time>2026-05-01T09:55:07.35Z</time></trkpt><trkpt lat="39.8378028" lon="9.1619752"><ele>781.9999999999999</ele><time>2026-05-01T09:55:08.35Z</time></trkpt><trkpt lat="39.8378223" lon="9.1618855"><ele>782.0</ele><time>2026-05-01T09:55:09.349Z</time></trkpt><trkpt lat="39.8378517" lon="9.1617927"><ele>783.1666666666667</ele><time>2026-05-01T09:55:10.357Z</time></trkpt><trkpt lat="39.8378983" lon="9.161701"><ele>784.3333333333334</ele><time>2026-05-01T09:55:11.35Z</time></trkpt><trkpt lat="39.837944" lon="9.1616302"><ele>785.5</ele><time>2026-05-01T09:55:12.348Z</time></trkpt><trkpt lat="39.8380117" lon="9.161577"><ele>786.6666666666667</ele><time>2026-05-01T09:55:13.351Z</time></trkpt><trkpt lat="39.838096" lon="9.1615308"><ele>787.8333333333334</ele><time>2026-05-01T09:55:14.349Z</time></trkpt><trkpt lat="39.8381728" lon="9.1614763"><ele>789.0</ele><time>2026-05-01T09:55:15.357Z</time></trkpt><trkpt lat="39.8382517" lon="9.1614282"><ele>789.1666666666666</ele><time>2026-05-01T09:55:16.357Z</time></trkpt><trkpt lat="39.8383315" lon="9.1613945"><ele>789.3333333333333</ele><time>2026-05-01T09:55:17.353Z</time></trkpt><trkpt lat="39.8384223" lon="9.1613785"><ele>789.5</ele><time>2026-05-01T09:55:18.35Z</time></trkpt><trkpt lat="39.8385143" lon="9.1613735"><ele>789.6666666666666</ele><time>2026-05-01T09:55:19.356Z</time></trkpt><trkpt lat="39.8386038" lon="9.161362"><ele>789.8333333333333</ele><time>2026-05-01T09:55:20.348Z</time></trkpt><trkpt lat="39.8386937" lon="9.1613527"><ele>790.0</ele><time>2026-05-01T09:55:21.35Z</time></trkpt><trkpt lat="39.8387795" lon="9.1613403"><ele>789.9999999999999</ele><time>2026-05-01T09:55:22.355Z</time></trkpt><trkpt lat="39.8388625" lon="9.1613218"><ele>790.0</ele><time>2026-05-01T09:55:23.351Z</time></trkpt><trkpt lat="39.8389412" lon="9.1612888"><ele>790.0</ele><time>2026-05-01T09:55:24.35Z</time></trkpt><trkpt lat="39.8390103" lon="9.1612252"><ele>790.0</ele><time>2026-05-01T09:55:25.35Z</time></trkpt><trkpt lat="39.839082" lon="9.1611448"><ele>789.9999999999999</ele><time>2026-05-01T09:55:26.35Z</time></trkpt><trkpt lat="39.839141" lon="9.1610477"><ele>790.0</ele><time>2026-05-01T09:55:27.357Z</time></trkpt><trkpt lat="39.8391858" lon="9.160955"><ele>790.0</ele><time>2026-05-01T09:55:28.35Z</time></trkpt><trkpt lat="39.8392243" lon="9.1608523"><ele>790.0</ele><time>2026-05-01T09:55:29.349Z</time></trkpt><trkpt lat="39.8392533" lon="9.16074"><ele>790.0</ele><time>2026-05-01T09:55:30.35Z</time></trkpt><trkpt lat="39.8392808" lon="9.1606598"><ele>790.0</ele><time>2026-05-01T09:55:31.352Z</time></trkpt><trkpt lat="39.8393255" lon="9.1605037"><ele>790.0</ele><time>2026-05-01T09:55:33.349Z</time></trkpt><trkpt lat="39.839376" lon="9.1603398"><ele>791.3333333333333</ele><time>2026-05-01T09:55:35.356Z</time></trkpt><trkpt lat="39.8394102" lon="9.1602552"><ele>792.6666666666666</ele><time>2026-05-01T09:55:36.35Z</time></trkpt><trkpt lat="39.8394537" lon="9.1601597"><ele>794.0</ele><time>2026-05-01T09:55:37.348Z</time></trkpt><trkpt lat="39.8394942" lon="9.160054"><ele>795.3333333333333</ele><time>2026-05-01T09:55:38.349Z</time></trkpt><trkpt lat="39.839531" lon="9.159948"><ele>796.6666666666666</ele><time>2026-05-01T09:55:39.349Z</time></trkpt><trkpt lat="39.8395718" lon="9.1598455"><ele>798.0</ele><time>2026-05-01T09:55:40.356Z</time></trkpt><trkpt lat="39.8396187" lon="9.1597475"><ele>798.5999999999999</ele><time>2026-05-01T09:55:41.348Z</time></trkpt><trkpt lat="39.839655" lon="9.159657"><ele>799.1999999999999</ele><time>2026-05-01T09:55:42.348Z</time></trkpt><trkpt lat="39.839726" lon="9.1595128"><ele>799.8</ele><time>2026-05-01T09:55:44.35Z</time></trkpt><trkpt lat="39.8397635" lon="9.1594317"><ele>800.4</ele><time>2026-05-01T09:55:45.357Z</time></trkpt><trkpt lat="39.8398028" lon="9.1593533"><ele>801.0</ele><time>2026-05-01T09:55:46.35Z</time></trkpt><trkpt lat="39.8398702" lon="9.1592138"><ele>801.0</ele><time>2026-05-01T09:55:48.348Z</time></trkpt><trkpt lat="39.8398883" lon="9.1590522"><ele>801.0</ele><time>2026-05-01T09:55:50.359Z</time></trkpt><trkpt lat="39.8398865" lon="9.1589598"><ele>801.0</ele><time>2026-05-01T09:55:51.35Z</time></trkpt><trkpt lat="39.8398878" lon="9.1588757"><ele>801.0</ele><time>2026-05-01T09:55:52.347Z</time></trkpt><trkpt lat="39.8398767" lon="9.1587193"><ele>801.0</ele><time>2026-05-01T09:55:54.346Z</time></trkpt><trkpt lat="39.8398597" lon="9.158569"><ele>801.8</ele><time>2026-05-01T09:55:56.359Z</time></trkpt><trkpt lat="39.8398625" lon="9.1584463"><ele>802.5999999999999</ele><time>2026-05-01T09:55:58.351Z</time></trkpt><trkpt lat="39.8398745" lon="9.1583335"><ele>803.4</ele><time>2026-05-01T09:56:00.349Z</time></trkpt><trkpt lat="39.8398937" lon="9.15822"><ele>804.2</ele><time>2026-05-01T09:56:02.351Z</time></trkpt><trkpt lat="39.8399138" lon="9.1580692"><ele>805.0</ele><time>2026-05-01T09:56:04.349Z</time></trkpt><trkpt lat="39.8399338" lon="9.1579847"><ele>804.9999999999999</ele><time>2026-05-01T09:56:05.352Z</time></trkpt><trkpt lat="39.83995" lon="9.1579032"><ele>805.0</ele><time>2026-05-01T09:56:06.348Z</time></trkpt><trkpt lat="39.839983" lon="9.1577823"><ele>805.0</ele><time>2026-05-01T09:56:08.349Z</time></trkpt><trkpt lat="39.8399983" lon="9.1578788"><ele>805.0</ele><time>2026-05-01T09:56:59.348Z</time></trkpt><trkpt lat="39.8399688" lon="9.1580357"><ele>804.9999999999999</ele><time>2026-05-01T09:57:01.348Z</time></trkpt><trkpt lat="39.8399548" lon="9.1581273"><ele>805.0</ele><time>2026-05-01T09:57:02.349Z</time></trkpt><trkpt lat="39.8399412" lon="9.1582167"><ele>804.9999999999999</ele><time>2026-05-01T09:57:03.351Z</time></trkpt><trkpt lat="39.8399322" lon="9.1583098"><ele>805.0</ele><time>2026-05-01T09:57:04.348Z</time></trkpt><trkpt lat="39.8399293" lon="9.1584028"><ele>805.0</ele><time>2026-05-01T09:57:05.348Z</time></trkpt><trkpt lat="39.8399225" lon="9.1584903"><ele>805.0</ele><time>2026-05-01T09:57:06.348Z</time></trkpt><trkpt lat="39.839912" lon="9.158646"><ele>804.9999999999999</ele><time>2026-05-01T09:57:08.353Z</time></trkpt><trkpt lat="39.8399098" lon="9.158761"><ele>805.0</ele><time>2026-05-01T09:57:10.357Z</time></trkpt><trkpt lat="39.839921" lon="9.1588677"><ele>804.9999999999999</ele><time>2026-05-01T09:57:17.348Z</time></trkpt><trkpt lat="39.8399305" lon="9.1589602"><ele>805.0</ele><time>2026-05-01T09:59:47.35Z</time></trkpt><trkpt lat="39.8399208" lon="9.159099"><ele>805.0</ele><time>2026-05-01T09:59:50.349Z</time></trkpt><trkpt lat="39.8398988" lon="9.159245"><ele>805.0</ele><time>2026-05-01T09:59:52.352Z</time></trkpt><trkpt lat="39.8398747" lon="9.1593232"><ele>804.9999999999999</ele><time>2026-05-01T10:00:13.35Z</time></trkpt><trkpt lat="39.8398642" lon="9.1592325"><ele>805.0</ele><time>2026-05-01T10:00:16.351Z</time></trkpt><trkpt lat="39.8398705" lon="9.1591487"><ele>804.9999999999999</ele><time>2026-05-01T10:00:17.347Z</time></trkpt><trkpt lat="39.839877" lon="9.159051"><ele>805.0</ele><time>2026-05-01T10:00:18.349Z</time></trkpt><trkpt lat="39.8399" lon="9.1589207"><ele>805.0</ele><time>2026-05-01T10:00:20.35Z</time></trkpt><trkpt lat="39.8398677" lon="9.1588137"><ele>805.0</ele><time>2026-05-01T10:01:55.347Z</time></trkpt><trkpt lat="39.839854" lon="9.1586988"><ele>804.9999999999999</ele><time>2026-05-01T10:01:58.351Z</time></trkpt><trkpt lat="39.8398558" lon="9.1585795"><ele>805.0</ele><time>2026-05-01T10:02:00.347Z</time></trkpt><trkpt lat="39.8398637" lon="9.1584575"><ele>805.0</ele><time>2026-05-01T10:02:02.347Z</time></trkpt><trkpt lat="39.8398825" lon="9.1583055"><ele>805.0</ele><time>2026-05-01T10:02:04.348Z</time></trkpt><trkpt lat="39.8399012" lon="9.1581557"><ele>805.0</ele><time>2026-05-01T10:02:06.35Z</time></trkpt><trkpt lat="39.8399272" lon="9.1580102"><ele>805.0</ele><time>2026-05-01T10:02:08.348Z</time></trkpt><trkpt lat="39.8399615" lon="9.1578847"><ele>805.4999999999999</ele><time>2026-05-01T10:02:10.348Z</time></trkpt><trkpt lat="39.8400155" lon="9.1577447"><ele>806.0</ele><time>2026-05-01T10:02:12.347Z</time></trkpt><trkpt lat="39.8400502" lon="9.1576655"><ele>806.5</ele><time>2026-05-01T10:02:13.349Z</time></trkpt><trkpt lat="39.8400908" lon="9.1575867"><ele>807.0</ele><time>2026-05-01T10:02:14.348Z</time></trkpt><trkpt lat="39.8401373" lon="9.157501"><ele>807.4999999999999</ele><time>2026-05-01T10:02:15.349Z</time></trkpt><trkpt lat="39.840193" lon="9.1574075"><ele>808.0</ele><time>2026-05-01T10:02:16.348Z</time></trkpt><trkpt lat="39.8402425" lon="9.1573133"><ele>808.9999999999999</ele><time>2026-05-01T10:02:17.348Z</time></trkpt><trkpt lat="39.840289" lon="9.1572203"><ele>810.0</ele><time>2026-05-01T10:02:18.346Z</time></trkpt><trkpt lat="39.8403275" lon="9.1571127"><ele>811.0</ele><time>2026-05-01T10:02:19.35Z</time></trkpt><trkpt lat="39.8403705" lon="9.1570093"><ele>812.0</ele><time>2026-05-01T10:02:20.353Z</time></trkpt><trkpt lat="39.840415" lon="9.1569102"><ele>812.9999999999999</ele><time>2026-05-01T10:02:21.349Z</time></trkpt><trkpt lat="39.8404603" lon="9.1568138"><ele>814.0</ele><time>2026-05-01T10:02:22.347Z</time></trkpt><trkpt lat="39.8405008" lon="9.1567328"><ele>813.9999999999999</ele><time>2026-05-01T10:02:23.352Z</time></trkpt><trkpt lat="39.8405787" lon="9.1566265"><ele>814.0</ele><time>2026-05-01T10:02:25.347Z</time></trkpt><trkpt lat="39.840621" lon="9.1565515"><ele>814.0</ele><time>2026-05-01T10:02:26.347Z</time></trkpt><trkpt lat="39.840658" lon="9.1564683"><ele>814.0</ele><time>2026-05-01T10:02:27.346Z</time></trkpt><trkpt lat="39.840691" lon="9.1563743"><ele>813.9999999999999</ele><time>2026-05-01T10:02:28.347Z</time></trkpt><trkpt lat="39.8407245" lon="9.1562758"><ele>814.0</ele><time>2026-05-01T10:02:29.348Z</time></trkpt><trkpt lat="39.8407513" lon="9.1561738"><ele>814.9999999999999</ele><time>2026-05-01T10:02:30.348Z</time></trkpt><trkpt lat="39.840778" lon="9.156065"><ele>816.0</ele><time>2026-05-01T10:02:31.349Z</time></trkpt><trkpt lat="39.8408052" lon="9.1559572"><ele>817.0</ele><time>2026-05-01T10:02:32.347Z</time></trkpt><trkpt lat="39.8408362" lon="9.155848"><ele>818.0</ele><time>2026-05-01T10:02:33.349Z</time></trkpt><trkpt lat="39.8408778" lon="9.1557413"><ele>818.9999999999999</ele><time>2026-05-01T10:02:34.346Z</time></trkpt><trkpt lat="39.8409157" lon="9.155638"><ele>820.0</ele><time>2026-05-01T10:02:35.347Z</time></trkpt><trkpt lat="39.8409503" lon="9.1555343"><ele>821.1666666666666</ele><time>2026-05-01T10:02:36.347Z</time></trkpt><trkpt lat="39.8409927" lon="9.1554375"><ele>822.3333333333333</ele><time>2026-05-01T10:02:37.351Z</time></trkpt><trkpt lat="39.8410467" lon="9.1553557"><ele>823.5</ele><time>2026-05-01T10:02:38.347Z</time></trkpt><trkpt lat="39.8411062" lon="9.1552865"><ele>824.6666666666667</ele><time>2026-05-01T10:02:39.346Z</time></trkpt><trkpt lat="39.8411697" lon="9.155227"><ele>825.8333333333334</ele><time>2026-05-01T10:02:40.347Z</time></trkpt><trkpt lat="39.8412375" lon="9.1551712"><ele>827.0</ele><time>2026-05-01T10:02:41.346Z</time></trkpt><trkpt lat="39.8413028" lon="9.1551118"><ele>827.0000000000001</ele><time>2026-05-01T10:02:42.346Z</time></trkpt><trkpt lat="39.8413728" lon="9.1550477"><ele>827.0</ele><time>2026-05-01T10:02:43.346Z</time></trkpt><trkpt lat="39.8414353" lon="9.1549753"><ele>827.0</ele><time>2026-05-01T10:02:44.35Z</time></trkpt><trkpt lat="39.841508" lon="9.154902"><ele>827.0</ele><time>2026-05-01T10:02:45.348Z</time></trkpt><trkpt lat="39.8415682" lon="9.1548282"><ele>827.0000000000001</ele><time>2026-05-01T10:02:46.349Z</time></trkpt><trkpt lat="39.8416273" lon="9.154753"><ele>827.0</ele><time>2026-05-01T10:02:47.349Z</time></trkpt><trkpt lat="39.8416987" lon="9.1546737"><ele>828.6</ele><time>2026-05-01T10:02:48.348Z</time></trkpt><trkpt lat="39.8417737" lon="9.1545903"><ele>830.2</ele><time>2026-05-01T10:02:49.346Z</time></trkpt><trkpt lat="39.8418422" lon="9.1545128"><ele>831.8</ele><time>2026-05-01T10:02:50.347Z</time></trkpt><trkpt lat="39.8419063" lon="9.1544283"><ele>833.4</ele><time>2026-05-01T10:02:51.347Z</time></trkpt><trkpt lat="39.8419667" lon="9.1543452"><ele>835.0</ele><time>2026-05-01T10:02:52.35Z</time></trkpt><trkpt lat="39.842032" lon="9.1542608"><ele>835.0</ele><time>2026-05-01T10:02:53.347Z</time></trkpt><trkpt lat="39.8420985" lon="9.1541892"><ele>835.0</ele><time>2026-05-01T10:02:54.349Z</time></trkpt><trkpt lat="39.8421753" lon="9.154124"><ele>835.0</ele><time>2026-05-01T10:02:55.347Z</time></trkpt><trkpt lat="39.8422502" lon="9.1540453"><ele>835.0</ele><time>2026-05-01T10:02:56.349Z</time></trkpt><trkpt lat="39.8423172" lon="9.153963"><ele>835.0</ele><time>2026-05-01T10:02:57.349Z</time></trkpt><trkpt lat="39.842381" lon="9.1538842"><ele>834.6666666666666</ele><time>2026-05-01T10:02:58.344Z</time></trkpt><trkpt lat="39.8424398" lon="9.1538245"><ele>834.3333333333333</ele><time>2026-05-01T10:02:59.346Z</time></trkpt><trkpt lat="39.8424922" lon="9.1537622"><ele>834.0</ele><time>2026-05-01T10:03:00.347Z</time></trkpt><trkpt lat="39.8425433" lon="9.1536998"><ele>833.6666666666667</ele><time>2026-05-01T10:03:01.347Z</time></trkpt><trkpt lat="39.8425987" lon="9.1536287"><ele>833.3333333333334</ele><time>2026-05-01T10:03:02.347Z</time></trkpt><trkpt lat="39.842657" lon="9.1535597"><ele>833.0</ele><time>2026-05-01T10:03:03.348Z</time></trkpt><trkpt lat="39.8427148" lon="9.1534873"><ele>833.0000000000001</ele><time>2026-05-01T10:03:04.348Z</time></trkpt><trkpt lat="39.842771" lon="9.1534145"><ele>833.0</ele><time>2026-05-01T10:03:05.346Z</time></trkpt><trkpt lat="39.8428272" lon="9.1533462"><ele>833.0</ele><time>2026-05-01T10:03:06.349Z</time></trkpt><trkpt lat="39.8428825" lon="9.1532762"><ele>833.0</ele><time>2026-05-01T10:03:07.347Z</time></trkpt><trkpt lat="39.8429452" lon="9.1531997"><ele>833.0000000000001</ele><time>2026-05-01T10:03:08.348Z</time></trkpt><trkpt lat="39.8430023" lon="9.153122"><ele>833.0</ele><time>2026-05-01T10:03:09.348Z</time></trkpt><trkpt lat="39.8430522" lon="9.1530377"><ele>833.3333333333334</ele><time>2026-05-01T10:03:10.351Z</time></trkpt><trkpt lat="39.843092" lon="9.1529442"><ele>833.6666666666667</ele><time>2026-05-01T10:03:11.352Z</time></trkpt><trkpt lat="39.8431232" lon="9.1528447"><ele>834.0</ele><time>2026-05-01T10:03:12.349Z</time></trkpt><trkpt lat="39.8431505" lon="9.1527373"><ele>834.3333333333333</ele><time>2026-05-01T10:03:13.348Z</time></trkpt><trkpt lat="39.8431798" lon="9.1526302"><ele>834.6666666666666</ele><time>2026-05-01T10:03:14.352Z</time></trkpt><trkpt lat="39.8432017" lon="9.1525017"><ele>835.0</ele><time>2026-05-01T10:03:15.348Z</time></trkpt><trkpt lat="39.8432283" lon="9.1523688"><ele>834.9999999999999</ele><time>2026-05-01T10:03:16.346Z</time></trkpt><trkpt lat="39.8432583" lon="9.1522478"><ele>835.0</ele><time>2026-05-01T10:03:17.348Z</time></trkpt><trkpt lat="39.8432845" lon="9.152136"><ele>835.0</ele><time>2026-05-01T10:03:18.347Z</time></trkpt><trkpt lat="39.8433142" lon="9.1520347"><ele>835.0</ele><time>2026-05-01T10:03:19.348Z</time></trkpt><trkpt lat="39.8433508" lon="9.1519347"><ele>834.9999999999999</ele><time>2026-05-01T10:03:20.349Z</time></trkpt><trkpt lat="39.8433873" lon="9.1518288"><ele>835.0</ele><time>2026-05-01T10:03:21.348Z</time></trkpt><trkpt lat="39.8434333" lon="9.1517188"><ele>834.6666666666666</ele><time>2026-05-01T10:03:22.348Z</time></trkpt><trkpt lat="39.8434835" lon="9.1516198"><ele>834.3333333333333</ele><time>2026-05-01T10:03:23.35Z</time></trkpt><trkpt lat="39.8435335" lon="9.151524"><ele>834.0</ele><time>2026-05-01T10:03:24.35Z</time></trkpt><trkpt lat="39.8435857" lon="9.1514335"><ele>833.6666666666667</ele><time>2026-05-01T10:03:25.349Z</time></trkpt><trkpt lat="39.8436443" lon="9.1513437"><ele>833.3333333333334</ele><time>2026-05-01T10:03:26.348Z</time></trkpt><trkpt lat="39.8437083" lon="9.1512588"><ele>833.0</ele><time>2026-05-01T10:03:27.351Z</time></trkpt><trkpt lat="39.8437723" lon="9.1511762"><ele>833.0000000000001</ele><time>2026-05-01T10:03:28.351Z</time></trkpt><trkpt lat="39.8438305" lon="9.151101"><ele>833.0</ele><time>2026-05-01T10:03:29.347Z</time></trkpt><trkpt lat="39.8438905" lon="9.1510235"><ele>833.0</ele><time>2026-05-01T10:03:30.35Z</time></trkpt><trkpt lat="39.8439517" lon="9.1509442"><ele>833.0</ele><time>2026-05-01T10:03:31.349Z</time></trkpt><trkpt lat="39.8440153" lon="9.1508702"><ele>833.0000000000001</ele><time>2026-05-01T10:03:32.348Z</time></trkpt><trkpt lat="39.8440862" lon="9.1508043"><ele>833.0</ele><time>2026-05-01T10:03:33.348Z</time></trkpt><trkpt lat="39.8441673" lon="9.1507605"><ele>833.0</ele><time>2026-05-01T10:03:34.349Z</time></trkpt><trkpt lat="39.8442612" lon="9.1507172"><ele>833.0</ele><time>2026-05-01T10:03:35.348Z</time></trkpt><trkpt lat="39.844355" lon="9.1506737"><ele>833.0</ele><time>2026-05-01T10:03:36.35Z</time></trkpt><trkpt lat="39.8444517" lon="9.1506213"><ele>833.0</ele><time>2026-05-01T10:03:37.349Z</time></trkpt><trkpt lat="39.8445498" lon="9.1505668"><ele>833.0</ele><time>2026-05-01T10:03:38.346Z</time></trkpt><trkpt lat="39.8446378" lon="9.150521"><ele>832.3333333333334</ele><time>2026-05-01T10:03:39.347Z</time></trkpt><trkpt lat="39.8447118" lon="9.1504758"><ele>831.6666666666667</ele><time>2026-05-01T10:03:40.349Z</time></trkpt><trkpt lat="39.844781" lon="9.1504358"><ele>831.0</ele><time>2026-05-01T10:03:41.349Z</time></trkpt><trkpt lat="39.8448503" lon="9.1504035"><ele>830.3333333333333</ele><time>2026-05-01T10:03:42.35Z</time></trkpt><trkpt lat="39.8449252" lon="9.1503735"><ele>829.6666666666666</ele><time>2026-05-01T10:03:43.347Z</time></trkpt><trkpt lat="39.8449998" lon="9.1503452"><ele>829.0</ele><time>2026-05-01T10:03:44.347Z</time></trkpt><trkpt lat="39.8450815" lon="9.1503172"><ele>827.4000000000001</ele><time>2026-05-01T10:03:45.35Z</time></trkpt><trkpt lat="39.8451713" lon="9.1502778"><ele>825.8</ele><time>2026-05-01T10:03:46.347Z</time></trkpt><trkpt lat="39.845265" lon="9.1502312"><ele>824.2</ele><time>2026-05-01T10:03:47.344Z</time></trkpt><trkpt lat="39.8453667" lon="9.1501627"><ele>822.5999999999999</ele><time>2026-05-01T10:03:48.35Z</time></trkpt><trkpt lat="39.845479" lon="9.150089"><ele>821.0</ele><time>2026-05-01T10:03:49.346Z</time></trkpt><trkpt lat="39.845591" lon="9.1500135"><ele>821.0</ele><time>2026-05-01T10:03:50.347Z</time></trkpt><trkpt lat="39.8456995" lon="9.1499465"><ele>821.0</ele><time>2026-05-01T10:03:51.347Z</time></trkpt><trkpt lat="39.8458043" lon="9.1498917"><ele>821.0</ele><time>2026-05-01T10:03:52.348Z</time></trkpt><trkpt lat="39.8459055" lon="9.1498385"><ele>821.0</ele><time>2026-05-01T10:03:53.35Z</time></trkpt><trkpt lat="39.846009" lon="9.1497885"><ele>820.75</ele><time>2026-05-01T10:03:54.35Z</time></trkpt><trkpt lat="39.8461195" lon="9.1497333"><ele>820.5</ele><time>2026-05-01T10:03:55.348Z</time></trkpt><trkpt lat="39.8462343" lon="9.149669"><ele>820.25</ele><time>2026-05-01T10:03:56.358Z</time></trkpt><trkpt lat="39.8463512" lon="9.1496065"><ele>820.0</ele><time>2026-05-01T10:03:57.348Z</time></trkpt><trkpt lat="39.8464703" lon="9.149544"><ele>820.0</ele><time>2026-05-01T10:03:58.348Z</time></trkpt><trkpt lat="39.8465863" lon="9.1494742"><ele>820.0</ele><time>2026-05-01T10:03:59.352Z</time></trkpt><trkpt lat="39.8466958" lon="9.149404"><ele>820.0</ele><time>2026-05-01T10:04:00.348Z</time></trkpt><trkpt lat="39.8467998" lon="9.1493338"><ele>820.0</ele><time>2026-05-01T10:04:01.348Z</time></trkpt><trkpt lat="39.8469063" lon="9.1492717"><ele>820.2</ele><time>2026-05-01T10:04:02.342Z</time></trkpt><trkpt lat="39.8470047" lon="9.1492145"><ele>820.4</ele><time>2026-05-01T10:04:03.346Z</time></trkpt><trkpt lat="39.8471023" lon="9.1491623"><ele>820.5999999999999</ele><time>2026-05-01T10:04:04.347Z</time></trkpt><trkpt lat="39.8472032" lon="9.1491117"><ele>820.8</ele><time>2026-05-01T10:04:05.347Z</time></trkpt><trkpt lat="39.8472932" lon="9.1490515"><ele>821.0</ele><time>2026-05-01T10:04:06.346Z</time></trkpt><trkpt lat="39.8473862" lon="9.1489907"><ele>821.0</ele><time>2026-05-01T10:04:07.351Z</time></trkpt><trkpt lat="39.8474775" lon="9.148933"><ele>821.0</ele><time>2026-05-01T10:04:08.357Z</time></trkpt><trkpt lat="39.8475697" lon="9.1488842"><ele>821.0</ele><time>2026-05-01T10:04:09.351Z</time></trkpt><trkpt lat="39.8476625" lon="9.1488315"><ele>821.0</ele><time>2026-05-01T10:04:10.346Z</time></trkpt><trkpt lat="39.8477567" lon="9.1487735"><ele>821.0</ele><time>2026-05-01T10:04:11.35Z</time></trkpt><trkpt lat="39.8478482" lon="9.148724"><ele>820.6666666666667</ele><time>2026-05-01T10:04:12.346Z</time></trkpt><trkpt lat="39.847924" lon="9.148676"><ele>820.3333333333334</ele><time>2026-05-01T10:04:13.35Z</time></trkpt><trkpt lat="39.8479963" lon="9.1486423"><ele>820.0</ele><time>2026-05-01T10:04:14.348Z</time></trkpt><trkpt lat="39.8480618" lon="9.1486085"><ele>819.6666666666667</ele><time>2026-05-01T10:04:15.348Z</time></trkpt><trkpt lat="39.8481567" lon="9.1485718"><ele>819.3333333333334</ele><time>2026-05-01T10:04:17.349Z</time></trkpt><trkpt lat="39.8481905" lon="9.1484983"><ele>819.0</ele><time>2026-05-01T10:04:19.35Z</time></trkpt><trkpt lat="39.848175" lon="9.1484053"><ele>819.0</ele><time>2026-05-01T10:05:20.346Z</time></trkpt><trkpt lat="39.8481935" lon="9.1482627"><ele>819.0</ele><time>2026-05-01T10:05:22.348Z</time></trkpt><trkpt lat="39.8482167" lon="9.1481578"><ele>819.0</ele><time>2026-05-01T10:05:23.347Z</time></trkpt><trkpt lat="39.8482443" lon="9.1480497"><ele>819.0</ele><time>2026-05-01T10:05:24.347Z</time></trkpt><trkpt lat="39.8482697" lon="9.1479372"><ele>819.0</ele><time>2026-05-01T10:05:25.346Z</time></trkpt><trkpt lat="39.8482977" lon="9.1478215"><ele>819.0</ele><time>2026-05-01T10:05:26.347Z</time></trkpt><trkpt lat="39.848329" lon="9.1477105"><ele>819.0</ele><time>2026-05-01T10:05:27.347Z</time></trkpt><trkpt lat="39.8483542" lon="9.1476105"><ele>819.0</ele><time>2026-05-01T10:05:28.349Z</time></trkpt><trkpt lat="39.8483767" lon="9.1475127"><ele>819.0</ele><time>2026-05-01T10:05:29.346Z</time></trkpt><trkpt lat="39.8483977" lon="9.1474193"><ele>819.0</ele><time>2026-05-01T10:05:30.348Z</time></trkpt><trkpt lat="39.8484157" lon="9.1473205"><ele>819.0</ele><time>2026-05-01T10:05:31.346Z</time></trkpt><trkpt lat="39.8484362" lon="9.1472232"><ele>818.8333333333334</ele><time>2026-05-01T10:05:32.346Z</time></trkpt><trkpt lat="39.848458" lon="9.1471242"><ele>818.6666666666667</ele><time>2026-05-01T10:05:33.346Z</time></trkpt><trkpt lat="39.8484758" lon="9.147029"><ele>818.5</ele><time>2026-05-01T10:05:34.355Z</time></trkpt><trkpt lat="39.8484928" lon="9.1469255"><ele>818.3333333333334</ele><time>2026-05-01T10:05:35.348Z</time></trkpt><trkpt lat="39.8485123" lon="9.1468242"><ele>818.1666666666667</ele><time>2026-05-01T10:05:36.348Z</time></trkpt><trkpt lat="39.8485372" lon="9.1467252"><ele>818.0</ele><time>2026-05-01T10:05:37.347Z</time></trkpt><trkpt lat="39.8485693" lon="9.146626"><ele>817.7142857142857</ele><time>2026-05-01T10:05:38.348Z</time></trkpt><trkpt lat="39.8486023" lon="9.1465368"><ele>817.4285714285714</ele><time>2026-05-01T10:05:39.346Z</time></trkpt><trkpt lat="39.8486253" lon="9.1464485"><ele>817.1428571428571</ele><time>2026-05-01T10:05:40.346Z</time></trkpt><trkpt lat="39.8486473" lon="9.1463632"><ele>816.8571428571429</ele><time>2026-05-01T10:05:41.347Z</time></trkpt><trkpt lat="39.8486623" lon="9.146271"><ele>816.5714285714287</ele><time>2026-05-01T10:05:42.347Z</time></trkpt><trkpt lat="39.8486792" lon="9.1461705"><ele>816.2857142857143</ele><time>2026-05-01T10:05:43.347Z</time></trkpt><trkpt lat="39.8487005" lon="9.1460687"><ele>816.0</ele><time>2026-05-01T10:05:44.346Z</time></trkpt><trkpt lat="39.8487202" lon="9.145965"><ele>816.0</ele><time>2026-05-01T10:05:45.346Z</time></trkpt><trkpt lat="39.8487478" lon="9.1458595"><ele>816.0</ele><time>2026-05-01T10:05:46.347Z</time></trkpt><trkpt lat="39.8487818" lon="9.1457565"><ele>816.0</ele><time>2026-05-01T10:05:47.348Z</time></trkpt><trkpt lat="39.848809" lon="9.145659"><ele>816.0</ele><time>2026-05-01T10:05:48.348Z</time></trkpt><trkpt lat="39.8488317" lon="9.1455598"><ele>816.0</ele><time>2026-05-01T10:05:49.348Z</time></trkpt><trkpt lat="39.8488625" lon="9.1454793"><ele>816.0</ele><time>2026-05-01T10:05:50.348Z</time></trkpt><trkpt lat="39.8488817" lon="9.1454002"><ele>815.0</ele><time>2026-05-01T10:05:51.348Z</time></trkpt><trkpt lat="39.8489145" lon="9.1452532"><ele>814.0</ele><time>2026-05-01T10:05:53.347Z</time></trkpt><trkpt lat="39.8489605" lon="9.1451007"><ele>813.0</ele><time>2026-05-01T10:05:55.345Z</time></trkpt><trkpt lat="39.8489822" lon="9.1450165"><ele>812.0</ele><time>2026-05-01T10:05:56.347Z</time></trkpt><trkpt lat="39.8490032" lon="9.1449247"><ele>811.0</ele><time>2026-05-01T10:05:57.345Z</time></trkpt><trkpt lat="39.8490238" lon="9.1448208"><ele>810.1428571428571</ele><time>2026-05-01T10:05:58.346Z</time></trkpt><trkpt lat="39.8490425" lon="9.1447205"><ele>809.2857142857143</ele><time>2026-05-01T10:05:59.348Z</time></trkpt><trkpt lat="39.8490568" lon="9.1446173"><ele>808.4285714285714</ele><time>2026-05-01T10:06:00.345Z</time></trkpt><trkpt lat="39.849071" lon="9.1445235"><ele>807.5714285714286</ele><time>2026-05-01T10:06:01.345Z</time></trkpt><trkpt lat="39.8490792" lon="9.1444353"><ele>806.7142857142858</ele><time>2026-05-01T10:06:02.345Z</time></trkpt><trkpt lat="39.849085" lon="9.144346"><ele>805.8571428571429</ele><time>2026-05-01T10:06:03.347Z</time></trkpt><trkpt lat="39.849096" lon="9.1442502"><ele>805.0</ele><time>2026-05-01T10:06:04.35Z</time></trkpt><trkpt lat="39.8491095" lon="9.144155"><ele>804.9999999999999</ele><time>2026-05-01T10:06:05.349Z</time></trkpt><trkpt lat="39.8491277" lon="9.1440635"><ele>805.0</ele><time>2026-05-01T10:06:06.348Z</time></trkpt><trkpt lat="39.8491527" lon="9.143966"><ele>805.0</ele><time>2026-05-01T10:06:07.348Z</time></trkpt><trkpt lat="39.8491808" lon="9.1438587"><ele>805.0</ele><time>2026-05-01T10:06:08.35Z</time></trkpt><trkpt lat="39.849209" lon="9.1437473"><ele>804.9999999999999</ele><time>2026-05-01T10:06:09.349Z</time></trkpt><trkpt lat="39.8492367" lon="9.143642"><ele>805.0</ele><time>2026-05-01T10:06:10.345Z</time></trkpt><trkpt lat="39.8492617" lon="9.1435375"><ele>805.0</ele><time>2026-05-01T10:06:11.35Z</time></trkpt><trkpt lat="39.8492842" lon="9.1434388"><ele>805.0</ele><time>2026-05-01T10:06:12.345Z</time></trkpt><trkpt lat="39.8493063" lon="9.1433407"><ele>805.0</ele><time>2026-05-01T10:06:13.345Z</time></trkpt><trkpt lat="39.8493293" lon="9.1432545"><ele>805.0</ele><time>2026-05-01T10:06:14.346Z</time></trkpt><trkpt lat="39.8493573" lon="9.143114"><ele>805.0</ele><time>2026-05-01T10:06:16.347Z</time></trkpt><trkpt lat="39.849373" lon="9.142964"><ele>804.8333333333333</ele><time>2026-05-01T10:06:18.346Z</time></trkpt><trkpt lat="39.8493938" lon="9.1428667"><ele>804.6666666666666</ele><time>2026-05-01T10:06:19.356Z</time></trkpt><trkpt lat="39.8494162" lon="9.1427633"><ele>804.5</ele><time>2026-05-01T10:06:20.347Z</time></trkpt><trkpt lat="39.8494432" lon="9.1426612"><ele>804.3333333333333</ele><time>2026-05-01T10:06:21.356Z</time></trkpt><trkpt lat="39.8494695" lon="9.1425735"><ele>804.1666666666666</ele><time>2026-05-01T10:06:22.348Z</time></trkpt><trkpt lat="39.8494883" lon="9.142484"><ele>804.0</ele><time>2026-05-01T10:06:23.347Z</time></trkpt><trkpt lat="39.849505" lon="9.1423885"><ele>803.5</ele><time>2026-05-01T10:06:24.345Z</time></trkpt><trkpt lat="39.8495358" lon="9.1422893"><ele>803.0</ele><time>2026-05-01T10:06:25.346Z</time></trkpt><trkpt lat="39.8495825" lon="9.1421908"><ele>802.5</ele><time>2026-05-01T10:06:26.345Z</time></trkpt><trkpt lat="39.8496285" lon="9.1420893"><ele>802.0</ele><time>2026-05-01T10:06:27.348Z</time></trkpt><trkpt lat="39.8496668" lon="9.1419812"><ele>801.5</ele><time>2026-05-01T10:06:28.345Z</time></trkpt><trkpt lat="39.8496957" lon="9.1418742"><ele>801.0</ele><time>2026-05-01T10:06:29.347Z</time></trkpt><trkpt lat="39.8497255" lon="9.1417635"><ele>801.0</ele><time>2026-05-01T10:06:30.347Z</time></trkpt><trkpt lat="39.84976" lon="9.1416445"><ele>801.0</ele><time>2026-05-01T10:06:31.349Z</time></trkpt><trkpt lat="39.8497892" lon="9.1415252"><ele>801.0</ele><time>2026-05-01T10:06:32.348Z</time></trkpt><trkpt lat="39.8498132" lon="9.1414052"><ele>801.0</ele><time>2026-05-01T10:06:33.352Z</time></trkpt><trkpt lat="39.8498208" lon="9.141295"><ele>801.0</ele><time>2026-05-01T10:06:34.347Z</time></trkpt><trkpt lat="39.8498108" lon="9.1411915"><ele>800.6666666666666</ele><time>2026-05-01T10:06:35.347Z</time></trkpt><trkpt lat="39.8497885" lon="9.1410993"><ele>800.3333333333333</ele><time>2026-05-01T10:06:36.347Z</time></trkpt><trkpt lat="39.8497687" lon="9.1410017"><ele>800.0</ele><time>2026-05-01T10:06:37.348Z</time></trkpt><trkpt lat="39.8497448" lon="9.1408995"><ele>799.6666666666666</ele><time>2026-05-01T10:06:38.345Z</time></trkpt><trkpt lat="39.8497215" lon="9.1407982"><ele>799.3333333333333</ele><time>2026-05-01T10:06:39.347Z</time></trkpt><trkpt lat="39.8496992" lon="9.1406995"><ele>799.0</ele><time>2026-05-01T10:06:40.346Z</time></trkpt><trkpt lat="39.8496773" lon="9.1406063"><ele>798.4999999999999</ele><time>2026-05-01T10:06:41.346Z</time></trkpt><trkpt lat="39.8496572" lon="9.1405182"><ele>798.0</ele><time>2026-05-01T10:06:42.347Z</time></trkpt><trkpt lat="39.8496382" lon="9.1403715"><ele>797.5</ele><time>2026-05-01T10:06:44.345Z</time></trkpt><trkpt lat="39.8496158" lon="9.1402397"><ele>797.0</ele><time>2026-05-01T10:06:46.345Z</time></trkpt><trkpt lat="39.8495872" lon="9.1401467"><ele>796.4999999999999</ele><time>2026-05-01T10:06:48.348Z</time></trkpt><trkpt lat="39.8495253" lon="9.1401212"><ele>796.0</ele><time>2026-05-01T10:06:50.346Z</time></trkpt><trkpt lat="39.8494262" lon="9.1401703"><ele>795.9999999999999</ele><time>2026-05-01T10:06:52.348Z</time></trkpt><trkpt lat="39.8493632" lon="9.140216"><ele>796.0</ele><time>2026-05-01T10:06:53.343Z</time></trkpt><trkpt lat="39.8492852" lon="9.1402652"><ele>796.0</ele><time>2026-05-01T10:06:54.346Z</time></trkpt><trkpt lat="39.8491983" lon="9.1403072"><ele>796.0</ele><time>2026-05-01T10:06:55.348Z</time></trkpt><trkpt lat="39.8491082" lon="9.1403458"><ele>795.9999999999999</ele><time>2026-05-01T10:06:56.347Z</time></trkpt><trkpt lat="39.8490173" lon="9.1403915"><ele>796.0</ele><time>2026-05-01T10:06:57.347Z</time></trkpt><trkpt lat="39.8489307" lon="9.1404342"><ele>795.5999999999999</ele><time>2026-05-01T10:06:58.352Z</time></trkpt><trkpt lat="39.8488425" lon="9.1404653"><ele>795.2</ele><time>2026-05-01T10:06:59.348Z</time></trkpt><trkpt lat="39.848751" lon="9.1404912"><ele>794.8</ele><time>2026-05-01T10:07:00.346Z</time></trkpt><trkpt lat="39.8486587" lon="9.1405242"><ele>794.4000000000001</ele><time>2026-05-01T10:07:01.351Z</time></trkpt><trkpt lat="39.8485678" lon="9.1405573"><ele>794.0</ele><time>2026-05-01T10:07:02.346Z</time></trkpt><trkpt lat="39.8484835" lon="9.1406022"><ele>793.8333333333334</ele><time>2026-05-01T10:07:03.347Z</time></trkpt><trkpt lat="39.8483998" lon="9.1406425"><ele>793.6666666666667</ele><time>2026-05-01T10:07:04.345Z</time></trkpt><trkpt lat="39.8483153" lon="9.1406773"><ele>793.5</ele><time>2026-05-01T10:07:05.346Z</time></trkpt><trkpt lat="39.8482263" lon="9.1407035"><ele>793.3333333333333</ele><time>2026-05-01T10:07:06.347Z</time></trkpt><trkpt lat="39.8481467" lon="9.1407232"><ele>793.1666666666666</ele><time>2026-05-01T10:07:07.345Z</time></trkpt><trkpt lat="39.8480717" lon="9.1407482"><ele>793.0</ele><time>2026-05-01T10:07:08.346Z</time></trkpt><trkpt lat="39.8480003" lon="9.1407697"><ele>792.9999999999999</ele><time>2026-05-01T10:07:09.346Z</time></trkpt><trkpt lat="39.8479315" lon="9.1407893"><ele>793.0</ele><time>2026-05-01T10:07:10.348Z</time></trkpt><trkpt lat="39.8478632" lon="9.1408022"><ele>793.0</ele><time>2026-05-01T10:07:11.349Z</time></trkpt><trkpt lat="39.8477537" lon="9.1408187"><ele>793.0</ele><time>2026-05-01T10:07:13.35Z</time></trkpt><trkpt lat="39.8477075" lon="9.1407555"><ele>792.9999999999999</ele><time>2026-05-01T10:07:15.347Z</time></trkpt><trkpt lat="39.8477043" lon="9.1406165"><ele>793.0</ele><time>2026-05-01T10:07:17.346Z</time></trkpt><trkpt lat="39.8477097" lon="9.140519"><ele>792.9999999999999</ele><time>2026-05-01T10:07:18.344Z</time></trkpt><trkpt lat="39.8477022" lon="9.1404198"><ele>793.0</ele><time>2026-05-01T10:07:19.345Z</time></trkpt><trkpt lat="39.8476712" lon="9.1403292"><ele>793.0</ele><time>2026-05-01T10:07:20.346Z</time></trkpt><trkpt lat="39.8476168" lon="9.1402417"><ele>793.0</ele><time>2026-05-01T10:07:21.345Z</time></trkpt><trkpt lat="39.8475692" lon="9.1401578"><ele>792.9999999999999</ele><time>2026-05-01T10:07:22.346Z</time></trkpt><trkpt lat="39.8475305" lon="9.1400637"><ele>793.0</ele><time>2026-05-01T10:07:23.345Z</time></trkpt><trkpt lat="39.8474862" lon="9.1399637"><ele>793.8</ele><time>2026-05-01T10:07:24.345Z</time></trkpt><trkpt lat="39.8474378" lon="9.1398563"><ele>794.5999999999999</ele><time>2026-05-01T10:07:25.347Z</time></trkpt><trkpt lat="39.8473827" lon="9.1397422"><ele>795.4000000000001</ele><time>2026-05-01T10:07:26.348Z</time></trkpt><trkpt lat="39.8473347" lon="9.1396228"><ele>796.2</ele><time>2026-05-01T10:07:27.347Z</time></trkpt><trkpt lat="39.8472998" lon="9.1395053"><ele>797.0</ele><time>2026-05-01T10:07:28.348Z</time></trkpt><trkpt lat="39.8472812" lon="9.139396"><ele>797.0</ele><time>2026-05-01T10:07:29.347Z</time></trkpt><trkpt lat="39.8472758" lon="9.139278"><ele>797.0</ele><time>2026-05-01T10:07:30.348Z</time></trkpt><trkpt lat="39.8472765" lon="9.1391458"><ele>797.0</ele><time>2026-05-01T10:07:31.347Z</time></trkpt><trkpt lat="39.8472682" lon="9.1390183"><ele>797.0</ele><time>2026-05-01T10:07:32.345Z</time></trkpt><trkpt lat="39.84725" lon="9.1388923"><ele>797.0</ele><time>2026-05-01T10:07:33.348Z</time></trkpt><trkpt lat="39.8472457" lon="9.138769"><ele>797.2</ele><time>2026-05-01T10:07:34.346Z</time></trkpt><trkpt lat="39.8472445" lon="9.1386415"><ele>797.4000000000001</ele><time>2026-05-01T10:07:35.345Z</time></trkpt><trkpt lat="39.8472375" lon="9.1384978"><ele>797.5999999999999</ele><time>2026-05-01T10:07:36.355Z</time></trkpt><trkpt lat="39.8472332" lon="9.1383472"><ele>797.8</ele><time>2026-05-01T10:07:37.347Z</time></trkpt><trkpt lat="39.8472263" lon="9.1381938"><ele>798.0</ele><time>2026-05-01T10:07:38.346Z</time></trkpt><trkpt lat="39.8472138" lon="9.1380402"><ele>798.0</ele><time>2026-05-01T10:07:39.349Z</time></trkpt><trkpt lat="39.8472032" lon="9.137888"><ele>798.0</ele><time>2026-05-01T10:07:40.347Z</time></trkpt><trkpt lat="39.8471995" lon="9.1377407"><ele>798.0</ele><time>2026-05-01T10:07:41.353Z</time></trkpt><trkpt lat="39.8471925" lon="9.1376087"><ele>798.0</ele><time>2026-05-01T10:07:42.346Z</time></trkpt><trkpt lat="39.8471812" lon="9.1374897"><ele>798.0</ele><time>2026-05-01T10:07:43.347Z</time></trkpt><trkpt lat="39.8471573" lon="9.137379"><ele>797.8</ele><time>2026-05-01T10:07:44.35Z</time></trkpt><trkpt lat="39.8471358" lon="9.1372655"><ele>797.5999999999999</ele><time>2026-05-01T10:07:45.347Z</time></trkpt><trkpt lat="39.8471148" lon="9.1371503"><ele>797.4000000000001</ele><time>2026-05-01T10:07:46.348Z</time></trkpt><trkpt lat="39.8470955" lon="9.1370343"><ele>797.2</ele><time>2026-05-01T10:07:47.346Z</time></trkpt><trkpt lat="39.847079" lon="9.1369138"><ele>797.0</ele><time>2026-05-01T10:07:48.346Z</time></trkpt><trkpt lat="39.8470703" lon="9.1368002"><ele>797.0000000000001</ele><time>2026-05-01T10:07:49.346Z</time></trkpt><trkpt lat="39.8470617" lon="9.1366953"><ele>797.0</ele><time>2026-05-01T10:07:50.35Z</time></trkpt><trkpt lat="39.8470555" lon="9.1365947"><ele>797.0</ele><time>2026-05-01T10:07:51.346Z</time></trkpt><trkpt lat="39.8470518" lon="9.1364995"><ele>797.0</ele><time>2026-05-01T10:07:52.348Z</time></trkpt><trkpt lat="39.8470493" lon="9.1364067"><ele>797.0000000000001</ele><time>2026-05-01T10:07:53.349Z</time></trkpt><trkpt lat="39.8470568" lon="9.1363195"><ele>797.0</ele><time>2026-05-01T10:07:54.347Z</time></trkpt><trkpt lat="39.8471315" lon="9.1361782"><ele>797.0</ele><time>2026-05-01T10:07:56.346Z</time></trkpt><trkpt lat="39.8471928" lon="9.1361035"><ele>797.0</ele><time>2026-05-01T10:07:57.348Z</time></trkpt><trkpt lat="39.8472667" lon="9.1360177"><ele>797.0</ele><time>2026-05-01T10:07:58.35Z</time></trkpt><trkpt lat="39.847349" lon="9.1359195"><ele>797.0</ele><time>2026-05-01T10:07:59.347Z</time></trkpt><trkpt lat="39.8474345" lon="9.135812"><ele>797.0</ele><time>2026-05-01T10:08:00.35Z</time></trkpt><trkpt lat="39.8475222" lon="9.135702"><ele>796.4000000000001</ele><time>2026-05-01T10:08:01.345Z</time></trkpt><trkpt lat="39.8476082" lon="9.1355918"><ele>795.8000000000001</ele><time>2026-05-01T10:08:02.346Z</time></trkpt><trkpt lat="39.8476835" lon="9.1354892"><ele>795.2</ele><time>2026-05-01T10:08:03.348Z</time></trkpt><trkpt lat="39.8477438" lon="9.1353867"><ele>794.6</ele><time>2026-05-01T10:08:04.346Z</time></trkpt><trkpt lat="39.8477827" lon="9.1352792"><ele>794.0</ele><time>2026-05-01T10:08:05.352Z</time></trkpt><trkpt lat="39.847818" lon="9.1351547"><ele>793.4000000000001</ele><time>2026-05-01T10:08:06.347Z</time></trkpt><trkpt lat="39.8478522" lon="9.135029"><ele>792.8</ele><time>2026-05-01T10:08:07.346Z</time></trkpt><trkpt lat="39.8478878" lon="9.1348918"><ele>792.2</ele><time>2026-05-01T10:08:08.345Z</time></trkpt><trkpt lat="39.8479237" lon="9.134756"><ele>791.5999999999999</ele><time>2026-05-01T10:08:09.345Z</time></trkpt><trkpt lat="39.8479628" lon="9.1346152"><ele>791.0</ele><time>2026-05-01T10:08:10.349Z</time></trkpt><trkpt lat="39.8480085" lon="9.1344865"><ele>790.5999999999999</ele><time>2026-05-01T10:08:11.345Z</time></trkpt><trkpt lat="39.8480537" lon="9.1343598"><ele>790.2</ele><time>2026-05-01T10:08:12.346Z</time></trkpt><trkpt lat="39.8480932" lon="9.134236"><ele>789.8</ele><time>2026-05-01T10:08:13.351Z</time></trkpt><trkpt lat="39.848126" lon="9.1341133"><ele>789.4000000000001</ele><time>2026-05-01T10:08:14.346Z</time></trkpt><trkpt lat="39.8481598" lon="9.1339873"><ele>789.0</ele><time>2026-05-01T10:08:15.347Z</time></trkpt><trkpt lat="39.8481958" lon="9.133859"><ele>788.2</ele><time>2026-05-01T10:08:16.346Z</time></trkpt><trkpt lat="39.8482452" lon="9.1337472"><ele>787.4000000000001</ele><time>2026-05-01T10:08:17.345Z</time></trkpt><trkpt lat="39.848295" lon="9.1336343"><ele>786.6</ele><time>2026-05-01T10:08:18.347Z</time></trkpt><trkpt lat="39.8483425" lon="9.1335065"><ele>785.8</ele><time>2026-05-01T10:08:19.35Z</time></trkpt><trkpt lat="39.8483777" lon="9.1333753"><ele>785.0</ele><time>2026-05-01T10:08:20.349Z</time></trkpt><trkpt lat="39.8484103" lon="9.1332287"><ele>784.5</ele><time>2026-05-01T10:08:21.349Z</time></trkpt><trkpt lat="39.8484463" lon="9.133079"><ele>784.0</ele><time>2026-05-01T10:08:22.345Z</time></trkpt><trkpt lat="39.8484863" lon="9.1329233"><ele>783.5</ele><time>2026-05-01T10:08:23.345Z</time></trkpt><trkpt lat="39.8485232" lon="9.1327662"><ele>783.0</ele><time>2026-05-01T10:08:24.347Z</time></trkpt><trkpt lat="39.8485565" lon="9.132603"><ele>783.0</ele><time>2026-05-01T10:08:25.345Z</time></trkpt><trkpt lat="39.8485892" lon="9.132432"><ele>783.0</ele><time>2026-05-01T10:08:26.345Z</time></trkpt><trkpt lat="39.8486298" lon="9.1322653"><ele>783.0</ele><time>2026-05-01T10:08:27.344Z</time></trkpt><trkpt lat="39.8486735" lon="9.1320943"><ele>783.0</ele><time>2026-05-01T10:08:28.345Z</time></trkpt><trkpt lat="39.8487213" lon="9.1319203"><ele>782.5</ele><time>2026-05-01T10:08:29.35Z</time></trkpt><trkpt lat="39.8487673" lon="9.1317532"><ele>782.0</ele><time>2026-05-01T10:08:30.347Z</time></trkpt><trkpt lat="39.8488153" lon="9.1315918"><ele>781.5</ele><time>2026-05-01T10:08:31.348Z</time></trkpt><trkpt lat="39.848863" lon="9.1314465"><ele>781.0</ele><time>2026-05-01T10:08:32.348Z</time></trkpt><trkpt lat="39.8489052" lon="9.1312968"><ele>780.3333333333333</ele><time>2026-05-01T10:08:33.348Z</time></trkpt><trkpt lat="39.8489385" lon="9.1311637"><ele>779.6666666666666</ele><time>2026-05-01T10:08:34.347Z</time></trkpt><trkpt lat="39.8489473" lon="9.1310415"><ele>779.0</ele><time>2026-05-01T10:08:35.35Z</time></trkpt><trkpt lat="39.8489662" lon="9.1309353"><ele>778.3333333333333</ele><time>2026-05-01T10:08:36.347Z</time></trkpt><trkpt lat="39.8489982" lon="9.130854"><ele>777.6666666666666</ele><time>2026-05-01T10:08:37.347Z</time></trkpt><trkpt lat="39.8490473" lon="9.130791"><ele>777.0</ele><time>2026-05-01T10:08:38.347Z</time></trkpt><trkpt lat="39.8491327" lon="9.1307523"><ele>777.0</ele><time>2026-05-01T10:08:39.346Z</time></trkpt><trkpt lat="39.8492477" lon="9.13073"><ele>777.0</ele><time>2026-05-01T10:08:40.345Z</time></trkpt><trkpt lat="39.849377" lon="9.1306997"><ele>777.0</ele><time>2026-05-01T10:08:41.347Z</time></trkpt><trkpt lat="39.8495128" lon="9.1306683"><ele>777.0</ele><time>2026-05-01T10:08:42.346Z</time></trkpt><trkpt lat="39.8496507" lon="9.1306398"><ele>776.25</ele><time>2026-05-01T10:08:43.347Z</time></trkpt><trkpt lat="39.8497867" lon="9.1306078"><ele>775.5</ele><time>2026-05-01T10:08:44.346Z</time></trkpt><trkpt lat="39.849918" lon="9.1305828"><ele>774.75</ele><time>2026-05-01T10:08:45.345Z</time></trkpt><trkpt lat="39.8500392" lon="9.1305563"><ele>774.0</ele><time>2026-05-01T10:08:46.348Z</time></trkpt><trkpt lat="39.850146" lon="9.1305303"><ele>773.8333333333334</ele><time>2026-05-01T10:08:47.348Z</time></trkpt><trkpt lat="39.8502402" lon="9.1304987"><ele>773.6666666666667</ele><time>2026-05-01T10:08:48.35Z</time></trkpt><trkpt lat="39.8503193" lon="9.1304697"><ele>773.5</ele><time>2026-05-01T10:08:49.346Z</time></trkpt><trkpt lat="39.8503817" lon="9.1304532"><ele>773.3333333333334</ele><time>2026-05-01T10:08:50.348Z</time></trkpt><trkpt lat="39.8504083" lon="9.1303755"><ele>773.1666666666667</ele><time>2026-05-01T10:08:53.347Z</time></trkpt><trkpt lat="39.8503487" lon="9.130343"><ele>773.0</ele><time>2026-05-01T10:08:55.347Z</time></trkpt><trkpt lat="39.8502703" lon="9.13032"><ele>773.0</ele><time>2026-05-01T10:08:58.345Z</time></trkpt><trkpt lat="39.8501913" lon="9.1302287"><ele>773.0</ele><time>2026-05-01T10:09:26.346Z</time></trkpt><trkpt lat="39.8500902" lon="9.1301062"><ele>773.0</ele><time>2026-05-01T10:09:28.348Z</time></trkpt><trkpt lat="39.850047" lon="9.1300283"><ele>773.0</ele><time>2026-05-01T10:09:29.345Z</time></trkpt><trkpt lat="39.8499973" lon="9.1298985"><ele>773.0</ele><time>2026-05-01T10:09:31.346Z</time></trkpt><trkpt lat="39.8499677" lon="9.1297957"><ele>772.8</ele><time>2026-05-01T10:09:33.347Z</time></trkpt><trkpt lat="39.849924" lon="9.1296783"><ele>772.5999999999999</ele><time>2026-05-01T10:09:35.344Z</time></trkpt><trkpt lat="39.8498882" lon="9.1295903"><ele>772.4000000000001</ele><time>2026-05-01T10:09:36.351Z</time></trkpt><trkpt lat="39.849847" lon="9.1294903"><ele>772.2</ele><time>2026-05-01T10:09:37.349Z</time></trkpt><trkpt lat="39.8498112" lon="9.1293807"><ele>772.0</ele><time>2026-05-01T10:09:38.348Z</time></trkpt><trkpt lat="39.849782" lon="9.1292583"><ele>772.0</ele><time>2026-05-01T10:09:39.348Z</time></trkpt><trkpt lat="39.8497545" lon="9.1291332"><ele>772.0</ele><time>2026-05-01T10:09:40.348Z</time></trkpt><trkpt lat="39.8497357" lon="9.129004"><ele>772.0</ele><time>2026-05-01T10:09:41.35Z</time></trkpt><trkpt lat="39.8497298" lon="9.1288653"><ele>772.0</ele><time>2026-05-01T10:09:42.348Z</time></trkpt><trkpt lat="39.8497328" lon="9.128723"><ele>772.0</ele><time>2026-05-01T10:09:43.349Z</time></trkpt><trkpt lat="39.8497368" lon="9.1285802"><ele>771.2</ele><time>2026-05-01T10:09:44.346Z</time></trkpt><trkpt lat="39.8497402" lon="9.1284385"><ele>770.4000000000001</ele><time>2026-05-01T10:09:45.35Z</time></trkpt><trkpt lat="39.8497448" lon="9.128295"><ele>769.5999999999999</ele><time>2026-05-01T10:09:46.345Z</time></trkpt><trkpt lat="39.849746" lon="9.1281467"><ele>768.8</ele><time>2026-05-01T10:09:47.346Z</time></trkpt><trkpt lat="39.8497482" lon="9.1280018"><ele>768.0</ele><time>2026-05-01T10:09:48.347Z</time></trkpt><trkpt lat="39.8497503" lon="9.1278625"><ele>767.5999999999999</ele><time>2026-05-01T10:09:49.346Z</time></trkpt><trkpt lat="39.8497513" lon="9.1277305"><ele>767.1999999999999</ele><time>2026-05-01T10:09:50.35Z</time></trkpt><trkpt lat="39.8497442" lon="9.1276067"><ele>766.8</ele><time>2026-05-01T10:09:51.345Z</time></trkpt><trkpt lat="39.8497258" lon="9.1274978"><ele>766.4</ele><time>2026-05-01T10:09:52.348Z</time></trkpt><trkpt lat="39.8496918" lon="9.1273942"><ele>766.0</ele><time>2026-05-01T10:09:53.347Z</time></trkpt><trkpt lat="39.84963" lon="9.1272938"><ele>765.5999999999999</ele><time>2026-05-01T10:09:54.348Z</time></trkpt><trkpt lat="39.8495448" lon="9.1272073"><ele>765.2</ele><time>2026-05-01T10:09:55.349Z</time></trkpt><trkpt lat="39.8494497" lon="9.1271292"><ele>764.8</ele><time>2026-05-01T10:09:56.349Z</time></trkpt><trkpt lat="39.8493592" lon="9.1270438"><ele>764.4000000000001</ele><time>2026-05-01T10:09:57.349Z</time></trkpt><trkpt lat="39.8492778" lon="9.1269522"><ele>764.0</ele><time>2026-05-01T10:09:58.346Z</time></trkpt><trkpt lat="39.8491945" lon="9.1268708"><ele>763.5</ele><time>2026-05-01T10:09:59.347Z</time></trkpt><trkpt lat="39.8491135" lon="9.1267883"><ele>763.0</ele><time>2026-05-01T10:10:00.347Z</time></trkpt><trkpt lat="39.8490395" lon="9.1267128"><ele>762.5</ele><time>2026-05-01T10:10:01.347Z</time></trkpt><trkpt lat="39.848968" lon="9.1266375"><ele>762.0</ele><time>2026-05-01T10:10:02.346Z</time></trkpt><trkpt lat="39.8489083" lon="9.1265768"><ele>761.5</ele><time>2026-05-01T10:10:03.347Z</time></trkpt><trkpt lat="39.8488558" lon="9.1265248"><ele>761.0</ele><time>2026-05-01T10:10:04.347Z</time></trkpt><trkpt lat="39.8488005" lon="9.1264415"><ele>760.4</ele><time>2026-05-01T10:10:06.346Z</time></trkpt><trkpt lat="39.8487515" lon="9.1263658"><ele>759.8</ele><time>2026-05-01T10:10:10.346Z</time></trkpt><trkpt lat="39.8486275" lon="9.1263125"><ele>759.1999999999999</ele><time>2026-05-01T10:10:12.345Z</time></trkpt><trkpt lat="39.8485423" lon="9.1263"><ele>758.5999999999999</ele><time>2026-05-01T10:10:13.346Z</time></trkpt><trkpt lat="39.8484318" lon="9.1263042"><ele>758.0</ele><time>2026-05-01T10:10:14.346Z</time></trkpt><trkpt lat="39.8483073" lon="9.1263088"><ele>757.25</ele><time>2026-05-01T10:10:15.345Z</time></trkpt><trkpt lat="39.8481717" lon="9.1262992"><ele>756.5</ele><time>2026-05-01T10:10:16.346Z</time></trkpt><trkpt lat="39.8480308" lon="9.1262972"><ele>755.75</ele><time>2026-05-01T10:10:17.347Z</time></trkpt><trkpt lat="39.8478825" lon="9.126295"><ele>755.0</ele><time>2026-05-01T10:10:18.346Z</time></trkpt><trkpt lat="39.8477257" lon="9.1262907"><ele>755.3333333333333</ele><time>2026-05-01T10:10:19.347Z</time></trkpt><trkpt lat="39.8475728" lon="9.1262933"><ele>755.6666666666666</ele><time>2026-05-01T10:10:20.346Z</time></trkpt><trkpt lat="39.8474263" lon="9.1262835"><ele>756.0</ele><time>2026-05-01T10:10:21.348Z</time></trkpt><trkpt lat="39.8472757" lon="9.1262603"><ele>756.0</ele><time>2026-05-01T10:10:22.344Z</time></trkpt><trkpt lat="39.8471283" lon="9.1262223"><ele>756.0</ele><time>2026-05-01T10:10:23.362Z</time></trkpt><trkpt lat="39.8469797" lon="9.1261803"><ele>756.0</ele><time>2026-05-01T10:10:24.347Z</time></trkpt><trkpt lat="39.84683" lon="9.126127"><ele>756.6666666666666</ele><time>2026-05-01T10:10:25.352Z</time></trkpt><trkpt lat="39.8466837" lon="9.126061"><ele>757.3333333333333</ele><time>2026-05-01T10:10:26.348Z</time></trkpt><trkpt lat="39.8465307" lon="9.1259817"><ele>758.0</ele><time>2026-05-01T10:10:27.35Z</time></trkpt><trkpt lat="39.8463663" lon="9.1259018"><ele>758.0</ele><time>2026-05-01T10:10:28.348Z</time></trkpt><trkpt lat="39.8461938" lon="9.1258263"><ele>758.0</ele><time>2026-05-01T10:10:29.347Z</time></trkpt><trkpt lat="39.8460178" lon="9.1257548"><ele>758.0</ele><time>2026-05-01T10:10:30.348Z</time></trkpt><trkpt lat="39.845847" lon="9.1256763"><ele>757.3333333333333</ele><time>2026-05-01T10:10:31.348Z</time></trkpt><trkpt lat="39.8456705" lon="9.12561"><ele>756.6666666666666</ele><time>2026-05-01T10:10:32.35Z</time></trkpt><trkpt lat="39.8454885" lon="9.1255505"><ele>756.0</ele><time>2026-05-01T10:10:33.346Z</time></trkpt><trkpt lat="39.8453012" lon="9.1255213"><ele>755.6666666666666</ele><time>2026-05-01T10:10:34.348Z</time></trkpt><trkpt lat="39.8451213" lon="9.1255103"><ele>755.3333333333333</ele><time>2026-05-01T10:10:35.35Z</time></trkpt><trkpt lat="39.8449327" lon="9.1255245"><ele>755.0</ele><time>2026-05-01T10:10:36.35Z</time></trkpt><trkpt lat="39.8447437" lon="9.1255743"><ele>755.0</ele><time>2026-05-01T10:10:37.346Z</time></trkpt><trkpt lat="39.8445567" lon="9.1256365"><ele>755.0</ele><time>2026-05-01T10:10:38.346Z</time></trkpt><trkpt lat="39.8443673" lon="9.1256953"><ele>755.0</ele><time>2026-05-01T10:10:39.348Z</time></trkpt><trkpt lat="39.8441758" lon="9.1257425"><ele>755.3333333333333</ele><time>2026-05-01T10:10:40.348Z</time></trkpt><trkpt lat="39.8439893" lon="9.1257877"><ele>755.6666666666666</ele><time>2026-05-01T10:10:41.348Z</time></trkpt><trkpt lat="39.8438042" lon="9.1258203"><ele>756.0</ele><time>2026-05-01T10:10:42.347Z</time></trkpt><trkpt lat="39.8436138" lon="9.125854"><ele>756.0</ele><time>2026-05-01T10:10:43.347Z</time></trkpt><trkpt lat="39.8434248" lon="9.1258915"><ele>756.0</ele><time>2026-05-01T10:10:44.349Z</time></trkpt><trkpt lat="39.843236" lon="9.1259255"><ele>756.0</ele><time>2026-05-01T10:10:45.348Z</time></trkpt><trkpt lat="39.843052" lon="9.1259628"><ele>756.0</ele><time>2026-05-01T10:10:46.351Z</time></trkpt><trkpt lat="39.8428693" lon="9.125997"><ele>756.0</ele><time>2026-05-01T10:10:47.35Z</time></trkpt><trkpt lat="39.8426882" lon="9.1260387"><ele>756.0</ele><time>2026-05-01T10:10:48.348Z</time></trkpt><trkpt lat="39.8425052" lon="9.1260823"><ele>756.0</ele><time>2026-05-01T10:10:49.348Z</time></trkpt><trkpt lat="39.842315" lon="9.1261303"><ele>756.0</ele><time>2026-05-01T10:10:50.347Z</time></trkpt><trkpt lat="39.8421337" lon="9.1262032"><ele>756.0</ele><time>2026-05-01T10:10:51.349Z</time></trkpt><trkpt lat="39.84195" lon="9.1262868"><ele>755.3333333333334</ele><time>2026-05-01T10:10:52.347Z</time></trkpt><trkpt lat="39.8417627" lon="9.1263842"><ele>754.6666666666667</ele><time>2026-05-01T10:10:53.347Z</time></trkpt><trkpt lat="39.8415835" lon="9.1264818"><ele>754.0</ele><time>2026-05-01T10:10:54.348Z</time></trkpt><trkpt lat="39.841412" lon="9.1265967"><ele>753.3333333333334</ele><time>2026-05-01T10:10:55.348Z</time></trkpt><trkpt lat="39.8412472" lon="9.1267228"><ele>752.6666666666666</ele><time>2026-05-01T10:10:56.347Z</time></trkpt><trkpt lat="39.8410892" lon="9.1268643"><ele>752.0</ele><time>2026-05-01T10:10:57.346Z</time></trkpt><trkpt lat="39.8409377" lon="9.1270028"><ele>752.0</ele><time>2026-05-01T10:10:58.348Z</time></trkpt><trkpt lat="39.8407827" lon="9.1271487"><ele>752.0</ele><time>2026-05-01T10:10:59.351Z</time></trkpt><trkpt lat="39.84062" lon="9.1272928"><ele>752.0</ele><time>2026-05-01T10:11:00.347Z</time></trkpt><trkpt lat="39.8404608" lon="9.1274328"><ele>752.0</ele><time>2026-05-01T10:11:01.346Z</time></trkpt><trkpt lat="39.8402973" lon="9.1275768"><ele>752.0</ele><time>2026-05-01T10:11:02.347Z</time></trkpt><trkpt lat="39.8401322" lon="9.12772"><ele>752.0</ele><time>2026-05-01T10:11:03.348Z</time></trkpt><trkpt lat="39.8399632" lon="9.1278608"><ele>753.0</ele><time>2026-05-01T10:11:04.349Z</time></trkpt><trkpt lat="39.8397957" lon="9.1280035"><ele>754.0</ele><time>2026-05-01T10:11:05.346Z</time></trkpt><trkpt lat="39.8396333" lon="9.1281445"><ele>755.0</ele><time>2026-05-01T10:11:06.35Z</time></trkpt><trkpt lat="39.8394765" lon="9.1282925"><ele>755.0</ele><time>2026-05-01T10:11:07.345Z</time></trkpt><trkpt lat="39.8393123" lon="9.1284343"><ele>755.0</ele><time>2026-05-01T10:11:08.346Z</time></trkpt><trkpt lat="39.8391433" lon="9.1285752"><ele>755.0</ele><time>2026-05-01T10:11:09.347Z</time></trkpt><trkpt lat="39.8389743" lon="9.1287188"><ele>755.3333333333333</ele><time>2026-05-01T10:11:10.347Z</time></trkpt><trkpt lat="39.8388095" lon="9.1288578"><ele>755.6666666666666</ele><time>2026-05-01T10:11:11.345Z</time></trkpt><trkpt lat="39.8386467" lon="9.1289978"><ele>756.0</ele><time>2026-05-01T10:11:12.348Z</time></trkpt><trkpt lat="39.8384938" lon="9.1291437"><ele>754.0</ele><time>2026-05-01T10:11:13.346Z</time></trkpt><trkpt lat="39.8383455" lon="9.129303"><ele>752.0</ele><time>2026-05-01T10:11:14.348Z</time></trkpt><trkpt lat="39.838212" lon="9.1294837"><ele>750.0</ele><time>2026-05-01T10:11:15.347Z</time></trkpt><trkpt lat="39.8380773" lon="9.1296702"><ele>750.0</ele><time>2026-05-01T10:11:16.349Z</time></trkpt><trkpt lat="39.837961" lon="9.1298588"><ele>750.0</ele><time>2026-05-01T10:11:17.347Z</time></trkpt><trkpt lat="39.8378473" lon="9.1300682"><ele>750.0</ele><time>2026-05-01T10:11:18.346Z</time></trkpt><trkpt lat="39.8377292" lon="9.1302777"><ele>748.3333333333334</ele><time>2026-05-01T10:11:19.35Z</time></trkpt><trkpt lat="39.8376195" lon="9.1304915"><ele>746.6666666666667</ele><time>2026-05-01T10:11:20.348Z</time></trkpt><trkpt lat="39.8375175" lon="9.130707"><ele>745.0</ele><time>2026-05-01T10:11:21.345Z</time></trkpt><trkpt lat="39.8374167" lon="9.1309242"><ele>745.0</ele><time>2026-05-01T10:11:22.346Z</time></trkpt><trkpt lat="39.8373153" lon="9.1311423"><ele>745.0</ele><time>2026-05-01T10:11:23.346Z</time></trkpt><trkpt lat="39.8372155" lon="9.1313562"><ele>745.0</ele><time>2026-05-01T10:11:24.346Z</time></trkpt><trkpt lat="39.837104" lon="9.1315573"><ele>744.6666666666667</ele><time>2026-05-01T10:11:25.348Z</time></trkpt><trkpt lat="39.8369933" lon="9.1317388"><ele>744.3333333333334</ele><time>2026-05-01T10:11:26.346Z</time></trkpt><trkpt lat="39.8368707" lon="9.131911"><ele>744.0</ele><time>2026-05-01T10:11:27.346Z</time></trkpt><trkpt lat="39.8367377" lon="9.1320552"><ele>741.3333333333334</ele><time>2026-05-01T10:11:28.348Z</time></trkpt><trkpt lat="39.836586" lon="9.132199"><ele>738.6666666666667</ele><time>2026-05-01T10:11:29.346Z</time></trkpt><trkpt lat="39.8364305" lon="9.1323195"><ele>736.0</ele><time>2026-05-01T10:11:30.348Z</time></trkpt><trkpt lat="39.836261" lon="9.1324337"><ele>736.0</ele><time>2026-05-01T10:11:31.349Z</time></trkpt><trkpt lat="39.8360942" lon="9.1325482"><ele>736.0</ele><time>2026-05-01T10:11:32.347Z</time></trkpt><trkpt lat="39.8359173" lon="9.1326247"><ele>736.0</ele><time>2026-05-01T10:11:33.348Z</time></trkpt><trkpt lat="39.8357222" lon="9.1326817"><ele>732.6666666666667</ele><time>2026-05-01T10:11:34.347Z</time></trkpt><trkpt lat="39.8355322" lon="9.1327265"><ele>729.3333333333334</ele><time>2026-05-01T10:11:35.352Z</time></trkpt><trkpt lat="39.835339" lon="9.1327713"><ele>726.0</ele><time>2026-05-01T10:11:36.347Z</time></trkpt><trkpt lat="39.8351408" lon="9.132817"><ele>723.3333333333334</ele><time>2026-05-01T10:11:37.348Z</time></trkpt><trkpt lat="39.8349467" lon="9.1328657"><ele>720.6666666666667</ele><time>2026-05-01T10:11:38.348Z</time></trkpt><trkpt lat="39.834743" lon="9.1329222"><ele>718.0</ele><time>2026-05-01T10:11:39.346Z</time></trkpt><trkpt lat="39.8345437" lon="9.1329808"><ele>718.0</ele><time>2026-05-01T10:11:40.35Z</time></trkpt><trkpt lat="39.8343402" lon="9.1330437"><ele>718.0</ele><time>2026-05-01T10:11:41.346Z</time></trkpt><trkpt lat="39.8341427" lon="9.133102"><ele>718.0</ele><time>2026-05-01T10:11:42.357Z</time></trkpt><trkpt lat="39.8339392" lon="9.1331613"><ele>716.6666666666667</ele><time>2026-05-01T10:11:43.347Z</time></trkpt><trkpt lat="39.8337382" lon="9.1332268"><ele>715.3333333333334</ele><time>2026-05-01T10:11:44.345Z</time></trkpt><trkpt lat="39.8335457" lon="9.1332922"><ele>714.0</ele><time>2026-05-01T10:11:45.344Z</time></trkpt><trkpt lat="39.833355" lon="9.1333473"><ele>713.3333333333334</ele><time>2026-05-01T10:11:46.349Z</time></trkpt><trkpt lat="39.8331637" lon="9.1333958"><ele>712.6666666666667</ele><time>2026-05-01T10:11:47.346Z</time></trkpt><trkpt lat="39.8329688" lon="9.1334563"><ele>712.0</ele><time>2026-05-01T10:11:48.345Z</time></trkpt><trkpt lat="39.8327765" lon="9.1335078"><ele>712.0</ele><time>2026-05-01T10:11:49.35Z</time></trkpt><trkpt lat="39.8325825" lon="9.1335577"><ele>712.0</ele><time>2026-05-01T10:11:50.347Z</time></trkpt><trkpt lat="39.8323935" lon="9.1336023"><ele>712.0</ele><time>2026-05-01T10:11:51.347Z</time></trkpt><trkpt lat="39.8322127" lon="9.1336488"><ele>712.0</ele><time>2026-05-01T10:11:52.352Z</time></trkpt><trkpt lat="39.832029" lon="9.1336975"><ele>712.0</ele><time>2026-05-01T10:11:53.345Z</time></trkpt><trkpt lat="39.8318408" lon="9.1337535"><ele>712.0</ele><time>2026-05-01T10:11:54.347Z</time></trkpt><trkpt lat="39.8316567" lon="9.1337992"><ele>711.0</ele><time>2026-05-01T10:11:55.347Z</time></trkpt><trkpt lat="39.8314667" lon="9.1338517"><ele>710.0</ele><time>2026-05-01T10:11:56.348Z</time></trkpt><trkpt lat="39.8312818" lon="9.1339005"><ele>709.0</ele><time>2026-05-01T10:11:57.346Z</time></trkpt><trkpt lat="39.8311013" lon="9.1339482"><ele>707.6666666666667</ele><time>2026-05-01T10:11:58.345Z</time></trkpt><trkpt lat="39.8309183" lon="9.133998"><ele>706.3333333333334</ele><time>2026-05-01T10:11:59.349Z</time></trkpt><trkpt lat="39.8307417" lon="9.1340577"><ele>705.0</ele><time>2026-05-01T10:12:00.347Z</time></trkpt><trkpt lat="39.8305567" lon="9.1341097"><ele>705.0</ele><time>2026-05-01T10:12:01.343Z</time></trkpt><trkpt lat="39.8303635" lon="9.1341693"><ele>705.0</ele><time>2026-05-01T10:12:02.348Z</time></trkpt><trkpt lat="39.8301792" lon="9.134221"><ele>705.0</ele><time>2026-05-01T10:12:03.349Z</time></trkpt><trkpt lat="39.829992" lon="9.1342722"><ele>703.6666666666666</ele><time>2026-05-01T10:12:04.348Z</time></trkpt><trkpt lat="39.8298085" lon="9.1343205"><ele>702.3333333333333</ele><time>2026-05-01T10:12:05.347Z</time></trkpt><trkpt lat="39.8296285" lon="9.1343595"><ele>701.0</ele><time>2026-05-01T10:12:06.35Z</time></trkpt><trkpt lat="39.829448" lon="9.1343892"><ele>700.0</ele><time>2026-05-01T10:12:07.346Z</time></trkpt><trkpt lat="39.8292722" lon="9.134399"><ele>699.0</ele><time>2026-05-01T10:12:08.35Z</time></trkpt><trkpt lat="39.8290952" lon="9.1344027"><ele>698.0</ele><time>2026-05-01T10:12:09.348Z</time></trkpt><trkpt lat="39.8289167" lon="9.1343993"><ele>698.0</ele><time>2026-05-01T10:12:10.347Z</time></trkpt><trkpt lat="39.8287337" lon="9.1343898"><ele>698.0</ele><time>2026-05-01T10:12:11.347Z</time></trkpt><trkpt lat="39.828558" lon="9.1343733"><ele>698.0</ele><time>2026-05-01T10:12:12.348Z</time></trkpt><trkpt lat="39.828369" lon="9.1343555"><ele>697.0</ele><time>2026-05-01T10:12:13.346Z</time></trkpt><trkpt lat="39.8281828" lon="9.1343272"><ele>696.0</ele><time>2026-05-01T10:12:14.347Z</time></trkpt><trkpt lat="39.8279968" lon="9.1342812"><ele>695.0</ele><time>2026-05-01T10:12:15.347Z</time></trkpt><trkpt lat="39.8278147" lon="9.1342293"><ele>693.3333333333333</ele><time>2026-05-01T10:12:16.346Z</time></trkpt><trkpt lat="39.8276325" lon="9.1341798"><ele>691.6666666666666</ele><time>2026-05-01T10:12:17.346Z</time></trkpt><trkpt lat="39.8274482" lon="9.1341352"><ele>690.0</ele><time>2026-05-01T10:12:18.346Z</time></trkpt><trkpt lat="39.8272625" lon="9.1340863"><ele>690.0</ele><time>2026-05-01T10:12:19.349Z</time></trkpt><trkpt lat="39.827083" lon="9.1340437"><ele>690.0</ele><time>2026-05-01T10:12:20.348Z</time></trkpt><trkpt lat="39.8268948" lon="9.134003"><ele>690.0</ele><time>2026-05-01T10:12:21.348Z</time></trkpt><trkpt lat="39.8267133" lon="9.1339567"><ele>687.3333333333334</ele><time>2026-05-01T10:12:22.348Z</time></trkpt><trkpt lat="39.8265307" lon="9.1339177"><ele>684.6666666666667</ele><time>2026-05-01T10:12:23.347Z</time></trkpt><trkpt lat="39.8263582" lon="9.1338792"><ele>682.0</ele><time>2026-05-01T10:12:24.347Z</time></trkpt><trkpt lat="39.8261875" lon="9.1338418"><ele>682.0</ele><time>2026-05-01T10:12:25.348Z</time></trkpt><trkpt lat="39.8260288" lon="9.1338102"><ele>682.0</ele><time>2026-05-01T10:12:26.347Z</time></trkpt><trkpt lat="39.8258677" lon="9.1337748"><ele>682.0</ele><time>2026-05-01T10:12:27.349Z</time></trkpt><trkpt lat="39.8257093" lon="9.1337428"><ele>681.3333333333334</ele><time>2026-05-01T10:12:28.349Z</time></trkpt><trkpt lat="39.825553" lon="9.1337125"><ele>680.6666666666666</ele><time>2026-05-01T10:12:29.347Z</time></trkpt><trkpt lat="39.8254018" lon="9.133678"><ele>680.0</ele><time>2026-05-01T10:12:30.348Z</time></trkpt><trkpt lat="39.8252522" lon="9.1336443"><ele>681.6666666666666</ele><time>2026-05-01T10:12:31.348Z</time></trkpt><trkpt lat="39.8251057" lon="9.1336092"><ele>683.3333333333334</ele><time>2026-05-01T10:12:32.349Z</time></trkpt><trkpt lat="39.8249535" lon="9.1335772"><ele>685.0</ele><time>2026-05-01T10:12:33.347Z</time></trkpt><trkpt lat="39.8248035" lon="9.133552"><ele>685.0</ele><time>2026-05-01T10:12:34.346Z</time></trkpt><trkpt lat="39.8246545" lon="9.1335228"><ele>685.0</ele><time>2026-05-01T10:12:35.346Z</time></trkpt><trkpt lat="39.8245063" lon="9.1334917"><ele>685.0</ele><time>2026-05-01T10:12:36.35Z</time></trkpt><trkpt lat="39.8243577" lon="9.1334655"><ele>684.75</ele><time>2026-05-01T10:12:37.349Z</time></trkpt><trkpt lat="39.8242108" lon="9.1334477"><ele>684.5</ele><time>2026-05-01T10:12:38.346Z</time></trkpt><trkpt lat="39.8240643" lon="9.133454"><ele>684.25</ele><time>2026-05-01T10:12:39.347Z</time></trkpt><trkpt lat="39.8239197" lon="9.1334908"><ele>684.0</ele><time>2026-05-01T10:12:40.36Z</time></trkpt><trkpt lat="39.8237805" lon="9.1335337"><ele>684.0</ele><time>2026-05-01T10:12:41.349Z</time></trkpt><trkpt lat="39.8236385" lon="9.133594"><ele>684.0</ele><time>2026-05-01T10:12:42.349Z</time></trkpt><trkpt lat="39.8234998" lon="9.1336603"><ele>684.0</ele><time>2026-05-01T10:12:43.35Z</time></trkpt><trkpt lat="39.8233648" lon="9.1337407"><ele>684.0</ele><time>2026-05-01T10:12:44.346Z</time></trkpt><trkpt lat="39.8232363" lon="9.1338302"><ele>684.0</ele><time>2026-05-01T10:12:45.349Z</time></trkpt><trkpt lat="39.8231173" lon="9.1339305"><ele>684.0</ele><time>2026-05-01T10:12:46.346Z</time></trkpt><trkpt lat="39.8230047" lon="9.1340457"><ele>684.0</ele><time>2026-05-01T10:12:47.349Z</time></trkpt><trkpt lat="39.822882" lon="9.1341782"><ele>684.0</ele><time>2026-05-01T10:12:48.347Z</time></trkpt><trkpt lat="39.8227632" lon="9.13432"><ele>683.6666666666666</ele><time>2026-05-01T10:12:49.346Z</time></trkpt><trkpt lat="39.8226458" lon="9.1344442"><ele>683.3333333333333</ele><time>2026-05-01T10:12:50.345Z</time></trkpt><trkpt lat="39.8225213" lon="9.13457"><ele>683.0</ele><time>2026-05-01T10:12:51.346Z</time></trkpt><trkpt lat="39.8223965" lon="9.1347118"><ele>683.0</ele><time>2026-05-01T10:12:52.346Z</time></trkpt><trkpt lat="39.8222738" lon="9.1348525"><ele>683.0</ele><time>2026-05-01T10:12:53.347Z</time></trkpt><trkpt lat="39.8221403" lon="9.134995"><ele>683.0</ele><time>2026-05-01T10:12:54.349Z</time></trkpt><trkpt lat="39.8220085" lon="9.1351405"><ele>683.0</ele><time>2026-05-01T10:12:55.346Z</time></trkpt><trkpt lat="39.8218848" lon="9.1352927"><ele>683.0</ele><time>2026-05-01T10:12:56.349Z</time></trkpt><trkpt lat="39.8217525" lon="9.1354328"><ele>683.0</ele><time>2026-05-01T10:12:57.347Z</time></trkpt><trkpt lat="39.8216187" lon="9.135578"><ele>682.6666666666666</ele><time>2026-05-01T10:12:58.348Z</time></trkpt><trkpt lat="39.821492" lon="9.1357298"><ele>682.3333333333334</ele><time>2026-05-01T10:12:59.348Z</time></trkpt><trkpt lat="39.8213575" lon="9.1358823"><ele>682.0</ele><time>2026-05-01T10:13:00.347Z</time></trkpt><trkpt lat="39.8212262" lon="9.1360323"><ele>682.0</ele><time>2026-05-01T10:13:01.343Z</time></trkpt><trkpt lat="39.8210967" lon="9.1361728"><ele>682.0</ele><time>2026-05-01T10:13:02.349Z</time></trkpt><trkpt lat="39.8209682" lon="9.1363182"><ele>682.0</ele><time>2026-05-01T10:13:03.345Z</time></trkpt><trkpt lat="39.820845" lon="9.1364625"><ele>681.3333333333334</ele><time>2026-05-01T10:13:04.348Z</time></trkpt><trkpt lat="39.8207338" lon="9.1366185"><ele>680.6666666666666</ele><time>2026-05-01T10:13:05.346Z</time></trkpt><trkpt lat="39.820631" lon="9.1367783"><ele>680.0</ele><time>2026-05-01T10:13:06.345Z</time></trkpt><trkpt lat="39.8205357" lon="9.136957"><ele>680.0</ele><time>2026-05-01T10:13:07.348Z</time></trkpt><trkpt lat="39.8204323" lon="9.1371488"><ele>680.0</ele><time>2026-05-01T10:13:08.346Z</time></trkpt><trkpt lat="39.8203495" lon="9.137334"><ele>680.0</ele><time>2026-05-01T10:13:09.349Z</time></trkpt><trkpt lat="39.820274" lon="9.1375285"><ele>680.6666666666666</ele><time>2026-05-01T10:13:10.345Z</time></trkpt><trkpt lat="39.820204" lon="9.137727"><ele>681.3333333333334</ele><time>2026-05-01T10:13:11.347Z</time></trkpt><trkpt lat="39.8201387" lon="9.1379155"><ele>682.0</ele><time>2026-05-01T10:13:12.344Z</time></trkpt><trkpt lat="39.8200795" lon="9.1381208"><ele>682.6666666666667</ele><time>2026-05-01T10:13:13.345Z</time></trkpt><trkpt lat="39.8200032" lon="9.1383272"><ele>683.3333333333334</ele><time>2026-05-01T10:13:14.345Z</time></trkpt><trkpt lat="39.8199253" lon="9.1385287"><ele>684.0</ele><time>2026-05-01T10:13:15.345Z</time></trkpt><trkpt lat="39.8198548" lon="9.1387363"><ele>684.0</ele><time>2026-05-01T10:13:16.345Z</time></trkpt><trkpt lat="39.8197823" lon="9.1389417"><ele>684.0</ele><time>2026-05-01T10:13:17.345Z</time></trkpt><trkpt lat="39.8197125" lon="9.139144"><ele>684.0</ele><time>2026-05-01T10:13:18.347Z</time></trkpt><trkpt lat="39.8196412" lon="9.1393477"><ele>684.3333333333334</ele><time>2026-05-01T10:13:19.346Z</time></trkpt><trkpt lat="39.8195653" lon="9.1395507"><ele>684.6666666666667</ele><time>2026-05-01T10:13:20.346Z</time></trkpt><trkpt lat="39.819487" lon="9.1397552"><ele>685.0</ele><time>2026-05-01T10:13:21.347Z</time></trkpt><trkpt lat="39.819414" lon="9.1399587"><ele>685.0</ele><time>2026-05-01T10:13:22.344Z</time></trkpt><trkpt lat="39.8193478" lon="9.1401582"><ele>685.0</ele><time>2026-05-01T10:13:23.35Z</time></trkpt><trkpt lat="39.8192807" lon="9.1403523"><ele>685.0</ele><time>2026-05-01T10:13:24.344Z</time></trkpt><trkpt lat="39.8192165" lon="9.1405447"><ele>685.0</ele><time>2026-05-01T10:13:25.346Z</time></trkpt><trkpt lat="39.819155" lon="9.1407365"><ele>685.0</ele><time>2026-05-01T10:13:26.345Z</time></trkpt><trkpt lat="39.8190873" lon="9.140931"><ele>685.0</ele><time>2026-05-01T10:13:27.345Z</time></trkpt><trkpt lat="39.8190105" lon="9.1411222"><ele>685.0</ele><time>2026-05-01T10:13:28.346Z</time></trkpt><trkpt lat="39.8189383" lon="9.1413133"><ele>685.0</ele><time>2026-05-01T10:13:29.345Z</time></trkpt><trkpt lat="39.8188683" lon="9.1415008"><ele>685.0</ele><time>2026-05-01T10:13:30.346Z</time></trkpt><trkpt lat="39.8187965" lon="9.1416893"><ele>686.3333333333334</ele><time>2026-05-01T10:13:31.345Z</time></trkpt><trkpt lat="39.8187263" lon="9.1418765"><ele>687.6666666666666</ele><time>2026-05-01T10:13:32.345Z</time></trkpt><trkpt lat="39.8186617" lon="9.1420708"><ele>689.0</ele><time>2026-05-01T10:13:33.345Z</time></trkpt><trkpt lat="39.8185888" lon="9.1422697"><ele>689.0</ele><time>2026-05-01T10:13:34.343Z</time></trkpt><trkpt lat="39.8185163" lon="9.1424583"><ele>689.0</ele><time>2026-05-01T10:13:35.346Z</time></trkpt><trkpt lat="39.8184493" lon="9.1426538"><ele>689.0</ele><time>2026-05-01T10:13:36.344Z</time></trkpt><trkpt lat="39.8183807" lon="9.1428498"><ele>689.0</ele><time>2026-05-01T10:13:37.346Z</time></trkpt><trkpt lat="39.818312" lon="9.143049"><ele>689.0</ele><time>2026-05-01T10:13:38.343Z</time></trkpt><trkpt lat="39.8182385" lon="9.1432398"><ele>689.0</ele><time>2026-05-01T10:13:39.344Z</time></trkpt><trkpt lat="39.818171" lon="9.143429"><ele>689.6666666666666</ele><time>2026-05-01T10:13:40.342Z</time></trkpt><trkpt lat="39.8181032" lon="9.1436188"><ele>690.3333333333334</ele><time>2026-05-01T10:13:41.344Z</time></trkpt><trkpt lat="39.8180317" lon="9.143813"><ele>691.0</ele><time>2026-05-01T10:13:42.344Z</time></trkpt><trkpt lat="39.8179667" lon="9.1440023"><ele>692.0</ele><time>2026-05-01T10:13:43.345Z</time></trkpt><trkpt lat="39.8179032" lon="9.14418"><ele>693.0</ele><time>2026-05-01T10:13:44.345Z</time></trkpt><trkpt lat="39.8178323" lon="9.1443632"><ele>694.0</ele><time>2026-05-01T10:13:45.346Z</time></trkpt><trkpt lat="39.8177668" lon="9.1445423"><ele>694.0</ele><time>2026-05-01T10:13:46.347Z</time></trkpt><trkpt lat="39.817705" lon="9.144725"><ele>694.0</ele><time>2026-05-01T10:13:47.347Z</time></trkpt><trkpt lat="39.8176402" lon="9.1449078"><ele>694.0</ele><time>2026-05-01T10:13:48.344Z</time></trkpt><trkpt lat="39.8175753" lon="9.145084"><ele>694.6666666666667</ele><time>2026-05-01T10:13:49.345Z</time></trkpt><trkpt lat="39.8175098" lon="9.145263"><ele>695.3333333333334</ele><time>2026-05-01T10:13:50.346Z</time></trkpt><trkpt lat="39.8174393" lon="9.1454467"><ele>696.0</ele><time>2026-05-01T10:13:51.347Z</time></trkpt><trkpt lat="39.8173713" lon="9.1456308"><ele>696.3333333333334</ele><time>2026-05-01T10:13:52.346Z</time></trkpt><trkpt lat="39.8173058" lon="9.1458125"><ele>696.6666666666667</ele><time>2026-05-01T10:13:53.346Z</time></trkpt><trkpt lat="39.8172388" lon="9.1459997"><ele>697.0</ele><time>2026-05-01T10:13:54.348Z</time></trkpt><trkpt lat="39.8171705" lon="9.1461885"><ele>697.0</ele><time>2026-05-01T10:13:55.345Z</time></trkpt><trkpt lat="39.8171077" lon="9.1463775"><ele>697.0</ele><time>2026-05-01T10:13:56.345Z</time></trkpt><trkpt lat="39.8170368" lon="9.1465598"><ele>697.0</ele><time>2026-05-01T10:13:57.346Z</time></trkpt><trkpt lat="39.816961" lon="9.1467463"><ele>697.3333333333334</ele><time>2026-05-01T10:13:58.347Z</time></trkpt><trkpt lat="39.8168937" lon="9.1469372"><ele>697.6666666666666</ele><time>2026-05-01T10:13:59.349Z</time></trkpt><trkpt lat="39.8168315" lon="9.1471337"><ele>698.0</ele><time>2026-05-01T10:14:00.348Z</time></trkpt><trkpt lat="39.8167687" lon="9.1473187"><ele>698.6666666666666</ele><time>2026-05-01T10:14:01.344Z</time></trkpt><trkpt lat="39.8167048" lon="9.1475035"><ele>699.3333333333334</ele><time>2026-05-01T10:14:02.346Z</time></trkpt><trkpt lat="39.8166347" lon="9.1476833"><ele>700.0</ele><time>2026-05-01T10:14:03.345Z</time></trkpt><trkpt lat="39.8165583" lon="9.1478578"><ele>700.0</ele><time>2026-05-01T10:14:04.344Z</time></trkpt><trkpt lat="39.8164987" lon="9.1480353"><ele>700.0</ele><time>2026-05-01T10:14:05.346Z</time></trkpt><trkpt lat="39.8164357" lon="9.1482145"><ele>700.0</ele><time>2026-05-01T10:14:06.344Z</time></trkpt><trkpt lat="39.816372" lon="9.1483935"><ele>700.6666666666667</ele><time>2026-05-01T10:14:07.345Z</time></trkpt><trkpt lat="39.8162982" lon="9.1485748"><ele>701.3333333333334</ele><time>2026-05-01T10:14:08.345Z</time></trkpt><trkpt lat="39.8162318" lon="9.1487498"><ele>702.0</ele><time>2026-05-01T10:14:09.346Z</time></trkpt><trkpt lat="39.8161573" lon="9.148929"><ele>701.6666666666666</ele><time>2026-05-01T10:14:10.344Z</time></trkpt><trkpt lat="39.8160778" lon="9.1491043"><ele>701.3333333333333</ele><time>2026-05-01T10:14:11.343Z</time></trkpt><trkpt lat="39.8159913" lon="9.1492752"><ele>701.0</ele><time>2026-05-01T10:14:12.345Z</time></trkpt><trkpt lat="39.815906" lon="9.149446"><ele>701.0</ele><time>2026-05-01T10:14:13.347Z</time></trkpt><trkpt lat="39.8158215" lon="9.149617"><ele>701.0</ele><time>2026-05-01T10:14:14.345Z</time></trkpt><trkpt lat="39.815734" lon="9.149783"><ele>701.0</ele><time>2026-05-01T10:14:15.345Z</time></trkpt><trkpt lat="39.815643" lon="9.1499473"><ele>702.0</ele><time>2026-05-01T10:14:16.343Z</time></trkpt><trkpt lat="39.8155603" lon="9.1501165"><ele>703.0</ele><time>2026-05-01T10:14:17.344Z</time></trkpt><trkpt lat="39.81548" lon="9.1502802"><ele>704.0</ele><time>2026-05-01T10:14:18.35Z</time></trkpt><trkpt lat="39.8154017" lon="9.1504535"><ele>704.0</ele><time>2026-05-01T10:14:19.346Z</time></trkpt><trkpt lat="39.8153027" lon="9.1506213"><ele>704.0</ele><time>2026-05-01T10:14:20.359Z</time></trkpt><trkpt lat="39.8152032" lon="9.1507912"><ele>704.0</ele><time>2026-05-01T10:14:21.348Z</time></trkpt><trkpt lat="39.8151098" lon="9.1509665"><ele>702.6666666666666</ele><time>2026-05-01T10:14:22.345Z</time></trkpt><trkpt lat="39.8150177" lon="9.151136"><ele>701.3333333333334</ele><time>2026-05-01T10:14:23.346Z</time></trkpt><trkpt lat="39.8149215" lon="9.1513145"><ele>700.0</ele><time>2026-05-01T10:14:24.346Z</time></trkpt><trkpt lat="39.8148305" lon="9.1514907"><ele>700.6666666666667</ele><time>2026-05-01T10:14:25.344Z</time></trkpt><trkpt lat="39.8147362" lon="9.1516605"><ele>701.3333333333334</ele><time>2026-05-01T10:14:26.345Z</time></trkpt><trkpt lat="39.8146417" lon="9.1518382"><ele>702.0</ele><time>2026-05-01T10:14:27.344Z</time></trkpt><trkpt lat="39.8145492" lon="9.1520092"><ele>702.0</ele><time>2026-05-01T10:14:28.345Z</time></trkpt><trkpt lat="39.8144502" lon="9.1521777"><ele>702.0</ele><time>2026-05-01T10:14:29.346Z</time></trkpt><trkpt lat="39.8143552" lon="9.152351"><ele>702.0</ele><time>2026-05-01T10:14:30.344Z</time></trkpt><trkpt lat="39.8142633" lon="9.1525122"><ele>701.3333333333334</ele><time>2026-05-01T10:14:31.347Z</time></trkpt><trkpt lat="39.8141688" lon="9.1526745"><ele>700.6666666666667</ele><time>2026-05-01T10:14:32.346Z</time></trkpt><trkpt lat="39.8140775" lon="9.1528335"><ele>700.0</ele><time>2026-05-01T10:14:33.345Z</time></trkpt><trkpt lat="39.8139925" lon="9.1529928"><ele>700.0</ele><time>2026-05-01T10:14:34.347Z</time></trkpt><trkpt lat="39.8139008" lon="9.1531565"><ele>700.0</ele><time>2026-05-01T10:14:35.347Z</time></trkpt><trkpt lat="39.8138042" lon="9.1533225"><ele>700.0</ele><time>2026-05-01T10:14:36.349Z</time></trkpt><trkpt lat="39.8137052" lon="9.1534857"><ele>700.3333333333334</ele><time>2026-05-01T10:14:37.345Z</time></trkpt><trkpt lat="39.813605" lon="9.1536373"><ele>700.6666666666666</ele><time>2026-05-01T10:14:38.346Z</time></trkpt><trkpt lat="39.8134993" lon="9.1537822"><ele>701.0</ele><time>2026-05-01T10:14:39.347Z</time></trkpt><trkpt lat="39.813392" lon="9.153933"><ele>701.6666666666666</ele><time>2026-05-01T10:14:40.348Z</time></trkpt><trkpt lat="39.8132833" lon="9.1540815"><ele>702.3333333333334</ele><time>2026-05-01T10:14:41.346Z</time></trkpt><trkpt lat="39.8131715" lon="9.1542278"><ele>703.0</ele><time>2026-05-01T10:14:42.346Z</time></trkpt><trkpt lat="39.8130553" lon="9.1543753"><ele>703.0</ele><time>2026-05-01T10:14:43.345Z</time></trkpt><trkpt lat="39.8129382" lon="9.1545172"><ele>703.0</ele><time>2026-05-01T10:14:44.344Z</time></trkpt><trkpt lat="39.8128227" lon="9.1546595"><ele>703.0</ele><time>2026-05-01T10:14:45.345Z</time></trkpt><trkpt lat="39.8127063" lon="9.1548013"><ele>703.6666666666667</ele><time>2026-05-01T10:14:46.345Z</time></trkpt><trkpt lat="39.8125843" lon="9.1549432"><ele>704.3333333333334</ele><time>2026-05-01T10:14:47.351Z</time></trkpt><trkpt lat="39.812461" lon="9.155079"><ele>705.0</ele><time>2026-05-01T10:14:48.347Z</time></trkpt><trkpt lat="39.8123407" lon="9.1552205"><ele>705.0</ele><time>2026-05-01T10:14:49.347Z</time></trkpt><trkpt lat="39.8122223" lon="9.1553657"><ele>705.0</ele><time>2026-05-01T10:14:50.348Z</time></trkpt><trkpt lat="39.8121005" lon="9.155512"><ele>705.0</ele><time>2026-05-01T10:14:51.347Z</time></trkpt><trkpt lat="39.8119812" lon="9.1556592"><ele>704.6666666666666</ele><time>2026-05-01T10:14:52.346Z</time></trkpt><trkpt lat="39.8118688" lon="9.1557988"><ele>704.3333333333333</ele><time>2026-05-01T10:14:53.348Z</time></trkpt><trkpt lat="39.8117555" lon="9.1559268"><ele>704.0</ele><time>2026-05-01T10:14:54.346Z</time></trkpt><trkpt lat="39.8116418" lon="9.1560628"><ele>704.0</ele><time>2026-05-01T10:14:55.347Z</time></trkpt><trkpt lat="39.8115318" lon="9.156199"><ele>704.0</ele><time>2026-05-01T10:14:56.347Z</time></trkpt><trkpt lat="39.8114295" lon="9.1563385"><ele>704.0</ele><time>2026-05-01T10:14:57.347Z</time></trkpt><trkpt lat="39.8113315" lon="9.1564817"><ele>704.0</ele><time>2026-05-01T10:14:58.346Z</time></trkpt><trkpt lat="39.8112347" lon="9.1566288"><ele>704.75</ele><time>2026-05-01T10:14:59.347Z</time></trkpt><trkpt lat="39.8111408" lon="9.1567747"><ele>705.5</ele><time>2026-05-01T10:15:00.345Z</time></trkpt><trkpt lat="39.8110548" lon="9.1569232"><ele>706.25</ele><time>2026-05-01T10:15:01.348Z</time></trkpt><trkpt lat="39.8109683" lon="9.1570788"><ele>707.0</ele><time>2026-05-01T10:15:02.345Z</time></trkpt><trkpt lat="39.8108908" lon="9.1572363"><ele>707.5</ele><time>2026-05-01T10:15:03.343Z</time></trkpt><trkpt lat="39.810819" lon="9.1573955"><ele>708.0</ele><time>2026-05-01T10:15:04.346Z</time></trkpt><trkpt lat="39.810743" lon="9.1575518"><ele>708.5</ele><time>2026-05-01T10:15:05.35Z</time></trkpt><trkpt lat="39.8106603" lon="9.1577127"><ele>709.0</ele><time>2026-05-01T10:15:06.346Z</time></trkpt><trkpt lat="39.8105782" lon="9.1578657"><ele>709.0</ele><time>2026-05-01T10:15:07.348Z</time></trkpt><trkpt lat="39.8105045" lon="9.1580213"><ele>709.0</ele><time>2026-05-01T10:15:08.349Z</time></trkpt><trkpt lat="39.810428" lon="9.1581765"><ele>709.0</ele><time>2026-05-01T10:15:09.345Z</time></trkpt><trkpt lat="39.8103497" lon="9.1583415"><ele>709.0</ele><time>2026-05-01T10:15:10.345Z</time></trkpt><trkpt lat="39.8102773" lon="9.1584918"><ele>709.1666666666667</ele><time>2026-05-01T10:15:11.345Z</time></trkpt><trkpt lat="39.8102057" lon="9.1586023"><ele>709.3333333333334</ele><time>2026-05-01T10:15:12.347Z</time></trkpt><trkpt lat="39.8101655" lon="9.1586762"><ele>709.5</ele><time>2026-05-01T10:15:13.345Z</time></trkpt><trkpt lat="39.8101027" lon="9.1587547"><ele>709.6666666666666</ele><time>2026-05-01T10:15:15.345Z</time></trkpt><trkpt lat="39.8100578" lon="9.1588193"><ele>709.8333333333333</ele><time>2026-05-01T10:15:17.346Z</time></trkpt><trkpt lat="39.8100047" lon="9.1588957"><ele>710.0</ele><time>2026-05-01T10:15:20.346Z</time></trkpt><trkpt lat="39.8099805" lon="9.1589782"><ele>710.4</ele><time>2026-05-01T10:15:22.345Z</time></trkpt><trkpt lat="39.8099435" lon="9.1590592"><ele>710.8</ele><time>2026-05-01T10:15:24.349Z</time></trkpt><trkpt lat="39.8098885" lon="9.1591433"><ele>711.2</ele><time>2026-05-01T10:15:28.346Z</time></trkpt><trkpt lat="39.8098365" lon="9.1592083"><ele>711.6</ele><time>2026-05-01T10:15:31.344Z</time></trkpt><trkpt lat="39.8098172" lon="9.1593258"><ele>712.0</ele><time>2026-05-01T10:17:00.344Z</time></trkpt><trkpt lat="39.8097397" lon="9.1594693"><ele>712.0</ele><time>2026-05-01T10:17:02.347Z</time></trkpt><trkpt lat="39.8096823" lon="9.1595558"><ele>712.0</ele><time>2026-05-01T10:17:03.344Z</time></trkpt><trkpt lat="39.809626" lon="9.159641"><ele>712.0</ele><time>2026-05-01T10:17:04.344Z</time></trkpt><trkpt lat="39.8095592" lon="9.1597342"><ele>712.0</ele><time>2026-05-01T10:17:05.344Z</time></trkpt><trkpt lat="39.8094837" lon="9.1598305"><ele>712.0</ele><time>2026-05-01T10:17:06.344Z</time></trkpt><trkpt lat="39.8094075" lon="9.159923"><ele>712.25</ele><time>2026-05-01T10:17:07.35Z</time></trkpt><trkpt lat="39.8093227" lon="9.1600227"><ele>712.5</ele><time>2026-05-01T10:17:08.348Z</time></trkpt><trkpt lat="39.8092425" lon="9.160122"><ele>712.75</ele><time>2026-05-01T10:17:09.345Z</time></trkpt><trkpt lat="39.8091585" lon="9.1602225"><ele>713.0</ele><time>2026-05-01T10:17:10.343Z</time></trkpt><trkpt lat="39.8090657" lon="9.1603205"><ele>713.0</ele><time>2026-05-01T10:17:11.343Z</time></trkpt><trkpt lat="39.8089737" lon="9.1604162"><ele>713.0</ele><time>2026-05-01T10:17:12.344Z</time></trkpt><trkpt lat="39.8088782" lon="9.160508"><ele>713.0</ele><time>2026-05-01T10:17:13.346Z</time></trkpt><trkpt lat="39.8087798" lon="9.1605952"><ele>713.0</ele><time>2026-05-01T10:17:14.344Z</time></trkpt><trkpt lat="39.8086787" lon="9.1606803"><ele>713.25</ele><time>2026-05-01T10:17:15.344Z</time></trkpt><trkpt lat="39.8085798" lon="9.1607658"><ele>713.5</ele><time>2026-05-01T10:17:16.346Z</time></trkpt><trkpt lat="39.8084803" lon="9.160853"><ele>713.75</ele><time>2026-05-01T10:17:17.345Z</time></trkpt><trkpt lat="39.8083817" lon="9.160937"><ele>714.0</ele><time>2026-05-01T10:17:18.344Z</time></trkpt><trkpt lat="39.8082875" lon="9.1610208"><ele>713.4000000000001</ele><time>2026-05-01T10:17:19.344Z</time></trkpt><trkpt lat="39.8081938" lon="9.1611033"><ele>712.8</ele><time>2026-05-01T10:17:20.346Z</time></trkpt><trkpt lat="39.808102" lon="9.1611855"><ele>712.2</ele><time>2026-05-01T10:17:21.346Z</time></trkpt><trkpt lat="39.8080162" lon="9.1612603"><ele>711.5999999999999</ele><time>2026-05-01T10:17:22.344Z</time></trkpt><trkpt lat="39.807936" lon="9.1613342"><ele>711.0</ele><time>2026-05-01T10:17:23.346Z</time></trkpt><trkpt lat="39.8078565" lon="9.1614085"><ele>711.0</ele><time>2026-05-01T10:17:24.355Z</time></trkpt><trkpt lat="39.8077767" lon="9.1614835"><ele>711.0</ele><time>2026-05-01T10:17:25.345Z</time></trkpt><trkpt lat="39.8076973" lon="9.1615528"><ele>711.0</ele><time>2026-05-01T10:17:26.345Z</time></trkpt><trkpt lat="39.8076178" lon="9.1616247"><ele>711.0</ele><time>2026-05-01T10:17:27.348Z</time></trkpt><trkpt lat="39.8075347" lon="9.1616975"><ele>711.0</ele><time>2026-05-01T10:17:28.346Z</time></trkpt><trkpt lat="39.807449" lon="9.161773"><ele>709.75</ele><time>2026-05-01T10:17:29.345Z</time></trkpt><trkpt lat="39.8073567" lon="9.1618552"><ele>708.5</ele><time>2026-05-01T10:17:30.344Z</time></trkpt><trkpt lat="39.8072562" lon="9.1619512"><ele>707.25</ele><time>2026-05-01T10:17:31.349Z</time></trkpt><trkpt lat="39.80715" lon="9.1620515"><ele>706.0</ele><time>2026-05-01T10:17:32.347Z</time></trkpt><trkpt lat="39.8070327" lon="9.1621628"><ele>706.0</ele><time>2026-05-01T10:17:33.343Z</time></trkpt><trkpt lat="39.8069038" lon="9.1622842"><ele>706.0</ele><time>2026-05-01T10:17:34.345Z</time></trkpt><trkpt lat="39.8067737" lon="9.1624082"><ele>706.0</ele><time>2026-05-01T10:17:35.346Z</time></trkpt><trkpt lat="39.806643" lon="9.1625173"><ele>706.6666666666667</ele><time>2026-05-01T10:17:36.347Z</time></trkpt><trkpt lat="39.8064987" lon="9.1626373"><ele>707.3333333333334</ele><time>2026-05-01T10:17:37.347Z</time></trkpt><trkpt lat="39.806349" lon="9.162762"><ele>708.0</ele><time>2026-05-01T10:17:38.345Z</time></trkpt><trkpt lat="39.8061955" lon="9.1628967"><ele>708.0</ele><time>2026-05-01T10:17:39.346Z</time></trkpt><trkpt lat="39.8060468" lon="9.163038"><ele>708.0</ele><time>2026-05-01T10:17:40.346Z</time></trkpt><trkpt lat="39.805897" lon="9.1631755"><ele>708.0</ele><time>2026-05-01T10:17:41.348Z</time></trkpt><trkpt lat="39.8057418" lon="9.1633138"><ele>707.0</ele><time>2026-05-01T10:17:42.346Z</time></trkpt><trkpt lat="39.8055865" lon="9.1634565"><ele>706.0</ele><time>2026-05-01T10:17:43.343Z</time></trkpt><trkpt lat="39.8054275" lon="9.1635955"><ele>705.0</ele><time>2026-05-01T10:17:44.344Z</time></trkpt><trkpt lat="39.8052722" lon="9.1637402"><ele>705.6666666666666</ele><time>2026-05-01T10:17:45.345Z</time></trkpt><trkpt lat="39.8051202" lon="9.1638838"><ele>706.3333333333333</ele><time>2026-05-01T10:17:46.343Z</time></trkpt><trkpt lat="39.804966" lon="9.1640247"><ele>707.0</ele><time>2026-05-01T10:17:47.343Z</time></trkpt><trkpt lat="39.804805" lon="9.1641623"><ele>707.0</ele><time>2026-05-01T10:17:48.347Z</time></trkpt><trkpt lat="39.8046433" lon="9.1642978"><ele>707.0</ele><time>2026-05-01T10:17:49.354Z</time></trkpt><trkpt lat="39.8044852" lon="9.164445"><ele>707.0</ele><time>2026-05-01T10:17:50.344Z</time></trkpt><trkpt lat="39.8043248" lon="9.164588"><ele>707.3333333333333</ele><time>2026-05-01T10:17:51.347Z</time></trkpt><trkpt lat="39.8041707" lon="9.1647355"><ele>707.6666666666666</ele><time>2026-05-01T10:17:52.35Z</time></trkpt><trkpt lat="39.8040132" lon="9.1648738"><ele>708.0</ele><time>2026-05-01T10:17:53.344Z</time></trkpt><trkpt lat="39.8038595" lon="9.1650137"><ele>708.0</ele><time>2026-05-01T10:17:54.346Z</time></trkpt><trkpt lat="39.8036992" lon="9.16515"><ele>708.0</ele><time>2026-05-01T10:17:55.345Z</time></trkpt><trkpt lat="39.8035397" lon="9.165293"><ele>708.0</ele><time>2026-05-01T10:17:56.344Z</time></trkpt><trkpt lat="39.8033842" lon="9.1654325"><ele>708.3333333333334</ele><time>2026-05-01T10:17:57.348Z</time></trkpt><trkpt lat="39.8032238" lon="9.1655703"><ele>708.6666666666667</ele><time>2026-05-01T10:17:58.355Z</time></trkpt><trkpt lat="39.8030705" lon="9.1657133"><ele>709.0</ele><time>2026-05-01T10:17:59.341Z</time></trkpt><trkpt lat="39.8029195" lon="9.165852"><ele>709.0</ele><time>2026-05-01T10:18:00.345Z</time></trkpt><trkpt lat="39.8027642" lon="9.1659937"><ele>709.0</ele><time>2026-05-01T10:18:01.349Z</time></trkpt><trkpt lat="39.8026063" lon="9.1661372"><ele>709.0</ele><time>2026-05-01T10:18:02.343Z</time></trkpt><trkpt lat="39.8024578" lon="9.1662833"><ele>708.3333333333334</ele><time>2026-05-01T10:18:03.344Z</time></trkpt><trkpt lat="39.802308" lon="9.1664393"><ele>707.6666666666666</ele><time>2026-05-01T10:18:04.349Z</time></trkpt><trkpt lat="39.802161" lon="9.1665928"><ele>707.0</ele><time>2026-05-01T10:18:05.345Z</time></trkpt><trkpt lat="39.802013" lon="9.1667478"><ele>707.0</ele><time>2026-05-01T10:18:06.347Z</time></trkpt><trkpt lat="39.8018687" lon="9.1669045"><ele>707.0</ele><time>2026-05-01T10:18:07.352Z</time></trkpt><trkpt lat="39.801724" lon="9.1670638"><ele>707.0</ele><time>2026-05-01T10:18:08.355Z</time></trkpt><trkpt lat="39.8015827" lon="9.167221"><ele>707.6666666666666</ele><time>2026-05-01T10:18:09.354Z</time></trkpt><trkpt lat="39.8014375" lon="9.1673787"><ele>708.3333333333334</ele><time>2026-05-01T10:18:10.344Z</time></trkpt><trkpt lat="39.8012978" lon="9.1675303"><ele>709.0</ele><time>2026-05-01T10:18:11.347Z</time></trkpt><trkpt lat="39.8011525" lon="9.1676782"><ele>709.0</ele><time>2026-05-01T10:18:12.346Z</time></trkpt><trkpt lat="39.8010038" lon="9.167828"><ele>709.0</ele><time>2026-05-01T10:18:13.343Z</time></trkpt><trkpt lat="39.8008605" lon="9.1679797"><ele>709.0</ele><time>2026-05-01T10:18:14.344Z</time></trkpt><trkpt lat="39.800714" lon="9.1681292"><ele>710.3333333333334</ele><time>2026-05-01T10:18:15.349Z</time></trkpt><trkpt lat="39.800567" lon="9.1682777"><ele>711.6666666666666</ele><time>2026-05-01T10:18:16.345Z</time></trkpt><trkpt lat="39.8004215" lon="9.1684255"><ele>713.0</ele><time>2026-05-01T10:18:17.346Z</time></trkpt><trkpt lat="39.8002765" lon="9.1685788"><ele>712.3333333333333</ele><time>2026-05-01T10:18:18.349Z</time></trkpt><trkpt lat="39.8001295" lon="9.168731"><ele>711.6666666666666</ele><time>2026-05-01T10:18:19.344Z</time></trkpt><trkpt lat="39.7999882" lon="9.16889"><ele>711.0</ele><time>2026-05-01T10:18:20.347Z</time></trkpt><trkpt lat="39.7998493" lon="9.1690438"><ele>711.0</ele><time>2026-05-01T10:18:21.345Z</time></trkpt><trkpt lat="39.7997097" lon="9.1692032"><ele>711.0</ele><time>2026-05-01T10:18:22.344Z</time></trkpt><trkpt lat="39.7995653" lon="9.1693632"><ele>711.0</ele><time>2026-05-01T10:18:23.347Z</time></trkpt><trkpt lat="39.7994187" lon="9.1695277"><ele>711.3333333333334</ele><time>2026-05-01T10:18:24.344Z</time></trkpt><trkpt lat="39.7992677" lon="9.1696865"><ele>711.6666666666667</ele><time>2026-05-01T10:18:25.344Z</time></trkpt><trkpt lat="39.7991232" lon="9.1698427"><ele>712.0</ele><time>2026-05-01T10:18:26.347Z</time></trkpt><trkpt lat="39.79898" lon="9.1699927"><ele>712.0</ele><time>2026-05-01T10:18:27.343Z</time></trkpt><trkpt lat="39.7988342" lon="9.1701448"><ele>712.0</ele><time>2026-05-01T10:18:28.345Z</time></trkpt><trkpt lat="39.7986925" lon="9.1703032"><ele>712.0</ele><time>2026-05-01T10:18:29.35Z</time></trkpt><trkpt lat="39.7985537" lon="9.170457"><ele>712.0</ele><time>2026-05-01T10:18:30.344Z</time></trkpt><trkpt lat="39.7984117" lon="9.1706053"><ele>712.0</ele><time>2026-05-01T10:18:31.349Z</time></trkpt><trkpt lat="39.7982743" lon="9.1707548"><ele>712.0</ele><time>2026-05-01T10:18:32.346Z</time></trkpt><trkpt lat="39.798135" lon="9.1709063"><ele>712.0</ele><time>2026-05-01T10:18:33.343Z</time></trkpt><trkpt lat="39.7979927" lon="9.1710555"><ele>712.0</ele><time>2026-05-01T10:18:34.343Z</time></trkpt><trkpt lat="39.7978507" lon="9.1712037"><ele>712.0</ele><time>2026-05-01T10:18:35.35Z</time></trkpt><trkpt lat="39.7977078" lon="9.1713585"><ele>712.3333333333334</ele><time>2026-05-01T10:18:36.347Z</time></trkpt><trkpt lat="39.7975615" lon="9.171516"><ele>712.6666666666666</ele><time>2026-05-01T10:18:37.354Z</time></trkpt><trkpt lat="39.7974217" lon="9.1716667"><ele>713.0</ele><time>2026-05-01T10:18:38.353Z</time></trkpt><trkpt lat="39.7972768" lon="9.1718185"><ele>714.0</ele><time>2026-05-01T10:18:39.355Z</time></trkpt><trkpt lat="39.797132" lon="9.1719655"><ele>715.0</ele><time>2026-05-01T10:18:40.347Z</time></trkpt><trkpt lat="39.7969813" lon="9.1721155"><ele>716.0</ele><time>2026-05-01T10:18:41.353Z</time></trkpt><trkpt lat="39.7968393" lon="9.172263"><ele>718.0</ele><time>2026-05-01T10:18:42.346Z</time></trkpt><trkpt lat="39.7966887" lon="9.172405"><ele>720.0</ele><time>2026-05-01T10:18:43.356Z</time></trkpt><trkpt lat="39.7965432" lon="9.172548"><ele>722.0</ele><time>2026-05-01T10:18:44.345Z</time></trkpt><trkpt lat="39.7963793" lon="9.172682"><ele>722.0</ele><time>2026-05-01T10:18:45.348Z</time></trkpt><trkpt lat="39.796216" lon="9.172812"><ele>722.0</ele><time>2026-05-01T10:18:46.345Z</time></trkpt><trkpt lat="39.7960547" lon="9.1729457"><ele>722.0</ele><time>2026-05-01T10:18:47.343Z</time></trkpt><trkpt lat="39.7958948" lon="9.1730888"><ele>724.0</ele><time>2026-05-01T10:18:48.35Z</time></trkpt><trkpt lat="39.7957327" lon="9.1732182"><ele>726.0</ele><time>2026-05-01T10:18:49.354Z</time></trkpt><trkpt lat="39.7955678" lon="9.1733475"><ele>728.0</ele><time>2026-05-01T10:18:50.344Z</time></trkpt><trkpt lat="39.7954005" lon="9.173478"><ele>728.0</ele><time>2026-05-01T10:18:51.349Z</time></trkpt><trkpt lat="39.7952377" lon="9.173611"><ele>728.0</ele><time>2026-05-01T10:18:52.344Z</time></trkpt><trkpt lat="39.795078" lon="9.1737538"><ele>728.0</ele><time>2026-05-01T10:18:53.348Z</time></trkpt><trkpt lat="39.7949218" lon="9.1739058"><ele>727.0</ele><time>2026-05-01T10:18:54.343Z</time></trkpt><trkpt lat="39.7947722" lon="9.1740693"><ele>726.0</ele><time>2026-05-01T10:18:55.348Z</time></trkpt><trkpt lat="39.7946285" lon="9.1742475"><ele>725.0</ele><time>2026-05-01T10:18:56.343Z</time></trkpt><trkpt lat="39.7944892" lon="9.1744422"><ele>725.0</ele><time>2026-05-01T10:18:57.347Z</time></trkpt><trkpt lat="39.7943623" lon="9.1746507"><ele>725.0</ele><time>2026-05-01T10:18:58.372Z</time></trkpt><trkpt lat="39.794229" lon="9.1748583"><ele>725.0</ele><time>2026-05-01T10:18:59.355Z</time></trkpt><trkpt lat="39.7940873" lon="9.1750637"><ele>723.6666666666666</ele><time>2026-05-01T10:19:00.344Z</time></trkpt><trkpt lat="39.7939477" lon="9.175263"><ele>722.3333333333334</ele><time>2026-05-01T10:19:01.346Z</time></trkpt><trkpt lat="39.7938078" lon="9.1754567"><ele>721.0</ele><time>2026-05-01T10:19:02.348Z</time></trkpt><trkpt lat="39.7936715" lon="9.175656"><ele>720.6666666666667</ele><time>2026-05-01T10:19:03.353Z</time></trkpt><trkpt lat="39.793534" lon="9.1758617"><ele>720.3333333333334</ele><time>2026-05-01T10:19:04.346Z</time></trkpt><trkpt lat="39.7934143" lon="9.1760772"><ele>720.0</ele><time>2026-05-01T10:19:05.346Z</time></trkpt><trkpt lat="39.7932983" lon="9.1763068"><ele>719.3333333333334</ele><time>2026-05-01T10:19:06.347Z</time></trkpt><trkpt lat="39.7931973" lon="9.1765548"><ele>718.6666666666667</ele><time>2026-05-01T10:19:07.345Z</time></trkpt><trkpt lat="39.793108" lon="9.1768005"><ele>718.0</ele><time>2026-05-01T10:19:08.346Z</time></trkpt><trkpt lat="39.79305" lon="9.1770635"><ele>718.0</ele><time>2026-05-01T10:19:09.344Z</time></trkpt><trkpt lat="39.7929898" lon="9.177314"><ele>718.0</ele><time>2026-05-01T10:19:10.348Z</time></trkpt><trkpt lat="39.7929282" lon="9.1775642"><ele>718.0</ele><time>2026-05-01T10:19:11.346Z</time></trkpt><trkpt lat="39.7928545" lon="9.1778103"><ele>718.0</ele><time>2026-05-01T10:19:12.348Z</time></trkpt><trkpt lat="39.7927858" lon="9.1780562"><ele>718.0</ele><time>2026-05-01T10:19:13.351Z</time></trkpt><trkpt lat="39.792715" lon="9.1783022"><ele>718.0</ele><time>2026-05-01T10:19:14.347Z</time></trkpt><trkpt lat="39.792645" lon="9.178547"><ele>716.6666666666667</ele><time>2026-05-01T10:19:15.345Z</time></trkpt><trkpt lat="39.7925708" lon="9.1787953"><ele>715.3333333333334</ele><time>2026-05-01T10:19:16.344Z</time></trkpt><trkpt lat="39.7924972" lon="9.1790422"><ele>714.0</ele><time>2026-05-01T10:19:17.345Z</time></trkpt><trkpt lat="39.7924242" lon="9.1792903"><ele>714.0</ele><time>2026-05-01T10:19:18.344Z</time></trkpt><trkpt lat="39.7923562" lon="9.1795397"><ele>714.0</ele><time>2026-05-01T10:19:19.345Z</time></trkpt><trkpt lat="39.7922887" lon="9.179789"><ele>714.0</ele><time>2026-05-01T10:19:20.346Z</time></trkpt><trkpt lat="39.7922332" lon="9.1800447"><ele>713.6666666666666</ele><time>2026-05-01T10:19:21.344Z</time></trkpt><trkpt lat="39.7921958" lon="9.180311"><ele>713.3333333333333</ele><time>2026-05-01T10:19:22.345Z</time></trkpt><trkpt lat="39.7921715" lon="9.1805768"><ele>713.0</ele><time>2026-05-01T10:19:23.348Z</time></trkpt><trkpt lat="39.7921617" lon="9.1808398"><ele>712.6666666666666</ele><time>2026-05-01T10:19:24.346Z</time></trkpt><trkpt lat="39.7921583" lon="9.181105"><ele>712.3333333333334</ele><time>2026-05-01T10:19:25.347Z</time></trkpt><trkpt lat="39.7921582" lon="9.1813705"><ele>712.0</ele><time>2026-05-01T10:19:26.346Z</time></trkpt><trkpt lat="39.7921548" lon="9.1816408"><ele>711.0</ele><time>2026-05-01T10:19:27.345Z</time></trkpt><trkpt lat="39.7921453" lon="9.1819123"><ele>710.0</ele><time>2026-05-01T10:19:28.346Z</time></trkpt><trkpt lat="39.7921357" lon="9.1821782"><ele>709.0</ele><time>2026-05-01T10:19:29.346Z</time></trkpt><trkpt lat="39.7921162" lon="9.1824363"><ele>708.3333333333334</ele><time>2026-05-01T10:19:30.344Z</time></trkpt><trkpt lat="39.7920727" lon="9.1826905"><ele>707.6666666666666</ele><time>2026-05-01T10:19:31.344Z</time></trkpt><trkpt lat="39.7920013" lon="9.1829408"><ele>707.0</ele><time>2026-05-01T10:19:32.343Z</time></trkpt><trkpt lat="39.7919092" lon="9.1831865"><ele>705.6666666666666</ele><time>2026-05-01T10:19:33.344Z</time></trkpt><trkpt lat="39.7917972" lon="9.1834148"><ele>704.3333333333334</ele><time>2026-05-01T10:19:34.345Z</time></trkpt><trkpt lat="39.7916615" lon="9.1836252"><ele>703.0</ele><time>2026-05-01T10:19:35.347Z</time></trkpt><trkpt lat="39.7915095" lon="9.1838153"><ele>703.0</ele><time>2026-05-01T10:19:36.345Z</time></trkpt><trkpt lat="39.7913462" lon="9.183988"><ele>703.0</ele><time>2026-05-01T10:19:37.345Z</time></trkpt><trkpt lat="39.791166" lon="9.184146"><ele>703.0</ele><time>2026-05-01T10:19:38.344Z</time></trkpt><trkpt lat="39.7909912" lon="9.1843043"><ele>702.0</ele><time>2026-05-01T10:19:39.345Z</time></trkpt><trkpt lat="39.7908033" lon="9.184457"><ele>701.0</ele><time>2026-05-01T10:19:40.347Z</time></trkpt><trkpt lat="39.7906313" lon="9.1846148"><ele>700.0</ele><time>2026-05-01T10:19:41.345Z</time></trkpt><trkpt lat="39.7904577" lon="9.1847775"><ele>699.3333333333334</ele><time>2026-05-01T10:19:42.347Z</time></trkpt><trkpt lat="39.790286" lon="9.1849433"><ele>698.6666666666666</ele><time>2026-05-01T10:19:43.345Z</time></trkpt><trkpt lat="39.7901142" lon="9.1851058"><ele>698.0</ele><time>2026-05-01T10:19:44.345Z</time></trkpt><trkpt lat="39.7899395" lon="9.1852672"><ele>698.0</ele><time>2026-05-01T10:19:45.345Z</time></trkpt><trkpt lat="39.7897638" lon="9.1854203"><ele>698.0</ele><time>2026-05-01T10:19:46.345Z</time></trkpt><trkpt lat="39.7895962" lon="9.1855832"><ele>698.0</ele><time>2026-05-01T10:19:47.346Z</time></trkpt><trkpt lat="39.789428" lon="9.1857478"><ele>696.6666666666666</ele><time>2026-05-01T10:19:48.344Z</time></trkpt><trkpt lat="39.7892792" lon="9.185935"><ele>695.3333333333334</ele><time>2026-05-01T10:19:49.345Z</time></trkpt><trkpt lat="39.7891405" lon="9.186152"><ele>694.0</ele><time>2026-05-01T10:19:50.345Z</time></trkpt><trkpt lat="39.7890155" lon="9.1863822"><ele>693.5</ele><time>2026-05-01T10:19:51.345Z</time></trkpt><trkpt lat="39.7889073" lon="9.1866398"><ele>693.0</ele><time>2026-05-01T10:19:52.344Z</time></trkpt><trkpt lat="39.7888247" lon="9.1869153"><ele>693.0</ele><time>2026-05-01T10:19:53.344Z</time></trkpt><trkpt lat="39.7887685" lon="9.187189"><ele>693.0</ele><time>2026-05-01T10:19:54.343Z</time></trkpt><trkpt lat="39.788741" lon="9.1874665"><ele>693.0</ele><time>2026-05-01T10:19:55.343Z</time></trkpt><trkpt lat="39.788712" lon="9.187736"><ele>693.0</ele><time>2026-05-01T10:19:56.345Z</time></trkpt><trkpt lat="39.7886827" lon="9.1880117"><ele>693.0</ele><time>2026-05-01T10:19:57.344Z</time></trkpt><trkpt lat="39.7886523" lon="9.1882818"><ele>693.0</ele><time>2026-05-01T10:19:58.351Z</time></trkpt><trkpt lat="39.788624" lon="9.1885475"><ele>692.3333333333334</ele><time>2026-05-01T10:19:59.352Z</time></trkpt><trkpt lat="39.7885922" lon="9.1888158"><ele>691.6666666666667</ele><time>2026-05-01T10:20:00.353Z</time></trkpt><trkpt lat="39.7885582" lon="9.1890728"><ele>691.0</ele><time>2026-05-01T10:20:01.351Z</time></trkpt><trkpt lat="39.7885198" lon="9.1893255"><ele>687.0</ele><time>2026-05-01T10:20:02.343Z</time></trkpt><trkpt lat="39.7884898" lon="9.189573"><ele>683.0</ele><time>2026-05-01T10:20:03.346Z</time></trkpt><trkpt lat="39.7884315" lon="9.1900233"><ele>682.6666666666666</ele><time>2026-05-01T10:20:05.346Z</time></trkpt><trkpt lat="39.7883793" lon="9.1902237"><ele>682.3333333333334</ele><time>2026-05-01T10:20:06.344Z</time></trkpt><trkpt lat="39.7883277" lon="9.1904163"><ele>682.0</ele><time>2026-05-01T10:20:07.346Z</time></trkpt><trkpt lat="39.7882617" lon="9.1906033"><ele>683.0</ele><time>2026-05-01T10:20:08.344Z</time></trkpt><trkpt lat="39.788184" lon="9.1907962"><ele>684.0</ele><time>2026-05-01T10:20:09.345Z</time></trkpt><trkpt lat="39.7880945" lon="9.1909873"><ele>685.0</ele><time>2026-05-01T10:20:10.342Z</time></trkpt><trkpt lat="39.787995" lon="9.1911788"><ele>685.0</ele><time>2026-05-01T10:20:11.343Z</time></trkpt><trkpt lat="39.7878942" lon="9.191368"><ele>685.0</ele><time>2026-05-01T10:20:12.343Z</time></trkpt><trkpt lat="39.7877857" lon="9.1915593"><ele>685.0</ele><time>2026-05-01T10:20:13.343Z</time></trkpt><trkpt lat="39.7876862" lon="9.1917685"><ele>682.3333333333334</ele><time>2026-05-01T10:20:14.343Z</time></trkpt><trkpt lat="39.7876065" lon="9.1919845"><ele>679.6666666666666</ele><time>2026-05-01T10:20:15.344Z</time></trkpt><trkpt lat="39.787544" lon="9.192213"><ele>677.0</ele><time>2026-05-01T10:20:16.343Z</time></trkpt><trkpt lat="39.7874977" lon="9.1924505"><ele>676.6666666666666</ele><time>2026-05-01T10:20:17.345Z</time></trkpt><trkpt lat="39.7874477" lon="9.1926793"><ele>676.3333333333334</ele><time>2026-05-01T10:20:18.342Z</time></trkpt><trkpt lat="39.787409" lon="9.1929102"><ele>676.0</ele><time>2026-05-01T10:20:19.343Z</time></trkpt><trkpt lat="39.7873852" lon="9.193151"><ele>675.0</ele><time>2026-05-01T10:20:20.343Z</time></trkpt><trkpt lat="39.7873518" lon="9.1933927"><ele>674.0</ele><time>2026-05-01T10:20:21.352Z</time></trkpt><trkpt lat="39.7873308" lon="9.1936442"><ele>673.0</ele><time>2026-05-01T10:20:22.35Z</time></trkpt><trkpt lat="39.7873228" lon="9.1939027"><ele>669.3333333333334</ele><time>2026-05-01T10:20:23.353Z</time></trkpt><trkpt lat="39.7873298" lon="9.1941633"><ele>665.6666666666666</ele><time>2026-05-01T10:20:24.352Z</time></trkpt><trkpt lat="39.7873463" lon="9.1944262"><ele>662.0</ele><time>2026-05-01T10:20:25.343Z</time></trkpt><trkpt lat="39.7873615" lon="9.1946907"><ele>660.6666666666666</ele><time>2026-05-01T10:20:26.345Z</time></trkpt><trkpt lat="39.7873768" lon="9.1949535"><ele>659.3333333333334</ele><time>2026-05-01T10:20:27.354Z</time></trkpt><trkpt lat="39.7873932" lon="9.1952162"><ele>658.0</ele><time>2026-05-01T10:20:28.356Z</time></trkpt><trkpt lat="39.7874092" lon="9.1954803"><ele>656.6666666666667</ele><time>2026-05-01T10:20:29.353Z</time></trkpt><trkpt lat="39.7874173" lon="9.1957427"><ele>655.3333333333334</ele><time>2026-05-01T10:20:30.35Z</time></trkpt><trkpt lat="39.7874245" lon="9.1960097"><ele>654.0</ele><time>2026-05-01T10:20:31.353Z</time></trkpt><trkpt lat="39.7874333" lon="9.1962735"><ele>653.6666666666666</ele><time>2026-05-01T10:20:32.354Z</time></trkpt><trkpt lat="39.7874393" lon="9.1965283"><ele>653.3333333333333</ele><time>2026-05-01T10:20:33.356Z</time></trkpt><trkpt lat="39.7874455" lon="9.196787"><ele>653.0</ele><time>2026-05-01T10:20:34.348Z</time></trkpt><trkpt lat="39.7874587" lon="9.1970422"><ele>653.0</ele><time>2026-05-01T10:20:35.354Z</time></trkpt><trkpt lat="39.787466" lon="9.1972893"><ele>653.0</ele><time>2026-05-01T10:20:36.356Z</time></trkpt><trkpt lat="39.7874973" lon="9.1975223"><ele>653.0</ele><time>2026-05-01T10:20:37.356Z</time></trkpt><trkpt lat="39.7875473" lon="9.1977638"><ele>651.3333333333333</ele><time>2026-05-01T10:20:38.357Z</time></trkpt><trkpt lat="39.7876028" lon="9.198018"><ele>649.6666666666666</ele><time>2026-05-01T10:20:39.354Z</time></trkpt><trkpt lat="39.7876722" lon="9.1982593"><ele>648.0</ele><time>2026-05-01T10:20:40.358Z</time></trkpt><trkpt lat="39.7877515" lon="9.1984985"><ele>649.6666666666666</ele><time>2026-05-01T10:20:41.357Z</time></trkpt><trkpt lat="39.7878328" lon="9.1987367"><ele>651.3333333333333</ele><time>2026-05-01T10:20:42.343Z</time></trkpt><trkpt lat="39.7879113" lon="9.1989758"><ele>653.0</ele><time>2026-05-01T10:20:43.345Z</time></trkpt><trkpt lat="39.787987" lon="9.1992068"><ele>653.0</ele><time>2026-05-01T10:20:44.341Z</time></trkpt><trkpt lat="39.7880575" lon="9.1994513"><ele>653.0</ele><time>2026-05-01T10:20:45.342Z</time></trkpt><trkpt lat="39.7881295" lon="9.1996813"><ele>653.0</ele><time>2026-05-01T10:20:46.343Z</time></trkpt><trkpt lat="39.7881968" lon="9.1999093"><ele>650.0</ele><time>2026-05-01T10:20:47.341Z</time></trkpt><trkpt lat="39.7882465" lon="9.200146"><ele>647.0</ele><time>2026-05-01T10:20:48.343Z</time></trkpt><trkpt lat="39.788278" lon="9.2003787"><ele>644.0</ele><time>2026-05-01T10:20:49.342Z</time></trkpt><trkpt lat="39.7882937" lon="9.2006192"><ele>642.6666666666666</ele><time>2026-05-01T10:20:50.34Z</time></trkpt><trkpt lat="39.7883068" lon="9.2008675"><ele>641.3333333333334</ele><time>2026-05-01T10:20:51.347Z</time></trkpt><trkpt lat="39.7883142" lon="9.201118"><ele>640.0</ele><time>2026-05-01T10:20:52.344Z</time></trkpt><trkpt lat="39.7883188" lon="9.2013688"><ele>639.0</ele><time>2026-05-01T10:20:53.346Z</time></trkpt><trkpt lat="39.788321" lon="9.2016182"><ele>638.0</ele><time>2026-05-01T10:20:54.344Z</time></trkpt><trkpt lat="39.7883237" lon="9.201864"><ele>637.0</ele><time>2026-05-01T10:20:55.351Z</time></trkpt><trkpt lat="39.7883317" lon="9.202108"><ele>634.6666666666667</ele><time>2026-05-01T10:20:56.343Z</time></trkpt><trkpt lat="39.7883415" lon="9.2023623"><ele>632.3333333333334</ele><time>2026-05-01T10:20:57.344Z</time></trkpt><trkpt lat="39.7883573" lon="9.202614"><ele>630.0</ele><time>2026-05-01T10:20:58.345Z</time></trkpt><trkpt lat="39.7883713" lon="9.2028647"><ele>630.0</ele><time>2026-05-01T10:20:59.349Z</time></trkpt><trkpt lat="39.7883852" lon="9.2031188"><ele>630.0</ele><time>2026-05-01T10:21:00.344Z</time></trkpt><trkpt lat="39.7883993" lon="9.2033655"><ele>630.0</ele><time>2026-05-01T10:21:01.346Z</time></trkpt><trkpt lat="39.7884087" lon="9.2036107"><ele>628.0</ele><time>2026-05-01T10:21:02.346Z</time></trkpt><trkpt lat="39.7884095" lon="9.2038485"><ele>626.0</ele><time>2026-05-01T10:21:03.343Z</time></trkpt><trkpt lat="39.7883953" lon="9.2040913"><ele>624.0</ele><time>2026-05-01T10:21:04.346Z</time></trkpt><trkpt lat="39.7883662" lon="9.204328"><ele>623.0</ele><time>2026-05-01T10:21:05.352Z</time></trkpt><trkpt lat="39.7883377" lon="9.2045663"><ele>622.0</ele><time>2026-05-01T10:21:06.344Z</time></trkpt><trkpt lat="39.7882792" lon="9.2047778"><ele>621.0</ele><time>2026-05-01T10:21:07.344Z</time></trkpt><trkpt lat="39.7882197" lon="9.205005"><ele>620.3333333333334</ele><time>2026-05-01T10:21:08.345Z</time></trkpt><trkpt lat="39.788145" lon="9.2052295"><ele>619.6666666666667</ele><time>2026-05-01T10:21:09.357Z</time></trkpt><trkpt lat="39.7880513" lon="9.2054445"><ele>619.0</ele><time>2026-05-01T10:21:10.349Z</time></trkpt><trkpt lat="39.7879445" lon="9.2056478"><ele>619.0</ele><time>2026-05-01T10:21:11.347Z</time></trkpt><trkpt lat="39.7878283" lon="9.2058498"><ele>619.0</ele><time>2026-05-01T10:21:12.346Z</time></trkpt><trkpt lat="39.7877098" lon="9.2060537"><ele>619.0</ele><time>2026-05-01T10:21:13.344Z</time></trkpt><trkpt lat="39.7875898" lon="9.2062548"><ele>617.3333333333334</ele><time>2026-05-01T10:21:14.345Z</time></trkpt><trkpt lat="39.7874697" lon="9.206458"><ele>615.6666666666666</ele><time>2026-05-01T10:21:15.344Z</time></trkpt><trkpt lat="39.7873575" lon="9.2066645"><ele>614.0</ele><time>2026-05-01T10:21:16.343Z</time></trkpt><trkpt lat="39.7872437" lon="9.2068667"><ele>614.0</ele><time>2026-05-01T10:21:17.352Z</time></trkpt><trkpt lat="39.7871278" lon="9.2070608"><ele>614.0</ele><time>2026-05-01T10:21:18.343Z</time></trkpt><trkpt lat="39.7870035" lon="9.2072735"><ele>614.0</ele><time>2026-05-01T10:21:19.345Z</time></trkpt><trkpt lat="39.7868977" lon="9.2074743"><ele>611.6666666666666</ele><time>2026-05-01T10:21:20.345Z</time></trkpt><trkpt lat="39.7867815" lon="9.2076753"><ele>609.3333333333334</ele><time>2026-05-01T10:21:21.344Z</time></trkpt><trkpt lat="39.7866593" lon="9.2078765"><ele>607.0</ele><time>2026-05-01T10:21:22.347Z</time></trkpt><trkpt lat="39.7865412" lon="9.2080617"><ele>607.0</ele><time>2026-05-01T10:21:23.346Z</time></trkpt><trkpt lat="39.7864145" lon="9.208252"><ele>607.0</ele><time>2026-05-01T10:21:24.348Z</time></trkpt><trkpt lat="39.7862797" lon="9.208429"><ele>607.0</ele><time>2026-05-01T10:21:25.344Z</time></trkpt><trkpt lat="39.786137" lon="9.2086083"><ele>605.6666666666667</ele><time>2026-05-01T10:21:26.345Z</time></trkpt><trkpt lat="39.7860035" lon="9.2087805"><ele>604.3333333333334</ele><time>2026-05-01T10:21:27.345Z</time></trkpt><trkpt lat="39.7858638" lon="9.20895"><ele>603.0</ele><time>2026-05-01T10:21:28.344Z</time></trkpt><trkpt lat="39.785727" lon="9.2091162"><ele>602.0</ele><time>2026-05-01T10:21:29.346Z</time></trkpt><trkpt lat="39.785593" lon="9.209291"><ele>601.0</ele><time>2026-05-01T10:21:30.345Z</time></trkpt><trkpt lat="39.785462" lon="9.2094692"><ele>600.0</ele><time>2026-05-01T10:21:31.345Z</time></trkpt><trkpt lat="39.7853318" lon="9.2096368"><ele>600.0</ele><time>2026-05-01T10:21:32.345Z</time></trkpt><trkpt lat="39.7852075" lon="9.2097962"><ele>600.0</ele><time>2026-05-01T10:21:33.345Z</time></trkpt><trkpt lat="39.7850873" lon="9.2099452"><ele>600.0</ele><time>2026-05-01T10:21:34.344Z</time></trkpt><trkpt lat="39.7849773" lon="9.210091"><ele>598.75</ele><time>2026-05-01T10:21:35.343Z</time></trkpt><trkpt lat="39.7848822" lon="9.2102113"><ele>597.5</ele><time>2026-05-01T10:21:36.346Z</time></trkpt><trkpt lat="39.7847883" lon="9.2103062"><ele>596.25</ele><time>2026-05-01T10:21:37.344Z</time></trkpt><trkpt lat="39.7846915" lon="9.210378"><ele>595.0</ele><time>2026-05-01T10:21:38.347Z</time></trkpt><trkpt lat="39.7846025" lon="9.2104192"><ele>595.0</ele><time>2026-05-01T10:21:39.346Z</time></trkpt><trkpt lat="39.7845222" lon="9.2104488"><ele>595.0</ele><time>2026-05-01T10:21:40.345Z</time></trkpt><trkpt lat="39.7844402" lon="9.2104722"><ele>595.0</ele><time>2026-05-01T10:21:41.345Z</time></trkpt><trkpt lat="39.7843645" lon="9.2104973"><ele>595.0</ele><time>2026-05-01T10:21:42.346Z</time></trkpt><trkpt lat="39.7842977" lon="9.2105348"><ele>595.0</ele><time>2026-05-01T10:21:43.348Z</time></trkpt><trkpt lat="39.7842473" lon="9.2105903"><ele>595.0</ele><time>2026-05-01T10:21:44.344Z</time></trkpt><trkpt lat="39.784232" lon="9.2106755"><ele>594.8333333333334</ele><time>2026-05-01T10:21:45.345Z</time></trkpt><trkpt lat="39.7842305" lon="9.2107627"><ele>594.6666666666667</ele><time>2026-05-01T10:21:46.346Z</time></trkpt><trkpt lat="39.7842297" lon="9.2108478"><ele>594.5</ele><time>2026-05-01T10:21:47.346Z</time></trkpt><trkpt lat="39.7842482" lon="9.2109775"><ele>594.3333333333334</ele><time>2026-05-01T10:21:49.346Z</time></trkpt><trkpt lat="39.7843225" lon="9.2109782"><ele>594.1666666666666</ele><time>2026-05-01T10:21:51.347Z</time></trkpt><trkpt lat="39.784389" lon="9.2108763"><ele>594.0</ele><time>2026-05-01T10:21:53.345Z</time></trkpt><trkpt lat="39.784452" lon="9.2107873"><ele>594.0</ele><time>2026-05-01T10:21:55.345Z</time></trkpt><trkpt lat="39.7845077" lon="9.2107225"><ele>594.0</ele><time>2026-05-01T10:21:57.346Z</time></trkpt><trkpt lat="39.7846053" lon="9.2105943"><ele>594.0</ele><time>2026-05-01T10:21:59.345Z</time></trkpt><trkpt lat="39.7846752" lon="9.2105127"><ele>594.0</ele><time>2026-05-01T10:22:00.346Z</time></trkpt><trkpt lat="39.7847503" lon="9.2104172"><ele>594.0</ele><time>2026-05-01T10:22:01.35Z</time></trkpt><trkpt lat="39.7848205" lon="9.2103252"><ele>594.1428571428571</ele><time>2026-05-01T10:22:02.345Z</time></trkpt><trkpt lat="39.7848878" lon="9.2102443"><ele>594.2857142857143</ele><time>2026-05-01T10:22:03.345Z</time></trkpt><trkpt lat="39.7849475" lon="9.2101873"><ele>594.4285714285714</ele><time>2026-05-01T10:22:04.346Z</time></trkpt><trkpt lat="39.7850093" lon="9.2101658"><ele>594.5714285714286</ele><time>2026-05-01T10:22:05.344Z</time></trkpt><trkpt lat="39.7850733" lon="9.2101788"><ele>594.7142857142858</ele><time>2026-05-01T10:22:06.353Z</time></trkpt><trkpt lat="39.785143" lon="9.2101857"><ele>594.8571428571429</ele><time>2026-05-01T10:22:07.344Z</time></trkpt><trkpt lat="39.7852122" lon="9.2101713"><ele>595.0</ele><time>2026-05-01T10:22:08.343Z</time></trkpt><trkpt lat="39.7852832" lon="9.210138"><ele>595.5</ele><time>2026-05-01T10:22:09.346Z</time></trkpt><trkpt lat="39.7853535" lon="9.2100998"><ele>596.0</ele><time>2026-05-01T10:22:10.346Z</time></trkpt><trkpt lat="39.7854298" lon="9.2100662"><ele>596.5</ele><time>2026-05-01T10:22:11.345Z</time></trkpt><trkpt lat="39.7855085" lon="9.2100333"><ele>597.0</ele><time>2026-05-01T10:22:12.344Z</time></trkpt><trkpt lat="39.7855857" lon="9.210005"><ele>597.5</ele><time>2026-05-01T10:22:13.344Z</time></trkpt><trkpt lat="39.785654" lon="9.2099878"><ele>598.0</ele><time>2026-05-01T10:22:14.346Z</time></trkpt><trkpt lat="39.7857165" lon="9.209972"><ele>598.0</ele><time>2026-05-01T10:22:15.344Z</time></trkpt><trkpt lat="39.7857805" lon="9.209958"><ele>598.0</ele><time>2026-05-01T10:22:16.345Z</time></trkpt><trkpt lat="39.7858433" lon="9.2099363"><ele>598.0</ele><time>2026-05-01T10:22:17.345Z</time></trkpt><trkpt lat="39.7859087" lon="9.209907"><ele>598.0</ele><time>2026-05-01T10:22:18.35Z</time></trkpt><trkpt lat="39.7859733" lon="9.209875"><ele>598.0</ele><time>2026-05-01T10:22:19.342Z</time></trkpt><trkpt lat="39.7860407" lon="9.2098483"><ele>598.0</ele><time>2026-05-01T10:22:20.344Z</time></trkpt><trkpt lat="39.786118" lon="9.20983"><ele>598.0</ele><time>2026-05-01T10:22:21.346Z</time></trkpt><trkpt lat="39.786199" lon="9.209815"><ele>598.8571428571429</ele><time>2026-05-01T10:22:22.343Z</time></trkpt><trkpt lat="39.7862788" lon="9.2098023"><ele>599.7142857142858</ele><time>2026-05-01T10:22:23.349Z</time></trkpt><trkpt lat="39.7863583" lon="9.2097888"><ele>600.5714285714287</ele><time>2026-05-01T10:22:24.344Z</time></trkpt><trkpt lat="39.7864308" lon="9.2097712"><ele>601.4285714285714</ele><time>2026-05-01T10:22:25.342Z</time></trkpt><trkpt lat="39.7864967" lon="9.2097512"><ele>602.2857142857143</ele><time>2026-05-01T10:22:26.344Z</time></trkpt><trkpt lat="39.7865617" lon="9.2097228"><ele>603.1428571428572</ele><time>2026-05-01T10:22:27.345Z</time></trkpt><trkpt lat="39.7866307" lon="9.2096908"><ele>604.0</ele><time>2026-05-01T10:22:28.342Z</time></trkpt><trkpt lat="39.7867127" lon="9.2096513"><ele>604.0</ele><time>2026-05-01T10:22:29.344Z</time></trkpt><trkpt lat="39.7867967" lon="9.2096153"><ele>604.0</ele><time>2026-05-01T10:22:30.345Z</time></trkpt><trkpt lat="39.7868795" lon="9.2095775"><ele>604.0</ele><time>2026-05-01T10:22:31.346Z</time></trkpt><trkpt lat="39.7869633" lon="9.2095375"><ele>604.0</ele><time>2026-05-01T10:22:32.344Z</time></trkpt><trkpt lat="39.787037" lon="9.2095072"><ele>604.0</ele><time>2026-05-01T10:22:33.344Z</time></trkpt><trkpt lat="39.7871082" lon="9.2094798"><ele>604.0</ele><time>2026-05-01T10:22:34.344Z</time></trkpt><trkpt lat="39.787173" lon="9.2094588"><ele>605.6</ele><time>2026-05-01T10:22:35.344Z</time></trkpt><trkpt lat="39.7872747" lon="9.2094252"><ele>607.2</ele><time>2026-05-01T10:22:37.346Z</time></trkpt><trkpt lat="39.7873648" lon="9.2093887"><ele>608.8000000000001</ele><time>2026-05-01T10:22:39.347Z</time></trkpt><trkpt lat="39.7874393" lon="9.2093872"><ele>610.4</ele><time>2026-05-01T10:22:41.344Z</time></trkpt><trkpt lat="39.7875233" lon="9.2093897"><ele>612.0</ele><time>2026-05-01T10:22:43.346Z</time></trkpt><trkpt lat="39.7876138" lon="9.2093457"><ele>612.0</ele><time>2026-05-01T10:22:45.347Z</time></trkpt><trkpt lat="39.7877038" lon="9.2093015"><ele>612.0</ele><time>2026-05-01T10:22:47.346Z</time></trkpt><trkpt lat="39.7877865" lon="9.2092427"><ele>612.0</ele><time>2026-05-01T10:22:49.344Z</time></trkpt><trkpt lat="39.7878537" lon="9.2091773"><ele>612.0</ele><time>2026-05-01T10:22:51.345Z</time></trkpt><trkpt lat="39.787809" lon="9.209119"><ele>612.0</ele><time>2026-05-01T10:23:24.344Z</time></trkpt><trkpt lat="39.7877465" lon="9.209146"><ele>612.0</ele><time>2026-05-01T10:23:26.345Z</time></trkpt><trkpt lat="39.7876715" lon="9.2092117"><ele>612.0</ele><time>2026-05-01T10:23:28.344Z</time></trkpt><trkpt lat="39.7875852" lon="9.2092913"><ele>612.0</ele><time>2026-05-01T10:23:30.344Z</time></trkpt><trkpt lat="39.7874893" lon="9.2093455"><ele>612.0</ele><time>2026-05-01T10:23:32.344Z</time></trkpt><trkpt lat="39.7873982" lon="9.2093842"><ele>612.0</ele><time>2026-05-01T10:23:34.346Z</time></trkpt><trkpt lat="39.7873145" lon="9.2094182"><ele>612.0</ele><time>2026-05-01T10:23:36.344Z</time></trkpt><trkpt lat="39.7872447" lon="9.209454"><ele>612.0</ele><time>2026-05-01T10:23:38.344Z</time></trkpt><trkpt lat="39.787163" lon="9.2094892"><ele>612.0</ele><time>2026-05-01T10:23:40.345Z</time></trkpt><trkpt lat="39.7870482" lon="9.2095153"><ele>612.0</ele><time>2026-05-01T10:23:42.343Z</time></trkpt><trkpt lat="39.7869437" lon="9.2095608"><ele>612.0</ele><time>2026-05-01T10:23:44.344Z</time></trkpt><trkpt lat="39.7868353" lon="9.2096118"><ele>612.0</ele><time>2026-05-01T10:23:46.343Z</time></trkpt><trkpt lat="39.7867265" lon="9.2096615"><ele>611.4</ele><time>2026-05-01T10:23:48.344Z</time></trkpt><trkpt lat="39.7866637" lon="9.2096938"><ele>610.8000000000001</ele><time>2026-05-01T10:23:50.344Z</time></trkpt><trkpt lat="39.7867075" lon="9.2097832"><ele>610.2</ele><time>2026-05-01T10:24:12.344Z</time></trkpt><trkpt lat="39.786767" lon="9.2099108"><ele>609.6</ele><time>2026-05-01T10:24:14.343Z</time></trkpt><trkpt lat="39.7868185" lon="9.210006"><ele>609.0</ele><time>2026-05-01T10:24:15.342Z</time></trkpt><trkpt lat="39.7868662" lon="9.2101167"><ele>609.0</ele><time>2026-05-01T10:24:16.347Z</time></trkpt><trkpt lat="39.7869045" lon="9.2102415"><ele>609.0</ele><time>2026-05-01T10:24:17.343Z</time></trkpt><trkpt lat="39.7869463" lon="9.2103732"><ele>609.0</ele><time>2026-05-01T10:24:18.342Z</time></trkpt><trkpt lat="39.7869827" lon="9.2105105"><ele>609.0</ele><time>2026-05-01T10:24:19.343Z</time></trkpt><trkpt lat="39.7870112" lon="9.2106392"><ele>609.0</ele><time>2026-05-01T10:24:20.343Z</time></trkpt><trkpt lat="39.787036" lon="9.2107527"><ele>608.0</ele><time>2026-05-01T10:24:21.344Z</time></trkpt><trkpt lat="39.7870507" lon="9.2108557"><ele>607.0</ele><time>2026-05-01T10:24:22.342Z</time></trkpt><trkpt lat="39.787058" lon="9.2110075"><ele>606.0</ele><time>2026-05-01T10:24:24.346Z</time></trkpt><trkpt lat="39.7870187" lon="9.2111577"><ele>605.0</ele><time>2026-05-01T10:24:26.346Z</time></trkpt><trkpt lat="39.7869715" lon="9.2112273"><ele>604.0</ele><time>2026-05-01T10:24:27.344Z</time></trkpt><trkpt lat="39.7869077" lon="9.2112992"><ele>603.3333333333334</ele><time>2026-05-01T10:24:28.345Z</time></trkpt><trkpt lat="39.7868365" lon="9.2113838"><ele>602.6666666666667</ele><time>2026-05-01T10:24:29.344Z</time></trkpt><trkpt lat="39.7867725" lon="9.2114607"><ele>602.0</ele><time>2026-05-01T10:24:30.345Z</time></trkpt><trkpt lat="39.786734" lon="9.2115377"><ele>601.3333333333334</ele><time>2026-05-01T10:24:31.345Z</time></trkpt><trkpt lat="39.7867135" lon="9.2116597"><ele>600.6666666666666</ele><time>2026-05-01T10:24:33.344Z</time></trkpt><trkpt lat="39.7867782" lon="9.2117327"><ele>600.0</ele><time>2026-05-01T10:24:36.344Z</time></trkpt><trkpt lat="39.7868687" lon="9.21174"><ele>599.0</ele><time>2026-05-01T10:24:38.343Z</time></trkpt><trkpt lat="39.7869547" lon="9.2117373"><ele>598.0</ele><time>2026-05-01T10:24:40.344Z</time></trkpt><trkpt lat="39.7870435" lon="9.2117353"><ele>597.0</ele><time>2026-05-01T10:24:42.344Z</time></trkpt><trkpt lat="39.7871442" lon="9.2117307"><ele>596.0</ele><time>2026-05-01T10:24:44.347Z</time></trkpt><trkpt lat="39.7872433" lon="9.211733"><ele>595.0</ele><time>2026-05-01T10:24:46.345Z</time></trkpt><trkpt lat="39.7873627" lon="9.2117377"><ele>595.0</ele><time>2026-05-01T10:24:48.347Z</time></trkpt><trkpt lat="39.78743" lon="9.2117335"><ele>595.0</ele><time>2026-05-01T10:24:49.347Z</time></trkpt><trkpt lat="39.7875025" lon="9.2117355"><ele>595.0</ele><time>2026-05-01T10:24:50.344Z</time></trkpt><trkpt lat="39.7875813" lon="9.2117403"><ele>595.0</ele><time>2026-05-01T10:24:51.344Z</time></trkpt><trkpt lat="39.7876605" lon="9.2117438"><ele>595.0</ele><time>2026-05-01T10:24:52.342Z</time></trkpt><trkpt lat="39.787738" lon="9.2117435"><ele>595.0</ele><time>2026-05-01T10:24:53.343Z</time></trkpt><trkpt lat="39.787812" lon="9.2117453"><ele>595.7142857142857</ele><time>2026-05-01T10:24:54.345Z</time></trkpt><trkpt lat="39.7878858" lon="9.2117537"><ele>596.4285714285714</ele><time>2026-05-01T10:24:55.349Z</time></trkpt><trkpt lat="39.7879577" lon="9.2117715"><ele>597.1428571428571</ele><time>2026-05-01T10:24:56.37Z</time></trkpt><trkpt lat="39.7880282" lon="9.2117953"><ele>597.8571428571429</ele><time>2026-05-01T10:24:57.348Z</time></trkpt><trkpt lat="39.7880965" lon="9.2118273"><ele>598.5714285714286</ele><time>2026-05-01T10:24:58.343Z</time></trkpt><trkpt lat="39.7881628" lon="9.2118605"><ele>599.2857142857142</ele><time>2026-05-01T10:24:59.344Z</time></trkpt><trkpt lat="39.7882315" lon="9.2118942"><ele>600.0</ele><time>2026-05-01T10:25:00.352Z</time></trkpt><trkpt lat="39.7882993" lon="9.2119253"><ele>599.9999999999999</ele><time>2026-05-01T10:25:01.344Z</time></trkpt><trkpt lat="39.7883683" lon="9.2119582"><ele>600.0</ele><time>2026-05-01T10:25:02.344Z</time></trkpt><trkpt lat="39.7884393" lon="9.2119932"><ele>600.0</ele><time>2026-05-01T10:25:03.344Z</time></trkpt><trkpt lat="39.7885125" lon="9.2120218"><ele>600.0</ele><time>2026-05-01T10:25:04.345Z</time></trkpt><trkpt lat="39.788582" lon="9.212052"><ele>600.0</ele><time>2026-05-01T10:25:05.347Z</time></trkpt><trkpt lat="39.7886488" lon="9.21208"><ele>599.9999999999999</ele><time>2026-05-01T10:25:06.345Z</time></trkpt><trkpt lat="39.7887168" lon="9.2121158"><ele>600.0</ele><time>2026-05-01T10:25:07.344Z</time></trkpt><trkpt lat="39.7887857" lon="9.2121582"><ele>599.0</ele><time>2026-05-01T10:25:08.344Z</time></trkpt><trkpt lat="39.7888467" lon="9.2122067"><ele>598.0</ele><time>2026-05-01T10:25:09.345Z</time></trkpt><trkpt lat="39.7889082" lon="9.2122662"><ele>597.0</ele><time>2026-05-01T10:25:10.346Z</time></trkpt><trkpt lat="39.7889692" lon="9.2123297"><ele>596.0</ele><time>2026-05-01T10:25:11.347Z</time></trkpt><trkpt lat="39.7890303" lon="9.2124047"><ele>595.0</ele><time>2026-05-01T10:25:12.351Z</time></trkpt><trkpt lat="39.7891018" lon="9.2124828"><ele>594.0</ele><time>2026-05-01T10:25:13.344Z</time></trkpt><trkpt lat="39.7891783" lon="9.2125603"><ele>594.0</ele><time>2026-05-01T10:25:14.344Z</time></trkpt><trkpt lat="39.7892533" lon="9.2126402"><ele>594.0</ele><time>2026-05-01T10:25:15.346Z</time></trkpt><trkpt lat="39.7893253" lon="9.2127242"><ele>594.0</ele><time>2026-05-01T10:25:16.345Z</time></trkpt><trkpt lat="39.7893932" lon="9.2128103"><ele>594.0</ele><time>2026-05-01T10:25:17.351Z</time></trkpt><trkpt lat="39.7894582" lon="9.2129008"><ele>594.0</ele><time>2026-05-01T10:25:18.346Z</time></trkpt><trkpt lat="39.7895245" lon="9.212995"><ele>593.8</ele><time>2026-05-01T10:25:19.343Z</time></trkpt><trkpt lat="39.789589" lon="9.2130833"><ele>593.5999999999999</ele><time>2026-05-01T10:25:20.344Z</time></trkpt><trkpt lat="39.7896505" lon="9.2131702"><ele>593.4</ele><time>2026-05-01T10:25:21.346Z</time></trkpt><trkpt lat="39.7897152" lon="9.213259"><ele>593.1999999999999</ele><time>2026-05-01T10:25:22.346Z</time></trkpt><trkpt lat="39.7897792" lon="9.2133458"><ele>593.0</ele><time>2026-05-01T10:25:23.343Z</time></trkpt><trkpt lat="39.7898405" lon="9.2134357"><ele>593.0</ele><time>2026-05-01T10:25:24.349Z</time></trkpt><trkpt lat="39.7899028" lon="9.2135313"><ele>593.0</ele><time>2026-05-01T10:25:25.344Z</time></trkpt><trkpt lat="39.7899615" lon="9.213631"><ele>593.0</ele><time>2026-05-01T10:25:26.342Z</time></trkpt><trkpt lat="39.7900218" lon="9.2137307"><ele>593.0</ele><time>2026-05-01T10:25:27.345Z</time></trkpt><trkpt lat="39.7900823" lon="9.2138345"><ele>593.0</ele><time>2026-05-01T10:25:28.345Z</time></trkpt><trkpt lat="39.7901512" lon="9.2139295"><ele>589.6</ele><time>2026-05-01T10:25:29.345Z</time></trkpt><trkpt lat="39.7902225" lon="9.2140157"><ele>586.1999999999999</ele><time>2026-05-01T10:25:30.345Z</time></trkpt><trkpt lat="39.7902988" lon="9.2140817"><ele>582.8</ele><time>2026-05-01T10:25:31.345Z</time></trkpt><trkpt lat="39.7903817" lon="9.2141305"><ele>579.4</ele><time>2026-05-01T10:25:32.344Z</time></trkpt><trkpt lat="39.7904683" lon="9.2141603"><ele>576.0</ele><time>2026-05-01T10:25:33.345Z</time></trkpt><trkpt lat="39.7905625" lon="9.2141503"><ele>576.0</ele><time>2026-05-01T10:25:34.343Z</time></trkpt><trkpt lat="39.7906522" lon="9.2141258"><ele>576.0</ele><time>2026-05-01T10:25:35.345Z</time></trkpt><trkpt lat="39.7907417" lon="9.2140955"><ele>576.0</ele><time>2026-05-01T10:25:36.344Z</time></trkpt><trkpt lat="39.7908312" lon="9.2140673"><ele>576.0</ele><time>2026-05-01T10:25:37.342Z</time></trkpt><trkpt lat="39.790926" lon="9.2140497"><ele>576.0</ele><time>2026-05-01T10:25:38.343Z</time></trkpt><trkpt lat="39.7910207" lon="9.2140325"><ele>574.4</ele><time>2026-05-01T10:25:39.343Z</time></trkpt><trkpt lat="39.7911198" lon="9.2140223"><ele>572.8</ele><time>2026-05-01T10:25:40.344Z</time></trkpt><trkpt lat="39.7912198" lon="9.2140098"><ele>571.1999999999999</ele><time>2026-05-01T10:25:41.348Z</time></trkpt><trkpt lat="39.791325" lon="9.2139928"><ele>569.6</ele><time>2026-05-01T10:25:42.345Z</time></trkpt><trkpt lat="39.7914292" lon="9.2139743"><ele>568.0</ele><time>2026-05-01T10:25:43.343Z</time></trkpt><trkpt lat="39.7915337" lon="9.2139532"><ele>570.4</ele><time>2026-05-01T10:25:44.344Z</time></trkpt><trkpt lat="39.791639" lon="9.2139307"><ele>572.8</ele><time>2026-05-01T10:25:45.343Z</time></trkpt><trkpt lat="39.7917442" lon="9.2139138"><ele>575.2</ele><time>2026-05-01T10:25:46.347Z</time></trkpt><trkpt lat="39.7918452" lon="9.2139195"><ele>577.6</ele><time>2026-05-01T10:25:47.346Z</time></trkpt><trkpt lat="39.7919423" lon="9.2139623"><ele>580.0</ele><time>2026-05-01T10:25:48.344Z</time></trkpt><trkpt lat="39.792026" lon="9.2140357"><ele>580.0</ele><time>2026-05-01T10:25:49.347Z</time></trkpt><trkpt lat="39.792112" lon="9.2141138"><ele>580.0</ele><time>2026-05-01T10:25:50.344Z</time></trkpt><trkpt lat="39.792196" lon="9.2142007"><ele>580.0</ele><time>2026-05-01T10:25:51.343Z</time></trkpt><trkpt lat="39.7922828" lon="9.214293"><ele>580.0</ele><time>2026-05-01T10:25:52.342Z</time></trkpt><trkpt lat="39.792369" lon="9.2143835"><ele>580.0</ele><time>2026-05-01T10:25:53.343Z</time></trkpt><trkpt lat="39.7924542" lon="9.2144735"><ele>580.0</ele><time>2026-05-01T10:25:54.344Z</time></trkpt><trkpt lat="39.7925373" lon="9.2145542"><ele>580.0</ele><time>2026-05-01T10:25:55.344Z</time></trkpt><trkpt lat="39.7926215" lon="9.214636"><ele>580.0</ele><time>2026-05-01T10:25:56.343Z</time></trkpt><trkpt lat="39.7927045" lon="9.2147188"><ele>580.0</ele><time>2026-05-01T10:25:57.345Z</time></trkpt><trkpt lat="39.7927798" lon="9.2148013"><ele>580.0</ele><time>2026-05-01T10:25:58.346Z</time></trkpt><trkpt lat="39.7928495" lon="9.2148872"><ele>578.4</ele><time>2026-05-01T10:25:59.343Z</time></trkpt><trkpt lat="39.7929082" lon="9.2149817"><ele>576.8</ele><time>2026-05-01T10:26:00.343Z</time></trkpt><trkpt lat="39.7929635" lon="9.2150862"><ele>575.2</ele><time>2026-05-01T10:26:01.343Z</time></trkpt><trkpt lat="39.793021" lon="9.215191"><ele>573.6</ele><time>2026-05-01T10:26:02.344Z</time></trkpt><trkpt lat="39.7930785" lon="9.2152955"><ele>572.0</ele><time>2026-05-01T10:26:03.344Z</time></trkpt><trkpt lat="39.7931398" lon="9.2153968"><ele>572.0</ele><time>2026-05-01T10:26:04.343Z</time></trkpt><trkpt lat="39.7932192" lon="9.2154773"><ele>572.0</ele><time>2026-05-01T10:26:05.344Z</time></trkpt><trkpt lat="39.7933165" lon="9.2155297"><ele>572.0</ele><time>2026-05-01T10:26:06.343Z</time></trkpt><trkpt lat="39.793422" lon="9.2155498"><ele>572.0</ele><time>2026-05-01T10:26:07.346Z</time></trkpt><trkpt lat="39.79354" lon="9.2155427"><ele>572.0</ele><time>2026-05-01T10:26:08.343Z</time></trkpt><trkpt lat="39.7936467" lon="9.2155202"><ele>572.4</ele><time>2026-05-01T10:26:09.346Z</time></trkpt><trkpt lat="39.7937492" lon="9.215502"><ele>572.8000000000001</ele><time>2026-05-01T10:26:10.343Z</time></trkpt><trkpt lat="39.7938445" lon="9.2154853"><ele>573.2</ele><time>2026-05-01T10:26:11.344Z</time></trkpt><trkpt lat="39.7939375" lon="9.2154717"><ele>573.6</ele><time>2026-05-01T10:26:12.344Z</time></trkpt><trkpt lat="39.794026" lon="9.2154617"><ele>574.0</ele><time>2026-05-01T10:26:13.342Z</time></trkpt><trkpt lat="39.7941163" lon="9.215447"><ele>574.0</ele><time>2026-05-01T10:26:14.344Z</time></trkpt><trkpt lat="39.7942117" lon="9.2154378"><ele>574.0</ele><time>2026-05-01T10:26:15.342Z</time></trkpt><trkpt lat="39.7943105" lon="9.2154317"><ele>574.0</ele><time>2026-05-01T10:26:16.342Z</time></trkpt><trkpt lat="39.7944155" lon="9.2154263"><ele>574.0</ele><time>2026-05-01T10:26:17.344Z</time></trkpt><trkpt lat="39.7945218" lon="9.2154198"><ele>574.0</ele><time>2026-05-01T10:26:18.344Z</time></trkpt><trkpt lat="39.7946265" lon="9.2154102"><ele>573.0</ele><time>2026-05-01T10:26:19.345Z</time></trkpt><trkpt lat="39.7947297" lon="9.215403"><ele>572.0</ele><time>2026-05-01T10:26:20.343Z</time></trkpt><trkpt lat="39.7948292" lon="9.215398"><ele>571.0</ele><time>2026-05-01T10:26:21.343Z</time></trkpt><trkpt lat="39.794927" lon="9.2154013"><ele>570.0</ele><time>2026-05-01T10:26:22.343Z</time></trkpt><trkpt lat="39.7950182" lon="9.2154028"><ele>569.0</ele><time>2026-05-01T10:26:23.343Z</time></trkpt><trkpt lat="39.7951038" lon="9.2154017"><ele>567.8333333333333</ele><time>2026-05-01T10:26:24.345Z</time></trkpt><trkpt lat="39.7951828" lon="9.2154008"><ele>566.6666666666666</ele><time>2026-05-01T10:26:25.344Z</time></trkpt><trkpt lat="39.7952533" lon="9.2154012"><ele>565.5</ele><time>2026-05-01T10:26:26.342Z</time></trkpt><trkpt lat="39.795321" lon="9.2154017"><ele>564.3333333333334</ele><time>2026-05-01T10:26:27.342Z</time></trkpt><trkpt lat="39.795434" lon="9.2154267"><ele>563.1666666666667</ele><time>2026-05-01T10:26:29.344Z</time></trkpt><trkpt lat="39.7955148" lon="9.2154735"><ele>562.0</ele><time>2026-05-01T10:26:31.349Z</time></trkpt><trkpt lat="39.7955955" lon="9.2154932"><ele>562.0</ele><time>2026-05-01T10:27:31.349Z</time></trkpt><trkpt lat="39.7957175" lon="9.2155033"><ele>562.0</ele><time>2026-05-01T10:27:33.342Z</time></trkpt><trkpt lat="39.7958503" lon="9.2154925"><ele>562.0</ele><time>2026-05-01T10:27:35.344Z</time></trkpt><trkpt lat="39.7959235" lon="9.2154945"><ele>562.0</ele><time>2026-05-01T10:27:36.349Z</time></trkpt><trkpt lat="39.795996" lon="9.2155162"><ele>562.0</ele><time>2026-05-01T10:27:37.344Z</time></trkpt><trkpt lat="39.7960762" lon="9.2155513"><ele>560.3333333333334</ele><time>2026-05-01T10:27:38.346Z</time></trkpt><trkpt lat="39.7961593" lon="9.2155812"><ele>558.6666666666667</ele><time>2026-05-01T10:27:39.344Z</time></trkpt><trkpt lat="39.7962462" lon="9.2155977"><ele>557.0</ele><time>2026-05-01T10:27:40.343Z</time></trkpt><trkpt lat="39.7963368" lon="9.2156083"><ele>555.3333333333334</ele><time>2026-05-01T10:27:41.345Z</time></trkpt><trkpt lat="39.79642" lon="9.215614"><ele>553.6666666666666</ele><time>2026-05-01T10:27:42.343Z</time></trkpt><trkpt lat="39.7965065" lon="9.2156058"><ele>552.0</ele><time>2026-05-01T10:27:43.343Z</time></trkpt><trkpt lat="39.796582" lon="9.2155932"><ele>552.0</ele><time>2026-05-01T10:27:44.343Z</time></trkpt><trkpt lat="39.7966492" lon="9.2155862"><ele>552.0</ele><time>2026-05-01T10:27:45.345Z</time></trkpt><trkpt lat="39.7967165" lon="9.2155865"><ele>552.0</ele><time>2026-05-01T10:27:46.347Z</time></trkpt><trkpt lat="39.7967813" lon="9.215583"><ele>552.0</ele><time>2026-05-01T10:27:47.343Z</time></trkpt><trkpt lat="39.7968997" lon="9.2155728"><ele>552.0</ele><time>2026-05-01T10:27:49.346Z</time></trkpt><trkpt lat="39.7969635" lon="9.2155567"><ele>552.0</ele><time>2026-05-01T10:27:50.343Z</time></trkpt><trkpt lat="39.7970557" lon="9.2154842"><ele>549.0</ele><time>2026-05-01T10:27:52.343Z</time></trkpt><trkpt lat="39.7971168" lon="9.2153907"><ele>546.0</ele><time>2026-05-01T10:27:54.344Z</time></trkpt><trkpt lat="39.7971667" lon="9.2153035"><ele>543.0</ele><time>2026-05-01T10:27:56.344Z</time></trkpt><trkpt lat="39.797252" lon="9.2152887"><ele>540.0</ele><time>2026-05-01T10:27:58.344Z</time></trkpt><trkpt lat="39.7973612" lon="9.2153135"><ele>537.0</ele><time>2026-05-01T10:28:00.344Z</time></trkpt><trkpt lat="39.797461" lon="9.2153458"><ele>537.0</ele><time>2026-05-01T10:28:02.345Z</time></trkpt><trkpt lat="39.7975202" lon="9.2154227"><ele>537.0</ele><time>2026-05-01T10:28:04.344Z</time></trkpt><trkpt lat="39.7974865" lon="9.2155693"><ele>537.0</ele><time>2026-05-01T10:28:06.345Z</time></trkpt><trkpt lat="39.797438" lon="9.2156588"><ele>537.0</ele><time>2026-05-01T10:28:07.347Z</time></trkpt><trkpt lat="39.7973932" lon="9.215757"><ele>537.0</ele><time>2026-05-01T10:28:08.344Z</time></trkpt><trkpt lat="39.7973655" lon="9.215846"><ele>537.0</ele><time>2026-05-01T10:28:09.344Z</time></trkpt><trkpt lat="39.7973292" lon="9.2159757"><ele>532.6666666666666</ele><time>2026-05-01T10:28:11.345Z</time></trkpt><trkpt lat="39.7973625" lon="9.2160743"><ele>528.3333333333334</ele><time>2026-05-01T10:28:14.344Z</time></trkpt><trkpt lat="39.79743" lon="9.2160543"><ele>524.0</ele><time>2026-05-01T10:28:16.348Z</time></trkpt><trkpt lat="39.7975363" lon="9.216007"><ele>519.6666666666667</ele><time>2026-05-01T10:28:18.344Z</time></trkpt><trkpt lat="39.7976012" lon="9.2159935"><ele>515.3333333333334</ele><time>2026-05-01T10:28:19.342Z</time></trkpt><trkpt lat="39.7976737" lon="9.2159693"><ele>511.0</ele><time>2026-05-01T10:28:20.345Z</time></trkpt><trkpt lat="39.797743" lon="9.215939"><ele>507.6666666666667</ele><time>2026-05-01T10:28:21.343Z</time></trkpt><trkpt lat="39.797808" lon="9.2158993"><ele>504.33333333333337</ele><time>2026-05-01T10:28:22.346Z</time></trkpt><trkpt lat="39.7978727" lon="9.2158782"><ele>501.0</ele><time>2026-05-01T10:28:23.343Z</time></trkpt><trkpt lat="39.7979692" lon="9.2158503"><ele>497.66666666666663</ele><time>2026-05-01T10:28:25.348Z</time></trkpt><trkpt lat="39.7980637" lon="9.2158517"><ele>494.3333333333333</ele><time>2026-05-01T10:28:27.345Z</time></trkpt><trkpt lat="39.7981797" lon="9.2158307"><ele>491.0</ele><time>2026-05-01T10:28:29.347Z</time></trkpt><trkpt lat="39.798248" lon="9.2158172"><ele>490.99999999999994</ele><time>2026-05-01T10:28:30.344Z</time></trkpt><trkpt lat="39.798317" lon="9.2158052"><ele>491.0</ele><time>2026-05-01T10:28:31.345Z</time></trkpt><trkpt lat="39.7983798" lon="9.2157925"><ele>491.0</ele><time>2026-05-01T10:28:32.342Z</time></trkpt><trkpt lat="39.7984453" lon="9.2157965"><ele>491.0</ele><time>2026-05-01T10:28:33.343Z</time></trkpt><trkpt lat="39.7985593" lon="9.2158278"><ele>490.99999999999994</ele><time>2026-05-01T10:28:35.342Z</time></trkpt><trkpt lat="39.798624" lon="9.2158387"><ele>491.0</ele><time>2026-05-01T10:28:36.345Z</time></trkpt><trkpt lat="39.7987017" lon="9.2158433"><ele>488.3333333333333</ele><time>2026-05-01T10:28:37.344Z</time></trkpt><trkpt lat="39.7987857" lon="9.2158425"><ele>485.66666666666663</ele><time>2026-05-01T10:28:38.342Z</time></trkpt><trkpt lat="39.7988775" lon="9.2158452"><ele>483.0</ele><time>2026-05-01T10:28:39.345Z</time></trkpt><trkpt lat="39.7989618" lon="9.2158563"><ele>480.33333333333337</ele><time>2026-05-01T10:28:40.347Z</time></trkpt><trkpt lat="39.7990403" lon="9.2158665"><ele>477.6666666666667</ele><time>2026-05-01T10:28:41.345Z</time></trkpt><trkpt lat="39.799119" lon="9.2158825"><ele>475.0</ele><time>2026-05-01T10:28:42.35Z</time></trkpt><trkpt lat="39.799197" lon="9.2158915"><ele>475.00000000000006</ele><time>2026-05-01T10:28:43.345Z</time></trkpt><trkpt lat="39.7992773" lon="9.2159043"><ele>475.0</ele><time>2026-05-01T10:28:44.344Z</time></trkpt><trkpt lat="39.7993522" lon="9.2159062"><ele>475.0</ele><time>2026-05-01T10:28:45.343Z</time></trkpt><trkpt lat="39.7994215" lon="9.215899"><ele>475.0</ele><time>2026-05-01T10:28:46.346Z</time></trkpt><trkpt lat="39.7994858" lon="9.2158858"><ele>475.00000000000006</ele><time>2026-05-01T10:28:47.344Z</time></trkpt><trkpt lat="39.7995812" lon="9.2158492"><ele>475.0</ele><time>2026-05-01T10:28:49.342Z</time></trkpt><trkpt lat="39.799657" lon="9.2158817"><ele>470.83333333333337</ele><time>2026-05-01T10:28:51.344Z</time></trkpt><trkpt lat="39.799694" lon="9.2159665"><ele>466.6666666666667</ele><time>2026-05-01T10:28:52.343Z</time></trkpt><trkpt lat="39.7997182" lon="9.216062"><ele>462.5</ele><time>2026-05-01T10:28:53.348Z</time></trkpt><trkpt lat="39.7997435" lon="9.2161698"><ele>458.33333333333337</ele><time>2026-05-01T10:28:54.343Z</time></trkpt><trkpt lat="39.7997748" lon="9.2162835"><ele>454.1666666666667</ele><time>2026-05-01T10:28:55.344Z</time></trkpt><trkpt lat="39.7998073" lon="9.2163863"><ele>450.0</ele><time>2026-05-01T10:28:56.342Z</time></trkpt><trkpt lat="39.7998388" lon="9.2164847"><ele>448.5</ele><time>2026-05-01T10:28:57.342Z</time></trkpt><trkpt lat="39.7998722" lon="9.2165765"><ele>447.0</ele><time>2026-05-01T10:28:58.343Z</time></trkpt><trkpt lat="39.7999065" lon="9.216658"><ele>445.5</ele><time>2026-05-01T10:28:59.345Z</time></trkpt><trkpt lat="39.7999435" lon="9.2167345"><ele>444.0</ele><time>2026-05-01T10:29:00.344Z</time></trkpt><trkpt lat="39.7999998" lon="9.2168632"><ele>442.5</ele><time>2026-05-01T10:29:02.343Z</time></trkpt><trkpt lat="39.8000485" lon="9.216955"><ele>441.0</ele><time>2026-05-01T10:29:04.342Z</time></trkpt><trkpt lat="39.8001297" lon="9.216992"><ele>434.6</ele><time>2026-05-01T10:29:06.347Z</time></trkpt><trkpt lat="39.8002412" lon="9.2169587"><ele>428.20000000000005</ele><time>2026-05-01T10:29:08.344Z</time></trkpt><trkpt lat="39.8003145" lon="9.2168732"><ele>421.79999999999995</ele><time>2026-05-01T10:29:10.343Z</time></trkpt><trkpt lat="39.8003495" lon="9.2167535"><ele>415.4</ele><time>2026-05-01T10:29:12.344Z</time></trkpt><trkpt lat="39.8003627" lon="9.2166018"><ele>409.0</ele><time>2026-05-01T10:29:14.345Z</time></trkpt><trkpt lat="39.8003572" lon="9.2165067"><ele>411.6666666666667</ele><time>2026-05-01T10:29:15.344Z</time></trkpt><trkpt lat="39.800346" lon="9.216402"><ele>414.33333333333337</ele><time>2026-05-01T10:29:16.347Z</time></trkpt><trkpt lat="39.8003377" lon="9.2162928"><ele>417.0</ele><time>2026-05-01T10:29:17.344Z</time></trkpt><trkpt lat="39.8003278" lon="9.2161915"><ele>419.66666666666663</ele><time>2026-05-01T10:29:18.349Z</time></trkpt><trkpt lat="39.8003252" lon="9.2160867"><ele>422.3333333333333</ele><time>2026-05-01T10:29:19.345Z</time></trkpt><trkpt lat="39.8003362" lon="9.2159977"><ele>425.0</ele><time>2026-05-01T10:29:20.346Z</time></trkpt><trkpt lat="39.800388" lon="9.215874"><ele>424.99999999999994</ele><time>2026-05-01T10:29:22.344Z</time></trkpt><trkpt lat="39.8004712" lon="9.2157802"><ele>425.0</ele><time>2026-05-01T10:29:24.344Z</time></trkpt><trkpt lat="39.8005818" lon="9.2157318"><ele>425.0</ele><time>2026-05-01T10:29:26.346Z</time></trkpt><trkpt lat="39.8006457" lon="9.2157232"><ele>425.0</ele><time>2026-05-01T10:29:27.344Z</time></trkpt><trkpt lat="39.8007087" lon="9.215729"><ele>424.99999999999994</ele><time>2026-05-01T10:29:28.342Z</time></trkpt><trkpt lat="39.8007722" lon="9.215742"><ele>425.0</ele><time>2026-05-01T10:29:29.343Z</time></trkpt><trkpt lat="39.8008385" lon="9.2157548"><ele>424.99999999999994</ele><time>2026-05-01T10:29:30.344Z</time></trkpt><trkpt lat="39.8009167" lon="9.215765"><ele>425.0</ele><time>2026-05-01T10:29:31.347Z</time></trkpt><trkpt lat="39.8009983" lon="9.2157698"><ele>425.0</ele><time>2026-05-01T10:29:32.343Z</time></trkpt><trkpt lat="39.801075" lon="9.2157665"><ele>425.0</ele><time>2026-05-01T10:29:33.345Z</time></trkpt><trkpt lat="39.8011523" lon="9.2157768"><ele>424.99999999999994</ele><time>2026-05-01T10:29:34.343Z</time></trkpt><trkpt lat="39.8012293" lon="9.2157872"><ele>425.0</ele><time>2026-05-01T10:29:35.345Z</time></trkpt><trkpt lat="39.8012977" lon="9.2157858"><ele>426.8333333333333</ele><time>2026-05-01T10:29:36.343Z</time></trkpt><trkpt lat="39.8014125" lon="9.2157722"><ele>428.66666666666663</ele><time>2026-05-01T10:29:38.342Z</time></trkpt><trkpt lat="39.801517" lon="9.2157318"><ele>430.5</ele><time>2026-05-01T10:29:40.342Z</time></trkpt><trkpt lat="39.8015755" lon="9.2156992"><ele>432.33333333333337</ele><time>2026-05-01T10:29:41.342Z</time></trkpt><trkpt lat="39.8016418" lon="9.2156652"><ele>434.1666666666667</ele><time>2026-05-01T10:29:42.34Z</time></trkpt><trkpt lat="39.8017092" lon="9.2156215"><ele>436.0</ele><time>2026-05-01T10:29:43.344Z</time></trkpt><trkpt lat="39.8017758" lon="9.2155633"><ele>431.6666666666667</ele><time>2026-05-01T10:29:44.343Z</time></trkpt><trkpt lat="39.8018418" lon="9.2154953"><ele>427.33333333333337</ele><time>2026-05-01T10:29:45.342Z</time></trkpt><trkpt lat="39.8019052" lon="9.2154192"><ele>423.0</ele><time>2026-05-01T10:29:46.343Z</time></trkpt><trkpt lat="39.8019682" lon="9.2153443"><ele>418.66666666666663</ele><time>2026-05-01T10:29:47.343Z</time></trkpt><trkpt lat="39.8020303" lon="9.2152762"><ele>414.3333333333333</ele><time>2026-05-01T10:29:48.343Z</time></trkpt><trkpt lat="39.8020975" lon="9.2152103"><ele>410.0</ele><time>2026-05-01T10:29:49.344Z</time></trkpt><trkpt lat="39.8021615" lon="9.2151467"><ele>410.0</ele><time>2026-05-01T10:29:50.344Z</time></trkpt><trkpt lat="39.8022165" lon="9.2150955"><ele>410.0</ele><time>2026-05-01T10:29:51.343Z</time></trkpt><trkpt lat="39.8023032" lon="9.215003"><ele>410.0</ele><time>2026-05-01T10:29:53.344Z</time></trkpt><trkpt lat="39.80239" lon="9.214896"><ele>410.0</ele><time>2026-05-01T10:29:55.343Z</time></trkpt><trkpt lat="39.8024717" lon="9.2147765"><ele>410.0</ele><time>2026-05-01T10:29:57.344Z</time></trkpt><trkpt lat="39.8025503" lon="9.2146532"><ele>409.2</ele><time>2026-05-01T10:29:59.343Z</time></trkpt><trkpt lat="39.8025853" lon="9.2145815"><ele>408.4</ele><time>2026-05-01T10:30:00.343Z</time></trkpt><trkpt lat="39.8026512" lon="9.2144495"><ele>407.6</ele><time>2026-05-01T10:30:02.341Z</time></trkpt><trkpt lat="39.8027408" lon="9.214364"><ele>406.8</ele><time>2026-05-01T10:30:04.342Z</time></trkpt><trkpt lat="39.8028598" lon="9.2143285"><ele>406.0</ele><time>2026-05-01T10:30:06.346Z</time></trkpt><trkpt lat="39.8029782" lon="9.2143173"><ele>406.00000000000006</ele><time>2026-05-01T10:30:08.343Z</time></trkpt><trkpt lat="39.803077" lon="9.214305"><ele>406.0</ele><time>2026-05-01T10:30:10.344Z</time></trkpt><trkpt lat="39.8031517" lon="9.2142633"><ele>406.0</ele><time>2026-05-01T10:30:34.346Z</time></trkpt><trkpt lat="39.8032263" lon="9.2142002"><ele>406.0</ele><time>2026-05-01T10:30:36.344Z</time></trkpt><trkpt lat="39.8032922" lon="9.2140935"><ele>406.00000000000006</ele><time>2026-05-01T10:30:38.345Z</time></trkpt><trkpt lat="39.8033312" lon="9.214012"><ele>406.0</ele><time>2026-05-01T10:30:39.345Z</time></trkpt><trkpt lat="39.8033688" lon="9.2139165"><ele>406.1666666666667</ele><time>2026-05-01T10:30:40.343Z</time></trkpt><trkpt lat="39.8033997" lon="9.2138152"><ele>406.33333333333337</ele><time>2026-05-01T10:30:41.344Z</time></trkpt><trkpt lat="39.8034292" lon="9.2137178"><ele>406.5</ele><time>2026-05-01T10:30:42.345Z</time></trkpt><trkpt lat="39.803458" lon="9.2136255"><ele>406.66666666666663</ele><time>2026-05-01T10:30:43.345Z</time></trkpt><trkpt lat="39.8034913" lon="9.2135532"><ele>406.8333333333333</ele><time>2026-05-01T10:30:44.343Z</time></trkpt><trkpt lat="39.8035445" lon="9.2134323"><ele>407.0</ele><time>2026-05-01T10:30:46.343Z</time></trkpt><trkpt lat="39.8036297" lon="9.2134077"><ele>406.99999999999994</ele><time>2026-05-01T10:30:49.35Z</time></trkpt><trkpt lat="39.8037262" lon="9.2133848"><ele>407.0</ele><time>2026-05-01T10:30:52.343Z</time></trkpt><trkpt lat="39.8037985" lon="9.2133475"><ele>407.0</ele><time>2026-05-01T10:30:54.349Z</time></trkpt><trkpt lat="39.8038927" lon="9.2133057"><ele>407.0</ele><time>2026-05-01T10:30:56.348Z</time></trkpt><trkpt lat="39.8039595" lon="9.2132675"><ele>406.99999999999994</ele><time>2026-05-01T10:30:57.344Z</time></trkpt><trkpt lat="39.8040335" lon="9.2132172"><ele>407.0</ele><time>2026-05-01T10:30:58.344Z</time></trkpt><trkpt lat="39.804126" lon="9.2131557"><ele>408.0</ele><time>2026-05-01T10:30:59.346Z</time></trkpt><trkpt lat="39.8042155" lon="9.2130903"><ele>409.0</ele><time>2026-05-01T10:31:00.345Z</time></trkpt><trkpt lat="39.8043057" lon="9.2130363"><ele>410.0</ele><time>2026-05-01T10:31:01.346Z</time></trkpt><trkpt lat="39.804387" lon="9.2129935"><ele>411.0</ele><time>2026-05-01T10:31:02.345Z</time></trkpt><trkpt lat="39.8044542" lon="9.2129667"><ele>412.0</ele><time>2026-05-01T10:31:03.344Z</time></trkpt><trkpt lat="39.8045825" lon="9.212981"><ele>412.00000000000006</ele><time>2026-05-01T10:31:05.345Z</time></trkpt><trkpt lat="39.8046575" lon="9.212986"><ele>412.0</ele><time>2026-05-01T10:31:06.34Z</time></trkpt><trkpt lat="39.8047385" lon="9.2129722"><ele>412.0</ele><time>2026-05-01T10:31:07.35Z</time></trkpt><trkpt lat="39.8048255" lon="9.2129467"><ele>412.0</ele><time>2026-05-01T10:31:08.343Z</time></trkpt><trkpt lat="39.8049158" lon="9.2129177"><ele>412.00000000000006</ele><time>2026-05-01T10:31:09.346Z</time></trkpt><trkpt lat="39.8050045" lon="9.212899"><ele>412.0</ele><time>2026-05-01T10:31:10.344Z</time></trkpt><trkpt lat="39.805083" lon="9.2128943"><ele>412.0</ele><time>2026-05-01T10:31:11.346Z</time></trkpt><trkpt lat="39.8051488" lon="9.2128833"><ele>412.0</ele><time>2026-05-01T10:31:12.346Z</time></trkpt><trkpt lat="39.8052438" lon="9.2128227"><ele>412.0</ele><time>2026-05-01T10:31:14.346Z</time></trkpt><trkpt lat="39.8053385" lon="9.2127152"><ele>412.0</ele><time>2026-05-01T10:31:16.35Z</time></trkpt><trkpt lat="39.8053978" lon="9.2126328"><ele>412.0</ele><time>2026-05-01T10:31:17.345Z</time></trkpt><trkpt lat="39.805462" lon="9.212527"><ele>411.40000000000003</ele><time>2026-05-01T10:31:18.345Z</time></trkpt><trkpt lat="39.8055243" lon="9.2124123"><ele>410.8</ele><time>2026-05-01T10:31:19.347Z</time></trkpt><trkpt lat="39.805581" lon="9.212292"><ele>410.2</ele><time>2026-05-01T10:31:20.344Z</time></trkpt><trkpt lat="39.8056405" lon="9.2121818"><ele>409.6</ele><time>2026-05-01T10:31:21.345Z</time></trkpt><trkpt lat="39.8056977" lon="9.2120767"><ele>409.0</ele><time>2026-05-01T10:31:22.343Z</time></trkpt><trkpt lat="39.8057587" lon="9.2119827"><ele>409.00000000000006</ele><time>2026-05-01T10:31:23.345Z</time></trkpt><trkpt lat="39.805824" lon="9.2118913"><ele>409.0</ele><time>2026-05-01T10:31:24.345Z</time></trkpt><trkpt lat="39.8058855" lon="9.211817"><ele>409.0</ele><time>2026-05-01T10:31:25.343Z</time></trkpt><trkpt lat="39.8059508" lon="9.2117497"><ele>409.0</ele><time>2026-05-01T10:31:26.347Z</time></trkpt><trkpt lat="39.8060235" lon="9.2116983"><ele>409.00000000000006</ele><time>2026-05-01T10:31:27.343Z</time></trkpt><trkpt lat="39.8060945" lon="9.2116517"><ele>409.0</ele><time>2026-05-01T10:31:28.346Z</time></trkpt><trkpt lat="39.8061678" lon="9.2116122"><ele>407.33333333333337</ele><time>2026-05-01T10:31:29.344Z</time></trkpt><trkpt lat="39.8062383" lon="9.211578"><ele>405.6666666666667</ele><time>2026-05-01T10:31:30.345Z</time></trkpt><trkpt lat="39.8063077" lon="9.21154"><ele>404.0</ele><time>2026-05-01T10:31:31.346Z</time></trkpt><trkpt lat="39.8063807" lon="9.2114847"><ele>402.33333333333337</ele><time>2026-05-01T10:31:32.348Z</time></trkpt><trkpt lat="39.8064527" lon="9.2114203"><ele>400.6666666666667</ele><time>2026-05-01T10:31:33.344Z</time></trkpt><trkpt lat="39.8065125" lon="9.2113497"><ele>399.0</ele><time>2026-05-01T10:31:34.345Z</time></trkpt><trkpt lat="39.8065678" lon="9.2112947"><ele>399.0</ele><time>2026-05-01T10:31:35.348Z</time></trkpt><trkpt lat="39.8066308" lon="9.2112558"><ele>399.0</ele><time>2026-05-01T10:31:36.347Z</time></trkpt><trkpt lat="39.8066932" lon="9.2112237"><ele>399.0</ele><time>2026-05-01T10:31:37.343Z</time></trkpt><trkpt lat="39.8067678" lon="9.2112132"><ele>399.0</ele><time>2026-05-01T10:31:38.346Z</time></trkpt><trkpt lat="39.8068407" lon="9.2112105"><ele>399.0</ele><time>2026-05-01T10:31:39.344Z</time></trkpt><trkpt lat="39.8069163" lon="9.211215"><ele>399.0</ele><time>2026-05-01T10:31:40.344Z</time></trkpt><trkpt lat="39.8069902" lon="9.2112255"><ele>399.0</ele><time>2026-05-01T10:31:41.345Z</time></trkpt><trkpt lat="39.807062" lon="9.2112495"><ele>398.0</ele><time>2026-05-01T10:31:42.345Z</time></trkpt><trkpt lat="39.8071295" lon="9.2112927"><ele>397.0</ele><time>2026-05-01T10:31:43.344Z</time></trkpt><trkpt lat="39.807196" lon="9.2113457"><ele>396.0</ele><time>2026-05-01T10:31:44.351Z</time></trkpt><trkpt lat="39.8072652" lon="9.2114053"><ele>395.0</ele><time>2026-05-01T10:31:45.346Z</time></trkpt><trkpt lat="39.8073288" lon="9.2114622"><ele>394.0</ele><time>2026-05-01T10:31:46.344Z</time></trkpt><trkpt lat="39.807387" lon="9.2115127"><ele>393.0</ele><time>2026-05-01T10:31:47.344Z</time></trkpt><trkpt lat="39.8074508" lon="9.2115482"><ele>391.8333333333333</ele><time>2026-05-01T10:31:48.343Z</time></trkpt><trkpt lat="39.8075215" lon="9.2115672"><ele>390.66666666666663</ele><time>2026-05-01T10:31:49.346Z</time></trkpt><trkpt lat="39.8075933" lon="9.211575"><ele>389.5</ele><time>2026-05-01T10:31:50.346Z</time></trkpt><trkpt lat="39.8076635" lon="9.2115763"><ele>388.3333333333333</ele><time>2026-05-01T10:31:51.345Z</time></trkpt><trkpt lat="39.807732" lon="9.211577"><ele>387.16666666666663</ele><time>2026-05-01T10:31:52.344Z</time></trkpt><trkpt lat="39.807795" lon="9.2115727"><ele>386.0</ele><time>2026-05-01T10:31:53.344Z</time></trkpt><trkpt lat="39.807914" lon="9.2115633"><ele>384.3333333333333</ele><time>2026-05-01T10:31:55.344Z</time></trkpt><trkpt lat="39.8080405" lon="9.211591"><ele>382.66666666666663</ele><time>2026-05-01T10:31:57.344Z</time></trkpt><trkpt lat="39.8081115" lon="9.2116063"><ele>381.0</ele><time>2026-05-01T10:31:58.344Z</time></trkpt><trkpt lat="39.8081835" lon="9.2116102"><ele>379.3333333333333</ele><time>2026-05-01T10:31:59.344Z</time></trkpt><trkpt lat="39.8082618" lon="9.2115948"><ele>377.66666666666663</ele><time>2026-05-01T10:32:00.343Z</time></trkpt><trkpt lat="39.8083335" lon="9.2115718"><ele>376.0</ele><time>2026-05-01T10:32:01.345Z</time></trkpt><trkpt lat="39.8084395" lon="9.211509"><ele>374.8</ele><time>2026-05-01T10:32:03.347Z</time></trkpt><trkpt lat="39.8085312" lon="9.2114648"><ele>373.6</ele><time>2026-05-01T10:32:05.344Z</time></trkpt><trkpt lat="39.8086237" lon="9.2114712"><ele>372.4</ele><time>2026-05-01T10:32:07.347Z</time></trkpt><trkpt lat="39.808741" lon="9.2114862"><ele>371.2</ele><time>2026-05-01T10:32:09.344Z</time></trkpt><trkpt lat="39.808863" lon="9.2115218"><ele>370.0</ele><time>2026-05-01T10:32:11.342Z</time></trkpt><trkpt lat="39.808925" lon="9.2115452"><ele>370.0</ele><time>2026-05-01T10:32:12.343Z</time></trkpt><trkpt lat="39.8090398" lon="9.2116102"><ele>370.0</ele><time>2026-05-01T10:32:14.344Z</time></trkpt><trkpt lat="39.8091047" lon="9.2116558"><ele>370.0</ele><time>2026-05-01T10:32:15.347Z</time></trkpt><trkpt lat="39.8091692" lon="9.2116965"><ele>370.0</ele><time>2026-05-01T10:32:16.343Z</time></trkpt><trkpt lat="39.8092387" lon="9.211734"><ele>370.0</ele><time>2026-05-01T10:32:17.344Z</time></trkpt><trkpt lat="39.8093093" lon="9.2117628"><ele>370.0</ele><time>2026-05-01T10:32:18.344Z</time></trkpt><trkpt lat="39.8093807" lon="9.211771"><ele>367.5</ele><time>2026-05-01T10:32:19.343Z</time></trkpt><trkpt lat="39.8094482" lon="9.211772"><ele>365.0</ele><time>2026-05-01T10:32:20.343Z</time></trkpt><trkpt lat="39.8095157" lon="9.2117628"><ele>362.5</ele><time>2026-05-01T10:32:21.342Z</time></trkpt><trkpt lat="39.8095838" lon="9.2117492"><ele>360.0</ele><time>2026-05-01T10:32:22.345Z</time></trkpt><trkpt lat="39.80965" lon="9.2117315"><ele>357.5</ele><time>2026-05-01T10:32:23.342Z</time></trkpt><trkpt lat="39.8097758" lon="9.2116887"><ele>355.0</ele><time>2026-05-01T10:32:25.344Z</time></trkpt><trkpt lat="39.8098342" lon="9.2116502"><ele>355.0</ele><time>2026-05-01T10:32:26.343Z</time></trkpt><trkpt lat="39.8098942" lon="9.2115967"><ele>355.0</ele><time>2026-05-01T10:32:27.342Z</time></trkpt><trkpt lat="39.8099472" lon="9.211525"><ele>355.0</ele><time>2026-05-01T10:32:28.344Z</time></trkpt><trkpt lat="39.809996" lon="9.2114352"><ele>355.0</ele><time>2026-05-01T10:32:29.342Z</time></trkpt><trkpt lat="39.8100418" lon="9.2113362"><ele>355.0</ele><time>2026-05-01T10:32:30.343Z</time></trkpt><trkpt lat="39.8100905" lon="9.2112235"><ele>355.0</ele><time>2026-05-01T10:32:31.344Z</time></trkpt><trkpt lat="39.8101383" lon="9.2111098"><ele>354.3333333333333</ele><time>2026-05-01T10:32:32.343Z</time></trkpt><trkpt lat="39.810189" lon="9.2109988"><ele>353.66666666666663</ele><time>2026-05-01T10:32:33.343Z</time></trkpt><trkpt lat="39.8102328" lon="9.2108917"><ele>353.0</ele><time>2026-05-01T10:32:34.343Z</time></trkpt><trkpt lat="39.8102672" lon="9.2107998"><ele>352.3333333333333</ele><time>2026-05-01T10:32:35.345Z</time></trkpt><trkpt lat="39.8102963" lon="9.2107238"><ele>351.6666666666667</ele><time>2026-05-01T10:32:36.343Z</time></trkpt><trkpt lat="39.8103552" lon="9.2106063"><ele>351.0</ele><time>2026-05-01T10:32:38.343Z</time></trkpt><trkpt lat="39.8103975" lon="9.210483"><ele>354.20000000000005</ele><time>2026-05-01T10:32:40.341Z</time></trkpt><trkpt lat="39.810422" lon="9.210364"><ele>357.40000000000003</ele><time>2026-05-01T10:32:42.342Z</time></trkpt><trkpt lat="39.810442" lon="9.2102695"><ele>360.6</ele><time>2026-05-01T10:32:44.342Z</time></trkpt><trkpt lat="39.8104595" lon="9.210174"><ele>363.8</ele><time>2026-05-01T10:33:01.341Z</time></trkpt><trkpt lat="39.8105447" lon="9.2101208"><ele>367.0</ele><time>2026-05-01T10:33:04.34Z</time></trkpt><trkpt lat="39.8106388" lon="9.210207"><ele>367.0</ele><time>2026-05-01T10:33:06.343Z</time></trkpt><trkpt lat="39.8106892" lon="9.2102832"><ele>367.0</ele><time>2026-05-01T10:33:07.342Z</time></trkpt><trkpt lat="39.810722" lon="9.2103932"><ele>367.0</ele><time>2026-05-01T10:33:08.341Z</time></trkpt><trkpt lat="39.8107635" lon="9.2105248"><ele>367.0</ele><time>2026-05-01T10:33:09.342Z</time></trkpt><trkpt lat="39.8108005" lon="9.2106637"><ele>367.0</ele><time>2026-05-01T10:33:10.342Z</time></trkpt><trkpt lat="39.8108285" lon="9.210794"><ele>365.40000000000003</ele><time>2026-05-01T10:33:11.341Z</time></trkpt><trkpt lat="39.8108518" lon="9.2109188"><ele>363.8</ele><time>2026-05-01T10:33:12.341Z</time></trkpt><trkpt lat="39.8108795" lon="9.2110277"><ele>362.2</ele><time>2026-05-01T10:33:13.342Z</time></trkpt><trkpt lat="39.8109107" lon="9.2111172"><ele>360.6</ele><time>2026-05-01T10:33:14.342Z</time></trkpt><trkpt lat="39.8109995" lon="9.2111845"><ele>359.0</ele><time>2026-05-01T10:33:16.345Z</time></trkpt><trkpt lat="39.8111057" lon="9.211102"><ele>359.0</ele><time>2026-05-01T10:33:18.342Z</time></trkpt><trkpt lat="39.8111582" lon="9.2110357"><ele>359.0</ele><time>2026-05-01T10:33:19.344Z</time></trkpt><trkpt lat="39.8112145" lon="9.2109475"><ele>359.0</ele><time>2026-05-01T10:33:20.342Z</time></trkpt><trkpt lat="39.8112695" lon="9.2108618"><ele>359.0</ele><time>2026-05-01T10:33:21.351Z</time></trkpt><trkpt lat="39.811328" lon="9.2107918"><ele>359.0</ele><time>2026-05-01T10:33:22.344Z</time></trkpt><trkpt lat="39.8113887" lon="9.210741"><ele>359.0</ele><time>2026-05-01T10:33:23.342Z</time></trkpt><trkpt lat="39.8114508" lon="9.2107047"><ele>359.0</ele><time>2026-05-01T10:33:24.345Z</time></trkpt><trkpt lat="39.811529" lon="9.2106963"><ele>359.0</ele><time>2026-05-01T10:33:25.345Z</time></trkpt><trkpt lat="39.8116247" lon="9.2106872"><ele>359.0</ele><time>2026-05-01T10:33:26.345Z</time></trkpt><trkpt lat="39.8117222" lon="9.210664"><ele>359.0</ele><time>2026-05-01T10:33:27.343Z</time></trkpt><trkpt lat="39.8118175" lon="9.210634"><ele>359.0</ele><time>2026-05-01T10:33:28.342Z</time></trkpt><trkpt lat="39.8119137" lon="9.2106068"><ele>362.83333333333337</ele><time>2026-05-01T10:33:29.344Z</time></trkpt><trkpt lat="39.8120067" lon="9.21059"><ele>366.6666666666667</ele><time>2026-05-01T10:33:30.345Z</time></trkpt><trkpt lat="39.8121023" lon="9.21058"><ele>370.5</ele><time>2026-05-01T10:33:31.345Z</time></trkpt><trkpt lat="39.8121927" lon="9.2105783"><ele>374.3333333333333</ele><time>2026-05-01T10:33:32.348Z</time></trkpt><trkpt lat="39.8122787" lon="9.2105845"><ele>378.16666666666663</ele><time>2026-05-01T10:33:33.343Z</time></trkpt><trkpt lat="39.8123603" lon="9.2106025"><ele>382.0</ele><time>2026-05-01T10:33:34.342Z</time></trkpt><trkpt lat="39.8124275" lon="9.210611"><ele>382.0</ele><time>2026-05-01T10:33:35.346Z</time></trkpt><trkpt lat="39.8125435" lon="9.2105787"><ele>382.0</ele><time>2026-05-01T10:33:37.347Z</time></trkpt><trkpt lat="39.812599" lon="9.2105392"><ele>382.0</ele><time>2026-05-01T10:33:38.341Z</time></trkpt><trkpt lat="39.812663" lon="9.2105003"><ele>382.0</ele><time>2026-05-01T10:33:39.344Z</time></trkpt><trkpt lat="39.8127282" lon="9.210471"><ele>382.0</ele><time>2026-05-01T10:33:40.343Z</time></trkpt><trkpt lat="39.8127918" lon="9.2104603"><ele>382.0</ele><time>2026-05-01T10:33:41.342Z</time></trkpt><trkpt lat="39.8128585" lon="9.2104625"><ele>381.0</ele><time>2026-05-01T10:33:42.341Z</time></trkpt><trkpt lat="39.8129233" lon="9.2104852"><ele>380.0</ele><time>2026-05-01T10:33:43.34Z</time></trkpt><trkpt lat="39.8129905" lon="9.2104918"><ele>379.0</ele><time>2026-05-01T10:33:44.342Z</time></trkpt><trkpt lat="39.8130528" lon="9.2104785"><ele>378.0</ele><time>2026-05-01T10:33:45.341Z</time></trkpt><trkpt lat="39.8131162" lon="9.2104477"><ele>377.0</ele><time>2026-05-01T10:33:46.343Z</time></trkpt><trkpt lat="39.8131757" lon="9.210415"><ele>376.0</ele><time>2026-05-01T10:33:47.343Z</time></trkpt><trkpt lat="39.8132378" lon="9.2103808"><ele>375.0</ele><time>2026-05-01T10:33:48.342Z</time></trkpt><trkpt lat="39.8133097" lon="9.2103573"><ele>375.0</ele><time>2026-05-01T10:33:49.341Z</time></trkpt><trkpt lat="39.81339" lon="9.2103328"><ele>375.0</ele><time>2026-05-01T10:33:50.344Z</time></trkpt><trkpt lat="39.8134737" lon="9.2103062"><ele>375.0</ele><time>2026-05-01T10:33:51.341Z</time></trkpt><trkpt lat="39.8135622" lon="9.21028"><ele>375.0</ele><time>2026-05-01T10:33:52.344Z</time></trkpt><trkpt lat="39.813646" lon="9.2102597"><ele>375.0</ele><time>2026-05-01T10:33:53.342Z</time></trkpt><trkpt lat="39.8137185" lon="9.2102473"><ele>375.0</ele><time>2026-05-01T10:33:54.342Z</time></trkpt><trkpt lat="39.8138038" lon="9.210243"><ele>371.6</ele><time>2026-05-01T10:33:56.342Z</time></trkpt><trkpt lat="39.813894" lon="9.2102378"><ele>368.2</ele><time>2026-05-01T10:33:59.343Z</time></trkpt><trkpt lat="39.813991" lon="9.210197"><ele>364.79999999999995</ele><time>2026-05-01T10:34:02.343Z</time></trkpt><trkpt lat="39.8140817" lon="9.2100882"><ele>361.4</ele><time>2026-05-01T10:34:04.342Z</time></trkpt><trkpt lat="39.8141267" lon="9.2100238"><ele>358.0</ele><time>2026-05-01T10:34:05.34Z</time></trkpt><trkpt lat="39.8141918" lon="9.2098893"><ele>359.66666666666663</ele><time>2026-05-01T10:34:07.342Z</time></trkpt><trkpt lat="39.8142297" lon="9.2097467"><ele>361.3333333333333</ele><time>2026-05-01T10:34:09.346Z</time></trkpt><trkpt lat="39.8142418" lon="9.2096458"><ele>363.0</ele><time>2026-05-01T10:34:11.339Z</time></trkpt><trkpt lat="39.8143142" lon="9.209615"><ele>364.6666666666667</ele><time>2026-05-01T10:34:14.343Z</time></trkpt><trkpt lat="39.8143697" lon="9.2096625"><ele>366.33333333333337</ele><time>2026-05-01T10:34:31.342Z</time></trkpt><trkpt lat="39.81444" lon="9.209658"><ele>368.0</ele><time>2026-05-01T10:34:56.342Z</time></trkpt><trkpt lat="39.8144698" lon="9.2095623"><ele>368.0</ele><time>2026-05-01T10:40:28.341Z</time></trkpt><trkpt lat="39.814457" lon="9.2094458"><ele>368.0</ele><time>2026-05-01T10:40:30.342Z</time></trkpt><trkpt lat="39.8144925" lon="9.2092787"><ele>368.0</ele><time>2026-05-01T10:40:32.343Z</time></trkpt><trkpt lat="39.8145338" lon="9.209196"><ele>368.0</ele><time>2026-05-01T10:40:33.342Z</time></trkpt><trkpt lat="39.8145695" lon="9.209122"><ele>368.0</ele><time>2026-05-01T10:40:34.344Z</time></trkpt><trkpt lat="39.8146503" lon="9.2090335"><ele>368.0</ele><time>2026-05-01T10:40:36.341Z</time></trkpt><trkpt lat="39.8147365" lon="9.2089522"><ele>368.0</ele><time>2026-05-01T10:40:38.342Z</time></trkpt><trkpt lat="39.8147252" lon="9.2090405"><ele>368.0</ele><time>2026-05-01T10:43:03.349Z</time></trkpt><trkpt lat="39.814674" lon="9.2091063"><ele>368.0</ele><time>2026-05-01T10:43:10.353Z</time></trkpt><trkpt lat="39.8147301" lon="9.2090473"><ele>368.0</ele><time>2026-05-01T10:46:08.391Z</time></trkpt><trkpt lat="39.8147838" lon="9.2089919"><ele>368.0</ele><time>2026-05-01T10:46:16.34Z</time></trkpt><trkpt lat="39.8148032" lon="9.2089014"><ele>370.6666666666667</ele><time>2026-05-01T10:48:06.34Z</time></trkpt><trkpt lat="39.8148292" lon="9.2088145"><ele>373.33333333333337</ele><time>2026-05-01T10:48:08.34Z</time></trkpt><trkpt lat="39.8148566" lon="9.2087054"><ele>376.0</ele><time>2026-05-01T10:48:10.343Z</time></trkpt><trkpt lat="39.814905" lon="9.2086134"><ele>378.6666666666667</ele><time>2026-05-01T10:48:12.341Z</time></trkpt><trkpt lat="39.8149656" lon="9.208509"><ele>381.3333333333333</ele><time>2026-05-01T10:48:14.339Z</time></trkpt><trkpt lat="39.8150248" lon="9.2084521"><ele>384.0</ele><time>2026-05-01T10:48:24.34Z</time></trkpt><trkpt lat="39.8151134" lon="9.2084311"><ele>384.0</ele><time>2026-05-01T10:48:26.342Z</time></trkpt><trkpt lat="39.8151714" lon="9.2083922"><ele>384.0</ele><time>2026-05-01T10:48:27.338Z</time></trkpt><trkpt lat="39.8152636" lon="9.2083396"><ele>384.0</ele><time>2026-05-01T10:48:29.34Z</time></trkpt><trkpt lat="39.8153249" lon="9.2083054"><ele>384.0</ele><time>2026-05-01T10:48:31.341Z</time></trkpt><trkpt lat="39.8153921" lon="9.2082358"><ele>384.0</ele><time>2026-05-01T10:48:34.34Z</time></trkpt><trkpt lat="39.8154586" lon="9.2081695"><ele>384.0</ele><time>2026-05-01T10:48:36.341Z</time></trkpt><trkpt lat="39.8155625" lon="9.208089"><ele>385.3333333333333</ele><time>2026-05-01T10:48:38.341Z</time></trkpt><trkpt lat="39.8156429" lon="9.2080117"><ele>386.66666666666663</ele><time>2026-05-01T10:48:40.34Z</time></trkpt><trkpt lat="39.8156989" lon="9.2079241"><ele>388.0</ele><time>2026-05-01T10:48:42.339Z</time></trkpt><trkpt lat="39.8157632" lon="9.2079188"><ele>389.3333333333333</ele><time>2026-05-01T10:48:47.341Z</time></trkpt><trkpt lat="39.8158334" lon="9.2078796"><ele>390.66666666666663</ele><time>2026-05-01T10:56:12.339Z</time></trkpt><trkpt lat="39.815924" lon="9.2078639"><ele>392.0</ele><time>2026-05-01T10:56:14.341Z</time></trkpt><trkpt lat="39.8160384" lon="9.2078318"><ele>391.99999999999994</ele><time>2026-05-01T10:56:16.346Z</time></trkpt><trkpt lat="39.8161077" lon="9.2078093"><ele>392.0</ele><time>2026-05-01T10:56:17.339Z</time></trkpt><trkpt lat="39.8161862" lon="9.2077777"><ele>392.0</ele><time>2026-05-01T10:56:18.339Z</time></trkpt><trkpt lat="39.8162701" lon="9.2077479"><ele>392.0</ele><time>2026-05-01T10:56:19.34Z</time></trkpt><trkpt lat="39.8163577" lon="9.207714"><ele>391.99999999999994</ele><time>2026-05-01T10:56:20.341Z</time></trkpt><trkpt lat="39.8164426" lon="9.20767"><ele>392.0</ele><time>2026-05-01T10:56:21.34Z</time></trkpt><trkpt lat="39.8165235" lon="9.2076092"><ele>392.0</ele><time>2026-05-01T10:56:22.34Z</time></trkpt><trkpt lat="39.8165998" lon="9.2075327"><ele>392.0</ele><time>2026-05-01T10:56:23.341Z</time></trkpt><trkpt lat="39.8166724" lon="9.2074403"><ele>392.0</ele><time>2026-05-01T10:56:24.341Z</time></trkpt><trkpt lat="39.8167408" lon="9.207338"><ele>392.0</ele><time>2026-05-01T10:56:25.339Z</time></trkpt><trkpt lat="39.8168097" lon="9.2072311"><ele>392.0</ele><time>2026-05-01T10:56:26.341Z</time></trkpt><trkpt lat="39.8168826" lon="9.2071334"><ele>395.40000000000003</ele><time>2026-05-01T10:56:27.34Z</time></trkpt><trkpt lat="39.816962" lon="9.2070561"><ele>398.8</ele><time>2026-05-01T10:56:28.34Z</time></trkpt><trkpt lat="39.8170504" lon="9.207005"><ele>402.2</ele><time>2026-05-01T10:56:29.342Z</time></trkpt><trkpt lat="39.8171518" lon="9.2069912"><ele>405.6</ele><time>2026-05-01T10:56:30.34Z</time></trkpt><trkpt lat="39.8172609" lon="9.2070267"><ele>409.0</ele><time>2026-05-01T10:56:31.346Z</time></trkpt><trkpt lat="39.817372" lon="9.2070981"><ele>409.0</ele><time>2026-05-01T10:56:32.338Z</time></trkpt><trkpt lat="39.8174813" lon="9.2071748"><ele>409.0</ele><time>2026-05-01T10:56:33.338Z</time></trkpt><trkpt lat="39.8175988" lon="9.2072353"><ele>409.0</ele><time>2026-05-01T10:56:34.342Z</time></trkpt><trkpt lat="39.8177257" lon="9.2072684"><ele>409.0</ele><time>2026-05-01T10:56:35.342Z</time></trkpt><trkpt lat="39.8178566" lon="9.2072807"><ele>407.25</ele><time>2026-05-01T10:56:36.341Z</time></trkpt><trkpt lat="39.8179893" lon="9.2072687"><ele>405.5</ele><time>2026-05-01T10:56:37.345Z</time></trkpt><trkpt lat="39.8181208" lon="9.2072354"><ele>403.75</ele><time>2026-05-01T10:56:38.344Z</time></trkpt><trkpt lat="39.81825" lon="9.2071935"><ele>402.0</ele><time>2026-05-01T10:56:39.34Z</time></trkpt><trkpt lat="39.818378" lon="9.2071533"><ele>404.0</ele><time>2026-05-01T10:56:40.341Z</time></trkpt><trkpt lat="39.8185094" lon="9.2071264"><ele>406.0</ele><time>2026-05-01T10:56:41.34Z</time></trkpt><trkpt lat="39.8186387" lon="9.2071335"><ele>408.0</ele><time>2026-05-01T10:56:42.34Z</time></trkpt><trkpt lat="39.8187617" lon="9.2071739"><ele>410.0</ele><time>2026-05-01T10:56:43.341Z</time></trkpt><trkpt lat="39.8188806" lon="9.2072588"><ele>396.0</ele><time>2026-05-01T10:56:44.338Z</time></trkpt><trkpt lat="39.818996" lon="9.2073778"><ele>382.0</ele><time>2026-05-01T10:56:45.345Z</time></trkpt><trkpt lat="39.8191104" lon="9.2075065"><ele>368.0</ele><time>2026-05-01T10:56:46.337Z</time></trkpt><trkpt lat="39.8192277" lon="9.2076314"><ele>369.0</ele><time>2026-05-01T10:56:47.342Z</time></trkpt><trkpt lat="39.8193492" lon="9.2077364"><ele>370.0</ele><time>2026-05-01T10:56:48.338Z</time></trkpt><trkpt lat="39.819485" lon="9.2078181"><ele>371.0</ele><time>2026-05-01T10:56:49.34Z</time></trkpt><trkpt lat="39.8196334" lon="9.2078799"><ele>371.0</ele><time>2026-05-01T10:56:50.341Z</time></trkpt><trkpt lat="39.8197831" lon="9.207947"><ele>371.0</ele><time>2026-05-01T10:56:51.344Z</time></trkpt><trkpt lat="39.8199231" lon="9.2080009"><ele>371.0</ele><time>2026-05-01T10:56:52.339Z</time></trkpt><trkpt lat="39.8200675" lon="9.208025"><ele>368.20000000000005</ele><time>2026-05-01T10:56:53.339Z</time></trkpt><trkpt lat="39.8202102" lon="9.2080265"><ele>365.40000000000003</ele><time>2026-05-01T10:56:54.339Z</time></trkpt><trkpt lat="39.8203275" lon="9.2080217"><ele>362.6</ele><time>2026-05-01T10:56:55.34Z</time></trkpt><trkpt lat="39.8204314" lon="9.2080202"><ele>359.8</ele><time>2026-05-01T10:56:56.34Z</time></trkpt><trkpt lat="39.8205125" lon="9.2080547"><ele>357.0</ele><time>2026-05-01T10:56:57.34Z</time></trkpt><trkpt lat="39.8205847" lon="9.2081365"><ele>352.40000000000003</ele><time>2026-05-01T10:56:58.348Z</time></trkpt><trkpt lat="39.820636" lon="9.208255"><ele>347.8</ele><time>2026-05-01T10:56:59.339Z</time></trkpt><trkpt lat="39.8206888" lon="9.2083669"><ele>343.2</ele><time>2026-05-01T10:57:00.34Z</time></trkpt><trkpt lat="39.8207665" lon="9.208443"><ele>338.6</ele><time>2026-05-01T10:57:01.34Z</time></trkpt><trkpt lat="39.8208746" lon="9.2084648"><ele>334.0</ele><time>2026-05-01T10:57:02.343Z</time></trkpt><trkpt lat="39.8209853" lon="9.2084687"><ele>329.4</ele><time>2026-05-01T10:57:03.341Z</time></trkpt><trkpt lat="39.8210921" lon="9.2084557"><ele>324.79999999999995</ele><time>2026-05-01T10:57:04.34Z</time></trkpt><trkpt lat="39.8212005" lon="9.2084374"><ele>320.20000000000005</ele><time>2026-05-01T10:57:05.346Z</time></trkpt><trkpt lat="39.8213097" lon="9.2084199"><ele>315.6</ele><time>2026-05-01T10:57:06.341Z</time></trkpt><trkpt lat="39.8214142" lon="9.2084015"><ele>311.0</ele><time>2026-05-01T10:57:07.339Z</time></trkpt><trkpt lat="39.8215167" lon="9.2083847"><ele>311.0</ele><time>2026-05-01T10:57:08.34Z</time></trkpt><trkpt lat="39.8216167" lon="9.2083725"><ele>311.0</ele><time>2026-05-01T10:57:09.337Z</time></trkpt><trkpt lat="39.8217115" lon="9.2083547"><ele>311.0</ele><time>2026-05-01T10:57:10.348Z</time></trkpt><trkpt lat="39.8218018" lon="9.208335"><ele>311.0</ele><time>2026-05-01T10:57:11.34Z</time></trkpt><trkpt lat="39.821897" lon="9.208318"><ele>311.0</ele><time>2026-05-01T10:57:12.339Z</time></trkpt><trkpt lat="39.821998" lon="9.2083013"><ele>306.2</ele><time>2026-05-01T10:57:13.339Z</time></trkpt><trkpt lat="39.8221023" lon="9.2082828"><ele>301.40000000000003</ele><time>2026-05-01T10:57:14.338Z</time></trkpt><trkpt lat="39.8222137" lon="9.2082697"><ele>296.6</ele><time>2026-05-01T10:57:15.339Z</time></trkpt><trkpt lat="39.8223243" lon="9.2082505"><ele>291.8</ele><time>2026-05-01T10:57:16.34Z</time></trkpt><trkpt lat="39.8224378" lon="9.2082387"><ele>287.0</ele><time>2026-05-01T10:57:17.342Z</time></trkpt><trkpt lat="39.8225513" lon="9.2082262"><ele>291.8</ele><time>2026-05-01T10:57:18.34Z</time></trkpt><trkpt lat="39.8226603" lon="9.2082095"><ele>296.6</ele><time>2026-05-01T10:57:19.341Z</time></trkpt><trkpt lat="39.8227673" lon="9.2081945"><ele>301.40000000000003</ele><time>2026-05-01T10:57:20.339Z</time></trkpt><trkpt lat="39.8228758" lon="9.2081848"><ele>306.2</ele><time>2026-05-01T10:57:21.337Z</time></trkpt><trkpt lat="39.8229863" lon="9.2081737"><ele>311.0</ele><time>2026-05-01T10:57:22.338Z</time></trkpt><trkpt lat="39.8230965" lon="9.2081603"><ele>309.6</ele><time>2026-05-01T10:57:23.339Z</time></trkpt><trkpt lat="39.8232042" lon="9.2081483"><ele>308.20000000000005</ele><time>2026-05-01T10:57:24.338Z</time></trkpt><trkpt lat="39.8233062" lon="9.2081377"><ele>306.79999999999995</ele><time>2026-05-01T10:57:25.338Z</time></trkpt><trkpt lat="39.8234052" lon="9.2081222"><ele>305.4</ele><time>2026-05-01T10:57:26.341Z</time></trkpt><trkpt lat="39.8235008" lon="9.2081007"><ele>304.0</ele><time>2026-05-01T10:57:27.341Z</time></trkpt><trkpt lat="39.823594" lon="9.2080817"><ele>310.3333333333333</ele><time>2026-05-01T10:57:28.339Z</time></trkpt><trkpt lat="39.823685" lon="9.2080677"><ele>316.66666666666663</ele><time>2026-05-01T10:57:29.339Z</time></trkpt><trkpt lat="39.8237737" lon="9.2080525"><ele>323.0</ele><time>2026-05-01T10:57:30.34Z</time></trkpt><trkpt lat="39.8238558" lon="9.2080232"><ele>329.3333333333333</ele><time>2026-05-01T10:57:31.338Z</time></trkpt><trkpt lat="39.8239287" lon="9.2079722"><ele>335.6666666666667</ele><time>2026-05-01T10:57:32.339Z</time></trkpt><trkpt lat="39.8239743" lon="9.2078717"><ele>342.0</ele><time>2026-05-01T10:57:33.338Z</time></trkpt><trkpt lat="39.8240118" lon="9.2077613"><ele>342.0</ele><time>2026-05-01T10:57:34.339Z</time></trkpt><trkpt lat="39.8240455" lon="9.2076455"><ele>342.0</ele><time>2026-05-01T10:57:35.338Z</time></trkpt><trkpt lat="39.8240792" lon="9.2075295"><ele>342.0</ele><time>2026-05-01T10:57:36.338Z</time></trkpt><trkpt lat="39.8241187" lon="9.2074202"><ele>342.0</ele><time>2026-05-01T10:57:37.34Z</time></trkpt><trkpt lat="39.8241695" lon="9.2073262"><ele>342.0</ele><time>2026-05-01T10:57:38.339Z</time></trkpt><trkpt lat="39.8242197" lon="9.207241"><ele>339.8333333333333</ele><time>2026-05-01T10:57:39.338Z</time></trkpt><trkpt lat="39.8242635" lon="9.2071685"><ele>337.6666666666667</ele><time>2026-05-01T10:57:40.337Z</time></trkpt><trkpt lat="39.824323" lon="9.2070515"><ele>335.5</ele><time>2026-05-01T10:57:42.34Z</time></trkpt><trkpt lat="39.8243323" lon="9.2069647"><ele>333.33333333333337</ele><time>2026-05-01T10:58:04.343Z</time></trkpt><trkpt lat="39.8243608" lon="9.2068517"><ele>331.1666666666667</ele><time>2026-05-01T10:58:07.338Z</time></trkpt><trkpt lat="39.824402" lon="9.206721"><ele>329.0</ele><time>2026-05-01T10:58:09.338Z</time></trkpt><trkpt lat="39.8243928" lon="9.2065577"><ele>329.0</ele><time>2026-05-01T10:58:11.338Z</time></trkpt><trkpt lat="39.8243355" lon="9.206444"><ele>329.0</ele><time>2026-05-01T10:58:13.337Z</time></trkpt><trkpt lat="39.824263" lon="9.2064318"><ele>329.0</ele><time>2026-05-01T10:58:15.341Z</time></trkpt><trkpt lat="39.8242187" lon="9.2065283"><ele>329.0</ele><time>2026-05-01T10:58:17.34Z</time></trkpt><trkpt lat="39.8241772" lon="9.2066862"><ele>329.0</ele><time>2026-05-01T10:58:19.341Z</time></trkpt><trkpt lat="39.8241333" lon="9.2067698"><ele>329.0</ele><time>2026-05-01T10:58:20.337Z</time></trkpt><trkpt lat="39.8240808" lon="9.206851"><ele>329.0</ele><time>2026-05-01T10:58:21.339Z</time></trkpt><trkpt lat="39.8240212" lon="9.2069172"><ele>329.0</ele><time>2026-05-01T10:58:22.336Z</time></trkpt><trkpt lat="39.8239502" lon="9.2069657"><ele>329.0</ele><time>2026-05-01T10:58:23.337Z</time></trkpt><trkpt lat="39.8238883" lon="9.2070165"><ele>329.0</ele><time>2026-05-01T10:58:24.338Z</time></trkpt><trkpt lat="39.8238307" lon="9.2070818"><ele>329.0</ele><time>2026-05-01T10:58:25.336Z</time></trkpt><trkpt lat="39.8237743" lon="9.2071673"><ele>329.0</ele><time>2026-05-01T10:58:26.338Z</time></trkpt><trkpt lat="39.8237182" lon="9.2072672"><ele>329.0</ele><time>2026-05-01T10:58:27.336Z</time></trkpt><trkpt lat="39.823654" lon="9.2073768"><ele>329.0</ele><time>2026-05-01T10:58:28.337Z</time></trkpt><trkpt lat="39.823598" lon="9.2074862"><ele>329.0</ele><time>2026-05-01T10:58:29.338Z</time></trkpt><trkpt lat="39.8235508" lon="9.2075912"><ele>329.0</ele><time>2026-05-01T10:58:30.335Z</time></trkpt><trkpt lat="39.8235102" lon="9.2076942"><ele>326.0</ele><time>2026-05-01T10:58:31.336Z</time></trkpt><trkpt lat="39.8234787" lon="9.2077933"><ele>323.0</ele><time>2026-05-01T10:58:32.338Z</time></trkpt><trkpt lat="39.8234525" lon="9.2078898"><ele>320.0</ele><time>2026-05-01T10:58:33.337Z</time></trkpt><trkpt lat="39.8234187" lon="9.2079748"><ele>317.0</ele><time>2026-05-01T10:58:34.337Z</time></trkpt><trkpt lat="39.8233855" lon="9.2080485"><ele>314.0</ele><time>2026-05-01T10:58:35.338Z</time></trkpt><trkpt lat="39.8232993" lon="9.2081393"><ele>311.0</ele><time>2026-05-01T10:58:37.338Z</time></trkpt><trkpt lat="39.8232313" lon="9.2082158"><ele>311.0</ele><time>2026-05-01T10:58:39.338Z</time></trkpt><trkpt lat="39.8231653" lon="9.208315"><ele>311.0</ele><time>2026-05-01T10:58:41.336Z</time></trkpt><trkpt lat="39.8231178" lon="9.2084265"><ele>311.0</ele><time>2026-05-01T10:58:43.338Z</time></trkpt><trkpt lat="39.823084" lon="9.2085348"><ele>311.0</ele><time>2026-05-01T10:58:45.338Z</time></trkpt><trkpt lat="39.8230208" lon="9.2086265"><ele>311.0</ele><time>2026-05-01T10:58:47.339Z</time></trkpt><trkpt lat="39.8229345" lon="9.2087178"><ele>311.0</ele><time>2026-05-01T10:58:49.337Z</time></trkpt><trkpt lat="39.8228838" lon="9.2088257"><ele>311.0</ele><time>2026-05-01T10:58:51.339Z</time></trkpt><trkpt lat="39.8228673" lon="9.2089277"><ele>311.0</ele><time>2026-05-01T10:58:53.339Z</time></trkpt><trkpt lat="39.8228517" lon="9.2090118"><ele>311.0</ele><time>2026-05-01T10:58:55.34Z</time></trkpt><trkpt lat="39.8228282" lon="9.2091047"><ele>311.0</ele><time>2026-05-01T10:59:04.338Z</time></trkpt><trkpt lat="39.82275" lon="9.2091632"><ele>311.0</ele><time>2026-05-01T10:59:07.338Z</time></trkpt><trkpt lat="39.8226797" lon="9.2091667"><ele>311.1666666666667</ele><time>2026-05-01T10:59:11.34Z</time></trkpt><trkpt lat="39.8226513" lon="9.2092437"><ele>311.33333333333337</ele><time>2026-05-01T10:59:17.34Z</time></trkpt><trkpt lat="39.8226003" lon="9.2093452"><ele>311.5</ele><time>2026-05-01T10:59:20.337Z</time></trkpt><trkpt lat="39.822538" lon="9.2093855"><ele>311.6666666666667</ele><time>2026-05-01T10:59:32.337Z</time></trkpt><trkpt lat="39.8225747" lon="9.2094585"><ele>311.8333333333333</ele><time>2026-05-01T10:59:38.338Z</time></trkpt><trkpt lat="39.8226547" lon="9.2094667"><ele>312.0</ele><time>2026-05-01T10:59:40.343Z</time></trkpt><trkpt lat="39.8227562" lon="9.2095058"><ele>312.0</ele><time>2026-05-01T10:59:42.336Z</time></trkpt><trkpt lat="39.8228292" lon="9.2095498"><ele>312.0</ele><time>2026-05-01T10:59:44.336Z</time></trkpt><trkpt lat="39.8227613" lon="9.20952"><ele>312.0</ele><time>2026-05-01T11:00:07.342Z</time></trkpt><trkpt lat="39.822686" lon="9.209508"><ele>312.0</ele><time>2026-05-01T11:00:12.357Z</time></trkpt><trkpt lat="39.822627" lon="9.2094648"><ele>312.0</ele><time>2026-05-01T11:00:18.349Z</time></trkpt><trkpt lat="39.8225755" lon="9.2094112"><ele>312.0</ele><time>2026-05-01T11:00:23.418Z</time></trkpt><trkpt lat="39.8225122" lon="9.2093982"><ele>312.0</ele><time>2026-05-01T11:00:37.353Z</time></trkpt><trkpt lat="39.822584" lon="9.2093733"><ele>308.2857142857143</ele><time>2026-05-01T11:02:25.345Z</time></trkpt><trkpt lat="39.8225112" lon="9.2093597"><ele>304.57142857142856</ele><time>2026-05-01T11:03:02.332Z</time></trkpt><trkpt lat="39.8224445" lon="9.2093895"><ele>300.85714285714283</ele><time>2026-05-01T11:03:08.335Z</time></trkpt><trkpt lat="39.8224484" lon="9.2094853"><ele>297.1428571428571</ele><time>2026-05-01T11:03:55.332Z</time></trkpt><trkpt lat="39.8224637" lon="9.2093995"><ele>293.42857142857144</ele><time>2026-05-01T11:04:50.367Z</time></trkpt><trkpt lat="39.8225181" lon="9.2094438"><ele>289.71428571428567</ele><time>2026-05-01T11:05:30.345Z</time></trkpt><trkpt lat="39.8225693" lon="9.2093942"><ele>286.0</ele><time>2026-05-01T11:05:51.343Z</time></trkpt><trkpt lat="39.8225642" lon="9.2093118"><ele>286.0</ele><time>2026-05-01T11:06:52.337Z</time></trkpt><trkpt lat="39.8225151" lon="9.2093783"><ele>286.0</ele><time>2026-05-01T11:08:17.367Z</time></trkpt><trkpt lat="39.8225405" lon="9.2094645"><ele>286.0</ele><time>2026-05-01T11:08:20.369Z</time></trkpt><trkpt lat="39.8226601" lon="9.2095209"><ele>286.0</ele><time>2026-05-01T11:08:22.353Z</time></trkpt><trkpt lat="39.8227307" lon="9.2095089"><ele>286.0</ele><time>2026-05-01T11:08:23.349Z</time></trkpt><trkpt lat="39.8228319" lon="9.2095151"><ele>286.0</ele><time>2026-05-01T11:08:25.342Z</time></trkpt><trkpt lat="39.8227628" lon="9.2095182"><ele>285.99999999999994</ele><time>2026-05-01T11:08:38.343Z</time></trkpt><trkpt lat="39.8226953" lon="9.2094992"><ele>286.0</ele><time>2026-05-01T11:09:57.337Z</time></trkpt><trkpt lat="39.8226391" lon="9.2094604"><ele>286.0</ele><time>2026-05-01T11:10:02.345Z</time></trkpt><trkpt lat="39.8225715" lon="9.2093635"><ele>286.0</ele><time>2026-05-01T11:11:09.344Z</time></trkpt><trkpt lat="39.8226044" lon="9.2094371"><ele>286.0</ele><time>2026-05-01T11:11:17.337Z</time></trkpt><trkpt lat="39.8226751" lon="9.2094466"><ele>285.99999999999994</ele><time>2026-05-01T11:11:31.335Z</time></trkpt><trkpt lat="39.8227315" lon="9.2094859"><ele>286.0</ele><time>2026-05-01T11:11:38.335Z</time></trkpt><trkpt lat="39.8227981" lon="9.2095002"><ele>289.66666666666663</ele><time>2026-05-01T11:12:56.334Z</time></trkpt><trkpt lat="39.8228647" lon="9.2095289"><ele>293.3333333333333</ele><time>2026-05-01T11:14:21.337Z</time></trkpt><trkpt lat="39.8229522" lon="9.2095753"><ele>297.0</ele><time>2026-05-01T11:14:23.34Z</time></trkpt><trkpt lat="39.8230153" lon="9.2096159"><ele>300.6666666666667</ele><time>2026-05-01T11:14:24.335Z</time></trkpt><trkpt lat="39.8230813" lon="9.2096656"><ele>304.33333333333337</ele><time>2026-05-01T11:14:25.336Z</time></trkpt><trkpt lat="39.8231328" lon="9.2097427"><ele>308.0</ele><time>2026-05-01T11:14:26.333Z</time></trkpt><trkpt lat="39.8231623" lon="9.2098398"><ele>308.0</ele><time>2026-05-01T11:14:27.334Z</time></trkpt><trkpt lat="39.8231887" lon="9.209952"><ele>308.0</ele><time>2026-05-01T11:14:28.335Z</time></trkpt><trkpt lat="39.8232088" lon="9.2100623"><ele>308.0</ele><time>2026-05-01T11:14:29.336Z</time></trkpt><trkpt lat="39.8232287" lon="9.2101762"><ele>308.0</ele><time>2026-05-01T11:14:30.333Z</time></trkpt><trkpt lat="39.8232537" lon="9.210294"><ele>308.0</ele><time>2026-05-01T11:14:31.333Z</time></trkpt><trkpt lat="39.8232815" lon="9.2104187"><ele>308.0</ele><time>2026-05-01T11:14:32.335Z</time></trkpt><trkpt lat="39.8233153" lon="9.2105488"><ele>308.0</ele><time>2026-05-01T11:14:33.334Z</time></trkpt><trkpt lat="39.8233367" lon="9.210679"><ele>308.0</ele><time>2026-05-01T11:14:34.335Z</time></trkpt><trkpt lat="39.823348" lon="9.210798"><ele>308.0</ele><time>2026-05-01T11:14:35.337Z</time></trkpt><trkpt lat="39.823355" lon="9.2109112"><ele>308.0</ele><time>2026-05-01T11:14:36.338Z</time></trkpt><trkpt lat="39.82337" lon="9.2110162"><ele>310.0</ele><time>2026-05-01T11:14:37.335Z</time></trkpt><trkpt lat="39.823388" lon="9.2111138"><ele>312.0</ele><time>2026-05-01T11:14:38.336Z</time></trkpt><trkpt lat="39.8234192" lon="9.2112068"><ele>314.0</ele><time>2026-05-01T11:14:39.333Z</time></trkpt><trkpt lat="39.8234513" lon="9.2113117"><ele>316.0</ele><time>2026-05-01T11:14:40.333Z</time></trkpt><trkpt lat="39.8234917" lon="9.2114187"><ele>318.0</ele><time>2026-05-01T11:14:41.334Z</time></trkpt><trkpt lat="39.8235247" lon="9.2115213"><ele>320.0</ele><time>2026-05-01T11:14:42.333Z</time></trkpt><trkpt lat="39.8235522" lon="9.211616"><ele>320.1666666666667</ele><time>2026-05-01T11:14:43.332Z</time></trkpt><trkpt lat="39.8235757" lon="9.2117028"><ele>320.33333333333337</ele><time>2026-05-01T11:14:44.332Z</time></trkpt><trkpt lat="39.823582" lon="9.2118625"><ele>320.5</ele><time>2026-05-01T11:14:46.335Z</time></trkpt><trkpt lat="39.8235653" lon="9.2119617"><ele>320.6666666666667</ele><time>2026-05-01T11:14:47.333Z</time></trkpt><trkpt lat="39.8235493" lon="9.2120713"><ele>320.8333333333333</ele><time>2026-05-01T11:14:48.335Z</time></trkpt><trkpt lat="39.8235352" lon="9.2121762"><ele>321.0</ele><time>2026-05-01T11:14:49.335Z</time></trkpt><trkpt lat="39.823524" lon="9.2122647"><ele>320.40000000000003</ele><time>2026-05-01T11:14:50.334Z</time></trkpt><trkpt lat="39.8235092" lon="9.212375"><ele>319.8</ele><time>2026-05-01T11:14:52.334Z</time></trkpt><trkpt lat="39.8234318" lon="9.2123408"><ele>319.20000000000005</ele><time>2026-05-01T11:14:55.333Z</time></trkpt><trkpt lat="39.82341" lon="9.2122068"><ele>318.6</ele><time>2026-05-01T11:14:57.333Z</time></trkpt><trkpt lat="39.8233847" lon="9.2120422"><ele>318.0</ele><time>2026-05-01T11:14:59.34Z</time></trkpt><trkpt lat="39.8233488" lon="9.2119587"><ele>320.8333333333333</ele><time>2026-05-01T11:15:00.334Z</time></trkpt><trkpt lat="39.8233088" lon="9.2118802"><ele>323.6666666666667</ele><time>2026-05-01T11:15:01.336Z</time></trkpt><trkpt lat="39.8232692" lon="9.2117962"><ele>326.5</ele><time>2026-05-01T11:15:02.337Z</time></trkpt><trkpt lat="39.8232248" lon="9.2117288"><ele>329.33333333333337</ele><time>2026-05-01T11:15:03.336Z</time></trkpt><trkpt lat="39.8231715" lon="9.2116817"><ele>332.1666666666667</ele><time>2026-05-01T11:15:04.334Z</time></trkpt><trkpt lat="39.823061" lon="9.2116552"><ele>335.0</ele><time>2026-05-01T11:15:06.334Z</time></trkpt><trkpt lat="39.8229325" lon="9.2116685"><ele>335.0</ele><time>2026-05-01T11:15:08.336Z</time></trkpt><trkpt lat="39.8228062" lon="9.2116562"><ele>335.0</ele><time>2026-05-01T11:15:10.332Z</time></trkpt><trkpt lat="39.8227448" lon="9.2116188"><ele>335.0</ele><time>2026-05-01T11:15:11.335Z</time></trkpt><trkpt lat="39.8226843" lon="9.2115125"><ele>335.0</ele><time>2026-05-01T11:15:13.334Z</time></trkpt><trkpt lat="39.8226153" lon="9.2115762"><ele>335.0</ele><time>2026-05-01T11:15:16.334Z</time></trkpt><trkpt lat="39.8226025" lon="9.2116627"><ele>335.0</ele><time>2026-05-01T11:15:17.332Z</time></trkpt><trkpt lat="39.822596" lon="9.2117592"><ele>336.83333333333337</ele><time>2026-05-01T11:15:18.332Z</time></trkpt><trkpt lat="39.8225928" lon="9.2118612"><ele>338.6666666666667</ele><time>2026-05-01T11:15:19.343Z</time></trkpt><trkpt lat="39.8225823" lon="9.2119613"><ele>340.5</ele><time>2026-05-01T11:15:20.332Z</time></trkpt><trkpt lat="39.8225865" lon="9.2120613"><ele>342.3333333333333</ele><time>2026-05-01T11:15:21.332Z</time></trkpt><trkpt lat="39.8226048" lon="9.2121755"><ele>344.16666666666663</ele><time>2026-05-01T11:15:22.331Z</time></trkpt><trkpt lat="39.8226302" lon="9.2122963"><ele>346.0</ele><time>2026-05-01T11:15:23.332Z</time></trkpt><trkpt lat="39.8226483" lon="9.2124147"><ele>346.0</ele><time>2026-05-01T11:15:24.333Z</time></trkpt><trkpt lat="39.8226553" lon="9.2125348"><ele>346.0</ele><time>2026-05-01T11:15:25.332Z</time></trkpt><trkpt lat="39.8226557" lon="9.2126592"><ele>346.0</ele><time>2026-05-01T11:15:26.332Z</time></trkpt><trkpt lat="39.8226543" lon="9.212781"><ele>346.0</ele><time>2026-05-01T11:15:27.339Z</time></trkpt><trkpt lat="39.8226527" lon="9.2128987"><ele>346.0</ele><time>2026-05-01T11:15:28.338Z</time></trkpt><trkpt lat="39.8226527" lon="9.2129995"><ele>346.0</ele><time>2026-05-01T11:15:29.334Z</time></trkpt><trkpt lat="39.8226537" lon="9.2131353"><ele>347.5</ele><time>2026-05-01T11:15:31.334Z</time></trkpt><trkpt lat="39.822614" lon="9.2132057"><ele>349.0</ele><time>2026-05-01T11:15:33.333Z</time></trkpt><trkpt lat="39.82258" lon="9.2133158"><ele>350.5</ele><time>2026-05-01T11:16:11.337Z</time></trkpt><trkpt lat="39.8225908" lon="9.2134648"><ele>352.0</ele><time>2026-05-01T11:16:13.334Z</time></trkpt><trkpt lat="39.8226265" lon="9.2135513"><ele>353.5</ele><time>2026-05-01T11:16:14.336Z</time></trkpt><trkpt lat="39.822655" lon="9.2136493"><ele>355.0</ele><time>2026-05-01T11:16:15.335Z</time></trkpt><trkpt lat="39.8226782" lon="9.2137637"><ele>355.0</ele><time>2026-05-01T11:16:16.336Z</time></trkpt><trkpt lat="39.822681" lon="9.2138873"><ele>355.0</ele><time>2026-05-01T11:16:17.334Z</time></trkpt><trkpt lat="39.8226895" lon="9.2140068"><ele>355.0</ele><time>2026-05-01T11:16:18.338Z</time></trkpt><trkpt lat="39.8227153" lon="9.2141135"><ele>355.0</ele><time>2026-05-01T11:16:19.335Z</time></trkpt><trkpt lat="39.8227517" lon="9.2142087"><ele>355.0</ele><time>2026-05-01T11:16:20.335Z</time></trkpt><trkpt lat="39.8227855" lon="9.2143102"><ele>355.0</ele><time>2026-05-01T11:16:21.336Z</time></trkpt><trkpt lat="39.8228075" lon="9.2144155"><ele>357.66666666666663</ele><time>2026-05-01T11:16:22.334Z</time></trkpt><trkpt lat="39.8228147" lon="9.21453"><ele>360.3333333333333</ele><time>2026-05-01T11:16:23.333Z</time></trkpt><trkpt lat="39.82281" lon="9.2146405"><ele>363.0</ele><time>2026-05-01T11:16:24.332Z</time></trkpt><trkpt lat="39.8228012" lon="9.2147537"><ele>365.6666666666667</ele><time>2026-05-01T11:16:25.333Z</time></trkpt><trkpt lat="39.822797" lon="9.214862"><ele>368.33333333333337</ele><time>2026-05-01T11:16:26.333Z</time></trkpt><trkpt lat="39.8228062" lon="9.2149638"><ele>371.0</ele><time>2026-05-01T11:16:27.333Z</time></trkpt><trkpt lat="39.8228323" lon="9.2150388"><ele>376.6</ele><time>2026-05-01T11:16:28.332Z</time></trkpt><trkpt lat="39.8229288" lon="9.2151207"><ele>382.20000000000005</ele><time>2026-05-01T11:16:30.332Z</time></trkpt><trkpt lat="39.8230165" lon="9.2151275"><ele>387.79999999999995</ele><time>2026-05-01T11:16:31.333Z</time></trkpt><trkpt lat="39.8231057" lon="9.2151303"><ele>393.4</ele><time>2026-05-01T11:16:32.334Z</time></trkpt><trkpt lat="39.8231992" lon="9.215134"><ele>399.0</ele><time>2026-05-01T11:16:33.334Z</time></trkpt><trkpt lat="39.8232908" lon="9.2151545"><ele>399.0</ele><time>2026-05-01T11:16:34.348Z</time></trkpt><trkpt lat="39.8233857" lon="9.2151867"><ele>399.0</ele><time>2026-05-01T11:16:35.335Z</time></trkpt><trkpt lat="39.8234832" lon="9.2152157"><ele>399.0</ele><time>2026-05-01T11:16:36.335Z</time></trkpt><trkpt lat="39.8235872" lon="9.2152367"><ele>399.0</ele><time>2026-05-01T11:16:37.333Z</time></trkpt><trkpt lat="39.823692" lon="9.2152455"><ele>399.0</ele><time>2026-05-01T11:16:38.335Z</time></trkpt><trkpt lat="39.8237995" lon="9.2152443"><ele>398.0</ele><time>2026-05-01T11:16:39.336Z</time></trkpt><trkpt lat="39.8239033" lon="9.2152382"><ele>397.0</ele><time>2026-05-01T11:16:40.335Z</time></trkpt><trkpt lat="39.8240027" lon="9.2152283"><ele>396.0</ele><time>2026-05-01T11:16:41.336Z</time></trkpt><trkpt lat="39.8240932" lon="9.215227"><ele>395.0</ele><time>2026-05-01T11:16:42.335Z</time></trkpt><trkpt lat="39.8241732" lon="9.2152518"><ele>394.0</ele><time>2026-05-01T11:16:43.336Z</time></trkpt><trkpt lat="39.8242392" lon="9.2153052"><ele>394.0</ele><time>2026-05-01T11:16:44.35Z</time></trkpt><trkpt lat="39.8243002" lon="9.2153798"><ele>394.0</ele><time>2026-05-01T11:16:45.341Z</time></trkpt><trkpt lat="39.8243657" lon="9.2154613"><ele>394.0</ele><time>2026-05-01T11:16:46.336Z</time></trkpt><trkpt lat="39.824445" lon="9.2155138"><ele>394.0</ele><time>2026-05-01T11:16:47.336Z</time></trkpt><trkpt lat="39.8245412" lon="9.2155293"><ele>394.0</ele><time>2026-05-01T11:16:48.334Z</time></trkpt><trkpt lat="39.8246357" lon="9.2155247"><ele>391.1666666666667</ele><time>2026-05-01T11:16:49.333Z</time></trkpt><trkpt lat="39.8247243" lon="9.2155102"><ele>388.33333333333337</ele><time>2026-05-01T11:16:50.333Z</time></trkpt><trkpt lat="39.8248078" lon="9.2155088"><ele>385.5</ele><time>2026-05-01T11:16:51.337Z</time></trkpt><trkpt lat="39.8248812" lon="9.2155383"><ele>382.6666666666667</ele><time>2026-05-01T11:16:52.333Z</time></trkpt><trkpt lat="39.8249515" lon="9.2155972"><ele>379.83333333333337</ele><time>2026-05-01T11:16:53.336Z</time></trkpt><trkpt lat="39.8250192" lon="9.2156767"><ele>377.0</ele><time>2026-05-01T11:16:54.334Z</time></trkpt><trkpt lat="39.8250853" lon="9.2157612"><ele>379.20000000000005</ele><time>2026-05-01T11:16:55.338Z</time></trkpt><trkpt lat="39.8251575" lon="9.2158512"><ele>381.4</ele><time>2026-05-01T11:16:56.335Z</time></trkpt><trkpt lat="39.8252292" lon="9.2159458"><ele>383.6</ele><time>2026-05-01T11:16:57.334Z</time></trkpt><trkpt lat="39.8252948" lon="9.2160427"><ele>385.79999999999995</ele><time>2026-05-01T11:16:58.336Z</time></trkpt><trkpt lat="39.8253515" lon="9.2161462"><ele>388.0</ele><time>2026-05-01T11:16:59.343Z</time></trkpt><trkpt lat="39.8253912" lon="9.2162613"><ele>388.0</ele><time>2026-05-01T11:17:00.337Z</time></trkpt><trkpt lat="39.8254183" lon="9.2163873"><ele>388.0</ele><time>2026-05-01T11:17:01.336Z</time></trkpt><trkpt lat="39.8254447" lon="9.2165073"><ele>388.0</ele><time>2026-05-01T11:17:02.336Z</time></trkpt><trkpt lat="39.8254632" lon="9.2166297"><ele>388.0</ele><time>2026-05-01T11:17:03.336Z</time></trkpt><trkpt lat="39.8254733" lon="9.216753"><ele>388.0</ele><time>2026-05-01T11:17:04.333Z</time></trkpt><trkpt lat="39.8254778" lon="9.2168778"><ele>392.59999999999997</ele><time>2026-05-01T11:17:05.336Z</time></trkpt><trkpt lat="39.825481" lon="9.2170027"><ele>397.2</ele><time>2026-05-01T11:17:06.335Z</time></trkpt><trkpt lat="39.8255013" lon="9.217112"><ele>401.8</ele><time>2026-05-01T11:17:07.334Z</time></trkpt><trkpt lat="39.8255382" lon="9.2172112"><ele>406.4</ele><time>2026-05-01T11:17:08.335Z</time></trkpt><trkpt lat="39.8256042" lon="9.2172943"><ele>411.0</ele><time>2026-05-01T11:17:09.334Z</time></trkpt><trkpt lat="39.8256843" lon="9.21737"><ele>410.0</ele><time>2026-05-01T11:17:10.335Z</time></trkpt><trkpt lat="39.8257643" lon="9.217437"><ele>409.0</ele><time>2026-05-01T11:17:11.334Z</time></trkpt><trkpt lat="39.8258425" lon="9.2175127"><ele>408.0</ele><time>2026-05-01T11:17:12.337Z</time></trkpt><trkpt lat="39.8259195" lon="9.2175922"><ele>407.0</ele><time>2026-05-01T11:17:13.334Z</time></trkpt><trkpt lat="39.8259893" lon="9.2176762"><ele>406.0</ele><time>2026-05-01T11:17:14.338Z</time></trkpt><trkpt lat="39.8260602" lon="9.2177665"><ele>406.0</ele><time>2026-05-01T11:17:15.342Z</time></trkpt><trkpt lat="39.8261312" lon="9.217854"><ele>406.0</ele><time>2026-05-01T11:17:16.333Z</time></trkpt><trkpt lat="39.8262032" lon="9.217944"><ele>406.0</ele><time>2026-05-01T11:17:17.336Z</time></trkpt><trkpt lat="39.8262727" lon="9.2180398"><ele>406.0</ele><time>2026-05-01T11:17:18.333Z</time></trkpt><trkpt lat="39.8263383" lon="9.2181397"><ele>406.0</ele><time>2026-05-01T11:17:19.333Z</time></trkpt><trkpt lat="39.8263965" lon="9.2182428"><ele>409.8</ele><time>2026-05-01T11:17:20.334Z</time></trkpt><trkpt lat="39.8264443" lon="9.2183438"><ele>413.6</ele><time>2026-05-01T11:17:21.334Z</time></trkpt><trkpt lat="39.8264652" lon="9.2184505"><ele>417.4</ele><time>2026-05-01T11:17:22.335Z</time></trkpt><trkpt lat="39.8264617" lon="9.2185662"><ele>421.2</ele><time>2026-05-01T11:17:23.337Z</time></trkpt><trkpt lat="39.8264623" lon="9.2186922"><ele>425.0</ele><time>2026-05-01T11:17:24.334Z</time></trkpt><trkpt lat="39.8264783" lon="9.2188158"><ele>424.99999999999994</ele><time>2026-05-01T11:17:25.336Z</time></trkpt><trkpt lat="39.8264928" lon="9.2189222"><ele>425.0</ele><time>2026-05-01T11:17:26.335Z</time></trkpt><trkpt lat="39.8264988" lon="9.2190083"><ele>425.0</ele><time>2026-05-01T11:17:27.334Z</time></trkpt><trkpt lat="39.8264517" lon="9.2190843"><ele>425.0</ele><time>2026-05-01T11:17:29.334Z</time></trkpt><trkpt lat="39.8263593" lon="9.2190245"><ele>424.99999999999994</ele><time>2026-05-01T11:17:31.334Z</time></trkpt><trkpt lat="39.826329" lon="9.2189525"><ele>425.0</ele><time>2026-05-01T11:17:32.335Z</time></trkpt><trkpt lat="39.8262973" lon="9.2188572"><ele>424.99999999999994</ele><time>2026-05-01T11:17:33.334Z</time></trkpt><trkpt lat="39.8262658" lon="9.2187562"><ele>425.0</ele><time>2026-05-01T11:17:34.336Z</time></trkpt><trkpt lat="39.8262287" lon="9.2186515"><ele>425.0</ele><time>2026-05-01T11:17:35.336Z</time></trkpt><trkpt lat="39.8261912" lon="9.2185443"><ele>425.0</ele><time>2026-05-01T11:17:36.334Z</time></trkpt><trkpt lat="39.8261477" lon="9.2184353"><ele>424.99999999999994</ele><time>2026-05-01T11:17:37.336Z</time></trkpt><trkpt lat="39.8260952" lon="9.2183418"><ele>425.0</ele><time>2026-05-01T11:17:38.335Z</time></trkpt><trkpt lat="39.8260232" lon="9.218265"><ele>427.0</ele><time>2026-05-01T11:17:39.335Z</time></trkpt><trkpt lat="39.8259417" lon="9.2181897"><ele>429.0</ele><time>2026-05-01T11:17:40.334Z</time></trkpt><trkpt lat="39.8258465" lon="9.2181093"><ele>431.0</ele><time>2026-05-01T11:17:41.338Z</time></trkpt><trkpt lat="39.8257477" lon="9.2180205"><ele>433.0</ele><time>2026-05-01T11:17:42.336Z</time></trkpt><trkpt lat="39.8256432" lon="9.2179293"><ele>433.0</ele><time>2026-05-01T11:17:43.335Z</time></trkpt><trkpt lat="39.825538" lon="9.2178472"><ele>433.0</ele><time>2026-05-01T11:17:44.335Z</time></trkpt><trkpt lat="39.8254282" lon="9.2177757"><ele>433.0</ele><time>2026-05-01T11:17:45.335Z</time></trkpt><trkpt lat="39.8253177" lon="9.2177147"><ele>433.0</ele><time>2026-05-01T11:17:46.335Z</time></trkpt><trkpt lat="39.8252108" lon="9.2176588"><ele>439.59999999999997</ele><time>2026-05-01T11:17:47.339Z</time></trkpt><trkpt lat="39.8251085" lon="9.2175912"><ele>446.19999999999993</ele><time>2026-05-01T11:17:48.335Z</time></trkpt><trkpt lat="39.8250172" lon="9.2175027"><ele>452.8</ele><time>2026-05-01T11:17:49.334Z</time></trkpt><trkpt lat="39.8249332" lon="9.2174217"><ele>459.4</ele><time>2026-05-01T11:17:50.336Z</time></trkpt><trkpt lat="39.8248567" lon="9.2173632"><ele>466.0</ele><time>2026-05-01T11:17:51.334Z</time></trkpt><trkpt lat="39.824786" lon="9.217321"><ele>462.1666666666667</ele><time>2026-05-01T11:17:52.334Z</time></trkpt><trkpt lat="39.8247072" lon="9.2172837"><ele>458.33333333333337</ele><time>2026-05-01T11:17:53.334Z</time></trkpt><trkpt lat="39.8246248" lon="9.2172518"><ele>454.5</ele><time>2026-05-01T11:17:54.333Z</time></trkpt><trkpt lat="39.8245405" lon="9.2172147"><ele>450.66666666666663</ele><time>2026-05-01T11:17:55.334Z</time></trkpt><trkpt lat="39.8244622" lon="9.2171623"><ele>446.8333333333333</ele><time>2026-05-01T11:17:56.334Z</time></trkpt><trkpt lat="39.8243978" lon="9.2170875"><ele>443.0</ele><time>2026-05-01T11:17:57.334Z</time></trkpt><trkpt lat="39.8243678" lon="9.2170007"><ele>442.99999999999994</ele><time>2026-05-01T11:17:58.337Z</time></trkpt><trkpt lat="39.8243495" lon="9.2169128"><ele>443.0</ele><time>2026-05-01T11:17:59.335Z</time></trkpt><trkpt lat="39.8243255" lon="9.2168358"><ele>443.0</ele><time>2026-05-01T11:18:01.34Z</time></trkpt><trkpt lat="39.8242957" lon="9.216914"><ele>443.0</ele><time>2026-05-01T11:18:03.339Z</time></trkpt><trkpt lat="39.824294" lon="9.2170688"><ele>442.99999999999994</ele><time>2026-05-01T11:18:05.337Z</time></trkpt><trkpt lat="39.8243243" lon="9.2171567"><ele>443.0</ele><time>2026-05-01T11:18:06.334Z</time></trkpt><trkpt lat="39.8243793" lon="9.2172508"><ele>447.59999999999997</ele><time>2026-05-01T11:18:07.335Z</time></trkpt><trkpt lat="39.8244458" lon="9.2173405"><ele>452.19999999999993</ele><time>2026-05-01T11:18:08.333Z</time></trkpt><trkpt lat="39.8245197" lon="9.2174293"><ele>456.8</ele><time>2026-05-01T11:18:09.336Z</time></trkpt><trkpt lat="39.8246075" lon="9.2175038"><ele>461.4</ele><time>2026-05-01T11:18:10.337Z</time></trkpt><trkpt lat="39.8246978" lon="9.2175617"><ele>466.0</ele><time>2026-05-01T11:18:11.334Z</time></trkpt><trkpt lat="39.8247852" lon="9.2176268"><ele>466.0</ele><time>2026-05-01T11:18:12.336Z</time></trkpt><trkpt lat="39.8248617" lon="9.2177065"><ele>466.0</ele><time>2026-05-01T11:18:13.335Z</time></trkpt><trkpt lat="39.8249268" lon="9.2178007"><ele>466.0</ele><time>2026-05-01T11:18:14.335Z</time></trkpt><trkpt lat="39.824981" lon="9.2179013"><ele>466.0</ele><time>2026-05-01T11:18:15.335Z</time></trkpt><trkpt lat="39.8250232" lon="9.2180072"><ele>466.0</ele><time>2026-05-01T11:18:16.334Z</time></trkpt><trkpt lat="39.8250622" lon="9.2181207"><ele>463.8</ele><time>2026-05-01T11:18:17.333Z</time></trkpt><trkpt lat="39.8251052" lon="9.218237"><ele>461.6</ele><time>2026-05-01T11:18:18.336Z</time></trkpt><trkpt lat="39.8251515" lon="9.218351"><ele>459.4</ele><time>2026-05-01T11:18:19.334Z</time></trkpt><trkpt lat="39.8251977" lon="9.218464"><ele>457.2</ele><time>2026-05-01T11:18:20.334Z</time></trkpt><trkpt lat="39.8252417" lon="9.2185847"><ele>455.0</ele><time>2026-05-01T11:18:21.333Z</time></trkpt><trkpt lat="39.8252795" lon="9.2187097"><ele>455.0</ele><time>2026-05-01T11:18:22.333Z</time></trkpt><trkpt lat="39.8253078" lon="9.2188418"><ele>455.0</ele><time>2026-05-01T11:18:23.334Z</time></trkpt><trkpt lat="39.8253287" lon="9.2189778"><ele>455.0</ele><time>2026-05-01T11:18:24.334Z</time></trkpt><trkpt lat="39.8253448" lon="9.2191167"><ele>455.0</ele><time>2026-05-01T11:18:25.334Z</time></trkpt><trkpt lat="39.8253603" lon="9.2192578"><ele>455.0</ele><time>2026-05-01T11:18:26.334Z</time></trkpt><trkpt lat="39.8253728" lon="9.219395"><ele>458.4</ele><time>2026-05-01T11:18:27.336Z</time></trkpt><trkpt lat="39.8253827" lon="9.2195337"><ele>461.8</ele><time>2026-05-01T11:18:28.337Z</time></trkpt><trkpt lat="39.8253923" lon="9.2196715"><ele>465.20000000000005</ele><time>2026-05-01T11:18:29.335Z</time></trkpt><trkpt lat="39.8254037" lon="9.2198005"><ele>468.6</ele><time>2026-05-01T11:18:30.337Z</time></trkpt><trkpt lat="39.8254177" lon="9.2198912"><ele>472.0</ele><time>2026-05-01T11:18:31.335Z</time></trkpt><trkpt lat="39.8253945" lon="9.2199923"><ele>472.0</ele><time>2026-05-01T11:18:33.334Z</time></trkpt><trkpt lat="39.8253182" lon="9.2199775"><ele>472.00000000000006</ele><time>2026-05-01T11:18:35.336Z</time></trkpt><trkpt lat="39.825263" lon="9.2198352"><ele>472.00000000000006</ele><time>2026-05-01T11:18:37.336Z</time></trkpt><trkpt lat="39.825253" lon="9.2197282"><ele>472.0</ele><time>2026-05-01T11:18:38.335Z</time></trkpt><trkpt lat="39.8252382" lon="9.2196097"><ele>472.0</ele><time>2026-05-01T11:18:39.333Z</time></trkpt><trkpt lat="39.8252105" lon="9.21949"><ele>472.0</ele><time>2026-05-01T11:18:40.334Z</time></trkpt><trkpt lat="39.8251658" lon="9.2193743"><ele>472.00000000000006</ele><time>2026-05-01T11:18:41.334Z</time></trkpt><trkpt lat="39.8251038" lon="9.219273"><ele>472.00000000000006</ele><time>2026-05-01T11:18:42.335Z</time></trkpt><trkpt lat="39.825029" lon="9.2191737"><ele>472.0</ele><time>2026-05-01T11:18:43.335Z</time></trkpt><trkpt lat="39.8249422" lon="9.2190763"><ele>472.0</ele><time>2026-05-01T11:18:44.334Z</time></trkpt><trkpt lat="39.8248418" lon="9.218984"><ele>475.75</ele><time>2026-05-01T11:18:45.336Z</time></trkpt><trkpt lat="39.8247377" lon="9.2188918"><ele>479.5</ele><time>2026-05-01T11:18:46.336Z</time></trkpt><trkpt lat="39.8246328" lon="9.2187967"><ele>483.25</ele><time>2026-05-01T11:18:47.334Z</time></trkpt><trkpt lat="39.8245265" lon="9.2187022"><ele>487.0</ele><time>2026-05-01T11:18:48.334Z</time></trkpt><trkpt lat="39.8244098" lon="9.2186148"><ele>493.75</ele><time>2026-05-01T11:18:49.335Z</time></trkpt><trkpt lat="39.824292" lon="9.2185315"><ele>500.5</ele><time>2026-05-01T11:18:50.334Z</time></trkpt><trkpt lat="39.8241755" lon="9.2184497"><ele>507.25</ele><time>2026-05-01T11:18:51.336Z</time></trkpt><trkpt lat="39.82406" lon="9.2183693"><ele>514.0</ele><time>2026-05-01T11:18:52.335Z</time></trkpt><trkpt lat="39.8239473" lon="9.218289"><ele>514.0</ele><time>2026-05-01T11:18:53.334Z</time></trkpt><trkpt lat="39.8238465" lon="9.2182137"><ele>514.0</ele><time>2026-05-01T11:18:54.333Z</time></trkpt><trkpt lat="39.8237613" lon="9.2181438"><ele>514.0</ele><time>2026-05-01T11:18:55.348Z</time></trkpt><trkpt lat="39.8237077" lon="9.2180672"><ele>514.0</ele><time>2026-05-01T11:18:56.333Z</time></trkpt><trkpt lat="39.8236817" lon="9.2179882"><ele>514.0</ele><time>2026-05-01T11:18:57.334Z</time></trkpt><trkpt lat="39.8236553" lon="9.217879"><ele>514.0</ele><time>2026-05-01T11:18:59.335Z</time></trkpt><trkpt lat="39.8235937" lon="9.2179212"><ele>514.0</ele><time>2026-05-01T11:19:02.335Z</time></trkpt><trkpt lat="39.8235733" lon="9.218071"><ele>514.0</ele><time>2026-05-01T11:19:04.336Z</time></trkpt><trkpt lat="39.8235792" lon="9.2181685"><ele>514.0</ele><time>2026-05-01T11:19:05.337Z</time></trkpt><trkpt lat="39.8236007" lon="9.2183015"><ele>514.0</ele><time>2026-05-01T11:19:06.335Z</time></trkpt><trkpt lat="39.8236302" lon="9.2184423"><ele>514.0</ele><time>2026-05-01T11:19:07.338Z</time></trkpt><trkpt lat="39.8236803" lon="9.2185733"><ele>514.0</ele><time>2026-05-01T11:19:08.334Z</time></trkpt><trkpt lat="39.823728" lon="9.2187022"><ele>514.0</ele><time>2026-05-01T11:19:09.335Z</time></trkpt><trkpt lat="39.8237642" lon="9.2188342"><ele>514.0</ele><time>2026-05-01T11:19:10.334Z</time></trkpt><trkpt lat="39.8237992" lon="9.2189682"><ele>514.0</ele><time>2026-05-01T11:19:11.336Z</time></trkpt><trkpt lat="39.82384" lon="9.2191075"><ele>516.75</ele><time>2026-05-01T11:19:12.335Z</time></trkpt><trkpt lat="39.8238797" lon="9.2192523"><ele>519.5</ele><time>2026-05-01T11:19:13.338Z</time></trkpt><trkpt lat="39.8239055" lon="9.2194125"><ele>522.25</ele><time>2026-05-01T11:19:14.334Z</time></trkpt><trkpt lat="39.8239187" lon="9.2195895"><ele>525.0</ele><time>2026-05-01T11:19:15.333Z</time></trkpt><trkpt lat="39.8239265" lon="9.2197797"><ele>527.5</ele><time>2026-05-01T11:19:16.335Z</time></trkpt><trkpt lat="39.8239328" lon="9.2199592"><ele>530.0</ele><time>2026-05-01T11:19:17.339Z</time></trkpt><trkpt lat="39.823941" lon="9.2201257"><ele>532.5</ele><time>2026-05-01T11:19:18.332Z</time></trkpt><trkpt lat="39.8239603" lon="9.220264"><ele>535.0</ele><time>2026-05-01T11:19:19.334Z</time></trkpt><trkpt lat="39.823988" lon="9.2203758"><ele>535.0</ele><time>2026-05-01T11:19:20.338Z</time></trkpt><trkpt lat="39.8240082" lon="9.2204595"><ele>535.0</ele><time>2026-05-01T11:19:21.334Z</time></trkpt><trkpt lat="39.8239978" lon="9.2205853"><ele>535.0</ele><time>2026-05-01T11:19:23.333Z</time></trkpt><trkpt lat="39.8239328" lon="9.22064"><ele>535.0</ele><time>2026-05-01T11:19:25.334Z</time></trkpt><trkpt lat="39.823826" lon="9.220563"><ele>535.0</ele><time>2026-05-01T11:19:27.336Z</time></trkpt><trkpt lat="39.8237785" lon="9.2204775"><ele>535.0</ele><time>2026-05-01T11:19:28.333Z</time></trkpt><trkpt lat="39.8237295" lon="9.2203937"><ele>535.0</ele><time>2026-05-01T11:19:29.336Z</time></trkpt><trkpt lat="39.8236628" lon="9.2203097"><ele>535.0</ele><time>2026-05-01T11:19:30.335Z</time></trkpt><trkpt lat="39.823587" lon="9.2202187"><ele>535.0</ele><time>2026-05-01T11:19:31.334Z</time></trkpt><trkpt lat="39.8235107" lon="9.2201102"><ele>535.0</ele><time>2026-05-01T11:19:32.335Z</time></trkpt><trkpt lat="39.8234423" lon="9.2199887"><ele>535.0</ele><time>2026-05-01T11:19:33.333Z</time></trkpt><trkpt lat="39.8233823" lon="9.2198525"><ele>538.6</ele><time>2026-05-01T11:19:34.335Z</time></trkpt><trkpt lat="39.8233327" lon="9.2196995"><ele>542.2</ele><time>2026-05-01T11:19:35.334Z</time></trkpt><trkpt lat="39.8232937" lon="9.2195533"><ele>545.8</ele><time>2026-05-01T11:19:36.334Z</time></trkpt><trkpt lat="39.823263" lon="9.2194238"><ele>549.4</ele><time>2026-05-01T11:19:37.336Z</time></trkpt><trkpt lat="39.8232343" lon="9.2193308"><ele>553.0</ele><time>2026-05-01T11:19:38.335Z</time></trkpt><trkpt lat="39.8231925" lon="9.2192498"><ele>553.0</ele><time>2026-05-01T11:19:39.336Z</time></trkpt><trkpt lat="39.823118" lon="9.2191858"><ele>553.0</ele><time>2026-05-01T11:19:40.335Z</time></trkpt><trkpt lat="39.8230352" lon="9.2191092"><ele>553.0</ele><time>2026-05-01T11:19:41.336Z</time></trkpt><trkpt lat="39.822967" lon="9.2190118"><ele>553.0</ele><time>2026-05-01T11:19:42.336Z</time></trkpt><trkpt lat="39.822915" lon="9.2189033"><ele>553.0</ele><time>2026-05-01T11:19:43.337Z</time></trkpt><trkpt lat="39.8228943" lon="9.2187937"><ele>552.3333333333334</ele><time>2026-05-01T11:19:44.335Z</time></trkpt><trkpt lat="39.822875" lon="9.218711"><ele>551.6666666666667</ele><time>2026-05-01T11:19:45.338Z</time></trkpt><trkpt lat="39.822841" lon="9.2186217"><ele>551.0</ele><time>2026-05-01T11:19:47.337Z</time></trkpt><trkpt lat="39.8227757" lon="9.2186637"><ele>550.3333333333334</ele><time>2026-05-01T11:20:07.334Z</time></trkpt><trkpt lat="39.8226718" lon="9.2187358"><ele>549.6666666666666</ele><time>2026-05-01T11:20:09.334Z</time></trkpt><trkpt lat="39.8226085" lon="9.2187762"><ele>549.0</ele><time>2026-05-01T11:20:10.337Z</time></trkpt><trkpt lat="39.8225385" lon="9.2188233"><ele>549.0</ele><time>2026-05-01T11:20:11.333Z</time></trkpt><trkpt lat="39.8224652" lon="9.2188712"><ele>549.0</ele><time>2026-05-01T11:20:12.334Z</time></trkpt><trkpt lat="39.8223965" lon="9.2189087"><ele>549.0</ele><time>2026-05-01T11:20:13.333Z</time></trkpt><trkpt lat="39.8223273" lon="9.2189393"><ele>549.0</ele><time>2026-05-01T11:20:14.332Z</time></trkpt><trkpt lat="39.8222528" lon="9.21897"><ele>549.0</ele><time>2026-05-01T11:20:15.333Z</time></trkpt><trkpt lat="39.8221747" lon="9.2189913"><ele>549.0</ele><time>2026-05-01T11:20:16.334Z</time></trkpt><trkpt lat="39.8220952" lon="9.2189912"><ele>549.0</ele><time>2026-05-01T11:20:17.333Z</time></trkpt><trkpt lat="39.8220142" lon="9.2189688"><ele>549.0</ele><time>2026-05-01T11:20:18.334Z</time></trkpt><trkpt lat="39.8219312" lon="9.2189398"><ele>549.0</ele><time>2026-05-01T11:20:19.334Z</time></trkpt><trkpt lat="39.8218537" lon="9.2189217"><ele>549.0</ele><time>2026-05-01T11:20:20.332Z</time></trkpt><trkpt lat="39.8217788" lon="9.2189088"><ele>549.0</ele><time>2026-05-01T11:20:21.333Z</time></trkpt><trkpt lat="39.8217005" lon="9.2188948"><ele>549.0</ele><time>2026-05-01T11:20:22.332Z</time></trkpt><trkpt lat="39.8216285" lon="9.2188707"><ele>550.5</ele><time>2026-05-01T11:20:23.332Z</time></trkpt><trkpt lat="39.8215562" lon="9.2188463"><ele>552.0</ele><time>2026-05-01T11:20:24.334Z</time></trkpt><trkpt lat="39.8214822" lon="9.218818"><ele>553.5</ele><time>2026-05-01T11:20:25.333Z</time></trkpt><trkpt lat="39.821408" lon="9.218789"><ele>555.0</ele><time>2026-05-01T11:20:26.335Z</time></trkpt><trkpt lat="39.8213293" lon="9.218757"><ele>556.5</ele><time>2026-05-01T11:20:27.334Z</time></trkpt><trkpt lat="39.8212503" lon="9.2187238"><ele>558.0</ele><time>2026-05-01T11:20:28.334Z</time></trkpt><trkpt lat="39.8211707" lon="9.2186863"><ele>557.9999999999999</ele><time>2026-05-01T11:20:29.334Z</time></trkpt><trkpt lat="39.8210955" lon="9.2186437"><ele>558.0</ele><time>2026-05-01T11:20:30.335Z</time></trkpt><trkpt lat="39.821021" lon="9.2185947"><ele>558.0</ele><time>2026-05-01T11:20:31.333Z</time></trkpt><trkpt lat="39.8209567" lon="9.2185437"><ele>558.0</ele><time>2026-05-01T11:20:32.333Z</time></trkpt><trkpt lat="39.8208967" lon="9.2184907"><ele>558.0</ele><time>2026-05-01T11:20:33.332Z</time></trkpt><trkpt lat="39.8208408" lon="9.2184375"><ele>557.9999999999999</ele><time>2026-05-01T11:20:34.332Z</time></trkpt><trkpt lat="39.820793" lon="9.2183778"><ele>558.0</ele><time>2026-05-01T11:20:35.332Z</time></trkpt><trkpt lat="39.8207453" lon="9.2183207"><ele>563.4</ele><time>2026-05-01T11:20:36.333Z</time></trkpt><trkpt lat="39.8206525" lon="9.2182588"><ele>568.8</ele><time>2026-05-01T11:20:38.333Z</time></trkpt><trkpt lat="39.8205823" lon="9.218314"><ele>574.2</ele><time>2026-05-01T11:20:40.334Z</time></trkpt><trkpt lat="39.8206033" lon="9.2184415"><ele>579.6</ele><time>2026-05-01T11:20:42.335Z</time></trkpt><trkpt lat="39.8207078" lon="9.2185702"><ele>585.0</ele><time>2026-05-01T11:20:44.334Z</time></trkpt><trkpt lat="39.8207867" lon="9.2186363"><ele>585.0</ele><time>2026-05-01T11:20:45.333Z</time></trkpt><trkpt lat="39.8208765" lon="9.2187137"><ele>585.0</ele><time>2026-05-01T11:20:46.333Z</time></trkpt><trkpt lat="39.8209513" lon="9.2188082"><ele>585.0</ele><time>2026-05-01T11:20:47.333Z</time></trkpt><trkpt lat="39.8210312" lon="9.2189123"><ele>585.0</ele><time>2026-05-01T11:20:48.332Z</time></trkpt><trkpt lat="39.821112" lon="9.2190162"><ele>585.0</ele><time>2026-05-01T11:20:49.338Z</time></trkpt><trkpt lat="39.8212002" lon="9.2191193"><ele>587.75</ele><time>2026-05-01T11:20:50.333Z</time></trkpt><trkpt lat="39.8212983" lon="9.219215"><ele>590.5</ele><time>2026-05-01T11:20:51.334Z</time></trkpt><trkpt lat="39.8214027" lon="9.2192962"><ele>593.25</ele><time>2026-05-01T11:20:52.334Z</time></trkpt><trkpt lat="39.8215055" lon="9.219364"><ele>596.0</ele><time>2026-05-01T11:20:53.333Z</time></trkpt><trkpt lat="39.8216105" lon="9.2194373"><ele>596.0</ele><time>2026-05-01T11:20:54.335Z</time></trkpt><trkpt lat="39.821716" lon="9.2195098"><ele>596.0</ele><time>2026-05-01T11:20:55.335Z</time></trkpt><trkpt lat="39.8218198" lon="9.2195783"><ele>596.0</ele><time>2026-05-01T11:20:56.334Z</time></trkpt><trkpt lat="39.8219233" lon="9.2196472"><ele>596.0</ele><time>2026-05-01T11:20:57.335Z</time></trkpt><trkpt lat="39.8220235" lon="9.2197167"><ele>598.2</ele><time>2026-05-01T11:20:58.335Z</time></trkpt><trkpt lat="39.8221157" lon="9.219789"><ele>600.4000000000001</ele><time>2026-05-01T11:20:59.335Z</time></trkpt><trkpt lat="39.8222035" lon="9.2198688"><ele>602.6</ele><time>2026-05-01T11:21:00.333Z</time></trkpt><trkpt lat="39.8222868" lon="9.2199568"><ele>604.8000000000001</ele><time>2026-05-01T11:21:01.332Z</time></trkpt><trkpt lat="39.822366" lon="9.220054"><ele>607.0</ele><time>2026-05-01T11:21:02.336Z</time></trkpt><trkpt lat="39.822442" lon="9.2201697"><ele>607.0</ele><time>2026-05-01T11:21:03.334Z</time></trkpt><trkpt lat="39.8225127" lon="9.2202962"><ele>607.0</ele><time>2026-05-01T11:21:04.331Z</time></trkpt><trkpt lat="39.8225728" lon="9.2204327"><ele>607.0</ele><time>2026-05-01T11:21:05.332Z</time></trkpt><trkpt lat="39.8226182" lon="9.2205755"><ele>607.0</ele><time>2026-05-01T11:21:06.335Z</time></trkpt><trkpt lat="39.8226595" lon="9.2207143"><ele>601.8000000000001</ele><time>2026-05-01T11:21:07.333Z</time></trkpt><trkpt lat="39.8226943" lon="9.220851"><ele>596.6</ele><time>2026-05-01T11:21:08.335Z</time></trkpt><trkpt lat="39.8227072" lon="9.2209828"><ele>591.4000000000001</ele><time>2026-05-01T11:21:09.336Z</time></trkpt><trkpt lat="39.8226985" lon="9.2211193"><ele>586.2</ele><time>2026-05-01T11:21:10.334Z</time></trkpt><trkpt lat="39.8226797" lon="9.2212587"><ele>581.0</ele><time>2026-05-01T11:21:11.335Z</time></trkpt><trkpt lat="39.822652" lon="9.2214007"><ele>591.6</ele><time>2026-05-01T11:21:12.335Z</time></trkpt><trkpt lat="39.822621" lon="9.2215355"><ele>602.2</ele><time>2026-05-01T11:21:13.334Z</time></trkpt><trkpt lat="39.8225998" lon="9.2216685"><ele>612.8</ele><time>2026-05-01T11:21:14.335Z</time></trkpt><trkpt lat="39.8225978" lon="9.221795"><ele>623.4</ele><time>2026-05-01T11:21:15.335Z</time></trkpt><trkpt lat="39.8226078" lon="9.221927"><ele>634.0</ele><time>2026-05-01T11:21:16.332Z</time></trkpt><trkpt lat="39.8226163" lon="9.2220642"><ele>634.0</ele><time>2026-05-01T11:21:17.336Z</time></trkpt><trkpt lat="39.822624" lon="9.2222088"><ele>634.0</ele><time>2026-05-01T11:21:18.336Z</time></trkpt><trkpt lat="39.8226237" lon="9.2223525"><ele>634.0</ele><time>2026-05-01T11:21:19.335Z</time></trkpt><trkpt lat="39.8226225" lon="9.2224903"><ele>634.0</ele><time>2026-05-01T11:21:20.336Z</time></trkpt><trkpt lat="39.8226173" lon="9.2226085"><ele>634.0</ele><time>2026-05-01T11:21:21.332Z</time></trkpt><trkpt lat="39.8226152" lon="9.2226907"><ele>634.8</ele><time>2026-05-01T11:21:22.332Z</time></trkpt><trkpt lat="39.8225792" lon="9.2227798"><ele>635.5999999999999</ele><time>2026-05-01T11:21:24.33Z</time></trkpt><trkpt lat="39.822482" lon="9.222736"><ele>636.4</ele><time>2026-05-01T11:21:26.335Z</time></trkpt><trkpt lat="39.8224412" lon="9.2226082"><ele>637.1999999999999</ele><time>2026-05-01T11:21:28.332Z</time></trkpt><trkpt lat="39.8224623" lon="9.2224387"><ele>638.0</ele><time>2026-05-01T11:21:30.333Z</time></trkpt><trkpt lat="39.82247" lon="9.2223415"><ele>637.1999999999999</ele><time>2026-05-01T11:21:31.333Z</time></trkpt><trkpt lat="39.8224718" lon="9.2222292"><ele>636.4</ele><time>2026-05-01T11:21:32.332Z</time></trkpt><trkpt lat="39.8224537" lon="9.2221075"><ele>635.5999999999999</ele><time>2026-05-01T11:21:33.329Z</time></trkpt><trkpt lat="39.8224178" lon="9.2219867"><ele>634.8</ele><time>2026-05-01T11:21:34.333Z</time></trkpt><trkpt lat="39.8223642" lon="9.2218745"><ele>634.0</ele><time>2026-05-01T11:21:35.333Z</time></trkpt><trkpt lat="39.8222912" lon="9.2217723"><ele>634.0</ele><time>2026-05-01T11:21:36.334Z</time></trkpt><trkpt lat="39.8222152" lon="9.2216777"><ele>634.0</ele><time>2026-05-01T11:21:37.334Z</time></trkpt><trkpt lat="39.8221533" lon="9.2215735"><ele>634.0</ele><time>2026-05-01T11:21:38.333Z</time></trkpt><trkpt lat="39.8221018" lon="9.2214652"><ele>634.0</ele><time>2026-05-01T11:21:39.335Z</time></trkpt><trkpt lat="39.8220667" lon="9.2213482"><ele>634.0</ele><time>2026-05-01T11:21:40.332Z</time></trkpt><trkpt lat="39.8220275" lon="9.2212288"><ele>632.4</ele><time>2026-05-01T11:21:41.332Z</time></trkpt><trkpt lat="39.8219807" lon="9.2211123"><ele>630.8</ele><time>2026-05-01T11:21:42.332Z</time></trkpt><trkpt lat="39.8219248" lon="9.2210058"><ele>629.2</ele><time>2026-05-01T11:21:43.331Z</time></trkpt><trkpt lat="39.8218552" lon="9.2209118"><ele>627.6</ele><time>2026-05-01T11:21:44.332Z</time></trkpt><trkpt lat="39.8217733" lon="9.2208307"><ele>626.0</ele><time>2026-05-01T11:21:45.333Z</time></trkpt><trkpt lat="39.8216915" lon="9.2207547"><ele>626.6666666666666</ele><time>2026-05-01T11:21:46.335Z</time></trkpt><trkpt lat="39.8216223" lon="9.2206887"><ele>627.3333333333333</ele><time>2026-05-01T11:21:47.336Z</time></trkpt><trkpt lat="39.8215593" lon="9.2206362"><ele>628.0</ele><time>2026-05-01T11:21:48.335Z</time></trkpt><trkpt lat="39.8214995" lon="9.2206103"><ele>628.6666666666666</ele><time>2026-05-01T11:21:49.333Z</time></trkpt><trkpt lat="39.821418" lon="9.220657"><ele>629.3333333333334</ele><time>2026-05-01T11:21:51.333Z</time></trkpt><trkpt lat="39.8214272" lon="9.2207968"><ele>630.0</ele><time>2026-05-01T11:21:53.335Z</time></trkpt><trkpt lat="39.8214658" lon="9.2208642"><ele>634.0</ele><time>2026-05-01T11:21:54.337Z</time></trkpt><trkpt lat="39.8215198" lon="9.2209395"><ele>638.0</ele><time>2026-05-01T11:21:55.336Z</time></trkpt><trkpt lat="39.821578" lon="9.22102"><ele>642.0</ele><time>2026-05-01T11:21:56.333Z</time></trkpt><trkpt lat="39.8216225" lon="9.2211112"><ele>646.0</ele><time>2026-05-01T11:21:57.339Z</time></trkpt><trkpt lat="39.8216425" lon="9.2212163"><ele>650.0</ele><time>2026-05-01T11:21:58.334Z</time></trkpt><trkpt lat="39.8216493" lon="9.2213308"><ele>654.0</ele><time>2026-05-01T11:21:59.334Z</time></trkpt><trkpt lat="39.8216547" lon="9.2214437"><ele>656.2</ele><time>2026-05-01T11:22:00.335Z</time></trkpt><trkpt lat="39.8216537" lon="9.2215615"><ele>658.4000000000001</ele><time>2026-05-01T11:22:01.335Z</time></trkpt><trkpt lat="39.8216487" lon="9.2216832"><ele>660.6</ele><time>2026-05-01T11:22:02.334Z</time></trkpt><trkpt lat="39.821639" lon="9.2218043"><ele>662.8</ele><time>2026-05-01T11:22:03.333Z</time></trkpt><trkpt lat="39.8216173" lon="9.2219283"><ele>665.0</ele><time>2026-05-01T11:22:04.335Z</time></trkpt><trkpt lat="39.821595" lon="9.2220477"><ele>665.0</ele><time>2026-05-01T11:22:05.335Z</time></trkpt><trkpt lat="39.821581" lon="9.2221708"><ele>665.0</ele><time>2026-05-01T11:22:06.335Z</time></trkpt><trkpt lat="39.8215832" lon="9.2222942"><ele>665.0</ele><time>2026-05-01T11:22:07.334Z</time></trkpt><trkpt lat="39.8215885" lon="9.2224103"><ele>665.0</ele><time>2026-05-01T11:22:08.334Z</time></trkpt><trkpt lat="39.8215885" lon="9.222516"><ele>665.0</ele><time>2026-05-01T11:22:09.335Z</time></trkpt><trkpt lat="39.8215783" lon="9.2226127"><ele>665.0</ele><time>2026-05-01T11:22:10.334Z</time></trkpt><trkpt lat="39.821551" lon="9.2227033"><ele>664.8</ele><time>2026-05-01T11:22:11.334Z</time></trkpt><trkpt lat="39.821505" lon="9.2227883"><ele>664.6</ele><time>2026-05-01T11:22:12.339Z</time></trkpt><trkpt lat="39.8214358" lon="9.2228715"><ele>664.4000000000001</ele><time>2026-05-01T11:22:13.333Z</time></trkpt><trkpt lat="39.8213503" lon="9.2229597"><ele>664.2</ele><time>2026-05-01T11:22:14.333Z</time></trkpt><trkpt lat="39.821258" lon="9.2230558"><ele>664.0</ele><time>2026-05-01T11:22:15.332Z</time></trkpt><trkpt lat="39.8211662" lon="9.223167"><ele>664.0</ele><time>2026-05-01T11:22:16.334Z</time></trkpt><trkpt lat="39.8210847" lon="9.2232887"><ele>664.0</ele><time>2026-05-01T11:22:17.333Z</time></trkpt><trkpt lat="39.8210117" lon="9.2234105"><ele>664.0</ele><time>2026-05-01T11:22:18.332Z</time></trkpt><trkpt lat="39.8209422" lon="9.2235228"><ele>664.0</ele><time>2026-05-01T11:22:19.335Z</time></trkpt><trkpt lat="39.8208685" lon="9.2236108"><ele>668.5</ele><time>2026-05-01T11:22:20.335Z</time></trkpt><trkpt lat="39.8208032" lon="9.223664"><ele>673.0</ele><time>2026-05-01T11:22:21.337Z</time></trkpt><trkpt lat="39.8207147" lon="9.2236332"><ele>677.5</ele><time>2026-05-01T11:22:23.333Z</time></trkpt><trkpt lat="39.8207045" lon="9.223513"><ele>682.0</ele><time>2026-05-01T11:22:25.336Z</time></trkpt><trkpt lat="39.8207343" lon="9.2234337"><ele>686.5</ele><time>2026-05-01T11:22:26.333Z</time></trkpt><trkpt lat="39.8207805" lon="9.223356"><ele>691.0</ele><time>2026-05-01T11:22:27.337Z</time></trkpt><trkpt lat="39.8208287" lon="9.2232643"><ele>691.0</ele><time>2026-05-01T11:22:28.335Z</time></trkpt><trkpt lat="39.8208675" lon="9.2231655"><ele>691.0</ele><time>2026-05-01T11:22:29.334Z</time></trkpt><trkpt lat="39.8209032" lon="9.2230537"><ele>691.0</ele><time>2026-05-01T11:22:30.339Z</time></trkpt><trkpt lat="39.8209235" lon="9.2229442"><ele>691.0</ele><time>2026-05-01T11:22:31.333Z</time></trkpt><trkpt lat="39.8209117" lon="9.2228623"><ele>691.0</ele><time>2026-05-01T11:22:32.332Z</time></trkpt><trkpt lat="39.8208258" lon="9.222817"><ele>691.0</ele><time>2026-05-01T11:22:34.334Z</time></trkpt><trkpt lat="39.8206945" lon="9.222867"><ele>690.4</ele><time>2026-05-01T11:22:36.334Z</time></trkpt><trkpt lat="39.8206165" lon="9.222909"><ele>689.8</ele><time>2026-05-01T11:22:37.335Z</time></trkpt><trkpt lat="39.8205372" lon="9.2229555"><ele>689.1999999999999</ele><time>2026-05-01T11:22:38.335Z</time></trkpt><trkpt lat="39.8204553" lon="9.222997"><ele>688.5999999999999</ele><time>2026-05-01T11:22:39.335Z</time></trkpt><trkpt lat="39.8203675" lon="9.2230413"><ele>688.0</ele><time>2026-05-01T11:22:40.334Z</time></trkpt><trkpt lat="39.8202763" lon="9.2230895"><ele>688.0</ele><time>2026-05-01T11:22:41.334Z</time></trkpt><trkpt lat="39.8201822" lon="9.223141"><ele>688.0</ele><time>2026-05-01T11:22:42.333Z</time></trkpt><trkpt lat="39.8200842" lon="9.2232087"><ele>688.0</ele><time>2026-05-01T11:22:43.333Z</time></trkpt><trkpt lat="39.8199907" lon="9.223293"><ele>688.0</ele><time>2026-05-01T11:22:44.332Z</time></trkpt><trkpt lat="39.8199033" lon="9.2233822"><ele>688.0</ele><time>2026-05-01T11:22:45.333Z</time></trkpt><trkpt lat="39.8198162" lon="9.2234727"><ele>692.0</ele><time>2026-05-01T11:22:46.333Z</time></trkpt><trkpt lat="39.8197232" lon="9.2235635"><ele>696.0</ele><time>2026-05-01T11:22:47.336Z</time></trkpt><trkpt lat="39.8196283" lon="9.2236545"><ele>700.0</ele><time>2026-05-01T11:22:48.334Z</time></trkpt><trkpt lat="39.8195365" lon="9.2237488"><ele>704.0</ele><time>2026-05-01T11:22:49.334Z</time></trkpt><trkpt lat="39.8194568" lon="9.2238532"><ele>704.0</ele><time>2026-05-01T11:22:50.334Z</time></trkpt><trkpt lat="39.8193842" lon="9.22396"><ele>704.0</ele><time>2026-05-01T11:22:51.332Z</time></trkpt><trkpt lat="39.8193123" lon="9.2240615"><ele>704.0</ele><time>2026-05-01T11:22:52.332Z</time></trkpt><trkpt lat="39.8192377" lon="9.2241607"><ele>704.0</ele><time>2026-05-01T11:22:53.334Z</time></trkpt><trkpt lat="39.8191698" lon="9.2242753"><ele>704.0</ele><time>2026-05-01T11:22:54.334Z</time></trkpt><trkpt lat="39.8191023" lon="9.2244013"><ele>706.25</ele><time>2026-05-01T11:22:55.333Z</time></trkpt><trkpt lat="39.8190393" lon="9.2245348"><ele>708.5</ele><time>2026-05-01T11:22:56.336Z</time></trkpt><trkpt lat="39.8189818" lon="9.224663"><ele>710.75</ele><time>2026-05-01T11:22:57.336Z</time></trkpt><trkpt lat="39.8189158" lon="9.2247837"><ele>713.0</ele><time>2026-05-01T11:22:58.336Z</time></trkpt><trkpt lat="39.818844" lon="9.2248953"><ele>714.25</ele><time>2026-05-01T11:22:59.333Z</time></trkpt><trkpt lat="39.8187627" lon="9.2250027"><ele>715.5</ele><time>2026-05-01T11:23:00.332Z</time></trkpt><trkpt lat="39.8186808" lon="9.2251082"><ele>716.75</ele><time>2026-05-01T11:23:01.333Z</time></trkpt><trkpt lat="39.818599" lon="9.225219"><ele>718.0</ele><time>2026-05-01T11:23:02.335Z</time></trkpt><trkpt lat="39.8185167" lon="9.225325"><ele>718.25</ele><time>2026-05-01T11:23:03.335Z</time></trkpt><trkpt lat="39.8184328" lon="9.2254293"><ele>718.5</ele><time>2026-05-01T11:23:04.334Z</time></trkpt><trkpt lat="39.8183482" lon="9.2255273"><ele>718.75</ele><time>2026-05-01T11:23:05.334Z</time></trkpt><trkpt lat="39.8182665" lon="9.2256388"><ele>719.0</ele><time>2026-05-01T11:23:06.334Z</time></trkpt><trkpt lat="39.8181903" lon="9.2257645"><ele>721.75</ele><time>2026-05-01T11:23:07.333Z</time></trkpt><trkpt lat="39.8181295" lon="9.2259105"><ele>724.5</ele><time>2026-05-01T11:23:08.337Z</time></trkpt><trkpt lat="39.8180695" lon="9.2260502"><ele>727.25</ele><time>2026-05-01T11:23:09.334Z</time></trkpt><trkpt lat="39.8180102" lon="9.2261875"><ele>730.0</ele><time>2026-05-01T11:23:10.333Z</time></trkpt><trkpt lat="39.8179565" lon="9.2263285"><ele>730.0</ele><time>2026-05-01T11:23:11.336Z</time></trkpt><trkpt lat="39.8179057" lon="9.2264685"><ele>730.0</ele><time>2026-05-01T11:23:12.333Z</time></trkpt><trkpt lat="39.8178578" lon="9.2266113"><ele>730.0</ele><time>2026-05-01T11:23:13.338Z</time></trkpt><trkpt lat="39.8178097" lon="9.2267553"><ele>730.0</ele><time>2026-05-01T11:23:14.344Z</time></trkpt><trkpt lat="39.8177517" lon="9.2268983"><ele>730.75</ele><time>2026-05-01T11:23:15.334Z</time></trkpt><trkpt lat="39.8176913" lon="9.2270295"><ele>731.5</ele><time>2026-05-01T11:23:16.332Z</time></trkpt><trkpt lat="39.8176258" lon="9.2271608"><ele>732.25</ele><time>2026-05-01T11:23:17.335Z</time></trkpt><trkpt lat="39.8175602" lon="9.2272875"><ele>733.0</ele><time>2026-05-01T11:23:18.334Z</time></trkpt><trkpt lat="39.8174858" lon="9.2274123"><ele>735.25</ele><time>2026-05-01T11:23:19.334Z</time></trkpt><trkpt lat="39.8173992" lon="9.2275293"><ele>737.5</ele><time>2026-05-01T11:23:20.333Z</time></trkpt><trkpt lat="39.8173045" lon="9.2276447"><ele>739.75</ele><time>2026-05-01T11:23:21.336Z</time></trkpt><trkpt lat="39.817206" lon="9.2277653"><ele>742.0</ele><time>2026-05-01T11:23:22.335Z</time></trkpt><trkpt lat="39.8171035" lon="9.2278858"><ele>742.0</ele><time>2026-05-01T11:23:23.338Z</time></trkpt><trkpt lat="39.816999" lon="9.2280125"><ele>742.0</ele><time>2026-05-01T11:23:24.334Z</time></trkpt><trkpt lat="39.8168988" lon="9.228146"><ele>742.0</ele><time>2026-05-01T11:23:25.335Z</time></trkpt><trkpt lat="39.8168018" lon="9.2282785"><ele>742.0</ele><time>2026-05-01T11:23:26.334Z</time></trkpt><trkpt lat="39.8167177" lon="9.2284093"><ele>743.8</ele><time>2026-05-01T11:23:27.334Z</time></trkpt><trkpt lat="39.8166463" lon="9.2285358"><ele>745.6</ele><time>2026-05-01T11:23:28.333Z</time></trkpt><trkpt lat="39.8165865" lon="9.2286607"><ele>747.4</ele><time>2026-05-01T11:23:29.335Z</time></trkpt><trkpt lat="39.8165433" lon="9.2287818"><ele>749.1999999999999</ele><time>2026-05-01T11:23:30.334Z</time></trkpt><trkpt lat="39.8165152" lon="9.2289085"><ele>751.0</ele><time>2026-05-01T11:23:31.334Z</time></trkpt><trkpt lat="39.8164842" lon="9.2290403"><ele>752.5</ele><time>2026-05-01T11:23:32.331Z</time></trkpt><trkpt lat="39.8164518" lon="9.229184"><ele>754.0</ele><time>2026-05-01T11:23:33.334Z</time></trkpt><trkpt lat="39.81643" lon="9.2293343"><ele>755.5</ele><time>2026-05-01T11:23:34.335Z</time></trkpt><trkpt lat="39.8164128" lon="9.2294865"><ele>757.0</ele><time>2026-05-01T11:23:35.342Z</time></trkpt><trkpt lat="39.8164007" lon="9.2296377"><ele>757.0</ele><time>2026-05-01T11:23:36.333Z</time></trkpt><trkpt lat="39.8164042" lon="9.2297852"><ele>757.0</ele><time>2026-05-01T11:23:37.336Z</time></trkpt><trkpt lat="39.8164168" lon="9.2299248"><ele>757.0</ele><time>2026-05-01T11:23:38.332Z</time></trkpt><trkpt lat="39.8164285" lon="9.2300622"><ele>757.0</ele><time>2026-05-01T11:23:39.333Z</time></trkpt><trkpt lat="39.8164342" lon="9.2302018"><ele>757.0</ele><time>2026-05-01T11:23:40.334Z</time></trkpt><trkpt lat="39.8164213" lon="9.2303405"><ele>757.25</ele><time>2026-05-01T11:23:41.335Z</time></trkpt><trkpt lat="39.8163875" lon="9.2304843"><ele>757.5</ele><time>2026-05-01T11:23:42.337Z</time></trkpt><trkpt lat="39.8163378" lon="9.2306252"><ele>757.75</ele><time>2026-05-01T11:23:43.335Z</time></trkpt><trkpt lat="39.8162883" lon="9.2307723"><ele>758.0</ele><time>2026-05-01T11:23:44.333Z</time></trkpt><trkpt lat="39.8162457" lon="9.230924"><ele>758.0</ele><time>2026-05-01T11:23:45.339Z</time></trkpt><trkpt lat="39.8162047" lon="9.2310773"><ele>758.0</ele><time>2026-05-01T11:23:46.334Z</time></trkpt><trkpt lat="39.81617" lon="9.2312183"><ele>758.0</ele><time>2026-05-01T11:23:47.34Z</time></trkpt><trkpt lat="39.8161362" lon="9.231358"><ele>758.0</ele><time>2026-05-01T11:23:48.333Z</time></trkpt><trkpt lat="39.8160998" lon="9.2314923"><ele>757.8</ele><time>2026-05-01T11:23:49.334Z</time></trkpt><trkpt lat="39.816065" lon="9.2316235"><ele>757.5999999999999</ele><time>2026-05-01T11:23:50.334Z</time></trkpt><trkpt lat="39.8160342" lon="9.231749"><ele>757.4000000000001</ele><time>2026-05-01T11:23:51.333Z</time></trkpt><trkpt lat="39.8160107" lon="9.2318763"><ele>757.2</ele><time>2026-05-01T11:23:52.331Z</time></trkpt><trkpt lat="39.8159967" lon="9.2320078"><ele>757.0</ele><time>2026-05-01T11:23:53.333Z</time></trkpt><trkpt lat="39.8159983" lon="9.2321417"><ele>757.0</ele><time>2026-05-01T11:23:54.334Z</time></trkpt><trkpt lat="39.8160082" lon="9.2322828"><ele>757.0</ele><time>2026-05-01T11:23:55.334Z</time></trkpt><trkpt lat="39.8160307" lon="9.2324238"><ele>757.0</ele><time>2026-05-01T11:23:56.334Z</time></trkpt><trkpt lat="39.8160583" lon="9.2325612"><ele>757.0</ele><time>2026-05-01T11:23:57.334Z</time></trkpt><trkpt lat="39.816083" lon="9.2326833"><ele>757.0</ele><time>2026-05-01T11:23:58.334Z</time></trkpt><trkpt lat="39.8160825" lon="9.2328038"><ele>757.0</ele><time>2026-05-01T11:23:59.335Z</time></trkpt><trkpt lat="39.816072" lon="9.2329233"><ele>757.0</ele><time>2026-05-01T11:24:00.337Z</time></trkpt><trkpt lat="39.8160443" lon="9.2330532"><ele>757.0</ele><time>2026-05-01T11:24:01.332Z</time></trkpt><trkpt lat="39.816007" lon="9.233198"><ele>757.0</ele><time>2026-05-01T11:24:02.335Z</time></trkpt><trkpt lat="39.8159715" lon="9.2333575"><ele>757.0</ele><time>2026-05-01T11:24:03.333Z</time></trkpt><trkpt lat="39.8159403" lon="9.2335277"><ele>755.5</ele><time>2026-05-01T11:24:04.333Z</time></trkpt><trkpt lat="39.8159077" lon="9.2337107"><ele>754.0</ele><time>2026-05-01T11:24:05.334Z</time></trkpt><trkpt lat="39.8158773" lon="9.2339028"><ele>752.5</ele><time>2026-05-01T11:24:06.335Z</time></trkpt><trkpt lat="39.8158708" lon="9.234093"><ele>751.0</ele><time>2026-05-01T11:24:07.332Z</time></trkpt><trkpt lat="39.8158728" lon="9.2342762"><ele>751.0</ele><time>2026-05-01T11:24:08.333Z</time></trkpt><trkpt lat="39.8158677" lon="9.2344598"><ele>751.0</ele><time>2026-05-01T11:24:09.334Z</time></trkpt><trkpt lat="39.8158527" lon="9.2346302"><ele>751.0</ele><time>2026-05-01T11:24:10.334Z</time></trkpt><trkpt lat="39.815825" lon="9.2347893"><ele>751.0</ele><time>2026-05-01T11:24:11.334Z</time></trkpt><trkpt lat="39.815792" lon="9.2349302"><ele>751.0</ele><time>2026-05-01T11:24:12.336Z</time></trkpt><trkpt lat="39.8157785" lon="9.2350712"><ele>751.0</ele><time>2026-05-01T11:24:13.334Z</time></trkpt><trkpt lat="39.815797" lon="9.2352187"><ele>751.0</ele><time>2026-05-01T11:24:14.334Z</time></trkpt><trkpt lat="39.8158247" lon="9.235403"><ele>751.0</ele><time>2026-05-01T11:24:15.333Z</time></trkpt><trkpt lat="39.8158275" lon="9.2355952"><ele>751.5</ele><time>2026-05-01T11:24:16.333Z</time></trkpt><trkpt lat="39.8158128" lon="9.2357915"><ele>752.0</ele><time>2026-05-01T11:24:17.334Z</time></trkpt><trkpt lat="39.8158005" lon="9.2359873"><ele>752.5</ele><time>2026-05-01T11:24:18.334Z</time></trkpt><trkpt lat="39.8157987" lon="9.2361782"><ele>753.0</ele><time>2026-05-01T11:24:19.332Z</time></trkpt><trkpt lat="39.81579" lon="9.2363648"><ele>754.25</ele><time>2026-05-01T11:24:20.333Z</time></trkpt><trkpt lat="39.8157765" lon="9.2365512"><ele>755.5</ele><time>2026-05-01T11:24:21.334Z</time></trkpt><trkpt lat="39.8157577" lon="9.2367315"><ele>756.75</ele><time>2026-05-01T11:24:22.333Z</time></trkpt><trkpt lat="39.8157352" lon="9.2369153"><ele>758.0</ele><time>2026-05-01T11:24:23.334Z</time></trkpt><trkpt lat="39.81572" lon="9.2370923"><ele>758.0</ele><time>2026-05-01T11:24:24.333Z</time></trkpt><trkpt lat="39.8157103" lon="9.2372642"><ele>758.0</ele><time>2026-05-01T11:24:25.335Z</time></trkpt><trkpt lat="39.8157193" lon="9.2374348"><ele>758.0</ele><time>2026-05-01T11:24:26.337Z</time></trkpt><trkpt lat="39.8157417" lon="9.2375927"><ele>758.0</ele><time>2026-05-01T11:24:27.333Z</time></trkpt><trkpt lat="39.8157723" lon="9.2377368"><ele>757.75</ele><time>2026-05-01T11:24:28.333Z</time></trkpt><trkpt lat="39.8158177" lon="9.237884"><ele>757.5</ele><time>2026-05-01T11:24:29.333Z</time></trkpt><trkpt lat="39.8158868" lon="9.2380332"><ele>757.25</ele><time>2026-05-01T11:24:30.332Z</time></trkpt><trkpt lat="39.8159757" lon="9.2381947"><ele>757.0</ele><time>2026-05-01T11:24:31.333Z</time></trkpt><trkpt lat="39.8160813" lon="9.2383698"><ele>759.3333333333334</ele><time>2026-05-01T11:24:32.332Z</time></trkpt><trkpt lat="39.8161767" lon="9.2385522"><ele>761.6666666666666</ele><time>2026-05-01T11:24:33.333Z</time></trkpt><trkpt lat="39.8162615" lon="9.2387372"><ele>764.0</ele><time>2026-05-01T11:24:34.332Z</time></trkpt><trkpt lat="39.8163375" lon="9.2389217"><ele>762.5</ele><time>2026-05-01T11:24:35.336Z</time></trkpt><trkpt lat="39.8164125" lon="9.2391107"><ele>761.0</ele><time>2026-05-01T11:24:36.334Z</time></trkpt><trkpt lat="39.8164745" lon="9.2392853"><ele>759.5</ele><time>2026-05-01T11:24:37.333Z</time></trkpt><trkpt lat="39.8165258" lon="9.2394473"><ele>758.0</ele><time>2026-05-01T11:24:38.332Z</time></trkpt><trkpt lat="39.8165648" lon="9.2396068"><ele>758.0</ele><time>2026-05-01T11:24:39.335Z</time></trkpt><trkpt lat="39.8166" lon="9.2397772"><ele>758.0</ele><time>2026-05-01T11:24:40.334Z</time></trkpt><trkpt lat="39.8166343" lon="9.2399487"><ele>758.0</ele><time>2026-05-01T11:24:41.333Z</time></trkpt><trkpt lat="39.8166723" lon="9.240126"><ele>758.0</ele><time>2026-05-01T11:24:42.332Z</time></trkpt><trkpt lat="39.8167095" lon="9.2403032"><ele>756.6666666666666</ele><time>2026-05-01T11:24:43.333Z</time></trkpt><trkpt lat="39.8167495" lon="9.2404863"><ele>755.3333333333334</ele><time>2026-05-01T11:24:44.333Z</time></trkpt><trkpt lat="39.8168085" lon="9.2406812"><ele>754.0</ele><time>2026-05-01T11:24:45.333Z</time></trkpt><trkpt lat="39.8168742" lon="9.2408735"><ele>753.75</ele><time>2026-05-01T11:24:46.336Z</time></trkpt><trkpt lat="39.8169428" lon="9.2410563"><ele>753.5</ele><time>2026-05-01T11:24:47.335Z</time></trkpt><trkpt lat="39.8169898" lon="9.241236"><ele>753.25</ele><time>2026-05-01T11:24:48.333Z</time></trkpt><trkpt lat="39.8170283" lon="9.2414093"><ele>753.0</ele><time>2026-05-01T11:24:49.333Z</time></trkpt><trkpt lat="39.8170583" lon="9.2415887"><ele>752.5</ele><time>2026-05-01T11:24:50.333Z</time></trkpt><trkpt lat="39.8170822" lon="9.2417823"><ele>752.0</ele><time>2026-05-01T11:24:51.334Z</time></trkpt><trkpt lat="39.8171018" lon="9.2419618"><ele>751.5</ele><time>2026-05-01T11:24:52.334Z</time></trkpt><trkpt lat="39.8171187" lon="9.2421368"><ele>751.0</ele><time>2026-05-01T11:24:53.335Z</time></trkpt><trkpt lat="39.8171345" lon="9.2423027"><ele>750.0</ele><time>2026-05-01T11:24:54.334Z</time></trkpt><trkpt lat="39.8171432" lon="9.2424753"><ele>749.0</ele><time>2026-05-01T11:24:55.333Z</time></trkpt><trkpt lat="39.8171442" lon="9.2426488"><ele>748.0</ele><time>2026-05-01T11:24:56.337Z</time></trkpt><trkpt lat="39.8171387" lon="9.2428252"><ele>747.0</ele><time>2026-05-01T11:24:57.332Z</time></trkpt><trkpt lat="39.8171193" lon="9.2430085"><ele>746.3333333333334</ele><time>2026-05-01T11:24:58.335Z</time></trkpt><trkpt lat="39.8170937" lon="9.2432115"><ele>745.6666666666667</ele><time>2026-05-01T11:24:59.334Z</time></trkpt><trkpt lat="39.8170583" lon="9.2434262"><ele>745.0</ele><time>2026-05-01T11:25:00.332Z</time></trkpt><trkpt lat="39.8170153" lon="9.2436487"><ele>745.0</ele><time>2026-05-01T11:25:01.336Z</time></trkpt><trkpt lat="39.816957" lon="9.2438645"><ele>745.0</ele><time>2026-05-01T11:25:02.332Z</time></trkpt><trkpt lat="39.8169022" lon="9.244061"><ele>745.0</ele><time>2026-05-01T11:25:03.333Z</time></trkpt><trkpt lat="39.816846" lon="9.2442258"><ele>745.0</ele><time>2026-05-01T11:25:04.332Z</time></trkpt><trkpt lat="39.816785" lon="9.244379"><ele>745.0</ele><time>2026-05-01T11:25:05.333Z</time></trkpt><trkpt lat="39.8167203" lon="9.244545"><ele>745.0</ele><time>2026-05-01T11:25:06.337Z</time></trkpt><trkpt lat="39.8166477" lon="9.2447148"><ele>745.0</ele><time>2026-05-01T11:25:07.335Z</time></trkpt><trkpt lat="39.8165727" lon="9.2448842"><ele>745.0</ele><time>2026-05-01T11:25:08.334Z</time></trkpt><trkpt lat="39.8165013" lon="9.2450397"><ele>745.0</ele><time>2026-05-01T11:25:09.335Z</time></trkpt><trkpt lat="39.8164262" lon="9.2451857"><ele>745.0</ele><time>2026-05-01T11:25:10.332Z</time></trkpt><trkpt lat="39.8163238" lon="9.2453302"><ele>745.0</ele><time>2026-05-01T11:25:11.334Z</time></trkpt><trkpt lat="39.8161918" lon="9.2454682"><ele>745.0</ele><time>2026-05-01T11:25:12.333Z</time></trkpt><trkpt lat="39.816038" lon="9.2456033"><ele>745.0</ele><time>2026-05-01T11:25:13.333Z</time></trkpt><trkpt lat="39.8158935" lon="9.2457445"><ele>745.0</ele><time>2026-05-01T11:25:14.333Z</time></trkpt><trkpt lat="39.8157528" lon="9.2458858"><ele>747.0</ele><time>2026-05-01T11:25:15.332Z</time></trkpt><trkpt lat="39.8156158" lon="9.2460093"><ele>749.0</ele><time>2026-05-01T11:25:16.335Z</time></trkpt><trkpt lat="39.8154895" lon="9.2461182"><ele>751.0</ele><time>2026-05-01T11:25:17.334Z</time></trkpt><trkpt lat="39.815378" lon="9.246223"><ele>751.0</ele><time>2026-05-01T11:25:18.334Z</time></trkpt><trkpt lat="39.8152937" lon="9.2463205"><ele>751.0</ele><time>2026-05-01T11:25:19.336Z</time></trkpt><trkpt lat="39.8152172" lon="9.2464053"><ele>751.0</ele><time>2026-05-01T11:25:20.334Z</time></trkpt><trkpt lat="39.8151513" lon="9.2464572"><ele>754.0</ele><time>2026-05-01T11:25:22.333Z</time></trkpt></trkseg><trkseg><trkpt lat="39.8151453" lon="9.2467088"><ele>760.0</ele><time>2026-05-01T11:37:27.138Z</time></trkpt><trkpt lat="39.8150997" lon="9.246843"><ele>760.0</ele><time>2026-05-01T11:37:29.137Z</time></trkpt><trkpt lat="39.815049" lon="9.2469367"><ele>760.0</ele><time>2026-05-01T11:37:30.141Z</time></trkpt><trkpt lat="39.814957" lon="9.2471008"><ele>760.0</ele><time>2026-05-01T11:37:31.144Z</time></trkpt><trkpt lat="39.8148622" lon="9.2472637"><ele>761.0</ele><time>2026-05-01T11:37:32.14Z</time></trkpt><trkpt lat="39.8147623" lon="9.247426"><ele>762.0</ele><time>2026-05-01T11:37:33.144Z</time></trkpt><trkpt lat="39.814662" lon="9.2475965"><ele>763.0</ele><time>2026-05-01T11:37:34.136Z</time></trkpt><trkpt lat="39.8145605" lon="9.2477723"><ele>763.0</ele><time>2026-05-01T11:37:35.148Z</time></trkpt><trkpt lat="39.8144637" lon="9.2479507"><ele>763.0</ele><time>2026-05-01T11:37:36.138Z</time></trkpt><trkpt lat="39.8143882" lon="9.2481407"><ele>763.0</ele><time>2026-05-01T11:37:37.147Z</time></trkpt><trkpt lat="39.814327" lon="9.2483272"><ele>765.75</ele><time>2026-05-01T11:37:38.138Z</time></trkpt><trkpt lat="39.8142823" lon="9.2484952"><ele>768.5</ele><time>2026-05-01T11:37:39.138Z</time></trkpt><trkpt lat="39.8142563" lon="9.2486593"><ele>771.25</ele><time>2026-05-01T11:37:40.138Z</time></trkpt><trkpt lat="39.8142475" lon="9.2488335"><ele>774.0</ele><time>2026-05-01T11:37:41.137Z</time></trkpt><trkpt lat="39.814252" lon="9.2491238"><ele>775.6</ele><time>2026-05-01T11:37:42.936Z</time></trkpt><trkpt lat="39.8142597" lon="9.249253"><ele>777.2</ele><time>2026-05-01T11:37:43.836Z</time></trkpt><trkpt lat="39.8142652" lon="9.249367"><ele>778.8000000000001</ele><time>2026-05-01T11:37:44.736Z</time></trkpt><trkpt lat="39.8142712" lon="9.249461"><ele>780.4000000000001</ele><time>2026-05-01T11:37:45.637Z</time></trkpt><trkpt lat="39.8142828" lon="9.2495782"><ele>782.0</ele><time>2026-05-01T11:37:47.437Z</time></trkpt><trkpt lat="39.8141948" lon="9.2496455"><ele>782.0</ele><time>2026-05-01T11:37:50.331Z</time></trkpt><trkpt lat="39.8141237" lon="9.2496555"><ele>782.0</ele><time>2026-05-01T11:37:51.328Z</time></trkpt><trkpt lat="39.8140328" lon="9.2496592"><ele>782.0</ele><time>2026-05-01T11:37:52.331Z</time></trkpt><trkpt lat="39.8139277" lon="9.249661"><ele>782.0</ele><time>2026-05-01T11:37:53.331Z</time></trkpt><trkpt lat="39.8138147" lon="9.2496478"><ele>782.0</ele><time>2026-05-01T11:37:54.329Z</time></trkpt><trkpt lat="39.8136938" lon="9.2496133"><ele>782.0</ele><time>2026-05-01T11:37:55.329Z</time></trkpt><trkpt lat="39.8135632" lon="9.2495442"><ele>782.0</ele><time>2026-05-01T11:37:56.331Z</time></trkpt><trkpt lat="39.813438" lon="9.2494358"><ele>782.0</ele><time>2026-05-01T11:37:57.334Z</time></trkpt><trkpt lat="39.8133135" lon="9.2493263"><ele>782.0</ele><time>2026-05-01T11:37:58.33Z</time></trkpt><trkpt lat="39.8131932" lon="9.2492177"><ele>783.25</ele><time>2026-05-01T11:37:59.331Z</time></trkpt><trkpt lat="39.8130812" lon="9.2491188"><ele>784.5</ele><time>2026-05-01T11:38:00.331Z</time></trkpt><trkpt lat="39.8129637" lon="9.249041"><ele>785.75</ele><time>2026-05-01T11:38:01.331Z</time></trkpt><trkpt lat="39.8128267" lon="9.2489835"><ele>787.0</ele><time>2026-05-01T11:38:02.331Z</time></trkpt><trkpt lat="39.8126992" lon="9.2489532"><ele>786.5</ele><time>2026-05-01T11:38:03.332Z</time></trkpt><trkpt lat="39.8125673" lon="9.2489173"><ele>786.0</ele><time>2026-05-01T11:38:04.331Z</time></trkpt><trkpt lat="39.8124487" lon="9.2488865"><ele>785.5</ele><time>2026-05-01T11:38:05.331Z</time></trkpt><trkpt lat="39.8123295" lon="9.2488242"><ele>785.0</ele><time>2026-05-01T11:38:06.33Z</time></trkpt><trkpt lat="39.8122148" lon="9.2487533"><ele>785.0</ele><time>2026-05-01T11:38:07.329Z</time></trkpt><trkpt lat="39.8121017" lon="9.248673"><ele>785.0</ele><time>2026-05-01T11:38:08.333Z</time></trkpt><trkpt lat="39.8120263" lon="9.2485945"><ele>785.0</ele><time>2026-05-01T11:38:09.329Z</time></trkpt><trkpt lat="39.8119502" lon="9.248511"><ele>785.0</ele><time>2026-05-01T11:38:11.329Z</time></trkpt><trkpt lat="39.8119028" lon="9.2485793"><ele>785.0</ele><time>2026-05-01T11:38:18.332Z</time></trkpt><trkpt lat="39.8118543" lon="9.2487033"><ele>785.0</ele><time>2026-05-01T11:38:20.336Z</time></trkpt><trkpt lat="39.811827" lon="9.2488058"><ele>785.0</ele><time>2026-05-01T11:38:21.333Z</time></trkpt><trkpt lat="39.811797" lon="9.248931"><ele>785.0</ele><time>2026-05-01T11:38:22.331Z</time></trkpt><trkpt lat="39.8117667" lon="9.2490632"><ele>785.0</ele><time>2026-05-01T11:38:23.337Z</time></trkpt><trkpt lat="39.8117425" lon="9.249201"><ele>785.0</ele><time>2026-05-01T11:38:24.331Z</time></trkpt><trkpt lat="39.8117318" lon="9.249344"><ele>786.75</ele><time>2026-05-01T11:38:25.332Z</time></trkpt><trkpt lat="39.811731" lon="9.2494837"><ele>788.5</ele><time>2026-05-01T11:38:26.33Z</time></trkpt><trkpt lat="39.811731" lon="9.2496213"><ele>790.25</ele><time>2026-05-01T11:38:27.331Z</time></trkpt><trkpt lat="39.8117435" lon="9.2497695"><ele>792.0</ele><time>2026-05-01T11:38:28.332Z</time></trkpt><trkpt lat="39.8117737" lon="9.2499353"><ele>792.0</ele><time>2026-05-01T11:38:29.33Z</time></trkpt><trkpt lat="39.8118215" lon="9.2501117"><ele>792.0</ele><time>2026-05-01T11:38:30.336Z</time></trkpt><trkpt lat="39.8118652" lon="9.2502698"><ele>792.0</ele><time>2026-05-01T11:38:31.331Z</time></trkpt><trkpt lat="39.8119033" lon="9.2504287"><ele>792.0</ele><time>2026-05-01T11:38:32.334Z</time></trkpt><trkpt lat="39.8119232" lon="9.2505892"><ele>792.0</ele><time>2026-05-01T11:38:33.333Z</time></trkpt><trkpt lat="39.8119197" lon="9.2507445"><ele>792.0</ele><time>2026-05-01T11:38:34.333Z</time></trkpt><trkpt lat="39.8118987" lon="9.2508848"><ele>792.0</ele><time>2026-05-01T11:38:35.332Z</time></trkpt><trkpt lat="39.8118537" lon="9.2509963"><ele>792.0</ele><time>2026-05-01T11:38:36.334Z</time></trkpt><trkpt lat="39.8117768" lon="9.2510927"><ele>792.0</ele><time>2026-05-01T11:38:37.332Z</time></trkpt><trkpt lat="39.8116878" lon="9.2511753"><ele>792.0</ele><time>2026-05-01T11:38:38.331Z</time></trkpt><trkpt lat="39.8115855" lon="9.2512425"><ele>792.0</ele><time>2026-05-01T11:38:39.331Z</time></trkpt><trkpt lat="39.8114715" lon="9.2512827"><ele>792.0</ele><time>2026-05-01T11:38:40.331Z</time></trkpt><trkpt lat="39.8113392" lon="9.2513192"><ele>792.0</ele><time>2026-05-01T11:38:41.337Z</time></trkpt><trkpt lat="39.8112055" lon="9.2513543"><ele>792.0</ele><time>2026-05-01T11:38:42.331Z</time></trkpt><trkpt lat="39.8110602" lon="9.2513858"><ele>792.0</ele><time>2026-05-01T11:38:43.331Z</time></trkpt><trkpt lat="39.810925" lon="9.2514115"><ele>792.0</ele><time>2026-05-01T11:38:44.329Z</time></trkpt><trkpt lat="39.81081" lon="9.251437"><ele>792.0</ele><time>2026-05-01T11:38:45.33Z</time></trkpt><trkpt lat="39.8107148" lon="9.25147"><ele>791.6</ele><time>2026-05-01T11:38:46.333Z</time></trkpt><trkpt lat="39.8106368" lon="9.25152"><ele>791.2</ele><time>2026-05-01T11:38:47.332Z</time></trkpt><trkpt lat="39.8105567" lon="9.251597"><ele>790.8</ele><time>2026-05-01T11:38:48.331Z</time></trkpt><trkpt lat="39.8104703" lon="9.2516975"><ele>790.4</ele><time>2026-05-01T11:38:49.33Z</time></trkpt><trkpt lat="39.8103607" lon="9.251816"><ele>790.0</ele><time>2026-05-01T11:38:50.331Z</time></trkpt><trkpt lat="39.8102397" lon="9.251933"><ele>790.0</ele><time>2026-05-01T11:38:51.334Z</time></trkpt><trkpt lat="39.810105" lon="9.2520373"><ele>790.0</ele><time>2026-05-01T11:38:52.328Z</time></trkpt><trkpt lat="39.8099562" lon="9.25214"><ele>790.0</ele><time>2026-05-01T11:38:53.331Z</time></trkpt><trkpt lat="39.8098142" lon="9.2522483"><ele>789.25</ele><time>2026-05-01T11:38:54.329Z</time></trkpt><trkpt lat="39.8096968" lon="9.2523412"><ele>788.5</ele><time>2026-05-01T11:38:55.328Z</time></trkpt><trkpt lat="39.8095788" lon="9.2524097"><ele>787.75</ele><time>2026-05-01T11:38:56.33Z</time></trkpt><trkpt lat="39.8094405" lon="9.252432"><ele>787.0</ele><time>2026-05-01T11:38:57.329Z</time></trkpt><trkpt lat="39.8092707" lon="9.2524585"><ele>786.0</ele><time>2026-05-01T11:38:58.331Z</time></trkpt><trkpt lat="39.809094" lon="9.2524883"><ele>785.0</ele><time>2026-05-01T11:38:59.33Z</time></trkpt><trkpt lat="39.80893" lon="9.2525225"><ele>784.0</ele><time>2026-05-01T11:39:00.329Z</time></trkpt><trkpt lat="39.8087943" lon="9.2525435"><ele>784.0</ele><time>2026-05-01T11:39:01.329Z</time></trkpt><trkpt lat="39.808675" lon="9.2525555"><ele>784.0</ele><time>2026-05-01T11:39:02.329Z</time></trkpt><trkpt lat="39.808562" lon="9.2525673"><ele>784.0</ele><time>2026-05-01T11:39:03.33Z</time></trkpt><trkpt lat="39.8084638" lon="9.2525853"><ele>784.0</ele><time>2026-05-01T11:39:04.329Z</time></trkpt><trkpt lat="39.8083732" lon="9.2525972"><ele>784.0</ele><time>2026-05-01T11:39:05.33Z</time></trkpt><trkpt lat="39.8083017" lon="9.2526252"><ele>783.3333333333333</ele><time>2026-05-01T11:39:06.33Z</time></trkpt><trkpt lat="39.8082248" lon="9.2526455"><ele>782.6666666666666</ele><time>2026-05-01T11:39:07.33Z</time></trkpt><trkpt lat="39.8081373" lon="9.2526733"><ele>782.0</ele><time>2026-05-01T11:39:09.337Z</time></trkpt><trkpt lat="39.8080917" lon="9.2527572"><ele>781.3333333333333</ele><time>2026-05-01T11:39:13.331Z</time></trkpt><trkpt lat="39.8081117" lon="9.2528623"><ele>780.6666666666666</ele><time>2026-05-01T11:39:16.331Z</time></trkpt><trkpt lat="39.8081293" lon="9.2529465"><ele>780.0</ele><time>2026-05-01T11:39:18.331Z</time></trkpt><trkpt lat="39.8081308" lon="9.253049"><ele>779.8333333333334</ele><time>2026-05-01T11:39:20.331Z</time></trkpt><trkpt lat="39.808134" lon="9.2531457"><ele>779.6666666666667</ele><time>2026-05-01T11:39:22.333Z</time></trkpt><trkpt lat="39.8081253" lon="9.2532432"><ele>779.5</ele><time>2026-05-01T11:39:24.329Z</time></trkpt><trkpt lat="39.8081128" lon="9.2533467"><ele>779.3333333333334</ele><time>2026-05-01T11:39:26.33Z</time></trkpt><trkpt lat="39.8081105" lon="9.2534678"><ele>779.1666666666667</ele><time>2026-05-01T11:39:28.329Z</time></trkpt><trkpt lat="39.8081113" lon="9.2536037"><ele>779.0</ele><time>2026-05-01T11:39:30.33Z</time></trkpt><trkpt lat="39.8081147" lon="9.2536887"><ele>779.0000000000001</ele><time>2026-05-01T11:39:31.329Z</time></trkpt><trkpt lat="39.8081165" lon="9.2537855"><ele>779.0</ele><time>2026-05-01T11:39:32.332Z</time></trkpt><trkpt lat="39.8081207" lon="9.2538895"><ele>779.0</ele><time>2026-05-01T11:39:33.331Z</time></trkpt><trkpt lat="39.8081343" lon="9.2540045"><ele>779.0</ele><time>2026-05-01T11:39:34.329Z</time></trkpt><trkpt lat="39.808153" lon="9.2541262"><ele>779.0000000000001</ele><time>2026-05-01T11:39:35.332Z</time></trkpt><trkpt lat="39.8081712" lon="9.2542495"><ele>779.0</ele><time>2026-05-01T11:39:36.332Z</time></trkpt><trkpt lat="39.8081793" lon="9.2543747"><ele>779.0</ele><time>2026-05-01T11:39:37.332Z</time></trkpt><trkpt lat="39.8081843" lon="9.254505"><ele>779.0</ele><time>2026-05-01T11:39:38.333Z</time></trkpt><trkpt lat="39.8081915" lon="9.2546372"><ele>779.0</ele><time>2026-05-01T11:39:39.332Z</time></trkpt><trkpt lat="39.8082032" lon="9.254774"><ele>779.0</ele><time>2026-05-01T11:39:40.331Z</time></trkpt><trkpt lat="39.8082202" lon="9.2549067"><ele>779.0</ele><time>2026-05-01T11:39:41.33Z</time></trkpt><trkpt lat="39.808258" lon="9.2550265"><ele>779.0000000000001</ele><time>2026-05-01T11:39:42.33Z</time></trkpt><trkpt lat="39.8082967" lon="9.2551412"><ele>779.0</ele><time>2026-05-01T11:39:43.331Z</time></trkpt><trkpt lat="39.8083313" lon="9.2552497"><ele>779.0</ele><time>2026-05-01T11:39:44.331Z</time></trkpt><trkpt lat="39.8083433" lon="9.2553435"><ele>779.0</ele><time>2026-05-01T11:39:45.332Z</time></trkpt><trkpt lat="39.8083368" lon="9.2554303"><ele>779.0000000000001</ele><time>2026-05-01T11:39:46.331Z</time></trkpt><trkpt lat="39.8083157" lon="9.2555113"><ele>779.0</ele><time>2026-05-01T11:39:47.331Z</time></trkpt><trkpt lat="39.8082662" lon="9.2556305"><ele>779.2</ele><time>2026-05-01T11:39:49.33Z</time></trkpt><trkpt lat="39.8082723" lon="9.2557182"><ele>779.4000000000001</ele><time>2026-05-01T11:39:51.333Z</time></trkpt><trkpt lat="39.8083408" lon="9.2558753"><ele>779.6</ele><time>2026-05-01T11:39:53.335Z</time></trkpt><trkpt lat="39.8083937" lon="9.2559698"><ele>779.8</ele><time>2026-05-01T11:39:54.33Z</time></trkpt><trkpt lat="39.8084473" lon="9.256069"><ele>780.0</ele><time>2026-05-01T11:39:55.33Z</time></trkpt><trkpt lat="39.8085058" lon="9.2561803"><ele>780.0</ele><time>2026-05-01T11:39:56.331Z</time></trkpt><trkpt lat="39.8085662" lon="9.2563015"><ele>780.0</ele><time>2026-05-01T11:39:57.331Z</time></trkpt><trkpt lat="39.80863" lon="9.2564355"><ele>780.0</ele><time>2026-05-01T11:39:58.332Z</time></trkpt><trkpt lat="39.8086972" lon="9.2565823"><ele>780.0</ele><time>2026-05-01T11:39:59.33Z</time></trkpt><trkpt lat="39.8087692" lon="9.2567347"><ele>780.0</ele><time>2026-05-01T11:40:00.33Z</time></trkpt><trkpt lat="39.8088395" lon="9.2568922"><ele>780.0</ele><time>2026-05-01T11:40:01.33Z</time></trkpt><trkpt lat="39.808907" lon="9.257052"><ele>780.0</ele><time>2026-05-01T11:40:02.331Z</time></trkpt><trkpt lat="39.808979" lon="9.2572175"><ele>780.0</ele><time>2026-05-01T11:40:03.329Z</time></trkpt><trkpt lat="39.8090532" lon="9.2573825"><ele>780.0</ele><time>2026-05-01T11:40:04.331Z</time></trkpt><trkpt lat="39.8091245" lon="9.257548"><ele>780.0</ele><time>2026-05-01T11:40:05.33Z</time></trkpt><trkpt lat="39.809198" lon="9.2577198"><ele>780.0</ele><time>2026-05-01T11:40:06.329Z</time></trkpt><trkpt lat="39.8092643" lon="9.2578883"><ele>780.0</ele><time>2026-05-01T11:40:07.333Z</time></trkpt><trkpt lat="39.8093335" lon="9.2580577"><ele>779.3333333333333</ele><time>2026-05-01T11:40:08.329Z</time></trkpt><trkpt lat="39.809404" lon="9.2582338"><ele>778.6666666666666</ele><time>2026-05-01T11:40:09.331Z</time></trkpt><trkpt lat="39.8094747" lon="9.2584072"><ele>778.0</ele><time>2026-05-01T11:40:10.331Z</time></trkpt><trkpt lat="39.8095492" lon="9.2585908"><ele>778.0</ele><time>2026-05-01T11:40:11.332Z</time></trkpt><trkpt lat="39.809621" lon="9.2587672"><ele>778.0</ele><time>2026-05-01T11:40:12.331Z</time></trkpt><trkpt lat="39.8096948" lon="9.2589527"><ele>778.0</ele><time>2026-05-01T11:40:13.331Z</time></trkpt><trkpt lat="39.8097638" lon="9.2591447"><ele>778.0</ele><time>2026-05-01T11:40:14.331Z</time></trkpt><trkpt lat="39.8098192" lon="9.2593423"><ele>778.0</ele><time>2026-05-01T11:40:15.329Z</time></trkpt><trkpt lat="39.8098622" lon="9.2595498"><ele>778.0</ele><time>2026-05-01T11:40:16.328Z</time></trkpt><trkpt lat="39.8098875" lon="9.2597635"><ele>777.6666666666666</ele><time>2026-05-01T11:40:17.331Z</time></trkpt><trkpt lat="39.8099152" lon="9.25999"><ele>777.3333333333333</ele><time>2026-05-01T11:40:18.33Z</time></trkpt><trkpt lat="39.8099173" lon="9.2602063"><ele>777.0</ele><time>2026-05-01T11:40:19.335Z</time></trkpt><trkpt lat="39.8099403" lon="9.2604305"><ele>775.3333333333333</ele><time>2026-05-01T11:40:20.331Z</time></trkpt><trkpt lat="39.8099455" lon="9.2606598"><ele>773.6666666666666</ele><time>2026-05-01T11:40:21.33Z</time></trkpt><trkpt lat="39.8099543" lon="9.2608918"><ele>772.0</ele><time>2026-05-01T11:40:22.33Z</time></trkpt><trkpt lat="39.8099725" lon="9.2611222"><ele>772.0</ele><time>2026-05-01T11:40:23.337Z</time></trkpt><trkpt lat="39.8099793" lon="9.261339"><ele>772.0</ele><time>2026-05-01T11:40:24.331Z</time></trkpt><trkpt lat="39.8099903" lon="9.2615542"><ele>772.0</ele><time>2026-05-01T11:40:25.334Z</time></trkpt><trkpt lat="39.8099965" lon="9.2617558"><ele>771.25</ele><time>2026-05-01T11:40:26.33Z</time></trkpt><trkpt lat="39.8100032" lon="9.2619583"><ele>770.5</ele><time>2026-05-01T11:40:27.332Z</time></trkpt><trkpt lat="39.8100058" lon="9.2621395"><ele>769.75</ele><time>2026-05-01T11:40:28.331Z</time></trkpt><trkpt lat="39.8099792" lon="9.2623092"><ele>769.0</ele><time>2026-05-01T11:40:29.331Z</time></trkpt><trkpt lat="39.8099362" lon="9.26246"><ele>768.8000000000001</ele><time>2026-05-01T11:40:30.332Z</time></trkpt><trkpt lat="39.809871" lon="9.2625787"><ele>768.6</ele><time>2026-05-01T11:40:31.331Z</time></trkpt><trkpt lat="39.8098198" lon="9.2626778"><ele>768.4</ele><time>2026-05-01T11:40:32.331Z</time></trkpt><trkpt lat="39.8097647" lon="9.2628017"><ele>768.2</ele><time>2026-05-01T11:40:34.331Z</time></trkpt><trkpt lat="39.8097537" lon="9.2628922"><ele>768.0</ele><time>2026-05-01T11:40:36.33Z</time></trkpt><trkpt lat="39.8097798" lon="9.2629992"><ele>768.0</ele><time>2026-05-01T11:40:38.331Z</time></trkpt><trkpt lat="39.8098593" lon="9.263093"><ele>768.0</ele><time>2026-05-01T11:40:40.333Z</time></trkpt><trkpt lat="39.8099535" lon="9.2631718"><ele>768.0</ele><time>2026-05-01T11:40:42.334Z</time></trkpt><trkpt lat="39.8100522" lon="9.2632597"><ele>768.0</ele><time>2026-05-01T11:40:44.33Z</time></trkpt><trkpt lat="39.810154" lon="9.2633488"><ele>767.8333333333334</ele><time>2026-05-01T11:40:46.331Z</time></trkpt><trkpt lat="39.8102102" lon="9.2633937"><ele>767.6666666666666</ele><time>2026-05-01T11:40:47.332Z</time></trkpt><trkpt lat="39.810274" lon="9.2634428"><ele>767.5</ele><time>2026-05-01T11:40:48.331Z</time></trkpt><trkpt lat="39.81034" lon="9.2634945"><ele>767.3333333333333</ele><time>2026-05-01T11:40:49.332Z</time></trkpt><trkpt lat="39.8104113" lon="9.2635557"><ele>767.1666666666666</ele><time>2026-05-01T11:40:50.333Z</time></trkpt><trkpt lat="39.8104895" lon="9.2636285"><ele>767.0</ele><time>2026-05-01T11:40:51.33Z</time></trkpt><trkpt lat="39.8105683" lon="9.2637062"><ele>767.0</ele><time>2026-05-01T11:40:52.33Z</time></trkpt><trkpt lat="39.810657" lon="9.2637948"><ele>767.0</ele><time>2026-05-01T11:40:53.337Z</time></trkpt><trkpt lat="39.8107517" lon="9.2638923"><ele>767.0</ele><time>2026-05-01T11:40:54.332Z</time></trkpt><trkpt lat="39.8108513" lon="9.263992"><ele>767.0</ele><time>2026-05-01T11:40:55.33Z</time></trkpt><trkpt lat="39.810957" lon="9.2640992"><ele>766.75</ele><time>2026-05-01T11:40:56.331Z</time></trkpt><trkpt lat="39.8110665" lon="9.2642095"><ele>766.5</ele><time>2026-05-01T11:40:57.33Z</time></trkpt><trkpt lat="39.8111793" lon="9.2643292"><ele>766.25</ele><time>2026-05-01T11:40:58.332Z</time></trkpt><trkpt lat="39.8112998" lon="9.2644478"><ele>766.0</ele><time>2026-05-01T11:40:59.336Z</time></trkpt><trkpt lat="39.8114248" lon="9.2645775"><ele>766.0</ele><time>2026-05-01T11:41:00.331Z</time></trkpt><trkpt lat="39.8115437" lon="9.2647068"><ele>766.0</ele><time>2026-05-01T11:41:01.334Z</time></trkpt><trkpt lat="39.8116693" lon="9.2648428"><ele>766.0</ele><time>2026-05-01T11:41:02.332Z</time></trkpt><trkpt lat="39.8117967" lon="9.2649782"><ele>765.6666666666667</ele><time>2026-05-01T11:41:03.331Z</time></trkpt><trkpt lat="39.8119253" lon="9.2651123"><ele>765.3333333333334</ele><time>2026-05-01T11:41:04.333Z</time></trkpt><trkpt lat="39.8120558" lon="9.2652437"><ele>765.0</ele><time>2026-05-01T11:41:05.331Z</time></trkpt><trkpt lat="39.8121877" lon="9.2653758"><ele>765.0</ele><time>2026-05-01T11:41:06.33Z</time></trkpt><trkpt lat="39.81232" lon="9.2655075"><ele>765.0</ele><time>2026-05-01T11:41:07.33Z</time></trkpt><trkpt lat="39.8124512" lon="9.2656453"><ele>765.0</ele><time>2026-05-01T11:41:08.332Z</time></trkpt><trkpt lat="39.8125825" lon="9.2657827"><ele>764.0</ele><time>2026-05-01T11:41:09.331Z</time></trkpt><trkpt lat="39.8127143" lon="9.2659237"><ele>763.0</ele><time>2026-05-01T11:41:10.332Z</time></trkpt><trkpt lat="39.8128502" lon="9.2660635"><ele>762.0</ele><time>2026-05-01T11:41:11.334Z</time></trkpt><trkpt lat="39.812986" lon="9.2662018"><ele>762.0</ele><time>2026-05-01T11:41:12.33Z</time></trkpt><trkpt lat="39.8131163" lon="9.266344"><ele>762.0</ele><time>2026-05-01T11:41:13.331Z</time></trkpt><trkpt lat="39.8132545" lon="9.2664798"><ele>762.0</ele><time>2026-05-01T11:41:14.334Z</time></trkpt><trkpt lat="39.8133933" lon="9.2666217"><ele>762.3333333333334</ele><time>2026-05-01T11:41:15.332Z</time></trkpt><trkpt lat="39.8135293" lon="9.2667673"><ele>762.6666666666667</ele><time>2026-05-01T11:41:16.336Z</time></trkpt><trkpt lat="39.813671" lon="9.266906"><ele>763.0</ele><time>2026-05-01T11:41:17.33Z</time></trkpt><trkpt lat="39.8138038" lon="9.2670482"><ele>763.0</ele><time>2026-05-01T11:41:18.331Z</time></trkpt><trkpt lat="39.8139348" lon="9.2671898"><ele>763.0</ele><time>2026-05-01T11:41:19.332Z</time></trkpt><trkpt lat="39.8140638" lon="9.2673252"><ele>763.0</ele><time>2026-05-01T11:41:20.329Z</time></trkpt><trkpt lat="39.814193" lon="9.267463"><ele>764.0</ele><time>2026-05-01T11:41:21.332Z</time></trkpt><trkpt lat="39.8143278" lon="9.2676088"><ele>765.0</ele><time>2026-05-01T11:41:22.33Z</time></trkpt><trkpt lat="39.8144538" lon="9.2677433"><ele>766.0</ele><time>2026-05-01T11:41:23.33Z</time></trkpt><trkpt lat="39.8145845" lon="9.2678732"><ele>766.0</ele><time>2026-05-01T11:41:24.336Z</time></trkpt><trkpt lat="39.8147175" lon="9.2680058"><ele>766.0</ele><time>2026-05-01T11:41:25.33Z</time></trkpt><trkpt lat="39.8148453" lon="9.2681438"><ele>766.0</ele><time>2026-05-01T11:41:26.335Z</time></trkpt><trkpt lat="39.8149752" lon="9.2682773"><ele>766.0</ele><time>2026-05-01T11:41:27.333Z</time></trkpt><trkpt lat="39.8151097" lon="9.2684137"><ele>766.0</ele><time>2026-05-01T11:41:28.33Z</time></trkpt><trkpt lat="39.8152418" lon="9.2685523"><ele>766.0</ele><time>2026-05-01T11:41:29.334Z</time></trkpt><trkpt lat="39.8153793" lon="9.2686878"><ele>766.0</ele><time>2026-05-01T11:41:30.331Z</time></trkpt><trkpt lat="39.8155055" lon="9.2688168"><ele>766.0</ele><time>2026-05-01T11:41:31.333Z</time></trkpt><trkpt lat="39.8156335" lon="9.2689417"><ele>766.0</ele><time>2026-05-01T11:41:32.331Z</time></trkpt><trkpt lat="39.815757" lon="9.2690672"><ele>766.0</ele><time>2026-05-01T11:41:33.33Z</time></trkpt><trkpt lat="39.8158755" lon="9.2691948"><ele>766.0</ele><time>2026-05-01T11:41:34.33Z</time></trkpt><trkpt lat="39.8159935" lon="9.2693303"><ele>766.0</ele><time>2026-05-01T11:41:35.332Z</time></trkpt><trkpt lat="39.8161152" lon="9.2694568"><ele>766.0</ele><time>2026-05-01T11:41:36.335Z</time></trkpt><trkpt lat="39.8162243" lon="9.2695785"><ele>766.0</ele><time>2026-05-01T11:41:37.331Z</time></trkpt><trkpt lat="39.8163297" lon="9.26968"><ele>766.0</ele><time>2026-05-01T11:41:38.334Z</time></trkpt><trkpt lat="39.8164177" lon="9.269762"><ele>766.0</ele><time>2026-05-01T11:41:39.33Z</time></trkpt><trkpt lat="39.8164917" lon="9.2698358"><ele>766.1999999999999</ele><time>2026-05-01T11:41:40.332Z</time></trkpt><trkpt lat="39.8165522" lon="9.2699"><ele>766.4</ele><time>2026-05-01T11:41:41.33Z</time></trkpt><trkpt lat="39.8166332" lon="9.2700068"><ele>766.6</ele><time>2026-05-01T11:41:43.33Z</time></trkpt><trkpt lat="39.816639" lon="9.2700942"><ele>766.8</ele><time>2026-05-01T11:41:45.33Z</time></trkpt><trkpt lat="39.8166353" lon="9.2702128"><ele>767.0</ele><time>2026-05-01T11:42:12.332Z</time></trkpt><trkpt lat="39.8165922" lon="9.2703297"><ele>767.0</ele><time>2026-05-01T11:42:14.33Z</time></trkpt><trkpt lat="39.8165343" lon="9.2703953"><ele>767.0</ele><time>2026-05-01T11:42:15.329Z</time></trkpt><trkpt lat="39.8164715" lon="9.270462"><ele>767.0</ele><time>2026-05-01T11:42:16.331Z</time></trkpt><trkpt lat="39.8164075" lon="9.2705393"><ele>767.0</ele><time>2026-05-01T11:42:17.329Z</time></trkpt><trkpt lat="39.8163402" lon="9.2706312"><ele>767.0</ele><time>2026-05-01T11:42:18.329Z</time></trkpt><trkpt lat="39.8162713" lon="9.2707265"><ele>767.0</ele><time>2026-05-01T11:42:19.331Z</time></trkpt><trkpt lat="39.8161955" lon="9.2708192"><ele>767.2</ele><time>2026-05-01T11:42:20.332Z</time></trkpt><trkpt lat="39.8161128" lon="9.270914"><ele>767.4000000000001</ele><time>2026-05-01T11:42:21.33Z</time></trkpt><trkpt lat="39.8160362" lon="9.271014"><ele>767.5999999999999</ele><time>2026-05-01T11:42:22.332Z</time></trkpt><trkpt lat="39.8159602" lon="9.2711098"><ele>767.8</ele><time>2026-05-01T11:42:23.328Z</time></trkpt><trkpt lat="39.815885" lon="9.271205"><ele>768.0</ele><time>2026-05-01T11:42:24.328Z</time></trkpt><trkpt lat="39.8158083" lon="9.2712985"><ele>768.0</ele><time>2026-05-01T11:42:25.332Z</time></trkpt><trkpt lat="39.8157387" lon="9.271398"><ele>768.0</ele><time>2026-05-01T11:42:26.328Z</time></trkpt><trkpt lat="39.8156732" lon="9.2714888"><ele>768.0</ele><time>2026-05-01T11:42:27.329Z</time></trkpt><trkpt lat="39.8156073" lon="9.2715728"><ele>768.0</ele><time>2026-05-01T11:42:28.331Z</time></trkpt><trkpt lat="39.8155483" lon="9.271653"><ele>768.0</ele><time>2026-05-01T11:42:29.328Z</time></trkpt><trkpt lat="39.8154867" lon="9.2717343"><ele>768.0</ele><time>2026-05-01T11:42:30.329Z</time></trkpt><trkpt lat="39.8154255" lon="9.2718178"><ele>768.0</ele><time>2026-05-01T11:42:31.329Z</time></trkpt><trkpt lat="39.8153613" lon="9.2718975"><ele>768.0</ele><time>2026-05-01T11:42:32.327Z</time></trkpt><trkpt lat="39.8152947" lon="9.2719748"><ele>768.0</ele><time>2026-05-01T11:42:33.33Z</time></trkpt><trkpt lat="39.8152282" lon="9.2720605"><ele>768.0</ele><time>2026-05-01T11:42:34.331Z</time></trkpt><trkpt lat="39.8151607" lon="9.2721453"><ele>768.0</ele><time>2026-05-01T11:42:35.332Z</time></trkpt><trkpt lat="39.8150908" lon="9.2722343"><ele>768.0</ele><time>2026-05-01T11:42:36.332Z</time></trkpt><trkpt lat="39.8150207" lon="9.2723197"><ele>768.0</ele><time>2026-05-01T11:42:37.331Z</time></trkpt><trkpt lat="39.814951" lon="9.2724017"><ele>768.0</ele><time>2026-05-01T11:42:38.337Z</time></trkpt><trkpt lat="39.8148822" lon="9.2724852"><ele>768.0</ele><time>2026-05-01T11:42:39.33Z</time></trkpt><trkpt lat="39.8148147" lon="9.272567"><ele>768.0</ele><time>2026-05-01T11:42:40.329Z</time></trkpt><trkpt lat="39.814751" lon="9.2726477"><ele>768.0</ele><time>2026-05-01T11:42:41.335Z</time></trkpt><trkpt lat="39.814687" lon="9.2727237"><ele>768.0</ele><time>2026-05-01T11:42:42.329Z</time></trkpt><trkpt lat="39.8146208" lon="9.272797"><ele>768.0</ele><time>2026-05-01T11:42:43.329Z</time></trkpt><trkpt lat="39.8145648" lon="9.2728683"><ele>768.0</ele><time>2026-05-01T11:42:44.33Z</time></trkpt><trkpt lat="39.814513" lon="9.2729352"><ele>768.0</ele><time>2026-05-01T11:42:45.334Z</time></trkpt><trkpt lat="39.8144622" lon="9.272992"><ele>768.0</ele><time>2026-05-01T11:42:46.331Z</time></trkpt><trkpt lat="39.8143772" lon="9.273093"><ele>768.0</ele><time>2026-05-01T11:42:48.331Z</time></trkpt><trkpt lat="39.8142917" lon="9.2731452"><ele>768.0</ele><time>2026-05-01T11:42:50.329Z</time></trkpt><trkpt lat="39.8142275" lon="9.273053"><ele>768.0</ele><time>2026-05-01T11:42:52.33Z</time></trkpt><trkpt lat="39.8141955" lon="9.2729463"><ele>768.0</ele><time>2026-05-01T11:42:54.331Z</time></trkpt><trkpt lat="39.8141483" lon="9.2728348"><ele>767.5999999999999</ele><time>2026-05-01T11:42:56.331Z</time></trkpt><trkpt lat="39.8141013" lon="9.2727127"><ele>767.1999999999999</ele><time>2026-05-01T11:42:58.335Z</time></trkpt><trkpt lat="39.814053" lon="9.2725935"><ele>766.8</ele><time>2026-05-01T11:43:00.332Z</time></trkpt><trkpt lat="39.8139927" lon="9.2724875"><ele>766.4</ele><time>2026-05-01T11:43:02.33Z</time></trkpt><trkpt lat="39.8139367" lon="9.2723998"><ele>766.0</ele><time>2026-05-01T11:43:04.329Z</time></trkpt><trkpt lat="39.8140145" lon="9.2724008"><ele>766.0</ele><time>2026-05-01T11:43:08.329Z</time></trkpt><trkpt lat="39.8140508" lon="9.2724807"><ele>766.0</ele><time>2026-05-01T11:43:11.331Z</time></trkpt><trkpt lat="39.8140927" lon="9.2725533"><ele>766.0</ele><time>2026-05-01T11:43:14.339Z</time></trkpt><trkpt lat="39.814128" lon="9.2726327"><ele>766.0</ele><time>2026-05-01T11:43:16.33Z</time></trkpt><trkpt lat="39.8141573" lon="9.2727358"><ele>766.0</ele><time>2026-05-01T11:43:19.331Z</time></trkpt><trkpt lat="39.814204" lon="9.2727948"><ele>766.0</ele><time>2026-05-01T11:43:47.374Z</time></trkpt><trkpt lat="39.8142525" lon="9.2728628"><ele>766.0</ele><time>2026-05-01T11:45:20.328Z</time></trkpt><trkpt lat="39.8142234" lon="9.2729468"><ele>766.0</ele><time>2026-05-01T11:48:37.339Z</time></trkpt><trkpt lat="39.8142105" lon="9.2730345"><ele>766.0</ele><time>2026-05-01T11:48:44.338Z</time></trkpt><trkpt lat="39.8142596" lon="9.2731081"><ele>767.0</ele><time>2026-05-01T11:52:05.325Z</time></trkpt></trkseg><trkseg><trkpt lat="39.8149888" lon="9.2747512"><ele>760.0</ele><time>2026-05-01T13:49:31.115Z</time></trkpt><trkpt lat="39.814939" lon="9.2746605"><ele>760.0</ele><time>2026-05-01T13:49:32.114Z</time></trkpt><trkpt lat="39.814891" lon="9.2745652"><ele>760.0</ele><time>2026-05-01T13:49:33.117Z</time></trkpt><trkpt lat="39.8148412" lon="9.2744617"><ele>760.0</ele><time>2026-05-01T13:49:34.116Z</time></trkpt><trkpt lat="39.8147935" lon="9.2743605"><ele>760.0</ele><time>2026-05-01T13:49:35.118Z</time></trkpt><trkpt lat="39.8147465" lon="9.274255"><ele>760.0</ele><time>2026-05-01T13:49:36.116Z</time></trkpt><trkpt lat="39.8146957" lon="9.2741615"><ele>760.0</ele><time>2026-05-01T13:49:37.117Z</time></trkpt><trkpt lat="39.8146432" lon="9.274062"><ele>760.0</ele><time>2026-05-01T13:49:38.115Z</time></trkpt><trkpt lat="39.8145927" lon="9.2739665"><ele>760.0</ele><time>2026-05-01T13:49:39.114Z</time></trkpt><trkpt lat="39.8145423" lon="9.273864"><ele>760.0</ele><time>2026-05-01T13:49:40.115Z</time></trkpt><trkpt lat="39.8144955" lon="9.2737603"><ele>760.8333333333334</ele><time>2026-05-01T13:49:41.12Z</time></trkpt><trkpt lat="39.8144532" lon="9.2736557"><ele>761.6666666666667</ele><time>2026-05-01T13:49:42.118Z</time></trkpt><trkpt lat="39.8144135" lon="9.2735498"><ele>762.5</ele><time>2026-05-01T13:49:43.115Z</time></trkpt><trkpt lat="39.814377" lon="9.273453"><ele>763.3333333333334</ele><time>2026-05-01T13:49:44.116Z</time></trkpt><trkpt lat="39.8143415" lon="9.2733688"><ele>764.1666666666666</ele><time>2026-05-01T13:49:45.115Z</time></trkpt><trkpt lat="39.8143118" lon="9.2732535"><ele>765.0</ele><time>2026-05-01T13:49:47.116Z</time></trkpt><trkpt lat="39.8143643" lon="9.2731408"><ele>765.5</ele><time>2026-05-01T13:49:50.119Z</time></trkpt><trkpt lat="39.8144502" lon="9.2730197"><ele>766.0</ele><time>2026-05-01T13:49:52.12Z</time></trkpt><trkpt lat="39.8145082" lon="9.2729565"><ele>766.5</ele><time>2026-05-01T13:49:53.116Z</time></trkpt><trkpt lat="39.814573" lon="9.2728868"><ele>767.0</ele><time>2026-05-01T13:49:54.116Z</time></trkpt><trkpt lat="39.8146295" lon="9.2728133"><ele>767.5</ele><time>2026-05-01T13:49:55.115Z</time></trkpt><trkpt lat="39.8146893" lon="9.272741"><ele>768.0</ele><time>2026-05-01T13:49:56.116Z</time></trkpt><trkpt lat="39.8147475" lon="9.2726763"><ele>768.0</ele><time>2026-05-01T13:49:57.116Z</time></trkpt><trkpt lat="39.8148042" lon="9.2726147"><ele>768.0</ele><time>2026-05-01T13:49:58.123Z</time></trkpt><trkpt lat="39.8148565" lon="9.2725473"><ele>768.0</ele><time>2026-05-01T13:49:59.114Z</time></trkpt><trkpt lat="39.8149102" lon="9.272474"><ele>768.0</ele><time>2026-05-01T13:50:00.115Z</time></trkpt><trkpt lat="39.8149645" lon="9.2723973"><ele>768.0</ele><time>2026-05-01T13:50:01.114Z</time></trkpt><trkpt lat="39.8150265" lon="9.2723172"><ele>768.0</ele><time>2026-05-01T13:50:02.112Z</time></trkpt><trkpt lat="39.8150987" lon="9.2722255"><ele>768.0</ele><time>2026-05-01T13:50:03.119Z</time></trkpt><trkpt lat="39.8151765" lon="9.2721272"><ele>768.0</ele><time>2026-05-01T13:50:04.114Z</time></trkpt><trkpt lat="39.8152558" lon="9.2720202"><ele>768.0</ele><time>2026-05-01T13:50:05.115Z</time></trkpt><trkpt lat="39.8153453" lon="9.27191"><ele>768.0</ele><time>2026-05-01T13:50:06.122Z</time></trkpt><trkpt lat="39.8154343" lon="9.2717962"><ele>768.0</ele><time>2026-05-01T13:50:07.116Z</time></trkpt><trkpt lat="39.8155253" lon="9.2716875"><ele>768.0</ele><time>2026-05-01T13:50:08.118Z</time></trkpt><trkpt lat="39.8156165" lon="9.2715718"><ele>768.0</ele><time>2026-05-01T13:50:09.116Z</time></trkpt><trkpt lat="39.8157097" lon="9.2714517"><ele>768.0</ele><time>2026-05-01T13:50:10.116Z</time></trkpt><trkpt lat="39.8157952" lon="9.2713297"><ele>768.0</ele><time>2026-05-01T13:50:11.119Z</time></trkpt><trkpt lat="39.815877" lon="9.2712135"><ele>768.0</ele><time>2026-05-01T13:50:12.119Z</time></trkpt><trkpt lat="39.81596" lon="9.2710945"><ele>768.0</ele><time>2026-05-01T13:50:13.116Z</time></trkpt><trkpt lat="39.8160457" lon="9.2709818"><ele>768.0</ele><time>2026-05-01T13:50:14.115Z</time></trkpt><trkpt lat="39.8161383" lon="9.2708717"><ele>768.0</ele><time>2026-05-01T13:50:15.119Z</time></trkpt><trkpt lat="39.8162248" lon="9.2707638"><ele>768.0</ele><time>2026-05-01T13:50:16.119Z</time></trkpt><trkpt lat="39.8163093" lon="9.2706597"><ele>768.0</ele><time>2026-05-01T13:50:17.12Z</time></trkpt><trkpt lat="39.8163935" lon="9.2705597"><ele>768.0</ele><time>2026-05-01T13:50:18.117Z</time></trkpt><trkpt lat="39.816476" lon="9.2704662"><ele>767.8333333333334</ele><time>2026-05-01T13:50:19.121Z</time></trkpt><trkpt lat="39.8165453" lon="9.2703752"><ele>767.6666666666666</ele><time>2026-05-01T13:50:20.116Z</time></trkpt><trkpt lat="39.8166117" lon="9.2702957"><ele>767.5</ele><time>2026-05-01T13:50:21.117Z</time></trkpt><trkpt lat="39.8166777" lon="9.2702305"><ele>767.3333333333333</ele><time>2026-05-01T13:50:22.118Z</time></trkpt><trkpt lat="39.8167305" lon="9.2701853"><ele>767.1666666666666</ele><time>2026-05-01T13:50:23.119Z</time></trkpt><trkpt lat="39.8168135" lon="9.2701657"><ele>767.0</ele><time>2026-05-01T13:51:06.114Z</time></trkpt><trkpt lat="39.816892" lon="9.2702068"><ele>767.2857142857143</ele><time>2026-05-01T13:51:08.118Z</time></trkpt><trkpt lat="39.8169453" lon="9.2702677"><ele>767.5714285714287</ele><time>2026-05-01T13:51:09.116Z</time></trkpt><trkpt lat="39.8169992" lon="9.2703313"><ele>767.8571428571429</ele><time>2026-05-01T13:51:10.122Z</time></trkpt><trkpt lat="39.8170518" lon="9.2703925"><ele>768.1428571428571</ele><time>2026-05-01T13:51:11.116Z</time></trkpt><trkpt lat="39.8171037" lon="9.2704482"><ele>768.4285714285714</ele><time>2026-05-01T13:51:12.117Z</time></trkpt><trkpt lat="39.8171623" lon="9.2705098"><ele>768.7142857142857</ele><time>2026-05-01T13:51:13.118Z</time></trkpt><trkpt lat="39.8172208" lon="9.2705772"><ele>769.0</ele><time>2026-05-01T13:51:14.12Z</time></trkpt><trkpt lat="39.8172857" lon="9.2706475"><ele>768.9999999999999</ele><time>2026-05-01T13:51:15.119Z</time></trkpt><trkpt lat="39.817361" lon="9.2707197"><ele>769.0</ele><time>2026-05-01T13:51:16.121Z</time></trkpt><trkpt lat="39.817434" lon="9.2707972"><ele>769.0</ele><time>2026-05-01T13:51:17.117Z</time></trkpt><trkpt lat="39.8175008" lon="9.270862"><ele>769.0</ele><time>2026-05-01T13:51:18.116Z</time></trkpt><trkpt lat="39.8175617" lon="9.2709147"><ele>768.9999999999999</ele><time>2026-05-01T13:51:19.117Z</time></trkpt><trkpt lat="39.8176152" lon="9.2709728"><ele>769.0</ele><time>2026-05-01T13:51:20.116Z</time></trkpt><trkpt lat="39.8176652" lon="9.2710252"><ele>768.9999999999999</ele><time>2026-05-01T13:51:21.116Z</time></trkpt><trkpt lat="39.8177165" lon="9.2710807"><ele>769.0</ele><time>2026-05-01T13:51:22.116Z</time></trkpt><trkpt lat="39.8177683" lon="9.2711372"><ele>769.0</ele><time>2026-05-01T13:51:23.116Z</time></trkpt><trkpt lat="39.81782" lon="9.2711957"><ele>769.0</ele><time>2026-05-01T13:51:24.116Z</time></trkpt><trkpt lat="39.8178682" lon="9.2712487"><ele>768.9999999999999</ele><time>2026-05-01T13:51:25.116Z</time></trkpt><trkpt lat="39.8179563" lon="9.2713582"><ele>769.0</ele><time>2026-05-01T13:51:27.116Z</time></trkpt><trkpt lat="39.8180097" lon="9.2714433"><ele>769.1666666666666</ele><time>2026-05-01T13:51:29.118Z</time></trkpt><trkpt lat="39.8180757" lon="9.271515"><ele>769.3333333333333</ele><time>2026-05-01T13:51:32.114Z</time></trkpt><trkpt lat="39.8181348" lon="9.2715608"><ele>769.5</ele><time>2026-05-01T13:54:06.115Z</time></trkpt><trkpt lat="39.8182085" lon="9.2716237"><ele>769.6666666666667</ele><time>2026-05-01T13:54:08.114Z</time></trkpt><trkpt lat="39.81826" lon="9.2716772"><ele>769.8333333333334</ele><time>2026-05-01T13:54:09.123Z</time></trkpt><trkpt lat="39.818316" lon="9.2717325"><ele>770.0</ele><time>2026-05-01T13:54:10.119Z</time></trkpt><trkpt lat="39.8183805" lon="9.2717923"><ele>770.0</ele><time>2026-05-01T13:54:11.116Z</time></trkpt><trkpt lat="39.8184518" lon="9.2718615"><ele>770.0</ele><time>2026-05-01T13:54:12.116Z</time></trkpt><trkpt lat="39.8185272" lon="9.2719388"><ele>770.0</ele><time>2026-05-01T13:54:13.116Z</time></trkpt><trkpt lat="39.8186013" lon="9.2720213"><ele>770.0</ele><time>2026-05-01T13:54:14.12Z</time></trkpt><trkpt lat="39.8186808" lon="9.2721072"><ele>770.0</ele><time>2026-05-01T13:54:15.115Z</time></trkpt><trkpt lat="39.8187652" lon="9.2721913"><ele>770.75</ele><time>2026-05-01T13:54:16.116Z</time></trkpt><trkpt lat="39.8188545" lon="9.2722835"><ele>771.5</ele><time>2026-05-01T13:54:17.116Z</time></trkpt><trkpt lat="39.8189462" lon="9.2723792"><ele>772.25</ele><time>2026-05-01T13:54:18.114Z</time></trkpt><trkpt lat="39.8190358" lon="9.2724763"><ele>773.0</ele><time>2026-05-01T13:54:19.115Z</time></trkpt><trkpt lat="39.8191295" lon="9.272572"><ele>773.0</ele><time>2026-05-01T13:54:20.115Z</time></trkpt><trkpt lat="39.819224" lon="9.2726695"><ele>773.0</ele><time>2026-05-01T13:54:21.115Z</time></trkpt><trkpt lat="39.8193177" lon="9.2727747"><ele>773.0</ele><time>2026-05-01T13:54:22.115Z</time></trkpt><trkpt lat="39.8194125" lon="9.2728767"><ele>773.0</ele><time>2026-05-01T13:54:23.115Z</time></trkpt><trkpt lat="39.8195093" lon="9.2729743"><ele>773.0</ele><time>2026-05-01T13:54:24.115Z</time></trkpt><trkpt lat="39.8196093" lon="9.2730693"><ele>773.0</ele><time>2026-05-01T13:54:25.114Z</time></trkpt><trkpt lat="39.8197077" lon="9.273169"><ele>773.0</ele><time>2026-05-01T13:54:26.113Z</time></trkpt><trkpt lat="39.8198098" lon="9.2732733"><ele>773.0</ele><time>2026-05-01T13:54:27.114Z</time></trkpt><trkpt lat="39.8199157" lon="9.2733882"><ele>774.0</ele><time>2026-05-01T13:54:28.114Z</time></trkpt><trkpt lat="39.8200222" lon="9.2735"><ele>775.0</ele><time>2026-05-01T13:54:29.116Z</time></trkpt><trkpt lat="39.8201357" lon="9.2736068"><ele>776.0</ele><time>2026-05-01T13:54:30.115Z</time></trkpt><trkpt lat="39.8202508" lon="9.273722"><ele>777.0</ele><time>2026-05-01T13:54:31.112Z</time></trkpt><trkpt lat="39.8203642" lon="9.2738335"><ele>777.0</ele><time>2026-05-01T13:54:32.119Z</time></trkpt><trkpt lat="39.8204802" lon="9.2739483"><ele>777.0</ele><time>2026-05-01T13:54:33.116Z</time></trkpt><trkpt lat="39.8205932" lon="9.2740705"><ele>777.0</ele><time>2026-05-01T13:54:34.114Z</time></trkpt><trkpt lat="39.8207127" lon="9.2741998"><ele>777.0</ele><time>2026-05-01T13:54:35.121Z</time></trkpt><trkpt lat="39.8208313" lon="9.2743268"><ele>777.0</ele><time>2026-05-01T13:54:36.117Z</time></trkpt><trkpt lat="39.8209602" lon="9.2744427"><ele>777.0</ele><time>2026-05-01T13:54:37.116Z</time></trkpt><trkpt lat="39.8211022" lon="9.27455"><ele>777.0</ele><time>2026-05-01T13:54:38.114Z</time></trkpt><trkpt lat="39.8212535" lon="9.2746395"><ele>778.0</ele><time>2026-05-01T13:54:39.114Z</time></trkpt><trkpt lat="39.8214097" lon="9.2747177"><ele>779.0</ele><time>2026-05-01T13:54:40.113Z</time></trkpt><trkpt lat="39.8215737" lon="9.274783"><ele>780.0</ele><time>2026-05-01T13:54:41.115Z</time></trkpt><trkpt lat="39.821746" lon="9.2748352"><ele>781.0</ele><time>2026-05-01T13:54:42.118Z</time></trkpt><trkpt lat="39.8219177" lon="9.274879"><ele>782.0</ele><time>2026-05-01T13:54:43.114Z</time></trkpt><trkpt lat="39.8220932" lon="9.2749085"><ele>783.0</ele><time>2026-05-01T13:54:44.112Z</time></trkpt><trkpt lat="39.8222725" lon="9.2749267"><ele>783.0</ele><time>2026-05-01T13:54:45.114Z</time></trkpt><trkpt lat="39.8224482" lon="9.2749277"><ele>783.0</ele><time>2026-05-01T13:54:46.117Z</time></trkpt><trkpt lat="39.8226162" lon="9.2749295"><ele>783.0</ele><time>2026-05-01T13:54:47.115Z</time></trkpt><trkpt lat="39.822784" lon="9.2749302"><ele>783.6666666666667</ele><time>2026-05-01T13:54:48.115Z</time></trkpt><trkpt lat="39.8229547" lon="9.2749377"><ele>784.3333333333334</ele><time>2026-05-01T13:54:49.117Z</time></trkpt><trkpt lat="39.823129" lon="9.2749767"><ele>785.0</ele><time>2026-05-01T13:54:50.114Z</time></trkpt><trkpt lat="39.8232963" lon="9.2750337"><ele>785.0</ele><time>2026-05-01T13:54:51.114Z</time></trkpt><trkpt lat="39.8234572" lon="9.2751327"><ele>785.0</ele><time>2026-05-01T13:54:52.113Z</time></trkpt><trkpt lat="39.8236025" lon="9.2752347"><ele>785.0</ele><time>2026-05-01T13:54:53.12Z</time></trkpt><trkpt lat="39.8237573" lon="9.2753425"><ele>785.0</ele><time>2026-05-01T13:54:54.113Z</time></trkpt><trkpt lat="39.823905" lon="9.2754447"><ele>785.0</ele><time>2026-05-01T13:54:55.113Z</time></trkpt><trkpt lat="39.8240462" lon="9.2755452"><ele>785.0</ele><time>2026-05-01T13:54:56.113Z</time></trkpt><trkpt lat="39.8241927" lon="9.2756407"><ele>786.6666666666667</ele><time>2026-05-01T13:54:57.112Z</time></trkpt><trkpt lat="39.82434" lon="9.2757322"><ele>788.3333333333333</ele><time>2026-05-01T13:54:58.114Z</time></trkpt><trkpt lat="39.8244907" lon="9.2758335"><ele>790.0</ele><time>2026-05-01T13:54:59.114Z</time></trkpt><trkpt lat="39.8246408" lon="9.2759327"><ele>790.0</ele><time>2026-05-01T13:55:00.113Z</time></trkpt><trkpt lat="39.8247905" lon="9.2760295"><ele>790.0</ele><time>2026-05-01T13:55:01.115Z</time></trkpt><trkpt lat="39.8249378" lon="9.2761313"><ele>790.0</ele><time>2026-05-01T13:55:02.114Z</time></trkpt><trkpt lat="39.8250797" lon="9.2762338"><ele>790.25</ele><time>2026-05-01T13:55:03.117Z</time></trkpt><trkpt lat="39.8251957" lon="9.2763575"><ele>790.5</ele><time>2026-05-01T13:55:04.116Z</time></trkpt><trkpt lat="39.8252843" lon="9.2764765"><ele>790.75</ele><time>2026-05-01T13:55:05.117Z</time></trkpt><trkpt lat="39.825365" lon="9.2765847"><ele>791.0</ele><time>2026-05-01T13:55:06.116Z</time></trkpt><trkpt lat="39.8254267" lon="9.2766888"><ele>790.3333333333334</ele><time>2026-05-01T13:55:07.116Z</time></trkpt><trkpt lat="39.825479" lon="9.2767573"><ele>789.6666666666667</ele><time>2026-05-01T13:55:08.113Z</time></trkpt><trkpt lat="39.8255442" lon="9.2767873"><ele>789.0</ele><time>2026-05-01T13:55:09.116Z</time></trkpt><trkpt lat="39.8256212" lon="9.2767948"><ele>788.3333333333333</ele><time>2026-05-01T13:55:10.114Z</time></trkpt><trkpt lat="39.8257083" lon="9.2767753"><ele>787.6666666666666</ele><time>2026-05-01T13:55:11.116Z</time></trkpt><trkpt lat="39.8258148" lon="9.2767477"><ele>787.0</ele><time>2026-05-01T13:55:12.114Z</time></trkpt><trkpt lat="39.8259267" lon="9.2767122"><ele>788.25</ele><time>2026-05-01T13:55:13.116Z</time></trkpt><trkpt lat="39.826057" lon="9.276674"><ele>789.5</ele><time>2026-05-01T13:55:14.114Z</time></trkpt><trkpt lat="39.8261868" lon="9.2766428"><ele>790.75</ele><time>2026-05-01T13:55:15.123Z</time></trkpt><trkpt lat="39.8263235" lon="9.2766145"><ele>792.0</ele><time>2026-05-01T13:55:16.116Z</time></trkpt><trkpt lat="39.8264713" lon="9.2765857"><ele>792.0</ele><time>2026-05-01T13:55:17.114Z</time></trkpt><trkpt lat="39.8266312" lon="9.2765503"><ele>792.0</ele><time>2026-05-01T13:55:18.115Z</time></trkpt><trkpt lat="39.8267888" lon="9.276515"><ele>792.0</ele><time>2026-05-01T13:55:19.116Z</time></trkpt><trkpt lat="39.8269475" lon="9.276478"><ele>794.0</ele><time>2026-05-01T13:55:20.116Z</time></trkpt><trkpt lat="39.827112" lon="9.2764337"><ele>796.0</ele><time>2026-05-01T13:55:21.115Z</time></trkpt><trkpt lat="39.8272747" lon="9.2764053"><ele>798.0</ele><time>2026-05-01T13:55:22.114Z</time></trkpt><trkpt lat="39.8274378" lon="9.2763607"><ele>798.0</ele><time>2026-05-01T13:55:23.113Z</time></trkpt><trkpt lat="39.8275935" lon="9.2763152"><ele>798.0</ele><time>2026-05-01T13:55:24.114Z</time></trkpt><trkpt lat="39.8277435" lon="9.2762678"><ele>798.0</ele><time>2026-05-01T13:55:25.114Z</time></trkpt><trkpt lat="39.827885" lon="9.2762235"><ele>798.75</ele><time>2026-05-01T13:55:26.116Z</time></trkpt><trkpt lat="39.8280175" lon="9.276168"><ele>799.5</ele><time>2026-05-01T13:55:27.118Z</time></trkpt><trkpt lat="39.8281547" lon="9.276089"><ele>800.25</ele><time>2026-05-01T13:55:28.117Z</time></trkpt><trkpt lat="39.82829" lon="9.2760078"><ele>801.0</ele><time>2026-05-01T13:55:29.117Z</time></trkpt><trkpt lat="39.8284268" lon="9.2759175"><ele>802.0</ele><time>2026-05-01T13:55:30.116Z</time></trkpt><trkpt lat="39.8285622" lon="9.2758368"><ele>803.0</ele><time>2026-05-01T13:55:31.114Z</time></trkpt><trkpt lat="39.8287018" lon="9.2757325"><ele>804.0</ele><time>2026-05-01T13:55:32.114Z</time></trkpt><trkpt lat="39.8288317" lon="9.2756117"><ele>803.3333333333333</ele><time>2026-05-01T13:55:33.117Z</time></trkpt><trkpt lat="39.8289645" lon="9.2754847"><ele>802.6666666666666</ele><time>2026-05-01T13:55:34.114Z</time></trkpt><trkpt lat="39.829099" lon="9.2753558"><ele>802.0</ele><time>2026-05-01T13:55:35.116Z</time></trkpt><trkpt lat="39.8292212" lon="9.2752223"><ele>803.6666666666666</ele><time>2026-05-01T13:55:36.115Z</time></trkpt><trkpt lat="39.8293482" lon="9.27509"><ele>805.3333333333333</ele><time>2026-05-01T13:55:37.115Z</time></trkpt><trkpt lat="39.8294785" lon="9.2749687"><ele>807.0</ele><time>2026-05-01T13:55:38.115Z</time></trkpt><trkpt lat="39.8296123" lon="9.274861"><ele>807.0</ele><time>2026-05-01T13:55:39.116Z</time></trkpt><trkpt lat="39.8297695" lon="9.2748223"><ele>807.0</ele><time>2026-05-01T13:55:40.115Z</time></trkpt><trkpt lat="39.8299318" lon="9.274787"><ele>807.0</ele><time>2026-05-01T13:55:41.118Z</time></trkpt><trkpt lat="39.8300795" lon="9.274767"><ele>806.0</ele><time>2026-05-01T13:55:42.114Z</time></trkpt><trkpt lat="39.830222" lon="9.2747462"><ele>805.0</ele><time>2026-05-01T13:55:43.113Z</time></trkpt><trkpt lat="39.8303503" lon="9.2747327"><ele>804.0</ele><time>2026-05-01T13:55:44.114Z</time></trkpt><trkpt lat="39.8304823" lon="9.2747112"><ele>803.0</ele><time>2026-05-01T13:55:45.115Z</time></trkpt><trkpt lat="39.8306105" lon="9.2746793"><ele>803.0</ele><time>2026-05-01T13:55:46.114Z</time></trkpt><trkpt lat="39.8307308" lon="9.2746545"><ele>803.0</ele><time>2026-05-01T13:55:47.117Z</time></trkpt><trkpt lat="39.8308503" lon="9.2746227"><ele>803.0</ele><time>2026-05-01T13:55:48.113Z</time></trkpt><trkpt lat="39.8309765" lon="9.2745905"><ele>803.0</ele><time>2026-05-01T13:55:49.114Z</time></trkpt><trkpt lat="39.831104" lon="9.274583"><ele>803.5</ele><time>2026-05-01T13:55:50.113Z</time></trkpt><trkpt lat="39.8312327" lon="9.2746042"><ele>804.0</ele><time>2026-05-01T13:55:51.113Z</time></trkpt><trkpt lat="39.8313603" lon="9.2746428"><ele>804.5</ele><time>2026-05-01T13:55:52.117Z</time></trkpt><trkpt lat="39.8314945" lon="9.2746915"><ele>805.0</ele><time>2026-05-01T13:55:53.115Z</time></trkpt><trkpt lat="39.8316265" lon="9.2747405"><ele>805.75</ele><time>2026-05-01T13:55:54.113Z</time></trkpt><trkpt lat="39.8317607" lon="9.2747937"><ele>806.5</ele><time>2026-05-01T13:55:55.114Z</time></trkpt><trkpt lat="39.8318957" lon="9.2748437"><ele>807.25</ele><time>2026-05-01T13:55:56.116Z</time></trkpt><trkpt lat="39.8320347" lon="9.2748673"><ele>808.0</ele><time>2026-05-01T13:55:57.118Z</time></trkpt><trkpt lat="39.832171" lon="9.2748528"><ele>808.2</ele><time>2026-05-01T13:55:58.114Z</time></trkpt><trkpt lat="39.8322922" lon="9.274806"><ele>808.4</ele><time>2026-05-01T13:55:59.114Z</time></trkpt><trkpt lat="39.8324035" lon="9.2747418"><ele>808.6</ele><time>2026-05-01T13:56:00.115Z</time></trkpt><trkpt lat="39.8325015" lon="9.274673"><ele>808.8000000000001</ele><time>2026-05-01T13:56:01.114Z</time></trkpt><trkpt lat="39.8325727" lon="9.2746215"><ele>809.0</ele><time>2026-05-01T13:56:02.114Z</time></trkpt><trkpt lat="39.8326373" lon="9.2745642"><ele>809.2</ele><time>2026-05-01T13:56:03.115Z</time></trkpt><trkpt lat="39.8327423" lon="9.2745255"><ele>809.4000000000001</ele><time>2026-05-01T13:56:05.114Z</time></trkpt><trkpt lat="39.832818" lon="9.274575"><ele>809.6</ele><time>2026-05-01T13:56:07.114Z</time></trkpt><trkpt lat="39.832812" lon="9.2746775"><ele>809.8</ele><time>2026-05-01T13:56:09.114Z</time></trkpt><trkpt lat="39.832743" lon="9.2747932"><ele>810.0</ele><time>2026-05-01T13:56:11.117Z</time></trkpt><trkpt lat="39.8326965" lon="9.2748583"><ele>811.0</ele><time>2026-05-01T13:56:12.116Z</time></trkpt><trkpt lat="39.8326605" lon="9.2749308"><ele>812.0</ele><time>2026-05-01T13:56:13.116Z</time></trkpt><trkpt lat="39.832647" lon="9.2750915"><ele>813.0</ele><time>2026-05-01T13:56:15.114Z</time></trkpt><trkpt lat="39.8326818" lon="9.2751885"><ele>814.0</ele><time>2026-05-01T13:56:16.108Z</time></trkpt><trkpt lat="39.8327273" lon="9.2752932"><ele>815.0</ele><time>2026-05-01T13:56:17.12Z</time></trkpt><trkpt lat="39.8327707" lon="9.2754123"><ele>815.0</ele><time>2026-05-01T13:56:18.116Z</time></trkpt><trkpt lat="39.8328083" lon="9.2755488"><ele>815.0</ele><time>2026-05-01T13:56:19.112Z</time></trkpt><trkpt lat="39.8328415" lon="9.2756883"><ele>815.0</ele><time>2026-05-01T13:56:20.117Z</time></trkpt><trkpt lat="39.8328785" lon="9.2758372"><ele>815.0</ele><time>2026-05-01T13:56:21.113Z</time></trkpt><trkpt lat="39.8329262" lon="9.2759765"><ele>814.8</ele><time>2026-05-01T13:56:22.113Z</time></trkpt><trkpt lat="39.8329767" lon="9.2761077"><ele>814.6</ele><time>2026-05-01T13:56:23.112Z</time></trkpt><trkpt lat="39.8330205" lon="9.2762402"><ele>814.4000000000001</ele><time>2026-05-01T13:56:24.113Z</time></trkpt><trkpt lat="39.8330527" lon="9.2763722"><ele>814.2</ele><time>2026-05-01T13:56:25.116Z</time></trkpt><trkpt lat="39.8330747" lon="9.2765033"><ele>814.0</ele><time>2026-05-01T13:56:26.119Z</time></trkpt><trkpt lat="39.8330877" lon="9.276639"><ele>813.4000000000001</ele><time>2026-05-01T13:56:27.115Z</time></trkpt><trkpt lat="39.8330812" lon="9.2767865"><ele>812.8</ele><time>2026-05-01T13:56:28.113Z</time></trkpt><trkpt lat="39.8330693" lon="9.2769292"><ele>812.2</ele><time>2026-05-01T13:56:29.114Z</time></trkpt><trkpt lat="39.833052" lon="9.2770603"><ele>811.5999999999999</ele><time>2026-05-01T13:56:30.113Z</time></trkpt><trkpt lat="39.8330233" lon="9.2771853"><ele>811.0</ele><time>2026-05-01T13:56:31.112Z</time></trkpt><trkpt lat="39.8329783" lon="9.2773042"><ele>810.8</ele><time>2026-05-01T13:56:32.114Z</time></trkpt><trkpt lat="39.8329137" lon="9.2774145"><ele>810.5999999999999</ele><time>2026-05-01T13:56:33.113Z</time></trkpt><trkpt lat="39.832846" lon="9.2775307"><ele>810.4</ele><time>2026-05-01T13:56:34.114Z</time></trkpt><trkpt lat="39.8327757" lon="9.2776382"><ele>810.2</ele><time>2026-05-01T13:56:35.116Z</time></trkpt><trkpt lat="39.8326988" lon="9.2777318"><ele>810.0</ele><time>2026-05-01T13:56:36.113Z</time></trkpt><trkpt lat="39.8326137" lon="9.2778255"><ele>810.0</ele><time>2026-05-01T13:56:37.113Z</time></trkpt><trkpt lat="39.8325188" lon="9.2779033"><ele>810.0</ele><time>2026-05-01T13:56:38.114Z</time></trkpt><trkpt lat="39.8324087" lon="9.2779563"><ele>810.0</ele><time>2026-05-01T13:56:39.115Z</time></trkpt><trkpt lat="39.8322923" lon="9.277989"><ele>810.0</ele><time>2026-05-01T13:56:40.115Z</time></trkpt><trkpt lat="39.8321808" lon="9.2780337"><ele>810.0</ele><time>2026-05-01T13:56:41.114Z</time></trkpt><trkpt lat="39.8320758" lon="9.2780763"><ele>810.0</ele><time>2026-05-01T13:56:42.116Z</time></trkpt><trkpt lat="39.8319665" lon="9.2781203"><ele>810.0</ele><time>2026-05-01T13:56:43.114Z</time></trkpt><trkpt lat="39.831861" lon="9.2781605"><ele>810.0</ele><time>2026-05-01T13:56:44.115Z</time></trkpt><trkpt lat="39.8317632" lon="9.2782102"><ele>810.0</ele><time>2026-05-01T13:56:45.116Z</time></trkpt><trkpt lat="39.8316717" lon="9.2782715"><ele>811.4</ele><time>2026-05-01T13:56:46.115Z</time></trkpt><trkpt lat="39.8315897" lon="9.278361"><ele>812.8</ele><time>2026-05-01T13:56:47.114Z</time></trkpt><trkpt lat="39.8315105" lon="9.2784635"><ele>814.2</ele><time>2026-05-01T13:56:48.113Z</time></trkpt><trkpt lat="39.8314445" lon="9.2785613"><ele>815.6</ele><time>2026-05-01T13:56:49.12Z</time></trkpt><trkpt lat="39.8313978" lon="9.2786525"><ele>817.0</ele><time>2026-05-01T13:56:50.113Z</time></trkpt><trkpt lat="39.8313748" lon="9.2787435"><ele>817.0</ele><time>2026-05-01T13:56:51.113Z</time></trkpt><trkpt lat="39.8313655" lon="9.2788458"><ele>817.0</ele><time>2026-05-01T13:56:52.113Z</time></trkpt><trkpt lat="39.8313543" lon="9.2789628"><ele>817.0</ele><time>2026-05-01T13:56:53.114Z</time></trkpt><trkpt lat="39.8313395" lon="9.2790882"><ele>817.0</ele><time>2026-05-01T13:56:54.12Z</time></trkpt><trkpt lat="39.8313245" lon="9.2792083"><ele>817.0</ele><time>2026-05-01T13:56:55.114Z</time></trkpt><trkpt lat="39.8313012" lon="9.2793215"><ele>818.8333333333333</ele><time>2026-05-01T13:56:56.116Z</time></trkpt><trkpt lat="39.8312575" lon="9.2794212"><ele>820.6666666666666</ele><time>2026-05-01T13:56:57.116Z</time></trkpt><trkpt lat="39.8311948" lon="9.2794985"><ele>822.5</ele><time>2026-05-01T13:56:58.114Z</time></trkpt><trkpt lat="39.8311132" lon="9.2795575"><ele>824.3333333333333</ele><time>2026-05-01T13:56:59.116Z</time></trkpt><trkpt lat="39.8310482" lon="9.2795978"><ele>826.1666666666666</ele><time>2026-05-01T13:57:00.115Z</time></trkpt><trkpt lat="39.8309828" lon="9.279698"><ele>828.0</ele><time>2026-05-01T13:57:02.114Z</time></trkpt><trkpt lat="39.8310063" lon="9.2798018"><ele>828.0</ele><time>2026-05-01T13:57:04.115Z</time></trkpt><trkpt lat="39.8310775" lon="9.2798228"><ele>828.0</ele><time>2026-05-01T13:57:05.115Z</time></trkpt><trkpt lat="39.8311585" lon="9.2798013"><ele>828.0</ele><time>2026-05-01T13:57:06.116Z</time></trkpt><trkpt lat="39.8312503" lon="9.279764"><ele>828.0</ele><time>2026-05-01T13:57:07.115Z</time></trkpt><trkpt lat="39.8313502" lon="9.2797332"><ele>828.0</ele><time>2026-05-01T13:57:08.116Z</time></trkpt><trkpt lat="39.8314555" lon="9.2797182"><ele>828.0</ele><time>2026-05-01T13:57:09.113Z</time></trkpt><trkpt lat="39.8315613" lon="9.2797285"><ele>828.0</ele><time>2026-05-01T13:57:10.112Z</time></trkpt><trkpt lat="39.8316677" lon="9.2797465"><ele>828.0</ele><time>2026-05-01T13:57:11.118Z</time></trkpt><trkpt lat="39.8317742" lon="9.2797647"><ele>828.0</ele><time>2026-05-01T13:57:12.114Z</time></trkpt><trkpt lat="39.8318893" lon="9.2797832"><ele>828.0</ele><time>2026-05-01T13:57:13.115Z</time></trkpt><trkpt lat="39.832003" lon="9.279791"><ele>832.25</ele><time>2026-05-01T13:57:14.118Z</time></trkpt><trkpt lat="39.8321157" lon="9.279806"><ele>836.5</ele><time>2026-05-01T13:57:15.117Z</time></trkpt><trkpt lat="39.8322283" lon="9.2798305"><ele>840.75</ele><time>2026-05-01T13:57:16.117Z</time></trkpt><trkpt lat="39.8323422" lon="9.2798567"><ele>845.0</ele><time>2026-05-01T13:57:17.119Z</time></trkpt><trkpt lat="39.8324567" lon="9.279889"><ele>845.0</ele><time>2026-05-01T13:57:18.113Z</time></trkpt><trkpt lat="39.8325743" lon="9.2799323"><ele>845.0</ele><time>2026-05-01T13:57:19.119Z</time></trkpt><trkpt lat="39.8326858" lon="9.2799808"><ele>845.0</ele><time>2026-05-01T13:57:20.114Z</time></trkpt><trkpt lat="39.8327985" lon="9.2800328"><ele>845.0</ele><time>2026-05-01T13:57:21.114Z</time></trkpt><trkpt lat="39.83291" lon="9.280089"><ele>846.25</ele><time>2026-05-01T13:57:22.115Z</time></trkpt><trkpt lat="39.8330217" lon="9.2801392"><ele>847.5</ele><time>2026-05-01T13:57:23.113Z</time></trkpt><trkpt lat="39.8331318" lon="9.2801825"><ele>848.75</ele><time>2026-05-01T13:57:24.113Z</time></trkpt><trkpt lat="39.8332485" lon="9.280212"><ele>850.0</ele><time>2026-05-01T13:57:25.113Z</time></trkpt><trkpt lat="39.8333647" lon="9.280231"><ele>852.25</ele><time>2026-05-01T13:57:26.113Z</time></trkpt><trkpt lat="39.8334795" lon="9.2802408"><ele>854.5</ele><time>2026-05-01T13:57:27.115Z</time></trkpt><trkpt lat="39.8335903" lon="9.2802517"><ele>856.75</ele><time>2026-05-01T13:57:28.113Z</time></trkpt><trkpt lat="39.8336995" lon="9.2802657"><ele>859.0</ele><time>2026-05-01T13:57:29.115Z</time></trkpt><trkpt lat="39.8338147" lon="9.2802903"><ele>859.0</ele><time>2026-05-01T13:57:30.113Z</time></trkpt><trkpt lat="39.833926" lon="9.2803152"><ele>859.0</ele><time>2026-05-01T13:57:31.114Z</time></trkpt><trkpt lat="39.8340372" lon="9.2803357"><ele>859.0</ele><time>2026-05-01T13:57:32.114Z</time></trkpt><trkpt lat="39.8341503" lon="9.2803602"><ele>859.0</ele><time>2026-05-01T13:57:33.113Z</time></trkpt><trkpt lat="39.8342632" lon="9.280388"><ele>860.75</ele><time>2026-05-01T13:57:34.114Z</time></trkpt><trkpt lat="39.8343748" lon="9.2804205"><ele>862.5</ele><time>2026-05-01T13:57:35.115Z</time></trkpt><trkpt lat="39.8344892" lon="9.2804592"><ele>864.25</ele><time>2026-05-01T13:57:36.114Z</time></trkpt><trkpt lat="39.8346027" lon="9.2804957"><ele>866.0</ele><time>2026-05-01T13:57:37.115Z</time></trkpt><trkpt lat="39.8347145" lon="9.2805245"><ele>866.0</ele><time>2026-05-01T13:57:38.115Z</time></trkpt><trkpt lat="39.8348253" lon="9.2805448"><ele>866.0</ele><time>2026-05-01T13:57:39.116Z</time></trkpt><trkpt lat="39.834938" lon="9.2805737"><ele>866.0</ele><time>2026-05-01T13:57:40.112Z</time></trkpt><trkpt lat="39.8350495" lon="9.2806013"><ele>866.0</ele><time>2026-05-01T13:57:41.115Z</time></trkpt><trkpt lat="39.8351555" lon="9.2806398"><ele>869.0</ele><time>2026-05-01T13:57:42.114Z</time></trkpt><trkpt lat="39.8352523" lon="9.2806935"><ele>871.9999999999999</ele><time>2026-05-01T13:57:43.113Z</time></trkpt><trkpt lat="39.8353382" lon="9.2807637"><ele>874.9999999999999</ele><time>2026-05-01T13:57:44.113Z</time></trkpt><trkpt lat="39.835421" lon="9.2808592"><ele>878.0</ele><time>2026-05-01T13:57:45.114Z</time></trkpt><trkpt lat="39.835507" lon="9.2809533"><ele>881.0</ele><time>2026-05-01T13:57:46.119Z</time></trkpt><trkpt lat="39.835591" lon="9.2810535"><ele>881.0</ele><time>2026-05-01T13:57:47.115Z</time></trkpt><trkpt lat="39.8356722" lon="9.2811618"><ele>881.0</ele><time>2026-05-01T13:57:48.113Z</time></trkpt><trkpt lat="39.8357478" lon="9.281272"><ele>881.0</ele><time>2026-05-01T13:57:49.12Z</time></trkpt><trkpt lat="39.8358262" lon="9.2813705"><ele>881.0</ele><time>2026-05-01T13:57:50.116Z</time></trkpt><trkpt lat="39.8359125" lon="9.2814643"><ele>883.5</ele><time>2026-05-01T13:57:51.115Z</time></trkpt><trkpt lat="39.8360027" lon="9.2815527"><ele>886.0</ele><time>2026-05-01T13:57:52.116Z</time></trkpt><trkpt lat="39.8360975" lon="9.2816295"><ele>888.5</ele><time>2026-05-01T13:57:53.113Z</time></trkpt><trkpt lat="39.836196" lon="9.2817075"><ele>891.0</ele><time>2026-05-01T13:57:54.12Z</time></trkpt><trkpt lat="39.8362965" lon="9.2817802"><ele>891.0</ele><time>2026-05-01T13:57:55.113Z</time></trkpt><trkpt lat="39.8364013" lon="9.2818532"><ele>891.0</ele><time>2026-05-01T13:57:56.112Z</time></trkpt><trkpt lat="39.8365045" lon="9.2819265"><ele>891.0</ele><time>2026-05-01T13:57:57.115Z</time></trkpt><trkpt lat="39.8366085" lon="9.2820025"><ele>891.0</ele><time>2026-05-01T13:57:58.113Z</time></trkpt><trkpt lat="39.8367115" lon="9.2820797"><ele>890.5999999999999</ele><time>2026-05-01T13:57:59.118Z</time></trkpt><trkpt lat="39.8368195" lon="9.2821543"><ele>890.1999999999999</ele><time>2026-05-01T13:58:00.112Z</time></trkpt><trkpt lat="39.83692" lon="9.2822257"><ele>889.8000000000001</ele><time>2026-05-01T13:58:01.112Z</time></trkpt><trkpt lat="39.8370137" lon="9.2822853"><ele>889.4000000000001</ele><time>2026-05-01T13:58:02.117Z</time></trkpt><trkpt lat="39.8371035" lon="9.2823353"><ele>889.0</ele><time>2026-05-01T13:58:03.114Z</time></trkpt><trkpt lat="39.83719" lon="9.2823813"><ele>889.9999999999999</ele><time>2026-05-01T13:58:04.12Z</time></trkpt><trkpt lat="39.8372677" lon="9.2824243"><ele>891.0</ele><time>2026-05-01T13:58:05.115Z</time></trkpt><trkpt lat="39.8373347" lon="9.2824603"><ele>892.0</ele><time>2026-05-01T13:58:06.116Z</time></trkpt><trkpt lat="39.8374272" lon="9.2825285"><ele>893.0</ele><time>2026-05-01T13:58:08.116Z</time></trkpt><trkpt lat="39.8374855" lon="9.2825673"><ele>893.9999999999999</ele><time>2026-05-01T13:58:10.115Z</time></trkpt><trkpt lat="39.8375813" lon="9.2826005"><ele>895.0</ele><time>2026-05-01T13:58:13.114Z</time></trkpt><trkpt lat="39.8376848" lon="9.282692"><ele>896.6</ele><time>2026-05-01T13:58:15.114Z</time></trkpt><trkpt lat="39.8377472" lon="9.2827578"><ele>898.2</ele><time>2026-05-01T13:58:16.12Z</time></trkpt><trkpt lat="39.8378125" lon="9.282838"><ele>899.8</ele><time>2026-05-01T13:58:17.112Z</time></trkpt><trkpt lat="39.8378807" lon="9.2829232"><ele>901.4</ele><time>2026-05-01T13:58:18.114Z</time></trkpt><trkpt lat="39.8379567" lon="9.2830032"><ele>903.0</ele><time>2026-05-01T13:58:19.114Z</time></trkpt><trkpt lat="39.8380388" lon="9.2830772"><ele>905.2</ele><time>2026-05-01T13:58:20.116Z</time></trkpt><trkpt lat="39.838125" lon="9.2831502"><ele>907.4</ele><time>2026-05-01T13:58:21.12Z</time></trkpt><trkpt lat="39.83821" lon="9.2832203"><ele>909.6000000000001</ele><time>2026-05-01T13:58:22.114Z</time></trkpt><trkpt lat="39.838284" lon="9.283293"><ele>911.8000000000001</ele><time>2026-05-01T13:58:23.114Z</time></trkpt><trkpt lat="39.8383448" lon="9.2833527"><ele>914.0</ele><time>2026-05-01T13:58:24.116Z</time></trkpt><trkpt lat="39.8384452" lon="9.283432"><ele>915.5000000000001</ele><time>2026-05-01T13:58:26.114Z</time></trkpt><trkpt lat="39.838506" lon="9.2834782"><ele>917.0</ele><time>2026-05-01T13:58:27.113Z</time></trkpt><trkpt lat="39.8386082" lon="9.2835623"><ele>918.5</ele><time>2026-05-01T13:58:29.113Z</time></trkpt><trkpt lat="39.8386612" lon="9.2836083"><ele>920.0</ele><time>2026-05-01T13:58:30.112Z</time></trkpt><trkpt lat="39.8387173" lon="9.2836657"><ele>921.5000000000001</ele><time>2026-05-01T13:58:31.113Z</time></trkpt><trkpt lat="39.8387742" lon="9.2837318"><ele>923.0</ele><time>2026-05-01T13:58:32.114Z</time></trkpt><trkpt lat="39.8388195" lon="9.2837903"><ele>923.0000000000001</ele><time>2026-05-01T13:58:33.117Z</time></trkpt><trkpt lat="39.838898" lon="9.2838845"><ele>923.0</ele><time>2026-05-01T13:58:35.115Z</time></trkpt><trkpt lat="39.8389652" lon="9.2839322"><ele>923.0</ele><time>2026-05-01T13:58:36.117Z</time></trkpt><trkpt lat="39.8390348" lon="9.2839847"><ele>923.0</ele><time>2026-05-01T13:58:37.115Z</time></trkpt><trkpt lat="39.8391047" lon="9.2840323"><ele>923.0000000000001</ele><time>2026-05-01T13:58:38.114Z</time></trkpt><trkpt lat="39.8391748" lon="9.2840795"><ele>923.0</ele><time>2026-05-01T13:58:39.113Z</time></trkpt><trkpt lat="39.8392435" lon="9.2841235"><ele>925.6666666666667</ele><time>2026-05-01T13:58:40.115Z</time></trkpt><trkpt lat="39.8393112" lon="9.284171"><ele>928.3333333333334</ele><time>2026-05-01T13:58:41.116Z</time></trkpt><trkpt lat="39.8393817" lon="9.2842305"><ele>931.0</ele><time>2026-05-01T13:58:42.115Z</time></trkpt><trkpt lat="39.8394518" lon="9.2842843"><ele>933.6666666666667</ele><time>2026-05-01T13:58:43.113Z</time></trkpt><trkpt lat="39.8395217" lon="9.2843455"><ele>936.3333333333334</ele><time>2026-05-01T13:58:44.114Z</time></trkpt><trkpt lat="39.8395802" lon="9.2843985"><ele>939.0</ele><time>2026-05-01T13:58:45.113Z</time></trkpt><trkpt lat="39.8396373" lon="9.2844447"><ele>939.0</ele><time>2026-05-01T13:58:46.115Z</time></trkpt><trkpt lat="39.8397437" lon="9.2845072"><ele>939.0</ele><time>2026-05-01T13:58:48.114Z</time></trkpt><trkpt lat="39.8398045" lon="9.2845418"><ele>939.0</ele><time>2026-05-01T13:58:49.119Z</time></trkpt><trkpt lat="39.8398658" lon="9.284596"><ele>939.0</ele><time>2026-05-01T13:58:50.115Z</time></trkpt><trkpt lat="39.8399367" lon="9.2846713"><ele>939.0</ele><time>2026-05-01T13:58:51.113Z</time></trkpt><trkpt lat="39.8400077" lon="9.2847413"><ele>939.0</ele><time>2026-05-01T13:58:52.114Z</time></trkpt><trkpt lat="39.840079" lon="9.2848122"><ele>941.5</ele><time>2026-05-01T13:58:53.114Z</time></trkpt><trkpt lat="39.8401527" lon="9.2848817"><ele>944.0</ele><time>2026-05-01T13:58:54.114Z</time></trkpt><trkpt lat="39.8402248" lon="9.2849495"><ele>946.5</ele><time>2026-05-01T13:58:55.116Z</time></trkpt><trkpt lat="39.840294" lon="9.2850117"><ele>949.0</ele><time>2026-05-01T13:58:56.113Z</time></trkpt><trkpt lat="39.8403612" lon="9.28508"><ele>951.5</ele><time>2026-05-01T13:58:57.114Z</time></trkpt><trkpt lat="39.8404353" lon="9.2851467"><ele>954.0</ele><time>2026-05-01T13:58:58.114Z</time></trkpt><trkpt lat="39.8405108" lon="9.2852135"><ele>954.0</ele><time>2026-05-01T13:58:59.116Z</time></trkpt><trkpt lat="39.8405893" lon="9.2852818"><ele>954.0000000000001</ele><time>2026-05-01T13:59:00.112Z</time></trkpt><trkpt lat="39.8406687" lon="9.2853495"><ele>954.0000000000001</ele><time>2026-05-01T13:59:01.115Z</time></trkpt><trkpt lat="39.8407462" lon="9.2854165"><ele>954.0</ele><time>2026-05-01T13:59:02.114Z</time></trkpt><trkpt lat="39.8408207" lon="9.2854787"><ele>954.0</ele><time>2026-05-01T13:59:03.114Z</time></trkpt><trkpt lat="39.8408897" lon="9.2855407"><ele>955.3333333333334</ele><time>2026-05-01T13:59:04.112Z</time></trkpt><trkpt lat="39.8409573" lon="9.2855997"><ele>956.6666666666667</ele><time>2026-05-01T13:59:05.114Z</time></trkpt><trkpt lat="39.8410258" lon="9.2856493"><ele>958.0</ele><time>2026-05-01T13:59:06.113Z</time></trkpt><trkpt lat="39.8410983" lon="9.2856978"><ele>959.3333333333334</ele><time>2026-05-01T13:59:07.114Z</time></trkpt><trkpt lat="39.8411652" lon="9.2857477"><ele>960.6666666666667</ele><time>2026-05-01T13:59:08.114Z</time></trkpt><trkpt lat="39.8412267" lon="9.2858067"><ele>962.0</ele><time>2026-05-01T13:59:09.113Z</time></trkpt><trkpt lat="39.8412902" lon="9.2858752"><ele>963.7142857142856</ele><time>2026-05-01T13:59:10.115Z</time></trkpt><trkpt lat="39.8413493" lon="9.2859497"><ele>965.4285714285713</ele><time>2026-05-01T13:59:11.114Z</time></trkpt><trkpt lat="39.8414038" lon="9.2860135"><ele>967.1428571428571</ele><time>2026-05-01T13:59:12.116Z</time></trkpt><trkpt lat="39.8414598" lon="9.2860743"><ele>968.8571428571428</ele><time>2026-05-01T13:59:13.117Z</time></trkpt><trkpt lat="39.8415232" lon="9.2861277"><ele>970.5714285714284</ele><time>2026-05-01T13:59:14.117Z</time></trkpt><trkpt lat="39.8415822" lon="9.286181"><ele>972.2857142857143</ele><time>2026-05-01T13:59:15.115Z</time></trkpt><trkpt lat="39.8416422" lon="9.2862327"><ele>974.0</ele><time>2026-05-01T13:59:16.115Z</time></trkpt><trkpt lat="39.8416903" lon="9.2862877"><ele>974.0000000000001</ele><time>2026-05-01T13:59:17.115Z</time></trkpt><trkpt lat="39.8417282" lon="9.286364"><ele>974.0</ele><time>2026-05-01T13:59:18.115Z</time></trkpt><trkpt lat="39.8417518" lon="9.2864497"><ele>974.0</ele><time>2026-05-01T13:59:19.113Z</time></trkpt><trkpt lat="39.841752" lon="9.2865455"><ele>974.0</ele><time>2026-05-01T13:59:20.115Z</time></trkpt><trkpt lat="39.8417375" lon="9.2866453"><ele>974.0000000000001</ele><time>2026-05-01T13:59:21.116Z</time></trkpt><trkpt lat="39.8417197" lon="9.2867517"><ele>974.0</ele><time>2026-05-01T13:59:22.116Z</time></trkpt><trkpt lat="39.8417053" lon="9.2868657"><ele>975.5000000000001</ele><time>2026-05-01T13:59:23.119Z</time></trkpt><trkpt lat="39.841697" lon="9.2869815"><ele>977.0</ele><time>2026-05-01T13:59:24.116Z</time></trkpt><trkpt lat="39.8416848" lon="9.2870903"><ele>978.5</ele><time>2026-05-01T13:59:25.116Z</time></trkpt><trkpt lat="39.8416715" lon="9.2871985"><ele>980.0</ele><time>2026-05-01T13:59:26.119Z</time></trkpt><trkpt lat="39.8416668" lon="9.2873118"><ele>981.5000000000001</ele><time>2026-05-01T13:59:27.114Z</time></trkpt><trkpt lat="39.8416623" lon="9.287426"><ele>983.0</ele><time>2026-05-01T13:59:28.119Z</time></trkpt><trkpt lat="39.8416568" lon="9.2875413"><ele>984.6666666666667</ele><time>2026-05-01T13:59:29.115Z</time></trkpt><trkpt lat="39.8416553" lon="9.2876505"><ele>986.3333333333334</ele><time>2026-05-01T13:59:30.114Z</time></trkpt><trkpt lat="39.8416598" lon="9.2877533"><ele>988.0</ele><time>2026-05-01T13:59:31.117Z</time></trkpt><trkpt lat="39.8416718" lon="9.2878465"><ele>989.6666666666667</ele><time>2026-05-01T13:59:32.117Z</time></trkpt><trkpt lat="39.8416872" lon="9.2879483"><ele>991.3333333333334</ele><time>2026-05-01T13:59:33.114Z</time></trkpt><trkpt lat="39.8416958" lon="9.2880527"><ele>993.0</ele><time>2026-05-01T13:59:34.121Z</time></trkpt><trkpt lat="39.8416918" lon="9.2881588"><ele>994.3333333333334</ele><time>2026-05-01T13:59:35.115Z</time></trkpt><trkpt lat="39.841685" lon="9.288273"><ele>995.6666666666667</ele><time>2026-05-01T13:59:36.116Z</time></trkpt><trkpt lat="39.8416775" lon="9.2883812"><ele>997.0</ele><time>2026-05-01T13:59:37.114Z</time></trkpt><trkpt lat="39.8416678" lon="9.2884828"><ele>998.3333333333334</ele><time>2026-05-01T13:59:38.114Z</time></trkpt><trkpt lat="39.8416478" lon="9.288586"><ele>999.6666666666667</ele><time>2026-05-01T13:59:39.115Z</time></trkpt><trkpt lat="39.8416235" lon="9.288683"><ele>1001.0</ele><time>2026-05-01T13:59:40.114Z</time></trkpt><trkpt lat="39.8415987" lon="9.2887925"><ele>1001.0000000000001</ele><time>2026-05-01T13:59:41.116Z</time></trkpt><trkpt lat="39.8415793" lon="9.2889042"><ele>1001.0</ele><time>2026-05-01T13:59:42.115Z</time></trkpt><trkpt lat="39.8415532" lon="9.2890115"><ele>1001.0</ele><time>2026-05-01T13:59:43.12Z</time></trkpt><trkpt lat="39.8415153" lon="9.2891243"><ele>1001.0</ele><time>2026-05-01T13:59:44.115Z</time></trkpt><trkpt lat="39.8414783" lon="9.2892317"><ele>1001.0000000000001</ele><time>2026-05-01T13:59:45.116Z</time></trkpt><trkpt lat="39.8414472" lon="9.289335"><ele>1001.0</ele><time>2026-05-01T13:59:46.116Z</time></trkpt><trkpt lat="39.8414125" lon="9.2894312"><ele>1003.0</ele><time>2026-05-01T13:59:47.115Z</time></trkpt><trkpt lat="39.8413772" lon="9.289516"><ele>1004.9999999999999</ele><time>2026-05-01T13:59:48.113Z</time></trkpt><trkpt lat="39.8413238" lon="9.2896293"><ele>1006.9999999999999</ele><time>2026-05-01T13:59:50.113Z</time></trkpt><trkpt lat="39.8412762" lon="9.289748"><ele>1009.0</ele><time>2026-05-01T13:59:52.116Z</time></trkpt><trkpt lat="39.8412367" lon="9.2899067"><ele>1011.0</ele><time>2026-05-01T13:59:54.116Z</time></trkpt><trkpt lat="39.8412332" lon="9.2900008"><ele>1010.6666666666667</ele><time>2026-05-01T13:59:55.114Z</time></trkpt><trkpt lat="39.841243" lon="9.2900987"><ele>1010.3333333333334</ele><time>2026-05-01T13:59:56.119Z</time></trkpt><trkpt lat="39.8412862" lon="9.29021"><ele>1010.0</ele><time>2026-05-01T13:59:58.116Z</time></trkpt><trkpt lat="39.8424127" lon="9.2927867"><ele>1010.0</ele><time>2026-05-01T14:03:54.115Z</time></trkpt><trkpt lat="39.842484" lon="9.2929198"><ele>1010.0</ele><time>2026-05-01T14:03:56.115Z</time></trkpt><trkpt lat="39.8425852" lon="9.2930068"><ele>1010.0</ele><time>2026-05-01T14:03:58.119Z</time></trkpt><trkpt lat="39.8426882" lon="9.2930797"><ele>1010.0</ele><time>2026-05-01T14:04:00.117Z</time></trkpt><trkpt lat="39.842792" lon="9.2931202"><ele>1012.2</ele><time>2026-05-01T14:04:02.113Z</time></trkpt><trkpt lat="39.8428857" lon="9.2931638"><ele>1014.4</ele><time>2026-05-01T14:04:04.118Z</time></trkpt><trkpt lat="39.842949" lon="9.2931768"><ele>1016.5999999999999</ele><time>2026-05-01T14:04:06.114Z</time></trkpt><trkpt lat="39.8430147" lon="9.2931763"><ele>1018.8</ele><time>2026-05-01T14:04:10.122Z</time></trkpt><trkpt lat="39.8431698" lon="9.293157"><ele>1021.0</ele><time>2026-05-01T14:04:15.116Z</time></trkpt><trkpt lat="39.843258" lon="9.293172"><ele>1020.9999999999999</ele><time>2026-05-01T14:04:18.118Z</time></trkpt><trkpt lat="39.8433253" lon="9.2931765"><ele>1021.0</ele><time>2026-05-01T14:04:20.122Z</time></trkpt><trkpt lat="39.843402" lon="9.2931757"><ele>1021.0</ele><time>2026-05-01T14:04:22.117Z</time></trkpt><trkpt lat="39.8434962" lon="9.2932217"><ele>1021.0</ele><time>2026-05-01T14:04:25.114Z</time></trkpt><trkpt lat="39.8436133" lon="9.2932655"><ele>1020.9999999999999</ele><time>2026-05-01T14:04:27.121Z</time></trkpt><trkpt lat="39.8436778" lon="9.2932927"><ele>1021.0</ele><time>2026-05-01T14:04:28.113Z</time></trkpt><trkpt lat="39.8437467" lon="9.2933198"><ele>1025.0</ele><time>2026-05-01T14:04:29.114Z</time></trkpt><trkpt lat="39.8438213" lon="9.293342"><ele>1025.0</ele><time>2026-05-01T14:04:30.119Z</time></trkpt><trkpt lat="39.8438995" lon="9.293357"><ele>1025.0</ele><time>2026-05-01T14:04:31.116Z</time></trkpt></trkseg><trkseg><trkpt lat="39.8442998" lon="9.2931015"><ele>1037.2</ele><time>2026-05-01T14:25:23.112Z</time></trkpt><trkpt lat="39.844404" lon="9.2930053"><ele>1034.4</ele><time>2026-05-01T14:26:46.111Z</time></trkpt><trkpt lat="39.844465" lon="9.2929403"><ele>1031.6</ele><time>2026-05-01T14:26:47.11Z</time></trkpt><trkpt lat="39.8445408" lon="9.2928822"><ele>1028.8</ele><time>2026-05-01T14:26:48.11Z</time></trkpt><trkpt lat="39.844617" lon="9.2928258"><ele>1026.0</ele><time>2026-05-01T14:26:49.111Z</time></trkpt><trkpt lat="39.8446945" lon="9.2927737"><ele>1026.0</ele><time>2026-05-01T14:26:50.112Z</time></trkpt><trkpt lat="39.8447728" lon="9.2927313"><ele>1026.0</ele><time>2026-05-01T14:26:51.11Z</time></trkpt><trkpt lat="39.8448505" lon="9.2926993"><ele>1026.0</ele><time>2026-05-01T14:26:52.111Z</time></trkpt><trkpt lat="39.8449268" lon="9.2926793"><ele>1026.0</ele><time>2026-05-01T14:26:53.111Z</time></trkpt><trkpt lat="39.8450002" lon="9.2926625"><ele>1026.0</ele><time>2026-05-01T14:26:54.114Z</time></trkpt><trkpt lat="39.8450765" lon="9.2926603"><ele>1026.0</ele><time>2026-05-01T14:26:55.112Z</time></trkpt><trkpt lat="39.8451517" lon="9.2926743"><ele>1025.5</ele><time>2026-05-01T14:26:56.113Z</time></trkpt><trkpt lat="39.8452267" lon="9.2927008"><ele>1025.0</ele><time>2026-05-01T14:26:57.111Z</time></trkpt><trkpt lat="39.8452963" lon="9.2927425"><ele>1024.5</ele><time>2026-05-01T14:26:58.111Z</time></trkpt><trkpt lat="39.8453668" lon="9.2927878"><ele>1024.0</ele><time>2026-05-01T14:26:59.111Z</time></trkpt><trkpt lat="39.8454363" lon="9.292831"><ele>1023.5</ele><time>2026-05-01T14:27:00.114Z</time></trkpt><trkpt lat="39.8455142" lon="9.292872"><ele>1023.0</ele><time>2026-05-01T14:27:01.11Z</time></trkpt><trkpt lat="39.8455983" lon="9.2929115"><ele>1023.0</ele><time>2026-05-01T14:27:02.118Z</time></trkpt><trkpt lat="39.845678" lon="9.2929542"><ele>1023.0</ele><time>2026-05-01T14:27:03.11Z</time></trkpt><trkpt lat="39.8457525" lon="9.2929968"><ele>1023.0</ele><time>2026-05-01T14:27:04.11Z</time></trkpt><trkpt lat="39.8458282" lon="9.2930363"><ele>1023.0</ele><time>2026-05-01T14:27:05.108Z</time></trkpt><trkpt lat="39.84591" lon="9.2930725"><ele>1023.0</ele><time>2026-05-01T14:27:06.111Z</time></trkpt><trkpt lat="39.8459967" lon="9.2931053"><ele>1023.0</ele><time>2026-05-01T14:27:07.12Z</time></trkpt><trkpt lat="39.8460912" lon="9.2931353"><ele>1027.8</ele><time>2026-05-01T14:27:08.114Z</time></trkpt><trkpt lat="39.8461888" lon="9.293163"><ele>1032.6</ele><time>2026-05-01T14:27:09.112Z</time></trkpt><trkpt lat="39.8462915" lon="9.293188"><ele>1037.4</ele><time>2026-05-01T14:27:10.12Z</time></trkpt><trkpt lat="39.846394" lon="9.2932092"><ele>1042.2</ele><time>2026-05-01T14:27:11.113Z</time></trkpt><trkpt lat="39.8464997" lon="9.293226"><ele>1047.0</ele><time>2026-05-01T14:27:12.111Z</time></trkpt><trkpt lat="39.846609" lon="9.2932275"><ele>1047.0</ele><time>2026-05-01T14:27:13.113Z</time></trkpt><trkpt lat="39.8467227" lon="9.2932242"><ele>1047.0</ele><time>2026-05-01T14:27:14.113Z</time></trkpt><trkpt lat="39.8468312" lon="9.2932123"><ele>1047.0</ele><time>2026-05-01T14:27:15.119Z</time></trkpt><trkpt lat="39.8469373" lon="9.293188"><ele>1047.0</ele><time>2026-05-01T14:27:16.111Z</time></trkpt><trkpt lat="39.8470447" lon="9.2931558"><ele>1047.0</ele><time>2026-05-01T14:27:17.114Z</time></trkpt><trkpt lat="39.8471533" lon="9.2931277"><ele>1048.5</ele><time>2026-05-01T14:27:18.109Z</time></trkpt><trkpt lat="39.8472645" lon="9.2931005"><ele>1050.0</ele><time>2026-05-01T14:27:19.113Z</time></trkpt><trkpt lat="39.8473817" lon="9.2930762"><ele>1051.5</ele><time>2026-05-01T14:27:20.112Z</time></trkpt><trkpt lat="39.847499" lon="9.2930598"><ele>1053.0</ele><time>2026-05-01T14:27:21.112Z</time></trkpt><trkpt lat="39.8476085" lon="9.2930507"><ele>1052.5</ele><time>2026-05-01T14:27:22.111Z</time></trkpt><trkpt lat="39.8477088" lon="9.2930502"><ele>1052.0</ele><time>2026-05-01T14:27:23.111Z</time></trkpt><trkpt lat="39.8477943" lon="9.2930775"><ele>1051.5</ele><time>2026-05-01T14:27:24.121Z</time></trkpt><trkpt lat="39.8478737" lon="9.2931145"><ele>1051.0</ele><time>2026-05-01T14:27:25.114Z</time></trkpt><trkpt lat="39.847952" lon="9.2931512"><ele>1050.5</ele><time>2026-05-01T14:27:26.11Z</time></trkpt><trkpt lat="39.8480258" lon="9.2931875"><ele>1050.0</ele><time>2026-05-01T14:27:27.112Z</time></trkpt><trkpt lat="39.8480977" lon="9.2932318"><ele>1052.0</ele><time>2026-05-01T14:27:28.112Z</time></trkpt><trkpt lat="39.848155" lon="9.2932838"><ele>1054.0</ele><time>2026-05-01T14:27:29.114Z</time></trkpt><trkpt lat="39.8482175" lon="9.2934133"><ele>1056.0</ele><time>2026-05-01T14:27:31.113Z</time></trkpt><trkpt lat="39.8482477" lon="9.2935282"><ele>1058.0</ele><time>2026-05-01T14:27:33.112Z</time></trkpt><trkpt lat="39.848319" lon="9.2935585"><ele>1060.0</ele><time>2026-05-01T14:27:35.119Z</time></trkpt><trkpt lat="39.8484092" lon="9.2935023"><ele>1062.1666666666665</ele><time>2026-05-01T14:27:37.112Z</time></trkpt><trkpt lat="39.8484685" lon="9.2934585"><ele>1064.3333333333333</ele><time>2026-05-01T14:27:38.11Z</time></trkpt><trkpt lat="39.8485328" lon="9.2934127"><ele>1066.5</ele><time>2026-05-01T14:27:39.113Z</time></trkpt><trkpt lat="39.8485945" lon="9.2933488"><ele>1068.6666666666667</ele><time>2026-05-01T14:27:40.112Z</time></trkpt><trkpt lat="39.8486493" lon="9.2932565"><ele>1070.8333333333335</ele><time>2026-05-01T14:27:41.112Z</time></trkpt><trkpt lat="39.8487057" lon="9.2931527"><ele>1073.0</ele><time>2026-05-01T14:27:42.111Z</time></trkpt><trkpt lat="39.84876" lon="9.2930473"><ele>1073.2</ele><time>2026-05-01T14:27:43.112Z</time></trkpt><trkpt lat="39.848818" lon="9.2929415"><ele>1073.4</ele><time>2026-05-01T14:27:44.111Z</time></trkpt><trkpt lat="39.8488758" lon="9.2928305"><ele>1073.6000000000001</ele><time>2026-05-01T14:27:45.116Z</time></trkpt><trkpt lat="39.8489337" lon="9.2927182"><ele>1073.8</ele><time>2026-05-01T14:27:46.112Z</time></trkpt><trkpt lat="39.8489952" lon="9.2925962"><ele>1074.0</ele><time>2026-05-01T14:27:47.11Z</time></trkpt><trkpt lat="39.8490475" lon="9.2924822"><ele>1074.0</ele><time>2026-05-01T14:27:48.112Z</time></trkpt><trkpt lat="39.8490962" lon="9.2923682"><ele>1074.0</ele><time>2026-05-01T14:27:49.111Z</time></trkpt><trkpt lat="39.849145" lon="9.292272"><ele>1074.0</ele><time>2026-05-01T14:27:50.112Z</time></trkpt><trkpt lat="39.8492022" lon="9.2921985"><ele>1074.0</ele><time>2026-05-01T14:27:51.111Z</time></trkpt><trkpt lat="39.8492672" lon="9.2921377"><ele>1074.0</ele><time>2026-05-01T14:27:52.11Z</time></trkpt><trkpt lat="39.8493392" lon="9.2920748"><ele>1074.0</ele><time>2026-05-01T14:27:53.11Z</time></trkpt><trkpt lat="39.8494173" lon="9.292004"><ele>1077.8</ele><time>2026-05-01T14:27:54.11Z</time></trkpt><trkpt lat="39.8495007" lon="9.291921"><ele>1081.6000000000001</ele><time>2026-05-01T14:27:55.112Z</time></trkpt><trkpt lat="39.8495835" lon="9.2918303"><ele>1085.4</ele><time>2026-05-01T14:27:56.113Z</time></trkpt><trkpt lat="39.8496623" lon="9.2917338"><ele>1089.2</ele><time>2026-05-01T14:27:57.113Z</time></trkpt><trkpt lat="39.8497358" lon="9.2916392"><ele>1093.0</ele><time>2026-05-01T14:27:58.112Z</time></trkpt><trkpt lat="39.8498078" lon="9.2915452"><ele>1093.0</ele><time>2026-05-01T14:27:59.114Z</time></trkpt><trkpt lat="39.849877" lon="9.2914497"><ele>1093.0</ele><time>2026-05-01T14:28:00.111Z</time></trkpt><trkpt lat="39.8499462" lon="9.2913502"><ele>1093.0</ele><time>2026-05-01T14:28:01.118Z</time></trkpt><trkpt lat="39.8500145" lon="9.29125"><ele>1093.0</ele><time>2026-05-01T14:28:02.111Z</time></trkpt><trkpt lat="39.8500865" lon="9.2911547"><ele>1093.0</ele><time>2026-05-01T14:28:03.111Z</time></trkpt><trkpt lat="39.8501628" lon="9.291067"><ele>1093.4</ele><time>2026-05-01T14:28:04.114Z</time></trkpt><trkpt lat="39.8502445" lon="9.2909872"><ele>1093.8</ele><time>2026-05-01T14:28:05.112Z</time></trkpt><trkpt lat="39.8503282" lon="9.2909203"><ele>1094.2</ele><time>2026-05-01T14:28:06.114Z</time></trkpt><trkpt lat="39.8504085" lon="9.2908753"><ele>1094.6</ele><time>2026-05-01T14:28:07.111Z</time></trkpt><trkpt lat="39.8504805" lon="9.2908468"><ele>1095.0</ele><time>2026-05-01T14:28:08.111Z</time></trkpt><trkpt lat="39.8506055" lon="9.2908537"><ele>1095.0</ele><time>2026-05-01T14:28:10.109Z</time></trkpt><trkpt lat="39.8506833" lon="9.290881"><ele>1095.0</ele><time>2026-05-01T14:28:11.112Z</time></trkpt><trkpt lat="39.8507645" lon="9.2909178"><ele>1095.0</ele><time>2026-05-01T14:28:12.111Z</time></trkpt><trkpt lat="39.8508513" lon="9.2909608"><ele>1095.0</ele><time>2026-05-01T14:28:13.11Z</time></trkpt><trkpt lat="39.850947" lon="9.291007"><ele>1095.0</ele><time>2026-05-01T14:28:14.111Z</time></trkpt><trkpt lat="39.851039" lon="9.2910575"><ele>1096.0</ele><time>2026-05-01T14:28:15.11Z</time></trkpt><trkpt lat="39.851126" lon="9.2911108"><ele>1097.0</ele><time>2026-05-01T14:28:16.111Z</time></trkpt><trkpt lat="39.8511927" lon="9.2911622"><ele>1098.0</ele><time>2026-05-01T14:28:17.11Z</time></trkpt><trkpt lat="39.851279" lon="9.2912685"><ele>1099.0</ele><time>2026-05-01T14:28:19.11Z</time></trkpt><trkpt lat="39.851319" lon="9.2914115"><ele>1100.0</ele><time>2026-05-01T14:28:21.113Z</time></trkpt><trkpt lat="39.8513328" lon="9.2914948"><ele>1100.0</ele><time>2026-05-01T14:28:22.11Z</time></trkpt><trkpt lat="39.8513473" lon="9.2916565"><ele>1100.0</ele><time>2026-05-01T14:28:24.11Z</time></trkpt><trkpt lat="39.8513557" lon="9.2918095"><ele>1100.0</ele><time>2026-05-01T14:28:26.11Z</time></trkpt><trkpt lat="39.8513897" lon="9.2919435"><ele>1100.0</ele><time>2026-05-01T14:28:28.115Z</time></trkpt><trkpt lat="39.851435" lon="9.2920592"><ele>1100.0</ele><time>2026-05-01T14:28:30.127Z</time></trkpt><trkpt lat="39.8514637" lon="9.2921443"><ele>1100.0</ele><time>2026-05-01T14:28:32.108Z</time></trkpt><trkpt lat="39.8514932" lon="9.2922422"><ele>1100.0</ele><time>2026-05-01T14:28:35.134Z</time></trkpt><trkpt lat="39.8515162" lon="9.2923263"><ele>1100.0</ele><time>2026-05-01T14:28:38.111Z</time></trkpt><trkpt lat="39.8515593" lon="9.2923973"><ele>1100.0</ele><time>2026-05-01T14:28:41.113Z</time></trkpt><trkpt lat="39.8516047" lon="9.2924717"><ele>1100.0</ele><time>2026-05-01T14:28:43.11Z</time></trkpt><trkpt lat="39.8516723" lon="9.2925785"><ele>1099.5</ele><time>2026-05-01T14:28:45.115Z</time></trkpt><trkpt lat="39.851753" lon="9.2927108"><ele>1099.0</ele><time>2026-05-01T14:28:47.112Z</time></trkpt><trkpt lat="39.8517963" lon="9.292781"><ele>1098.5</ele><time>2026-05-01T14:28:48.111Z</time></trkpt><trkpt lat="39.8518433" lon="9.2928502"><ele>1098.0</ele><time>2026-05-01T14:28:49.112Z</time></trkpt><trkpt lat="39.8518923" lon="9.292914"><ele>1097.5</ele><time>2026-05-01T14:28:50.109Z</time></trkpt><trkpt lat="39.8519393" lon="9.2929777"><ele>1097.0</ele><time>2026-05-01T14:28:51.111Z</time></trkpt><trkpt lat="39.8519875" lon="9.2930413"><ele>1096.5</ele><time>2026-05-01T14:28:52.112Z</time></trkpt><trkpt lat="39.8520405" lon="9.2931037"><ele>1096.0</ele><time>2026-05-01T14:28:53.113Z</time></trkpt><trkpt lat="39.8520982" lon="9.2931707"><ele>1095.5</ele><time>2026-05-01T14:28:54.111Z</time></trkpt><trkpt lat="39.852163" lon="9.2932325"><ele>1095.0</ele><time>2026-05-01T14:28:55.111Z</time></trkpt><trkpt lat="39.8522337" lon="9.2933003"><ele>1094.5</ele><time>2026-05-01T14:28:56.111Z</time></trkpt><trkpt lat="39.8522983" lon="9.293374"><ele>1094.0</ele><time>2026-05-01T14:28:57.11Z</time></trkpt><trkpt lat="39.8523582" lon="9.293452"><ele>1094.0</ele><time>2026-05-01T14:28:58.11Z</time></trkpt><trkpt lat="39.8524063" lon="9.2935268"><ele>1094.0</ele><time>2026-05-01T14:28:59.108Z</time></trkpt><trkpt lat="39.8524477" lon="9.2935972"><ele>1094.0</ele><time>2026-05-01T14:29:00.111Z</time></trkpt><trkpt lat="39.8524878" lon="9.2936678"><ele>1094.0</ele><time>2026-05-01T14:29:01.11Z</time></trkpt><trkpt lat="39.8525295" lon="9.2937377"><ele>1094.0</ele><time>2026-05-01T14:29:02.11Z</time></trkpt><trkpt lat="39.85257" lon="9.2938097"><ele>1094.0</ele><time>2026-05-01T14:29:03.11Z</time></trkpt><trkpt lat="39.8526133" lon="9.2938807"><ele>1094.0</ele><time>2026-05-01T14:29:04.11Z</time></trkpt><trkpt lat="39.8526578" lon="9.2939495"><ele>1092.142857142857</ele><time>2026-05-01T14:29:05.109Z</time></trkpt><trkpt lat="39.8527018" lon="9.294018"><ele>1090.2857142857142</ele><time>2026-05-01T14:29:06.109Z</time></trkpt><trkpt lat="39.8527397" lon="9.2940905"><ele>1088.4285714285713</ele><time>2026-05-01T14:29:07.108Z</time></trkpt><trkpt lat="39.8527808" lon="9.2941687"><ele>1086.5714285714284</ele><time>2026-05-01T14:29:08.112Z</time></trkpt><trkpt lat="39.852819" lon="9.294244"><ele>1084.7142857142858</ele><time>2026-05-01T14:29:09.112Z</time></trkpt><trkpt lat="39.8528587" lon="9.2943238"><ele>1082.8571428571427</ele><time>2026-05-01T14:29:10.112Z</time></trkpt><trkpt lat="39.8528998" lon="9.2944018"><ele>1081.0</ele><time>2026-05-01T14:29:11.111Z</time></trkpt><trkpt lat="39.8529393" lon="9.2944822"><ele>1081.0</ele><time>2026-05-01T14:29:12.111Z</time></trkpt><trkpt lat="39.8529762" lon="9.2945615"><ele>1081.0</ele><time>2026-05-01T14:29:13.109Z</time></trkpt><trkpt lat="39.8530153" lon="9.2946422"><ele>1081.0</ele><time>2026-05-01T14:29:14.112Z</time></trkpt><trkpt lat="39.8530498" lon="9.2947247"><ele>1081.0</ele><time>2026-05-01T14:29:15.111Z</time></trkpt><trkpt lat="39.8530897" lon="9.2948062"><ele>1081.0</ele><time>2026-05-01T14:29:16.11Z</time></trkpt><trkpt lat="39.853138" lon="9.2948848"><ele>1081.0</ele><time>2026-05-01T14:29:17.109Z</time></trkpt><trkpt lat="39.853196" lon="9.2949618"><ele>1079.8333333333333</ele><time>2026-05-01T14:29:18.11Z</time></trkpt><trkpt lat="39.8532583" lon="9.2950305"><ele>1078.6666666666665</ele><time>2026-05-01T14:29:19.112Z</time></trkpt><trkpt lat="39.8533172" lon="9.2950963"><ele>1077.5</ele><time>2026-05-01T14:29:20.132Z</time></trkpt><trkpt lat="39.8533723" lon="9.2951538"><ele>1076.3333333333333</ele><time>2026-05-01T14:29:21.123Z</time></trkpt><trkpt lat="39.8534442" lon="9.2952407"><ele>1075.1666666666667</ele><time>2026-05-01T14:29:23.112Z</time></trkpt><trkpt lat="39.8534795" lon="9.295309"><ele>1074.0</ele><time>2026-05-01T14:29:25.11Z</time></trkpt><trkpt lat="39.853499" lon="9.2954167"><ele>1072.5</ele><time>2026-05-01T14:29:28.109Z</time></trkpt><trkpt lat="39.8534763" lon="9.2955257"><ele>1071.0</ele><time>2026-05-01T14:29:31.109Z</time></trkpt><trkpt lat="39.8534743" lon="9.2956302"><ele>1069.5</ele><time>2026-05-01T14:29:35.118Z</time></trkpt><trkpt lat="39.8534225" lon="9.2956917"><ele>1068.0</ele><time>2026-05-01T14:29:38.11Z</time></trkpt><trkpt lat="39.8533398" lon="9.2956733"><ele>1066.5</ele><time>2026-05-01T14:29:41.111Z</time></trkpt><trkpt lat="39.8533048" lon="9.295743"><ele>1065.0</ele><time>2026-05-01T14:29:44.11Z</time></trkpt><trkpt lat="39.8533343" lon="9.2958522"><ele>1065.0</ele><time>2026-05-01T14:29:46.109Z</time></trkpt><trkpt lat="39.8533707" lon="9.2960037"><ele>1065.0</ele><time>2026-05-01T14:29:48.111Z</time></trkpt><trkpt lat="39.8533888" lon="9.2961287"><ele>1065.0</ele><time>2026-05-01T14:29:50.11Z</time></trkpt><trkpt lat="39.8534088" lon="9.2962353"><ele>1065.0</ele><time>2026-05-01T14:29:52.121Z</time></trkpt><trkpt lat="39.8534213" lon="9.2963322"><ele>1065.0</ele><time>2026-05-01T14:29:54.11Z</time></trkpt><trkpt lat="39.853415" lon="9.2964348"><ele>1064.6666666666667</ele><time>2026-05-01T14:30:30.109Z</time></trkpt><trkpt lat="39.853472" lon="9.2964993"><ele>1064.3333333333333</ele><time>2026-05-01T14:30:42.111Z</time></trkpt><trkpt lat="39.8535548" lon="9.296453"><ele>1064.0</ele><time>2026-05-01T14:30:45.111Z</time></trkpt><trkpt lat="39.8536048" lon="9.2963818"><ele>1063.6666666666665</ele><time>2026-05-01T14:30:47.111Z</time></trkpt><trkpt lat="39.8536505" lon="9.2962953"><ele>1063.3333333333333</ele><time>2026-05-01T14:30:49.118Z</time></trkpt><trkpt lat="39.8536843" lon="9.2962222"><ele>1063.0</ele><time>2026-05-01T14:30:51.11Z</time></trkpt><trkpt lat="39.8537287" lon="9.2961467"><ele>1063.0</ele><time>2026-05-01T14:30:53.115Z</time></trkpt><trkpt lat="39.8538042" lon="9.2961348"><ele>1063.0</ele><time>2026-05-01T14:30:56.11Z</time></trkpt><trkpt lat="39.8538347" lon="9.2962147"><ele>1063.0</ele><time>2026-05-01T14:30:58.116Z</time></trkpt><trkpt lat="39.8538185" lon="9.2963058"><ele>1063.0</ele><time>2026-05-01T14:31:00.111Z</time></trkpt><trkpt lat="39.8537875" lon="9.2963972"><ele>1063.0</ele><time>2026-05-01T14:31:02.11Z</time></trkpt><trkpt lat="39.8537497" lon="9.2964875"><ele>1063.0</ele><time>2026-05-01T14:31:04.111Z</time></trkpt><trkpt lat="39.8537078" lon="9.2965692"><ele>1063.0</ele><time>2026-05-01T14:31:06.11Z</time></trkpt><trkpt lat="39.853672" lon="9.2966395"><ele>1062.0</ele><time>2026-05-01T14:31:08.11Z</time></trkpt><trkpt lat="39.8536268" lon="9.2967428"><ele>1061.0</ele><time>2026-05-01T14:31:11.111Z</time></trkpt><trkpt lat="39.85359" lon="9.29683"><ele>1060.0</ele><time>2026-05-01T14:31:13.11Z</time></trkpt><trkpt lat="39.8535723" lon="9.2969518"><ele>1059.0</ele><time>2026-05-01T14:31:15.111Z</time></trkpt><trkpt lat="39.8535742" lon="9.2970668"><ele>1058.0</ele><time>2026-05-01T14:31:17.11Z</time></trkpt><trkpt lat="39.8535702" lon="9.2971745"><ele>1057.0</ele><time>2026-05-01T14:31:19.111Z</time></trkpt><trkpt lat="39.8535605" lon="9.297269"><ele>1054.5</ele><time>2026-05-01T14:31:21.112Z</time></trkpt><trkpt lat="39.8535017" lon="9.297369"><ele>1052.0</ele><time>2026-05-01T14:31:24.109Z</time></trkpt><trkpt lat="39.8534415" lon="9.2974432"><ele>1049.5</ele><time>2026-05-01T14:31:26.11Z</time></trkpt><trkpt lat="39.8533875" lon="9.2975255"><ele>1047.0</ele><time>2026-05-01T14:31:28.11Z</time></trkpt><trkpt lat="39.8533462" lon="9.2975888"><ele>1044.5</ele><time>2026-05-01T14:31:30.109Z</time></trkpt><trkpt lat="39.8532665" lon="9.29761"><ele>1042.0</ele><time>2026-05-01T14:31:33.11Z</time></trkpt><trkpt lat="39.8532092" lon="9.2975697"><ele>1042.0</ele><time>2026-05-01T14:31:37.113Z</time></trkpt><trkpt lat="39.8532818" lon="9.2975772"><ele>1042.0</ele><time>2026-05-01T14:39:27.11Z</time></trkpt><trkpt lat="39.8533645" lon="9.2975842"><ele>1042.0</ele><time>2026-05-01T14:39:31.109Z</time></trkpt><trkpt lat="39.853416" lon="9.297527"><ele>1042.0</ele><time>2026-05-01T14:39:33.11Z</time></trkpt><trkpt lat="39.853463" lon="9.2974315"><ele>1042.0</ele><time>2026-05-01T14:39:35.109Z</time></trkpt><trkpt lat="39.8535212" lon="9.2973315"><ele>1042.0</ele><time>2026-05-01T14:39:37.109Z</time></trkpt><trkpt lat="39.8535755" lon="9.2972275"><ele>1045.0</ele><time>2026-05-01T14:39:39.109Z</time></trkpt><trkpt lat="39.853602" lon="9.2971138"><ele>1048.0</ele><time>2026-05-01T14:39:41.109Z</time></trkpt><trkpt lat="39.8535997" lon="9.296992"><ele>1051.0</ele><time>2026-05-01T14:39:43.11Z</time></trkpt><trkpt lat="39.8536035" lon="9.2968758"><ele>1054.0</ele><time>2026-05-01T14:39:45.109Z</time></trkpt><trkpt lat="39.8536188" lon="9.296758"><ele>1057.0</ele><time>2026-05-01T14:39:47.108Z</time></trkpt><trkpt lat="39.8536608" lon="9.296655"><ele>1057.0</ele><time>2026-05-01T14:39:49.108Z</time></trkpt><trkpt lat="39.8537238" lon="9.2965575"><ele>1057.0</ele><time>2026-05-01T14:39:51.109Z</time></trkpt><trkpt lat="39.8537768" lon="9.2964467"><ele>1057.0</ele><time>2026-05-01T14:39:53.107Z</time></trkpt><trkpt lat="39.8538178" lon="9.2963432"><ele>1057.0</ele><time>2026-05-01T14:39:55.108Z</time></trkpt><trkpt lat="39.8538423" lon="9.2962175"><ele>1057.0</ele><time>2026-05-01T14:39:57.11Z</time></trkpt><trkpt lat="39.8538315" lon="9.2960947"><ele>1058.0</ele><time>2026-05-01T14:39:59.109Z</time></trkpt><trkpt lat="39.8538075" lon="9.2959773"><ele>1059.0</ele><time>2026-05-01T14:40:01.11Z</time></trkpt><trkpt lat="39.8537848" lon="9.29587"><ele>1060.0</ele><time>2026-05-01T14:40:03.108Z</time></trkpt><trkpt lat="39.8537733" lon="9.2957577"><ele>1061.0</ele><time>2026-05-01T14:40:05.11Z</time></trkpt><trkpt lat="39.8537852" lon="9.2956577"><ele>1062.0</ele><time>2026-05-01T14:40:07.108Z</time></trkpt><trkpt lat="39.8538538" lon="9.295634"><ele>1063.0</ele><time>2026-05-01T14:40:10.107Z</time></trkpt><trkpt lat="39.8539125" lon="9.2956847"><ele>1063.0</ele><time>2026-05-01T14:42:34.109Z</time></trkpt><trkpt lat="39.8540238" lon="9.2957345"><ele>1063.0</ele><time>2026-05-01T14:42:36.109Z</time></trkpt><trkpt lat="39.8541005" lon="9.2957552"><ele>1063.0</ele><time>2026-05-01T14:42:37.11Z</time></trkpt><trkpt lat="39.8541873" lon="9.2957525"><ele>1063.0</ele><time>2026-05-01T14:42:38.107Z</time></trkpt><trkpt lat="39.8542788" lon="9.2957208"><ele>1063.0</ele><time>2026-05-01T14:42:39.109Z</time></trkpt><trkpt lat="39.8543782" lon="9.2956823"><ele>1063.0</ele><time>2026-05-01T14:42:40.108Z</time></trkpt><trkpt lat="39.854488" lon="9.2956503"><ele>1063.0</ele><time>2026-05-01T14:42:41.11Z</time></trkpt><trkpt lat="39.854601" lon="9.2956238"><ele>1063.0</ele><time>2026-05-01T14:42:42.109Z</time></trkpt><trkpt lat="39.8547155" lon="9.295602"><ele>1063.0</ele><time>2026-05-01T14:42:43.11Z</time></trkpt><trkpt lat="39.8548342" lon="9.2955842"><ele>1063.5</ele><time>2026-05-01T14:42:44.107Z</time></trkpt><trkpt lat="39.8549552" lon="9.295564"><ele>1064.0</ele><time>2026-05-01T14:42:45.11Z</time></trkpt><trkpt lat="39.8550795" lon="9.2955365"><ele>1064.5</ele><time>2026-05-01T14:42:46.107Z</time></trkpt><trkpt lat="39.8552052" lon="9.2954913"><ele>1065.0</ele><time>2026-05-01T14:42:47.109Z</time></trkpt><trkpt lat="39.8553237" lon="9.2954317"><ele>1065.0</ele><time>2026-05-01T14:42:48.107Z</time></trkpt><trkpt lat="39.8554398" lon="9.2953607"><ele>1065.0</ele><time>2026-05-01T14:42:49.111Z</time></trkpt><trkpt lat="39.8555515" lon="9.295289"><ele>1065.0</ele><time>2026-05-01T14:42:50.108Z</time></trkpt><trkpt lat="39.8556607" lon="9.2952107"><ele>1065.0</ele><time>2026-05-01T14:42:51.108Z</time></trkpt><trkpt lat="39.8557637" lon="9.2951233"><ele>1065.0</ele><time>2026-05-01T14:42:52.108Z</time></trkpt><trkpt lat="39.8558603" lon="9.2950287"><ele>1065.0</ele><time>2026-05-01T14:42:53.109Z</time></trkpt><trkpt lat="39.8559547" lon="9.294931"><ele>1065.0</ele><time>2026-05-01T14:42:54.108Z</time></trkpt><trkpt lat="39.8560452" lon="9.2948383"><ele>1065.0</ele><time>2026-05-01T14:42:55.108Z</time></trkpt><trkpt lat="39.8561373" lon="9.2947497"><ele>1066.1666666666667</ele><time>2026-05-01T14:42:56.109Z</time></trkpt><trkpt lat="39.8562242" lon="9.294674"><ele>1067.3333333333333</ele><time>2026-05-01T14:42:57.108Z</time></trkpt><trkpt lat="39.8563043" lon="9.2945995"><ele>1068.5</ele><time>2026-05-01T14:42:58.108Z</time></trkpt><trkpt lat="39.856369" lon="9.2945273"><ele>1069.6666666666665</ele><time>2026-05-01T14:42:59.109Z</time></trkpt><trkpt lat="39.8564298" lon="9.2944728"><ele>1070.8333333333333</ele><time>2026-05-01T14:43:00.111Z</time></trkpt><trkpt lat="39.8564912" lon="9.2944382"><ele>1072.0</ele><time>2026-05-01T14:43:01.108Z</time></trkpt><trkpt lat="39.8565942" lon="9.2943647"><ele>1072.0</ele><time>2026-05-01T14:43:03.109Z</time></trkpt><trkpt lat="39.8566425" lon="9.2943053"><ele>1072.0</ele><time>2026-05-01T14:43:04.11Z</time></trkpt><trkpt lat="39.8566985" lon="9.2942553"><ele>1072.0</ele><time>2026-05-01T14:43:05.109Z</time></trkpt><trkpt lat="39.8567587" lon="9.2942143"><ele>1072.0</ele><time>2026-05-01T14:43:06.111Z</time></trkpt><trkpt lat="39.8568243" lon="9.2941772"><ele>1072.0</ele><time>2026-05-01T14:43:07.109Z</time></trkpt><trkpt lat="39.856898" lon="9.2941458"><ele>1072.0</ele><time>2026-05-01T14:43:08.107Z</time></trkpt><trkpt lat="39.8569688" lon="9.2941168"><ele>1072.0</ele><time>2026-05-01T14:43:09.107Z</time></trkpt><trkpt lat="39.8570427" lon="9.2940862"><ele>1073.0</ele><time>2026-05-01T14:43:10.107Z</time></trkpt><trkpt lat="39.8571162" lon="9.2940437"><ele>1074.0</ele><time>2026-05-01T14:43:11.108Z</time></trkpt><trkpt lat="39.8571862" lon="9.293983"><ele>1075.0</ele><time>2026-05-01T14:43:12.105Z</time></trkpt><trkpt lat="39.8572615" lon="9.2939217"><ele>1076.0</ele><time>2026-05-01T14:43:13.108Z</time></trkpt><trkpt lat="39.8573443" lon="9.2938655"><ele>1077.0</ele><time>2026-05-01T14:43:14.108Z</time></trkpt><trkpt lat="39.8574318" lon="9.2938123"><ele>1078.0</ele><time>2026-05-01T14:43:15.109Z</time></trkpt><trkpt lat="39.8575175" lon="9.2937545"><ele>1078.3333333333333</ele><time>2026-05-01T14:43:16.109Z</time></trkpt><trkpt lat="39.8575968" lon="9.2936815"><ele>1078.6666666666665</ele><time>2026-05-01T14:43:17.109Z</time></trkpt><trkpt lat="39.857666" lon="9.2935972"><ele>1079.0</ele><time>2026-05-01T14:43:18.112Z</time></trkpt><trkpt lat="39.857733" lon="9.293518"><ele>1079.3333333333333</ele><time>2026-05-01T14:43:19.11Z</time></trkpt><trkpt lat="39.8577977" lon="9.2934507"><ele>1079.6666666666667</ele><time>2026-05-01T14:43:20.109Z</time></trkpt><trkpt lat="39.8578645" lon="9.293401"><ele>1080.0</ele><time>2026-05-01T14:43:21.107Z</time></trkpt><trkpt lat="39.8579285" lon="9.2933675"><ele>1081.4</ele><time>2026-05-01T14:43:22.108Z</time></trkpt><trkpt lat="39.8580475" lon="9.2933325"><ele>1082.8</ele><time>2026-05-01T14:43:24.108Z</time></trkpt><trkpt lat="39.858145" lon="9.2932755"><ele>1084.2</ele><time>2026-05-01T14:43:26.106Z</time></trkpt><trkpt lat="39.8582337" lon="9.2932263"><ele>1085.6</ele><time>2026-05-01T14:43:28.106Z</time></trkpt><trkpt lat="39.8583232" lon="9.2931983"><ele>1087.0</ele><time>2026-05-01T14:43:30.11Z</time></trkpt><trkpt lat="39.858386" lon="9.293175"><ele>1086.0</ele><time>2026-05-01T14:43:32.109Z</time></trkpt><trkpt lat="39.8584717" lon="9.2931172"><ele>1085.0</ele><time>2026-05-01T14:43:35.108Z</time></trkpt><trkpt lat="39.8585492" lon="9.2930318"><ele>1084.0</ele><time>2026-05-01T14:43:37.109Z</time></trkpt><trkpt lat="39.8586233" lon="9.2929067"><ele>1083.0</ele><time>2026-05-01T14:43:39.108Z</time></trkpt><trkpt lat="39.8586627" lon="9.2928293"><ele>1082.0</ele><time>2026-05-01T14:43:40.109Z</time></trkpt><trkpt lat="39.8587032" lon="9.2927468"><ele>1082.0000000000002</ele><time>2026-05-01T14:43:41.108Z</time></trkpt><trkpt lat="39.8587367" lon="9.2926618"><ele>1082.0</ele><time>2026-05-01T14:43:42.108Z</time></trkpt><trkpt lat="39.8587695" lon="9.2925767"><ele>1082.0</ele><time>2026-05-01T14:43:43.111Z</time></trkpt><trkpt lat="39.858814" lon="9.2925027"><ele>1082.0</ele><time>2026-05-01T14:43:44.11Z</time></trkpt><trkpt lat="39.8588633" lon="9.2924455"><ele>1082.0</ele><time>2026-05-01T14:43:45.104Z</time></trkpt><trkpt lat="39.8589102" lon="9.2923807"><ele>1082.0000000000002</ele><time>2026-05-01T14:43:46.11Z</time></trkpt><trkpt lat="39.8589518" lon="9.2923132"><ele>1082.0</ele><time>2026-05-01T14:43:47.115Z</time></trkpt><trkpt lat="39.8590132" lon="9.2921737"><ele>1082.4285714285716</ele><time>2026-05-01T14:43:49.108Z</time></trkpt><trkpt lat="39.8590595" lon="9.2920242"><ele>1082.857142857143</ele><time>2026-05-01T14:43:51.111Z</time></trkpt><trkpt lat="39.8590905" lon="9.2919513"><ele>1083.2857142857142</ele><time>2026-05-01T14:43:52.111Z</time></trkpt><trkpt lat="39.8591367" lon="9.2918923"><ele>1083.7142857142858</ele><time>2026-05-01T14:43:53.108Z</time></trkpt><trkpt lat="39.8591827" lon="9.2918338"><ele>1084.142857142857</ele><time>2026-05-01T14:43:54.109Z</time></trkpt><trkpt lat="39.8592278" lon="9.2917753"><ele>1084.5714285714287</ele><time>2026-05-01T14:43:55.109Z</time></trkpt><trkpt lat="39.8592732" lon="9.2917142"><ele>1085.0</ele><time>2026-05-01T14:43:56.109Z</time></trkpt><trkpt lat="39.8593203" lon="9.2916542"><ele>1085.5</ele><time>2026-05-01T14:43:57.111Z</time></trkpt><trkpt lat="39.859375" lon="9.2915952"><ele>1086.0</ele><time>2026-05-01T14:43:58.11Z</time></trkpt><trkpt lat="39.8594307" lon="9.2915482"><ele>1086.5</ele><time>2026-05-01T14:43:59.109Z</time></trkpt><trkpt lat="39.8594862" lon="9.2915047"><ele>1087.0</ele><time>2026-05-01T14:44:00.109Z</time></trkpt><trkpt lat="39.8595697" lon="9.2914417"><ele>1087.5</ele><time>2026-05-01T14:44:02.11Z</time></trkpt><trkpt lat="39.8596738" lon="9.2913873"><ele>1088.0</ele><time>2026-05-01T14:45:05.11Z</time></trkpt><trkpt lat="39.859741" lon="9.2913348"><ele>1088.0</ele><time>2026-05-01T14:45:06.107Z</time></trkpt><trkpt lat="39.8598127" lon="9.2912723"><ele>1088.0</ele><time>2026-05-01T14:45:07.107Z</time></trkpt><trkpt lat="39.859885" lon="9.2912032"><ele>1088.0</ele><time>2026-05-01T14:45:08.109Z</time></trkpt><trkpt lat="39.8599455" lon="9.2911262"><ele>1088.0</ele><time>2026-05-01T14:45:09.111Z</time></trkpt><trkpt lat="39.8599888" lon="9.2910305"><ele>1088.0</ele><time>2026-05-01T14:45:10.11Z</time></trkpt><trkpt lat="39.8600338" lon="9.290936"><ele>1088.0</ele><time>2026-05-01T14:45:11.108Z</time></trkpt><trkpt lat="39.8600873" lon="9.2908517"><ele>1088.3333333333335</ele><time>2026-05-01T14:45:12.106Z</time></trkpt><trkpt lat="39.8601567" lon="9.2907857"><ele>1088.6666666666667</ele><time>2026-05-01T14:45:13.11Z</time></trkpt><trkpt lat="39.8602283" lon="9.2907277"><ele>1089.0</ele><time>2026-05-01T14:45:14.109Z</time></trkpt><trkpt lat="39.8602948" lon="9.2906643"><ele>1089.3333333333333</ele><time>2026-05-01T14:45:15.106Z</time></trkpt><trkpt lat="39.8603422" lon="9.290595"><ele>1089.6666666666665</ele><time>2026-05-01T14:45:16.109Z</time></trkpt><trkpt lat="39.8603735" lon="9.2905222"><ele>1090.0</ele><time>2026-05-01T14:45:17.108Z</time></trkpt><trkpt lat="39.8603862" lon="9.2904395"><ele>1090.0</ele><time>2026-05-01T14:45:18.11Z</time></trkpt><trkpt lat="39.8603845" lon="9.2903462"><ele>1090.0</ele><time>2026-05-01T14:45:19.114Z</time></trkpt><trkpt lat="39.860395" lon="9.290193"><ele>1090.0</ele><time>2026-05-01T14:45:21.107Z</time></trkpt><trkpt lat="39.8604617" lon="9.2900488"><ele>1090.0</ele><time>2026-05-01T14:45:23.107Z</time></trkpt><trkpt lat="39.8605097" lon="9.2899715"><ele>1090.0</ele><time>2026-05-01T14:45:24.111Z</time></trkpt><trkpt lat="39.8605672" lon="9.2898925"><ele>1090.0</ele><time>2026-05-01T14:45:25.108Z</time></trkpt><trkpt lat="39.8606303" lon="9.2898302"><ele>1090.0</ele><time>2026-05-01T14:45:26.111Z</time></trkpt><trkpt lat="39.8607052" lon="9.2897838"><ele>1090.0</ele><time>2026-05-01T14:45:27.109Z</time></trkpt><trkpt lat="39.8607815" lon="9.2897298"><ele>1090.0</ele><time>2026-05-01T14:45:28.108Z</time></trkpt><trkpt lat="39.8608517" lon="9.2896638"><ele>1090.0</ele><time>2026-05-01T14:45:29.107Z</time></trkpt><trkpt lat="39.8609092" lon="9.2895878"><ele>1090.0</ele><time>2026-05-01T14:45:30.108Z</time></trkpt><trkpt lat="39.8609508" lon="9.2895085"><ele>1090.0</ele><time>2026-05-01T14:45:31.107Z</time></trkpt><trkpt lat="39.8609968" lon="9.289432"><ele>1090.0</ele><time>2026-05-01T14:45:32.11Z</time></trkpt><trkpt lat="39.8611067" lon="9.2893722"><ele>1090.0</ele><time>2026-05-01T14:45:34.108Z</time></trkpt><trkpt lat="39.8611727" lon="9.2893695"><ele>1090.0</ele><time>2026-05-01T14:45:35.114Z</time></trkpt><trkpt lat="39.8612405" lon="9.2893553"><ele>1090.0</ele><time>2026-05-01T14:45:36.108Z</time></trkpt><trkpt lat="39.8613105" lon="9.2893245"><ele>1090.0</ele><time>2026-05-01T14:45:37.109Z</time></trkpt><trkpt lat="39.8613725" lon="9.2892828"><ele>1090.0</ele><time>2026-05-01T14:45:38.107Z</time></trkpt><trkpt lat="39.8614242" lon="9.2892338"><ele>1090.0</ele><time>2026-05-01T14:45:39.107Z</time></trkpt><trkpt lat="39.8614728" lon="9.2891667"><ele>1090.0</ele><time>2026-05-01T14:45:40.107Z</time></trkpt><trkpt lat="39.8615263" lon="9.2890907"><ele>1090.0</ele><time>2026-05-01T14:45:41.108Z</time></trkpt><trkpt lat="39.8615847" lon="9.2890152"><ele>1090.0</ele><time>2026-05-01T14:45:42.109Z</time></trkpt><trkpt lat="39.8616482" lon="9.2889492"><ele>1090.0</ele><time>2026-05-01T14:45:43.111Z</time></trkpt><trkpt lat="39.8617162" lon="9.2889002"><ele>1091.0</ele><time>2026-05-01T14:45:44.108Z</time></trkpt><trkpt lat="39.8617895" lon="9.2888758"><ele>1092.0</ele><time>2026-05-01T14:45:45.107Z</time></trkpt><trkpt lat="39.8618682" lon="9.2888713"><ele>1093.0</ele><time>2026-05-01T14:45:46.108Z</time></trkpt><trkpt lat="39.8619455" lon="9.2888742"><ele>1094.0</ele><time>2026-05-01T14:45:47.109Z</time></trkpt><trkpt lat="39.8620163" lon="9.2888623"><ele>1095.0</ele><time>2026-05-01T14:45:48.108Z</time></trkpt><trkpt lat="39.8620777" lon="9.2888343"><ele>1096.0</ele><time>2026-05-01T14:45:49.106Z</time></trkpt><trkpt lat="39.8621363" lon="9.2887795"><ele>1097.0</ele><time>2026-05-01T14:45:50.108Z</time></trkpt><trkpt lat="39.8621983" lon="9.288732"><ele>1097.0</ele><time>2026-05-01T14:45:51.106Z</time></trkpt><trkpt lat="39.8623137" lon="9.2887158"><ele>1097.0</ele><time>2026-05-01T14:45:53.108Z</time></trkpt><trkpt lat="39.8623917" lon="9.2887202"><ele>1097.0</ele><time>2026-05-01T14:45:55.108Z</time></trkpt><trkpt lat="39.8624888" lon="9.2887227"><ele>1097.0</ele><time>2026-05-01T14:48:05.108Z</time></trkpt><trkpt lat="39.8626002" lon="9.2886933"><ele>1097.0</ele><time>2026-05-01T14:48:07.108Z</time></trkpt><trkpt lat="39.8627223" lon="9.288668"><ele>1095.0</ele><time>2026-05-01T14:48:09.109Z</time></trkpt><trkpt lat="39.8628332" lon="9.2886312"><ele>1093.0</ele><time>2026-05-01T14:48:11.108Z</time></trkpt><trkpt lat="39.8629215" lon="9.2885703"><ele>1091.0</ele><time>2026-05-01T14:48:13.109Z</time></trkpt><trkpt lat="39.8629823" lon="9.2885292"><ele>1089.0</ele><time>2026-05-01T14:48:15.111Z</time></trkpt><trkpt lat="39.8630725" lon="9.2885147"><ele>1087.0</ele><time>2026-05-01T14:48:17.109Z</time></trkpt><trkpt lat="39.8632053" lon="9.2885135"><ele>1087.0</ele><time>2026-05-01T14:48:19.108Z</time></trkpt><trkpt lat="39.8632783" lon="9.2884945"><ele>1087.0</ele><time>2026-05-01T14:48:20.11Z</time></trkpt><trkpt lat="39.8633495" lon="9.2884642"><ele>1087.0</ele><time>2026-05-01T14:48:21.109Z</time></trkpt><trkpt lat="39.863419" lon="9.2884335"><ele>1087.0</ele><time>2026-05-01T14:48:22.109Z</time></trkpt><trkpt lat="39.863488" lon="9.288407"><ele>1087.0</ele><time>2026-05-01T14:48:23.108Z</time></trkpt><trkpt lat="39.8635565" lon="9.2883963"><ele>1087.0</ele><time>2026-05-01T14:48:24.11Z</time></trkpt><trkpt lat="39.8636323" lon="9.2884022"><ele>1087.0</ele><time>2026-05-01T14:48:25.109Z</time></trkpt><trkpt lat="39.8637112" lon="9.288414"><ele>1085.8333333333333</ele><time>2026-05-01T14:48:26.108Z</time></trkpt><trkpt lat="39.8637953" lon="9.2884197"><ele>1084.6666666666665</ele><time>2026-05-01T14:48:27.108Z</time></trkpt><trkpt lat="39.8638852" lon="9.2884167"><ele>1083.5</ele><time>2026-05-01T14:48:28.107Z</time></trkpt><trkpt lat="39.863972" lon="9.2884143"><ele>1082.3333333333333</ele><time>2026-05-01T14:48:29.107Z</time></trkpt><trkpt lat="39.864053" lon="9.288413"><ele>1081.1666666666667</ele><time>2026-05-01T14:48:30.107Z</time></trkpt><trkpt lat="39.864128" lon="9.2884087"><ele>1080.0</ele><time>2026-05-01T14:48:31.107Z</time></trkpt><trkpt lat="39.8642045" lon="9.2884053"><ele>1080.0</ele><time>2026-05-01T14:48:32.107Z</time></trkpt><trkpt lat="39.8642773" lon="9.2884153"><ele>1080.0</ele><time>2026-05-01T14:48:33.107Z</time></trkpt><trkpt lat="39.8643422" lon="9.288438"><ele>1080.0</ele><time>2026-05-01T14:48:34.107Z</time></trkpt><trkpt lat="39.8644045" lon="9.2884675"><ele>1080.0</ele><time>2026-05-01T14:48:35.108Z</time></trkpt><trkpt lat="39.864467" lon="9.2884925"><ele>1080.0</ele><time>2026-05-01T14:48:36.107Z</time></trkpt><trkpt lat="39.8645703" lon="9.288527"><ele>1080.0</ele><time>2026-05-01T14:48:38.108Z</time></trkpt><trkpt lat="39.8646633" lon="9.288573"><ele>1080.25</ele><time>2026-05-01T14:48:40.107Z</time></trkpt><trkpt lat="39.8647617" lon="9.2886228"><ele>1080.5</ele><time>2026-05-01T14:48:42.108Z</time></trkpt><trkpt lat="39.8648623" lon="9.288683"><ele>1080.75</ele><time>2026-05-01T14:48:44.108Z</time></trkpt><trkpt lat="39.8649702" lon="9.28875"><ele>1081.0</ele><time>2026-05-01T14:48:46.106Z</time></trkpt><trkpt lat="39.8650803" lon="9.2888113"><ele>1083.0</ele><time>2026-05-01T14:48:48.105Z</time></trkpt><trkpt lat="39.8651925" lon="9.288832"><ele>1085.0</ele><time>2026-05-01T14:48:50.107Z</time></trkpt><trkpt lat="39.8652578" lon="9.2888335"><ele>1087.0</ele><time>2026-05-01T14:48:51.105Z</time></trkpt><trkpt lat="39.8653288" lon="9.2888345"><ele>1089.0</ele><time>2026-05-01T14:48:52.106Z</time></trkpt><trkpt lat="39.865405" lon="9.288838"><ele>1091.0</ele><time>2026-05-01T14:48:53.107Z</time></trkpt><trkpt lat="39.8654843" lon="9.2888472"><ele>1093.0</ele><time>2026-05-01T14:48:54.105Z</time></trkpt><trkpt lat="39.8655588" lon="9.2888675"><ele>1093.0</ele><time>2026-05-01T14:48:55.106Z</time></trkpt><trkpt lat="39.8656337" lon="9.2888948"><ele>1093.0</ele><time>2026-05-01T14:48:56.108Z</time></trkpt><trkpt lat="39.8657132" lon="9.2889312"><ele>1093.0</ele><time>2026-05-01T14:48:57.105Z</time></trkpt><trkpt lat="39.8657915" lon="9.2889682"><ele>1093.0</ele><time>2026-05-01T14:48:58.108Z</time></trkpt><trkpt lat="39.8658695" lon="9.2889998"><ele>1093.0</ele><time>2026-05-01T14:48:59.107Z</time></trkpt><trkpt lat="39.8659447" lon="9.2890313"><ele>1093.0</ele><time>2026-05-01T14:49:00.105Z</time></trkpt><trkpt lat="39.8660207" lon="9.2890602"><ele>1091.5714285714287</ele><time>2026-05-01T14:49:01.105Z</time></trkpt><trkpt lat="39.866093" lon="9.2890852"><ele>1090.142857142857</ele><time>2026-05-01T14:49:02.105Z</time></trkpt><trkpt lat="39.8661667" lon="9.2891015"><ele>1088.7142857142858</ele><time>2026-05-01T14:49:03.104Z</time></trkpt><trkpt lat="39.8662343" lon="9.2891117"><ele>1087.2857142857142</ele><time>2026-05-01T14:49:04.105Z</time></trkpt><trkpt lat="39.8663027" lon="9.2891122"><ele>1085.857142857143</ele><time>2026-05-01T14:49:05.106Z</time></trkpt><trkpt lat="39.8663715" lon="9.2891017"><ele>1084.4285714285716</ele><time>2026-05-01T14:49:06.106Z</time></trkpt><trkpt lat="39.8664408" lon="9.289078"><ele>1083.0</ele><time>2026-05-01T14:49:07.108Z</time></trkpt><trkpt lat="39.8665105" lon="9.2890472"><ele>1083.0</ele><time>2026-05-01T14:49:08.106Z</time></trkpt><trkpt lat="39.8665852" lon="9.2890185"><ele>1083.0</ele><time>2026-05-01T14:49:09.108Z</time></trkpt><trkpt lat="39.8666613" lon="9.2890025"><ele>1083.0</ele><time>2026-05-01T14:49:10.104Z</time></trkpt><trkpt lat="39.8667387" lon="9.2889963"><ele>1083.0</ele><time>2026-05-01T14:49:11.105Z</time></trkpt><trkpt lat="39.86681" lon="9.2889925"><ele>1083.0</ele><time>2026-05-01T14:49:12.104Z</time></trkpt><trkpt lat="39.8668828" lon="9.2889893"><ele>1083.0</ele><time>2026-05-01T14:49:13.107Z</time></trkpt><trkpt lat="39.8669545" lon="9.2889795"><ele>1083.0</ele><time>2026-05-01T14:49:14.109Z</time></trkpt><trkpt lat="39.867024" lon="9.2889577"><ele>1082.4285714285716</ele><time>2026-05-01T14:49:15.106Z</time></trkpt><trkpt lat="39.8670917" lon="9.2889265"><ele>1081.857142857143</ele><time>2026-05-01T14:49:16.106Z</time></trkpt><trkpt lat="39.8671552" lon="9.2888883"><ele>1081.2857142857142</ele><time>2026-05-01T14:49:17.106Z</time></trkpt><trkpt lat="39.8672158" lon="9.2888512"><ele>1080.7142857142858</ele><time>2026-05-01T14:49:18.108Z</time></trkpt><trkpt lat="39.8672785" lon="9.2888135"><ele>1080.142857142857</ele><time>2026-05-01T14:49:19.107Z</time></trkpt><trkpt lat="39.8673422" lon="9.2887765"><ele>1079.5714285714287</ele><time>2026-05-01T14:49:20.108Z</time></trkpt><trkpt lat="39.8674093" lon="9.2887545"><ele>1079.0</ele><time>2026-05-01T14:49:21.11Z</time></trkpt><trkpt lat="39.8674768" lon="9.2887342"><ele>1080.0</ele><time>2026-05-01T14:49:22.107Z</time></trkpt><trkpt lat="39.8675428" lon="9.288708"><ele>1081.0</ele><time>2026-05-01T14:49:23.11Z</time></trkpt><trkpt lat="39.8676105" lon="9.2886765"><ele>1082.0</ele><time>2026-05-01T14:49:24.107Z</time></trkpt><trkpt lat="39.8676783" lon="9.2886368"><ele>1083.0</ele><time>2026-05-01T14:49:25.108Z</time></trkpt><trkpt lat="39.867745" lon="9.288591"><ele>1084.0</ele><time>2026-05-01T14:49:26.108Z</time></trkpt><trkpt lat="39.8678157" lon="9.288538"><ele>1085.0</ele><time>2026-05-01T14:49:27.107Z</time></trkpt><trkpt lat="39.8678898" lon="9.2884737"><ele>1085.0</ele><time>2026-05-01T14:49:28.106Z</time></trkpt><trkpt lat="39.8679668" lon="9.2884032"><ele>1085.0</ele><time>2026-05-01T14:49:29.107Z</time></trkpt><trkpt lat="39.8680467" lon="9.2883285"><ele>1085.0</ele><time>2026-05-01T14:49:30.108Z</time></trkpt><trkpt lat="39.8681215" lon="9.2882582"><ele>1085.0</ele><time>2026-05-01T14:49:31.11Z</time></trkpt><trkpt lat="39.8682042" lon="9.2881952"><ele>1085.0</ele><time>2026-05-01T14:49:32.107Z</time></trkpt><trkpt lat="39.8682835" lon="9.2881322"><ele>1086.8333333333335</ele><time>2026-05-01T14:49:33.106Z</time></trkpt><trkpt lat="39.868362" lon="9.2880625"><ele>1088.6666666666667</ele><time>2026-05-01T14:49:34.107Z</time></trkpt><trkpt lat="39.8684333" lon="9.287992"><ele>1090.5</ele><time>2026-05-01T14:49:35.107Z</time></trkpt><trkpt lat="39.868505" lon="9.2879245"><ele>1092.3333333333333</ele><time>2026-05-01T14:49:36.108Z</time></trkpt><trkpt lat="39.8685748" lon="9.2878638"><ele>1094.1666666666665</ele><time>2026-05-01T14:49:37.108Z</time></trkpt><trkpt lat="39.8686482" lon="9.2878085"><ele>1096.0</ele><time>2026-05-01T14:49:38.107Z</time></trkpt><trkpt lat="39.8687253" lon="9.2877617"><ele>1096.0</ele><time>2026-05-01T14:49:39.107Z</time></trkpt><trkpt lat="39.8688015" lon="9.2877202"><ele>1096.0</ele><time>2026-05-01T14:49:40.107Z</time></trkpt><trkpt lat="39.8688802" lon="9.2876787"><ele>1096.0</ele><time>2026-05-01T14:49:41.108Z</time></trkpt><trkpt lat="39.8689563" lon="9.287641"><ele>1096.0</ele><time>2026-05-01T14:49:42.106Z</time></trkpt><trkpt lat="39.869034" lon="9.287602"><ele>1096.0</ele><time>2026-05-01T14:49:43.103Z</time></trkpt><trkpt lat="39.8691112" lon="9.2875625"><ele>1096.0</ele><time>2026-05-01T14:49:44.11Z</time></trkpt><trkpt lat="39.8691862" lon="9.2875263"><ele>1096.0000000000002</ele><time>2026-05-01T14:49:45.107Z</time></trkpt><trkpt lat="39.8692557" lon="9.2874982"><ele>1096.0</ele><time>2026-05-01T14:49:46.109Z</time></trkpt><trkpt lat="39.869327" lon="9.2874783"><ele>1096.0</ele><time>2026-05-01T14:49:47.106Z</time></trkpt><trkpt lat="39.8693982" lon="9.287461"><ele>1096.0</ele><time>2026-05-01T14:49:48.107Z</time></trkpt><trkpt lat="39.8694682" lon="9.2874415"><ele>1096.0</ele><time>2026-05-01T14:49:49.108Z</time></trkpt><trkpt lat="39.8695382" lon="9.2874183"><ele>1096.0000000000002</ele><time>2026-05-01T14:49:50.107Z</time></trkpt><trkpt lat="39.8696062" lon="9.2873868"><ele>1096.0</ele><time>2026-05-01T14:49:51.113Z</time></trkpt><trkpt lat="39.8696738" lon="9.2873548"><ele>1096.1428571428573</ele><time>2026-05-01T14:49:52.107Z</time></trkpt><trkpt lat="39.8697403" lon="9.2873275"><ele>1096.2857142857142</ele><time>2026-05-01T14:49:53.108Z</time></trkpt><trkpt lat="39.8698092" lon="9.2872977"><ele>1096.4285714285716</ele><time>2026-05-01T14:49:54.107Z</time></trkpt><trkpt lat="39.8698762" lon="9.2872683"><ele>1096.5714285714287</ele><time>2026-05-01T14:49:55.107Z</time></trkpt><trkpt lat="39.8699443" lon="9.2872465"><ele>1096.7142857142858</ele><time>2026-05-01T14:49:56.109Z</time></trkpt><trkpt lat="39.8700162" lon="9.2872328"><ele>1096.857142857143</ele><time>2026-05-01T14:49:57.106Z</time></trkpt><trkpt lat="39.8700847" lon="9.2872233"><ele>1097.0</ele><time>2026-05-01T14:49:58.108Z</time></trkpt><trkpt lat="39.8701503" lon="9.2872138"><ele>1098.0</ele><time>2026-05-01T14:49:59.108Z</time></trkpt><trkpt lat="39.8702142" lon="9.2872093"><ele>1099.0</ele><time>2026-05-01T14:50:00.107Z</time></trkpt><trkpt lat="39.870344" lon="9.287208"><ele>1100.0</ele><time>2026-05-01T14:50:02.109Z</time></trkpt><trkpt lat="39.8704138" lon="9.2872123"><ele>1101.0</ele><time>2026-05-01T14:50:03.107Z</time></trkpt><trkpt lat="39.8704838" lon="9.2872125"><ele>1102.0</ele><time>2026-05-01T14:50:04.106Z</time></trkpt><trkpt lat="39.870559" lon="9.2872157"><ele>1103.0</ele><time>2026-05-01T14:50:05.11Z</time></trkpt><trkpt lat="39.8706327" lon="9.2872148"><ele>1103.0</ele><time>2026-05-01T14:50:06.107Z</time></trkpt><trkpt lat="39.8707022" lon="9.287214"><ele>1103.0</ele><time>2026-05-01T14:50:07.109Z</time></trkpt><trkpt lat="39.870823" lon="9.2871862"><ele>1103.0</ele><time>2026-05-01T14:50:09.11Z</time></trkpt><trkpt lat="39.8709362" lon="9.2871365"><ele>1103.0</ele><time>2026-05-01T14:50:11.107Z</time></trkpt><trkpt lat="39.8710413" lon="9.287145"><ele>1103.0</ele><time>2026-05-01T14:50:13.109Z</time></trkpt><trkpt lat="39.871151" lon="9.2871695"><ele>1103.6</ele><time>2026-05-01T14:50:15.108Z</time></trkpt><trkpt lat="39.8712432" lon="9.2871328"><ele>1104.1999999999998</ele><time>2026-05-01T14:50:17.106Z</time></trkpt><trkpt lat="39.8713267" lon="9.2871067"><ele>1104.8</ele><time>2026-05-01T14:50:19.108Z</time></trkpt><trkpt lat="39.8714187" lon="9.2870963"><ele>1105.3999999999999</ele><time>2026-05-01T14:50:21.109Z</time></trkpt><trkpt lat="39.8715127" lon="9.2870872"><ele>1106.0</ele><time>2026-05-01T14:50:23.108Z</time></trkpt><trkpt lat="39.8716045" lon="9.2870617"><ele>1106.0</ele><time>2026-05-01T14:50:25.107Z</time></trkpt><trkpt lat="39.871697" lon="9.2870342"><ele>1106.0</ele><time>2026-05-01T14:50:27.108Z</time></trkpt><trkpt lat="39.871799" lon="9.2870172"><ele>1106.0</ele><time>2026-05-01T14:50:29.108Z</time></trkpt><trkpt lat="39.8719045" lon="9.2869987"><ele>1106.0</ele><time>2026-05-01T14:50:31.105Z</time></trkpt><trkpt lat="39.8720162" lon="9.2869862"><ele>1106.0</ele><time>2026-05-01T14:50:33.106Z</time></trkpt><trkpt lat="39.8721125" lon="9.286997"><ele>1109.6666666666667</ele><time>2026-05-01T14:50:35.108Z</time></trkpt><trkpt lat="39.8721945" lon="9.287041"><ele>1113.3333333333333</ele><time>2026-05-01T14:50:37.108Z</time></trkpt><trkpt lat="39.8722495" lon="9.287106"><ele>1117.0</ele><time>2026-05-01T14:50:40.107Z</time></trkpt><trkpt lat="39.8723982" lon="9.2908965"><ele>1117.6</ele><time>2026-05-01T14:52:10.107Z</time></trkpt><trkpt lat="39.8723562" lon="9.2910202"><ele>1118.2</ele><time>2026-05-01T14:52:11.108Z</time></trkpt><trkpt lat="39.8723205" lon="9.2911482"><ele>1118.8</ele><time>2026-05-01T14:52:12.108Z</time></trkpt><trkpt lat="39.8722957" lon="9.2912802"><ele>1119.4</ele><time>2026-05-01T14:52:13.111Z</time></trkpt><trkpt lat="39.8722757" lon="9.2914185"><ele>1120.0</ele><time>2026-05-01T14:52:14.107Z</time></trkpt><trkpt lat="39.8722587" lon="9.2915572"><ele>1121.5</ele><time>2026-05-01T14:52:15.108Z</time></trkpt><trkpt lat="39.8722458" lon="9.2916955"><ele>1123.0</ele><time>2026-05-01T14:52:16.107Z</time></trkpt><trkpt lat="39.8722355" lon="9.2918333"><ele>1124.5</ele><time>2026-05-01T14:52:17.108Z</time></trkpt><trkpt lat="39.8722248" lon="9.2920947"><ele>1126.0</ele><time>2026-05-01T14:52:19.106Z</time></trkpt><trkpt lat="39.8722235" lon="9.2922148"><ele>1124.6</ele><time>2026-05-01T14:52:20.108Z</time></trkpt><trkpt lat="39.8722185" lon="9.2923343"><ele>1123.1999999999998</ele><time>2026-05-01T14:52:21.105Z</time></trkpt><trkpt lat="39.872211" lon="9.2924613"><ele>1121.8000000000002</ele><time>2026-05-01T14:52:22.105Z</time></trkpt><trkpt lat="39.8722028" lon="9.2925925"><ele>1120.4</ele><time>2026-05-01T14:52:23.107Z</time></trkpt><trkpt lat="39.872195" lon="9.2927292"><ele>1119.0</ele><time>2026-05-01T14:52:24.106Z</time></trkpt><trkpt lat="39.8721858" lon="9.292865"><ele>1119.0</ele><time>2026-05-01T14:52:25.107Z</time></trkpt><trkpt lat="39.8721703" lon="9.293004"><ele>1119.0</ele><time>2026-05-01T14:52:26.108Z</time></trkpt><trkpt lat="39.8721482" lon="9.2931418"><ele>1119.0</ele><time>2026-05-01T14:52:27.11Z</time></trkpt><trkpt lat="39.8721155" lon="9.2932857"><ele>1119.0</ele><time>2026-05-01T14:52:28.107Z</time></trkpt><trkpt lat="39.872078" lon="9.2934277"><ele>1119.0</ele><time>2026-05-01T14:52:29.106Z</time></trkpt><trkpt lat="39.8720437" lon="9.2935713"><ele>1117.0</ele><time>2026-05-01T14:52:30.107Z</time></trkpt><trkpt lat="39.8720093" lon="9.2937162"><ele>1115.0</ele><time>2026-05-01T14:52:31.107Z</time></trkpt><trkpt lat="39.8719727" lon="9.293859"><ele>1113.0</ele><time>2026-05-01T14:52:32.106Z</time></trkpt><trkpt lat="39.8719428" lon="9.2940057"><ele>1111.0</ele><time>2026-05-01T14:52:33.107Z</time></trkpt><trkpt lat="39.8719257" lon="9.2941448"><ele>1110.0</ele><time>2026-05-01T14:52:34.107Z</time></trkpt><trkpt lat="39.8719157" lon="9.2942897"><ele>1109.0</ele><time>2026-05-01T14:52:35.106Z</time></trkpt><trkpt lat="39.8719117" lon="9.2944333"><ele>1108.0</ele><time>2026-05-01T14:52:36.107Z</time></trkpt><trkpt lat="39.8719103" lon="9.2945715"><ele>1107.0</ele><time>2026-05-01T14:52:37.108Z</time></trkpt><trkpt lat="39.8719025" lon="9.2947137"><ele>1106.0</ele><time>2026-05-01T14:52:38.107Z</time></trkpt><trkpt lat="39.871856" lon="9.2950048"><ele>1104.75</ele><time>2026-05-01T14:52:40.108Z</time></trkpt><trkpt lat="39.871832" lon="9.2951512"><ele>1103.5</ele><time>2026-05-01T14:52:41.109Z</time></trkpt><trkpt lat="39.8718092" lon="9.2953005"><ele>1102.25</ele><time>2026-05-01T14:52:42.107Z</time></trkpt><trkpt lat="39.8717938" lon="9.2954635"><ele>1101.0</ele><time>2026-05-01T14:52:43.107Z</time></trkpt><trkpt lat="39.8717903" lon="9.2956287"><ele>1098.25</ele><time>2026-05-01T14:52:44.105Z</time></trkpt><trkpt lat="39.8718065" lon="9.295806"><ele>1095.5</ele><time>2026-05-01T14:52:45.107Z</time></trkpt><trkpt lat="39.8718502" lon="9.295991"><ele>1092.75</ele><time>2026-05-01T14:52:46.106Z</time></trkpt><trkpt lat="39.871899" lon="9.2961722"><ele>1090.0</ele><time>2026-05-01T14:52:47.105Z</time></trkpt><trkpt lat="39.8719465" lon="9.2963422"><ele>1088.6</ele><time>2026-05-01T14:52:48.109Z</time></trkpt><trkpt lat="39.8719843" lon="9.2964987"><ele>1087.2</ele><time>2026-05-01T14:52:49.107Z</time></trkpt><trkpt lat="39.8720012" lon="9.2966398"><ele>1085.8</ele><time>2026-05-01T14:52:50.105Z</time></trkpt><trkpt lat="39.8719797" lon="9.296762"><ele>1084.4</ele><time>2026-05-01T14:52:51.106Z</time></trkpt><trkpt lat="39.8719157" lon="9.2968788"><ele>1083.0</ele><time>2026-05-01T14:52:52.108Z</time></trkpt><trkpt lat="39.8718423" lon="9.2969758"><ele>1084.6</ele><time>2026-05-01T14:52:53.108Z</time></trkpt><trkpt lat="39.8717705" lon="9.2970573"><ele>1086.1999999999998</ele><time>2026-05-01T14:52:54.108Z</time></trkpt><trkpt lat="39.8717022" lon="9.2971408"><ele>1087.8</ele><time>2026-05-01T14:52:55.107Z</time></trkpt><trkpt lat="39.8716552" lon="9.2972227"><ele>1089.3999999999999</ele><time>2026-05-01T14:52:56.108Z</time></trkpt><trkpt lat="39.8717105" lon="9.2973645"><ele>1091.0</ele><time>2026-05-01T14:52:58.107Z</time></trkpt><trkpt lat="39.8717763" lon="9.2974537"><ele>1091.0</ele><time>2026-05-01T14:52:59.106Z</time></trkpt><trkpt lat="39.8718943" lon="9.2976635"><ele>1091.0</ele><time>2026-05-01T14:53:01.107Z</time></trkpt><trkpt lat="39.8719285" lon="9.2977778"><ele>1091.0</ele><time>2026-05-01T14:53:02.105Z</time></trkpt><trkpt lat="39.8719587" lon="9.2978782"><ele>1091.0</ele><time>2026-05-01T14:53:03.107Z</time></trkpt><trkpt lat="39.8720837" lon="9.2979402"><ele>1091.0</ele><time>2026-05-01T14:53:05.11Z</time></trkpt><trkpt lat="39.8721655" lon="9.2979377"><ele>1091.0</ele><time>2026-05-01T14:53:06.108Z</time></trkpt><trkpt lat="39.8722505" lon="9.2979483"><ele>1091.0</ele><time>2026-05-01T14:53:07.108Z</time></trkpt><trkpt lat="39.8723312" lon="9.2979913"><ele>1091.0</ele><time>2026-05-01T14:53:08.108Z</time></trkpt><trkpt lat="39.8724102" lon="9.2980547"><ele>1091.0</ele><time>2026-05-01T14:53:09.108Z</time></trkpt><trkpt lat="39.8724802" lon="9.2981277"><ele>1091.0</ele><time>2026-05-01T14:53:10.107Z</time></trkpt><trkpt lat="39.8725472" lon="9.2982047"><ele>1087.0</ele><time>2026-05-01T14:53:11.105Z</time></trkpt><trkpt lat="39.8726135" lon="9.2982827"><ele>1083.0</ele><time>2026-05-01T14:53:12.109Z</time></trkpt><trkpt lat="39.8726845" lon="9.2983652"><ele>1079.0</ele><time>2026-05-01T14:53:13.108Z</time></trkpt><trkpt lat="39.8727528" lon="9.2984543"><ele>1075.0</ele><time>2026-05-01T14:53:14.107Z</time></trkpt><trkpt lat="39.8728097" lon="9.2985555"><ele>1071.0</ele><time>2026-05-01T14:53:15.108Z</time></trkpt><trkpt lat="39.8728443" lon="9.298684"><ele>1071.0</ele><time>2026-05-01T14:53:16.105Z</time></trkpt><trkpt lat="39.8728653" lon="9.2988255"><ele>1071.0</ele><time>2026-05-01T14:53:17.107Z</time></trkpt><trkpt lat="39.8728908" lon="9.2989648"><ele>1071.0</ele><time>2026-05-01T14:53:18.106Z</time></trkpt><trkpt lat="39.8729273" lon="9.2991082"><ele>1071.0</ele><time>2026-05-01T14:53:19.11Z</time></trkpt><trkpt lat="39.8729747" lon="9.2992427"><ele>1073.25</ele><time>2026-05-01T14:53:20.108Z</time></trkpt><trkpt lat="39.8730767" lon="9.299488"><ele>1075.5</ele><time>2026-05-01T14:53:22.107Z</time></trkpt><trkpt lat="39.8731065" lon="9.2996055"><ele>1077.75</ele><time>2026-05-01T14:53:23.105Z</time></trkpt><trkpt lat="39.8731033" lon="9.2997368"><ele>1080.0</ele><time>2026-05-01T14:53:24.107Z</time></trkpt><trkpt lat="39.8730708" lon="9.2998763"><ele>1080.0</ele><time>2026-05-01T14:53:25.106Z</time></trkpt><trkpt lat="39.8730422" lon="9.300027"><ele>1080.0</ele><time>2026-05-01T14:53:26.107Z</time></trkpt><trkpt lat="39.8730263" lon="9.3001823"><ele>1080.0</ele><time>2026-05-01T14:53:27.106Z</time></trkpt><trkpt lat="39.8730098" lon="9.3003383"><ele>1080.0</ele><time>2026-05-01T14:53:28.106Z</time></trkpt><trkpt lat="39.8729955" lon="9.3004965"><ele>1077.75</ele><time>2026-05-01T14:53:29.105Z</time></trkpt><trkpt lat="39.8729853" lon="9.30065"><ele>1075.5</ele><time>2026-05-01T14:53:30.118Z</time></trkpt><trkpt lat="39.8729833" lon="9.300807"><ele>1073.25</ele><time>2026-05-01T14:53:31.113Z</time></trkpt><trkpt lat="39.8729895" lon="9.3009608"><ele>1071.0</ele><time>2026-05-01T14:53:32.11Z</time></trkpt><trkpt lat="39.8729895" lon="9.301107"><ele>1071.0</ele><time>2026-05-01T14:53:33.111Z</time></trkpt><trkpt lat="39.8729747" lon="9.3012327"><ele>1071.0</ele><time>2026-05-01T14:53:34.108Z</time></trkpt><trkpt lat="39.8729278" lon="9.3013358"><ele>1071.0</ele><time>2026-05-01T14:53:35.108Z</time></trkpt><trkpt lat="39.8728333" lon="9.3014198"><ele>1071.0</ele><time>2026-05-01T14:53:36.108Z</time></trkpt><trkpt lat="39.872732" lon="9.3015058"><ele>1071.0</ele><time>2026-05-01T14:53:37.108Z</time></trkpt><trkpt lat="39.872629" lon="9.3015853"><ele>1072.6</ele><time>2026-05-01T14:53:38.108Z</time></trkpt><trkpt lat="39.872516" lon="9.3016413"><ele>1074.1999999999998</ele><time>2026-05-01T14:53:39.112Z</time></trkpt><trkpt lat="39.8724045" lon="9.3016708"><ele>1075.8000000000002</ele><time>2026-05-01T14:53:40.107Z</time></trkpt><trkpt lat="39.8723268" lon="9.3016967"><ele>1077.4</ele><time>2026-05-01T14:53:41.108Z</time></trkpt><trkpt lat="39.8722828" lon="9.3018373"><ele>1079.0</ele><time>2026-05-01T14:53:43.107Z</time></trkpt><trkpt lat="39.8723095" lon="9.301917"><ele>1079.0</ele><time>2026-05-01T14:53:44.106Z</time></trkpt><trkpt lat="39.8723472" lon="9.3020157"><ele>1079.0</ele><time>2026-05-01T14:53:45.106Z</time></trkpt><trkpt lat="39.872394" lon="9.3021132"><ele>1079.0</ele><time>2026-05-01T14:53:46.105Z</time></trkpt><trkpt lat="39.8724358" lon="9.3022205"><ele>1079.0</ele><time>2026-05-01T14:53:47.106Z</time></trkpt><trkpt lat="39.8724727" lon="9.3023367"><ele>1079.0</ele><time>2026-05-01T14:53:48.107Z</time></trkpt><trkpt lat="39.8725062" lon="9.3024608"><ele>1077.6000000000001</ele><time>2026-05-01T14:53:49.109Z</time></trkpt><trkpt lat="39.8725372" lon="9.3025908"><ele>1076.2</ele><time>2026-05-01T14:53:50.107Z</time></trkpt><trkpt lat="39.8725518" lon="9.3027295"><ele>1074.8000000000002</ele><time>2026-05-01T14:53:51.109Z</time></trkpt><trkpt lat="39.8725443" lon="9.3028672"><ele>1073.4</ele><time>2026-05-01T14:53:52.108Z</time></trkpt><trkpt lat="39.8725098" lon="9.302988"><ele>1072.0</ele><time>2026-05-01T14:53:53.106Z</time></trkpt><trkpt lat="39.8724485" lon="9.3031057"><ele>1068.25</ele><time>2026-05-01T14:53:54.109Z</time></trkpt><trkpt lat="39.8723522" lon="9.303199"><ele>1064.5</ele><time>2026-05-01T14:53:55.106Z</time></trkpt><trkpt lat="39.8722525" lon="9.3032735"><ele>1060.75</ele><time>2026-05-01T14:53:56.106Z</time></trkpt><trkpt lat="39.8721417" lon="9.3033427"><ele>1057.0</ele><time>2026-05-01T14:53:57.109Z</time></trkpt><trkpt lat="39.8720318" lon="9.303419"><ele>1057.0</ele><time>2026-05-01T14:53:58.106Z</time></trkpt><trkpt lat="39.8719227" lon="9.3034892"><ele>1057.0</ele><time>2026-05-01T14:53:59.115Z</time></trkpt><trkpt lat="39.871812" lon="9.303547"><ele>1057.0</ele><time>2026-05-01T14:54:00.109Z</time></trkpt><trkpt lat="39.8717025" lon="9.3036022"><ele>1057.0</ele><time>2026-05-01T14:54:01.107Z</time></trkpt><trkpt lat="39.8715887" lon="9.3036603"><ele>1062.25</ele><time>2026-05-01T14:54:02.109Z</time></trkpt><trkpt lat="39.8713713" lon="9.303761"><ele>1067.5</ele><time>2026-05-01T14:54:04.109Z</time></trkpt><trkpt lat="39.8712653" lon="9.3037985"><ele>1072.75</ele><time>2026-05-01T14:54:05.106Z</time></trkpt><trkpt lat="39.8711685" lon="9.3038383"><ele>1078.0</ele><time>2026-05-01T14:54:06.107Z</time></trkpt><trkpt lat="39.8710807" lon="9.3038918"><ele>1075.6</ele><time>2026-05-01T14:54:07.106Z</time></trkpt><trkpt lat="39.8710073" lon="9.3039723"><ele>1073.1999999999998</ele><time>2026-05-01T14:54:08.107Z</time></trkpt><trkpt lat="39.8709547" lon="9.304081"><ele>1070.8</ele><time>2026-05-01T14:54:09.106Z</time></trkpt><trkpt lat="39.8709093" lon="9.3042073"><ele>1068.3999999999999</ele><time>2026-05-01T14:54:10.108Z</time></trkpt><trkpt lat="39.8708523" lon="9.304342"><ele>1066.0</ele><time>2026-05-01T14:54:11.107Z</time></trkpt><trkpt lat="39.8707828" lon="9.3044765"><ele>1066.0</ele><time>2026-05-01T14:54:12.107Z</time></trkpt><trkpt lat="39.8707097" lon="9.304609"><ele>1066.0</ele><time>2026-05-01T14:54:13.108Z</time></trkpt><trkpt lat="39.8706405" lon="9.3047417"><ele>1066.0</ele><time>2026-05-01T14:54:14.109Z</time></trkpt><trkpt lat="39.8705792" lon="9.3048673"><ele>1066.0</ele><time>2026-05-01T14:54:15.108Z</time></trkpt><trkpt lat="39.870536" lon="9.30499"><ele>1064.8333333333333</ele><time>2026-05-01T14:54:16.106Z</time></trkpt><trkpt lat="39.8705147" lon="9.3050957"><ele>1063.6666666666665</ele><time>2026-05-01T14:54:17.107Z</time></trkpt><trkpt lat="39.8705062" lon="9.3051962"><ele>1062.5</ele><time>2026-05-01T14:54:18.109Z</time></trkpt><trkpt lat="39.8705375" lon="9.3052938"><ele>1061.3333333333333</ele><time>2026-05-01T14:54:19.106Z</time></trkpt><trkpt lat="39.8705878" lon="9.305384"><ele>1060.1666666666667</ele><time>2026-05-01T14:54:20.107Z</time></trkpt><trkpt lat="39.8706342" lon="9.3054923"><ele>1059.0</ele><time>2026-05-01T14:54:21.106Z</time></trkpt><trkpt lat="39.8706773" lon="9.305608"><ele>1059.0</ele><time>2026-05-01T14:54:22.111Z</time></trkpt><trkpt lat="39.8707135" lon="9.3057322"><ele>1059.0</ele><time>2026-05-01T14:54:23.105Z</time></trkpt><trkpt lat="39.8707785" lon="9.305955"><ele>1059.0</ele><time>2026-05-01T14:54:25.118Z</time></trkpt><trkpt lat="39.87083" lon="9.306045"><ele>1059.0</ele><time>2026-05-01T14:54:26.108Z</time></trkpt><trkpt lat="39.8709123" lon="9.3061107"><ele>1057.8</ele><time>2026-05-01T14:54:27.108Z</time></trkpt><trkpt lat="39.8710142" lon="9.3061433"><ele>1056.6000000000001</ele><time>2026-05-01T14:54:28.108Z</time></trkpt><trkpt lat="39.8711148" lon="9.3061652"><ele>1055.4</ele><time>2026-05-01T14:54:29.109Z</time></trkpt><trkpt lat="39.8712155" lon="9.3061907"><ele>1054.2</ele><time>2026-05-01T14:54:30.112Z</time></trkpt><trkpt lat="39.8713178" lon="9.3062213"><ele>1053.0</ele><time>2026-05-01T14:54:31.108Z</time></trkpt><trkpt lat="39.8714233" lon="9.3062638"><ele>1053.0</ele><time>2026-05-01T14:54:32.105Z</time></trkpt><trkpt lat="39.87153" lon="9.3063163"><ele>1053.0</ele><time>2026-05-01T14:54:33.107Z</time></trkpt><trkpt lat="39.8716373" lon="9.3063748"><ele>1053.0</ele><time>2026-05-01T14:54:34.106Z</time></trkpt><trkpt lat="39.871753" lon="9.3064297"><ele>1053.0</ele><time>2026-05-01T14:54:35.107Z</time></trkpt><trkpt lat="39.8718722" lon="9.3064725"><ele>1056.75</ele><time>2026-05-01T14:54:36.107Z</time></trkpt><trkpt lat="39.8719938" lon="9.3065027"><ele>1060.5</ele><time>2026-05-01T14:54:37.106Z</time></trkpt><trkpt lat="39.8721188" lon="9.3065193"><ele>1064.25</ele><time>2026-05-01T14:54:38.107Z</time></trkpt><trkpt lat="39.8722402" lon="9.3065338"><ele>1068.0</ele><time>2026-05-01T14:54:39.103Z</time></trkpt><trkpt lat="39.8723537" lon="9.306572"><ele>1068.0</ele><time>2026-05-01T14:54:40.108Z</time></trkpt><trkpt lat="39.872454" lon="9.3066478"><ele>1068.0</ele><time>2026-05-01T14:54:41.107Z</time></trkpt><trkpt lat="39.872548" lon="9.3067443"><ele>1068.0</ele><time>2026-05-01T14:54:42.11Z</time></trkpt><trkpt lat="39.8726358" lon="9.3068528"><ele>1068.0</ele><time>2026-05-01T14:54:43.109Z</time></trkpt><trkpt lat="39.8727172" lon="9.306973"><ele>1067.0</ele><time>2026-05-01T14:54:44.112Z</time></trkpt><trkpt lat="39.8728722" lon="9.3072182"><ele>1066.0</ele><time>2026-05-01T14:54:46.106Z</time></trkpt><trkpt lat="39.8729478" lon="9.3073453"><ele>1065.0</ele><time>2026-05-01T14:54:47.108Z</time></trkpt><trkpt lat="39.8730187" lon="9.3074725"><ele>1067.5</ele><time>2026-05-01T14:54:48.107Z</time></trkpt><trkpt lat="39.873084" lon="9.3076033"><ele>1070.0</ele><time>2026-05-01T14:54:49.104Z</time></trkpt><trkpt lat="39.8731363" lon="9.3077447"><ele>1072.5</ele><time>2026-05-01T14:54:50.108Z</time></trkpt><trkpt lat="39.8731832" lon="9.3078813"><ele>1075.0</ele><time>2026-05-01T14:54:51.106Z</time></trkpt><trkpt lat="39.873232" lon="9.3080057"><ele>1076.0</ele><time>2026-05-01T14:54:52.11Z</time></trkpt><trkpt lat="39.8732865" lon="9.308102"><ele>1077.0</ele><time>2026-05-01T14:54:53.11Z</time></trkpt><trkpt lat="39.8733598" lon="9.3081378"><ele>1078.0</ele><time>2026-05-01T14:54:54.107Z</time></trkpt><trkpt lat="39.8734475" lon="9.3081083"><ele>1079.0</ele><time>2026-05-01T14:54:55.111Z</time></trkpt><trkpt lat="39.8735357" lon="9.3080275"><ele>1080.0</ele><time>2026-05-01T14:54:56.109Z</time></trkpt><trkpt lat="39.873626" lon="9.3079315"><ele>1080.25</ele><time>2026-05-01T14:54:57.108Z</time></trkpt><trkpt lat="39.8737143" lon="9.3078242"><ele>1080.5</ele><time>2026-05-01T14:54:58.108Z</time></trkpt><trkpt lat="39.873814" lon="9.307732"><ele>1080.75</ele><time>2026-05-01T14:54:59.108Z</time></trkpt><trkpt lat="39.8739262" lon="9.3076552"><ele>1081.0</ele><time>2026-05-01T14:55:00.107Z</time></trkpt><trkpt lat="39.8740468" lon="9.3076165"><ele>1081.0</ele><time>2026-05-01T14:55:01.106Z</time></trkpt><trkpt lat="39.8741657" lon="9.307645"><ele>1081.0</ele><time>2026-05-01T14:55:02.107Z</time></trkpt><trkpt lat="39.8742637" lon="9.3077308"><ele>1081.0</ele><time>2026-05-01T14:55:03.109Z</time></trkpt><trkpt lat="39.8743655" lon="9.3078082"><ele>1081.0</ele><time>2026-05-01T14:55:04.105Z</time></trkpt><trkpt lat="39.8744783" lon="9.307886"><ele>1079.6666666666665</ele><time>2026-05-01T14:55:05.109Z</time></trkpt><trkpt lat="39.8747157" lon="9.3080115"><ele>1078.3333333333333</ele><time>2026-05-01T14:55:07.107Z</time></trkpt><trkpt lat="39.874834" lon="9.3080638"><ele>1077.0</ele><time>2026-05-01T14:55:08.107Z</time></trkpt><trkpt lat="39.8749513" lon="9.3081163"><ele>1081.5</ele><time>2026-05-01T14:55:09.108Z</time></trkpt><trkpt lat="39.8750608" lon="9.3081847"><ele>1086.0</ele><time>2026-05-01T14:55:10.109Z</time></trkpt><trkpt lat="39.8751683" lon="9.3082533"><ele>1090.5</ele><time>2026-05-01T14:55:11.108Z</time></trkpt><trkpt lat="39.875275" lon="9.308322"><ele>1095.0</ele><time>2026-05-01T14:55:12.106Z</time></trkpt><trkpt lat="39.8753907" lon="9.3083785"><ele>1095.25</ele><time>2026-05-01T14:55:13.108Z</time></trkpt><trkpt lat="39.8755082" lon="9.308428"><ele>1095.5</ele><time>2026-05-01T14:55:14.108Z</time></trkpt><trkpt lat="39.8756283" lon="9.3084655"><ele>1095.75</ele><time>2026-05-01T14:55:15.107Z</time></trkpt><trkpt lat="39.875751" lon="9.3084985"><ele>1096.0</ele><time>2026-05-01T14:55:16.107Z</time></trkpt><trkpt lat="39.8758737" lon="9.3085335"><ele>1096.0</ele><time>2026-05-01T14:55:17.111Z</time></trkpt><trkpt lat="39.875999" lon="9.3085628"><ele>1096.0</ele><time>2026-05-01T14:55:18.106Z</time></trkpt><trkpt lat="39.8761233" lon="9.3085943"><ele>1096.0</ele><time>2026-05-01T14:55:19.108Z</time></trkpt><trkpt lat="39.8762523" lon="9.3086228"><ele>1096.0</ele><time>2026-05-01T14:55:20.106Z</time></trkpt><trkpt lat="39.876385" lon="9.308651"><ele>1096.0</ele><time>2026-05-01T14:55:21.109Z</time></trkpt><trkpt lat="39.8765175" lon="9.3086757"><ele>1096.0</ele><time>2026-05-01T14:55:22.113Z</time></trkpt><trkpt lat="39.8766447" lon="9.3086983"><ele>1096.0</ele><time>2026-05-01T14:55:23.111Z</time></trkpt><trkpt lat="39.8767737" lon="9.3087173"><ele>1096.0</ele><time>2026-05-01T14:55:24.107Z</time></trkpt><trkpt lat="39.8769042" lon="9.3087367"><ele>1097.6666666666665</ele><time>2026-05-01T14:55:25.106Z</time></trkpt><trkpt lat="39.8770377" lon="9.3087503"><ele>1099.3333333333333</ele><time>2026-05-01T14:55:26.107Z</time></trkpt><trkpt lat="39.8773077" lon="9.3087713"><ele>1101.0</ele><time>2026-05-01T14:55:28.107Z</time></trkpt><trkpt lat="39.877445" lon="9.3087747"><ele>1101.0</ele><time>2026-05-01T14:55:29.107Z</time></trkpt><trkpt lat="39.8775815" lon="9.3087735"><ele>1101.0</ele><time>2026-05-01T14:55:30.107Z</time></trkpt><trkpt lat="39.87772" lon="9.3087815"><ele>1101.0</ele><time>2026-05-01T14:55:31.111Z</time></trkpt><trkpt lat="39.8778545" lon="9.3087852"><ele>1101.0</ele><time>2026-05-01T14:55:32.107Z</time></trkpt><trkpt lat="39.8779805" lon="9.3087865"><ele>1102.8</ele><time>2026-05-01T14:55:33.108Z</time></trkpt><trkpt lat="39.8780978" lon="9.3087925"><ele>1104.6</ele><time>2026-05-01T14:55:34.109Z</time></trkpt><trkpt lat="39.8781927" lon="9.308817"><ele>1106.4</ele><time>2026-05-01T14:55:35.11Z</time></trkpt><trkpt lat="39.8782707" lon="9.3088425"><ele>1108.2</ele><time>2026-05-01T14:55:36.107Z</time></trkpt><trkpt lat="39.8783345" lon="9.3089153"><ele>1110.0</ele><time>2026-05-01T14:55:37.107Z</time></trkpt><trkpt lat="39.8783838" lon="9.3090158"><ele>1109.8</ele><time>2026-05-01T14:55:38.116Z</time></trkpt><trkpt lat="39.8784243" lon="9.309115"><ele>1109.6</ele><time>2026-05-01T14:55:39.107Z</time></trkpt><trkpt lat="39.878457" lon="9.3092305"><ele>1109.4</ele><time>2026-05-01T14:55:40.109Z</time></trkpt><trkpt lat="39.8784817" lon="9.3093535"><ele>1109.2</ele><time>2026-05-01T14:55:41.107Z</time></trkpt><trkpt lat="39.8785065" lon="9.3094792"><ele>1109.0</ele><time>2026-05-01T14:55:42.106Z</time></trkpt><trkpt lat="39.8785313" lon="9.3096078"><ele>1110.25</ele><time>2026-05-01T14:55:43.106Z</time></trkpt><trkpt lat="39.8785563" lon="9.3097488"><ele>1111.5</ele><time>2026-05-01T14:55:44.107Z</time></trkpt><trkpt lat="39.8785855" lon="9.3098972"><ele>1112.75</ele><time>2026-05-01T14:55:45.11Z</time></trkpt><trkpt lat="39.8786242" lon="9.3100468"><ele>1114.0</ele><time>2026-05-01T14:55:46.106Z</time></trkpt><trkpt lat="39.8786735" lon="9.3101923"><ele>1114.0</ele><time>2026-05-01T14:55:47.111Z</time></trkpt><trkpt lat="39.8787927" lon="9.310487"><ele>1114.0</ele><time>2026-05-01T14:55:49.107Z</time></trkpt><trkpt lat="39.8788642" lon="9.3106272"><ele>1114.0</ele><time>2026-05-01T14:55:50.107Z</time></trkpt><trkpt lat="39.878932" lon="9.3107693"><ele>1116.0</ele><time>2026-05-01T14:55:51.108Z</time></trkpt><trkpt lat="39.8790038" lon="9.3109085"><ele>1118.0</ele><time>2026-05-01T14:55:52.106Z</time></trkpt><trkpt lat="39.8790762" lon="9.3110485"><ele>1120.0</ele><time>2026-05-01T14:55:53.107Z</time></trkpt><trkpt lat="39.879154" lon="9.3111773"><ele>1122.0</ele><time>2026-05-01T14:55:54.105Z</time></trkpt><trkpt lat="39.8792383" lon="9.3112947"><ele>1121.75</ele><time>2026-05-01T14:55:55.104Z</time></trkpt><trkpt lat="39.8793108" lon="9.311421"><ele>1121.5</ele><time>2026-05-01T14:55:56.107Z</time></trkpt><trkpt lat="39.8793752" lon="9.3115485"><ele>1121.25</ele><time>2026-05-01T14:55:57.105Z</time></trkpt><trkpt lat="39.879437" lon="9.3116845"><ele>1121.0</ele><time>2026-05-01T14:55:58.106Z</time></trkpt><trkpt lat="39.879498" lon="9.3118225"><ele>1121.0</ele><time>2026-05-01T14:55:59.107Z</time></trkpt><trkpt lat="39.8795588" lon="9.3119615"><ele>1121.0</ele><time>2026-05-01T14:56:00.104Z</time></trkpt><trkpt lat="39.8796277" lon="9.3120967"><ele>1121.0</ele><time>2026-05-01T14:56:01.106Z</time></trkpt><trkpt lat="39.8797055" lon="9.3122255"><ele>1121.0</ele><time>2026-05-01T14:56:02.106Z</time></trkpt><trkpt lat="39.8797958" lon="9.3123345"><ele>1123.25</ele><time>2026-05-01T14:56:03.107Z</time></trkpt><trkpt lat="39.8798938" lon="9.3124363"><ele>1125.5</ele><time>2026-05-01T14:56:04.106Z</time></trkpt><trkpt lat="39.8799932" lon="9.312529"><ele>1127.75</ele><time>2026-05-01T14:56:05.105Z</time></trkpt><trkpt lat="39.8800902" lon="9.3126277"><ele>1130.0</ele><time>2026-05-01T14:56:06.105Z</time></trkpt><trkpt lat="39.8801895" lon="9.3127242"><ele>1130.0</ele><time>2026-05-01T14:56:07.107Z</time></trkpt><trkpt lat="39.8802993" lon="9.3128153"><ele>1130.0</ele><time>2026-05-01T14:56:08.106Z</time></trkpt><trkpt lat="39.8804152" lon="9.3128977"><ele>1130.0</ele><time>2026-05-01T14:56:09.108Z</time></trkpt><trkpt lat="39.8806288" lon="9.3130907"><ele>1130.75</ele><time>2026-05-01T14:56:11.106Z</time></trkpt><trkpt lat="39.8807103" lon="9.3132133"><ele>1131.5</ele><time>2026-05-01T14:56:12.107Z</time></trkpt><trkpt lat="39.8807713" lon="9.3133442"><ele>1132.25</ele><time>2026-05-01T14:56:13.104Z</time></trkpt><trkpt lat="39.8808073" lon="9.3134848"><ele>1133.0</ele><time>2026-05-01T14:56:14.106Z</time></trkpt><trkpt lat="39.8808218" lon="9.3136272"><ele>1133.0</ele><time>2026-05-01T14:56:15.104Z</time></trkpt><trkpt lat="39.880821" lon="9.3137542"><ele>1133.0</ele><time>2026-05-01T14:56:16.106Z</time></trkpt><trkpt lat="39.8808008" lon="9.3138802"><ele>1133.0</ele><time>2026-05-01T14:56:17.108Z</time></trkpt><trkpt lat="39.8807752" lon="9.313988"><ele>1133.0</ele><time>2026-05-01T14:56:18.106Z</time></trkpt><trkpt lat="39.8807425" lon="9.3140903"><ele>1133.0</ele><time>2026-05-01T14:56:19.109Z</time></trkpt><trkpt lat="39.8807005" lon="9.3141853"><ele>1132.1666666666667</ele><time>2026-05-01T14:56:20.107Z</time></trkpt><trkpt lat="39.8806547" lon="9.3142763"><ele>1131.3333333333335</ele><time>2026-05-01T14:56:21.107Z</time></trkpt><trkpt lat="39.8806097" lon="9.3143672"><ele>1130.5</ele><time>2026-05-01T14:56:22.106Z</time></trkpt><trkpt lat="39.8805603" lon="9.3144637"><ele>1129.6666666666667</ele><time>2026-05-01T14:56:23.107Z</time></trkpt><trkpt lat="39.8805038" lon="9.314558"><ele>1128.8333333333333</ele><time>2026-05-01T14:56:24.105Z</time></trkpt><trkpt lat="39.8804387" lon="9.3146517"><ele>1128.0</ele><time>2026-05-01T14:56:25.107Z</time></trkpt><trkpt lat="39.8803635" lon="9.3147453"><ele>1125.6</ele><time>2026-05-01T14:56:26.103Z</time></trkpt><trkpt lat="39.8802865" lon="9.3148365"><ele>1123.1999999999998</ele><time>2026-05-01T14:56:27.107Z</time></trkpt><trkpt lat="39.8802143" lon="9.3149278"><ele>1120.8</ele><time>2026-05-01T14:56:28.105Z</time></trkpt><trkpt lat="39.8801582" lon="9.3150335"><ele>1118.3999999999999</ele><time>2026-05-01T14:56:29.105Z</time></trkpt><trkpt lat="39.8801192" lon="9.315146"><ele>1116.0</ele><time>2026-05-01T14:56:30.106Z</time></trkpt><trkpt lat="39.8801095" lon="9.3153903"><ele>1116.0</ele><time>2026-05-01T14:56:32.106Z</time></trkpt><trkpt lat="39.8801082" lon="9.3155162"><ele>1116.0</ele><time>2026-05-01T14:56:33.106Z</time></trkpt><trkpt lat="39.880097" lon="9.3156465"><ele>1116.0</ele><time>2026-05-01T14:56:34.106Z</time></trkpt><trkpt lat="39.8800773" lon="9.3157773"><ele>1116.0</ele><time>2026-05-01T14:56:35.107Z</time></trkpt><trkpt lat="39.8800457" lon="9.3159047"><ele>1116.0</ele><time>2026-05-01T14:56:36.106Z</time></trkpt><trkpt lat="39.8800037" lon="9.3160303"><ele>1116.2</ele><time>2026-05-01T14:56:37.107Z</time></trkpt><trkpt lat="39.8799597" lon="9.3161518"><ele>1116.3999999999999</ele><time>2026-05-01T14:56:38.108Z</time></trkpt><trkpt lat="39.8799198" lon="9.3162762"><ele>1116.6</ele><time>2026-05-01T14:56:39.107Z</time></trkpt><trkpt lat="39.8798913" lon="9.316407"><ele>1116.8</ele><time>2026-05-01T14:56:40.105Z</time></trkpt><trkpt lat="39.8798795" lon="9.31654"><ele>1117.0</ele><time>2026-05-01T14:56:41.106Z</time></trkpt><trkpt lat="39.8798763" lon="9.3166737"><ele>1117.0</ele><time>2026-05-01T14:56:42.106Z</time></trkpt><trkpt lat="39.8798772" lon="9.3168068"><ele>1117.0</ele><time>2026-05-01T14:56:43.106Z</time></trkpt><trkpt lat="39.8798793" lon="9.3169498"><ele>1117.0</ele><time>2026-05-01T14:56:44.108Z</time></trkpt><trkpt lat="39.8798762" lon="9.3170912"><ele>1117.0</ele><time>2026-05-01T14:56:45.108Z</time></trkpt><trkpt lat="39.8798685" lon="9.3172345"><ele>1117.0</ele><time>2026-05-01T14:56:46.108Z</time></trkpt><trkpt lat="39.8798577" lon="9.3173767"><ele>1116.0</ele><time>2026-05-01T14:56:47.105Z</time></trkpt><trkpt lat="39.8798455" lon="9.3175187"><ele>1115.0</ele><time>2026-05-01T14:56:48.105Z</time></trkpt><trkpt lat="39.8798318" lon="9.3176618"><ele>1114.0</ele><time>2026-05-01T14:56:49.106Z</time></trkpt><trkpt lat="39.8798137" lon="9.317802"><ele>1113.0</ele><time>2026-05-01T14:56:50.106Z</time></trkpt><trkpt lat="39.8798003" lon="9.3179385"><ele>1112.0</ele><time>2026-05-01T14:56:51.107Z</time></trkpt><trkpt lat="39.8797762" lon="9.3182115"><ele>1110.8</ele><time>2026-05-01T14:56:53.108Z</time></trkpt><trkpt lat="39.8797675" lon="9.318346"><ele>1109.6</ele><time>2026-05-01T14:56:54.106Z</time></trkpt><trkpt lat="39.8797603" lon="9.3184802"><ele>1108.3999999999999</ele><time>2026-05-01T14:56:55.107Z</time></trkpt><trkpt lat="39.8797563" lon="9.3186152"><ele>1107.2</ele><time>2026-05-01T14:56:56.106Z</time></trkpt><trkpt lat="39.879755" lon="9.3187388"><ele>1106.0</ele><time>2026-05-01T14:56:57.104Z</time></trkpt><trkpt lat="39.8797492" lon="9.3188368"><ele>1105.1666666666667</ele><time>2026-05-01T14:56:58.106Z</time></trkpt><trkpt lat="39.8797542" lon="9.3189213"><ele>1104.3333333333335</ele><time>2026-05-01T14:57:00.106Z</time></trkpt><trkpt lat="39.8797555" lon="9.3190077"><ele>1103.5</ele><time>2026-05-01T14:57:03.105Z</time></trkpt><trkpt lat="39.8797698" lon="9.3191165"><ele>1102.6666666666667</ele><time>2026-05-01T14:57:50.107Z</time></trkpt><trkpt lat="39.879783" lon="9.3192955"><ele>1101.8333333333333</ele><time>2026-05-01T14:57:52.105Z</time></trkpt><trkpt lat="39.87979" lon="9.31941"><ele>1101.0</ele><time>2026-05-01T14:57:53.106Z</time></trkpt><trkpt lat="39.8797985" lon="9.319532"><ele>1101.0</ele><time>2026-05-01T14:57:54.107Z</time></trkpt><trkpt lat="39.8798128" lon="9.319665"><ele>1101.0</ele><time>2026-05-01T14:57:55.107Z</time></trkpt><trkpt lat="39.8798362" lon="9.3198128"><ele>1101.0</ele><time>2026-05-01T14:57:56.106Z</time></trkpt><trkpt lat="39.8798672" lon="9.3199607"><ele>1101.0</ele><time>2026-05-01T14:57:57.107Z</time></trkpt><trkpt lat="39.8799" lon="9.3201135"><ele>1100.25</ele><time>2026-05-01T14:57:58.109Z</time></trkpt><trkpt lat="39.8799343" lon="9.3202703"><ele>1099.5</ele><time>2026-05-01T14:57:59.106Z</time></trkpt><trkpt lat="39.8799647" lon="9.3204363"><ele>1098.75</ele><time>2026-05-01T14:58:00.107Z</time></trkpt><trkpt lat="39.8799878" lon="9.3206108"><ele>1098.0</ele><time>2026-05-01T14:58:01.105Z</time></trkpt><trkpt lat="39.8800003" lon="9.3207895"><ele>1097.0</ele><time>2026-05-01T14:58:02.106Z</time></trkpt><trkpt lat="39.8800027" lon="9.3209767"><ele>1096.0</ele><time>2026-05-01T14:58:03.107Z</time></trkpt><trkpt lat="39.8800103" lon="9.321165"><ele>1095.0</ele><time>2026-05-01T14:58:04.107Z</time></trkpt><trkpt lat="39.8800195" lon="9.3213555"><ele>1094.0</ele><time>2026-05-01T14:58:05.107Z</time></trkpt><trkpt lat="39.8800278" lon="9.3215412"><ele>1093.25</ele><time>2026-05-01T14:58:06.109Z</time></trkpt><trkpt lat="39.8800377" lon="9.3217268"><ele>1092.5</ele><time>2026-05-01T14:58:07.106Z</time></trkpt><trkpt lat="39.8800512" lon="9.3219162"><ele>1091.75</ele><time>2026-05-01T14:58:08.107Z</time></trkpt><trkpt lat="39.880064" lon="9.3220932"><ele>1091.0</ele><time>2026-05-01T14:58:09.106Z</time></trkpt><trkpt lat="39.880059" lon="9.3222803"><ele>1089.6666666666667</ele><time>2026-05-01T14:58:10.106Z</time></trkpt><trkpt lat="39.8800375" lon="9.322454"><ele>1088.3333333333333</ele><time>2026-05-01T14:58:11.105Z</time></trkpt><trkpt lat="39.8800258" lon="9.3228138"><ele>1087.0</ele><time>2026-05-01T14:58:13.107Z</time></trkpt><trkpt lat="39.8800432" lon="9.3230052"><ele>1086.0</ele><time>2026-05-01T14:58:14.104Z</time></trkpt><trkpt lat="39.8800647" lon="9.3231912"><ele>1085.0</ele><time>2026-05-01T14:58:15.105Z</time></trkpt><trkpt lat="39.8800773" lon="9.3233832"><ele>1084.0</ele><time>2026-05-01T14:58:16.106Z</time></trkpt><trkpt lat="39.8800823" lon="9.3235665"><ele>1083.0</ele><time>2026-05-01T14:58:17.108Z</time></trkpt><trkpt lat="39.8800862" lon="9.3237502"><ele>1082.0</ele><time>2026-05-01T14:58:18.107Z</time></trkpt><trkpt lat="39.8800808" lon="9.323916"><ele>1081.0</ele><time>2026-05-01T14:58:19.107Z</time></trkpt><trkpt lat="39.8800647" lon="9.324097"><ele>1080.0</ele><time>2026-05-01T14:58:20.105Z</time></trkpt><trkpt lat="39.8800505" lon="9.3242762"><ele>1079.0</ele><time>2026-05-01T14:58:21.108Z</time></trkpt><trkpt lat="39.880052" lon="9.3244525"><ele>1079.0</ele><time>2026-05-01T14:58:22.105Z</time></trkpt><trkpt lat="39.8800602" lon="9.3246363"><ele>1079.0</ele><time>2026-05-01T14:58:23.103Z</time></trkpt><trkpt lat="39.8801033" lon="9.3247993"><ele>1079.0</ele><time>2026-05-01T14:58:24.103Z</time></trkpt><trkpt lat="39.880163" lon="9.3249642"><ele>1079.0</ele><time>2026-05-01T14:58:25.104Z</time></trkpt><trkpt lat="39.8802135" lon="9.3251383"><ele>1079.5</ele><time>2026-05-01T14:58:26.105Z</time></trkpt><trkpt lat="39.8802642" lon="9.3253093"><ele>1080.0</ele><time>2026-05-01T14:58:27.105Z</time></trkpt><trkpt lat="39.880299" lon="9.325483"><ele>1080.5</ele><time>2026-05-01T14:58:28.106Z</time></trkpt><trkpt lat="39.8803307" lon="9.3256608"><ele>1081.0</ele><time>2026-05-01T14:58:29.105Z</time></trkpt><trkpt lat="39.8803555" lon="9.3258417"><ele>1081.0</ele><time>2026-05-01T14:58:30.103Z</time></trkpt><trkpt lat="39.8803957" lon="9.3260327"><ele>1081.0</ele><time>2026-05-01T14:58:31.106Z</time></trkpt><trkpt lat="39.880423" lon="9.3262188"><ele>1081.0</ele><time>2026-05-01T14:58:32.104Z</time></trkpt><trkpt lat="39.8804222" lon="9.3265878"><ele>1079.5</ele><time>2026-05-01T14:58:34.108Z</time></trkpt><trkpt lat="39.8803978" lon="9.3267718"><ele>1078.0</ele><time>2026-05-01T14:58:35.107Z</time></trkpt><trkpt lat="39.8803643" lon="9.3269647"><ele>1076.5</ele><time>2026-05-01T14:58:36.105Z</time></trkpt><trkpt lat="39.880328" lon="9.3271522"><ele>1075.0</ele><time>2026-05-01T14:58:37.106Z</time></trkpt><trkpt lat="39.8802965" lon="9.3273313"><ele>1074.25</ele><time>2026-05-01T14:58:38.106Z</time></trkpt><trkpt lat="39.880244" lon="9.3275008"><ele>1073.5</ele><time>2026-05-01T14:58:39.104Z</time></trkpt><trkpt lat="39.8801942" lon="9.3276708"><ele>1072.75</ele><time>2026-05-01T14:58:40.106Z</time></trkpt><trkpt lat="39.8801428" lon="9.3278388"><ele>1072.0</ele><time>2026-05-01T14:58:41.106Z</time></trkpt><trkpt lat="39.8801077" lon="9.3280132"><ele>1068.5</ele><time>2026-05-01T14:58:42.104Z</time></trkpt><trkpt lat="39.8800943" lon="9.3281972"><ele>1065.0</ele><time>2026-05-01T14:58:43.104Z</time></trkpt><trkpt lat="39.8800792" lon="9.3283693"><ele>1061.5</ele><time>2026-05-01T14:58:44.105Z</time></trkpt><trkpt lat="39.8800672" lon="9.3285303"><ele>1058.0</ele><time>2026-05-01T14:58:45.105Z</time></trkpt><trkpt lat="39.8800482" lon="9.3286778"><ele>1058.0</ele><time>2026-05-01T14:58:46.11Z</time></trkpt><trkpt lat="39.8800015" lon="9.328809"><ele>1058.0</ele><time>2026-05-01T14:58:47.106Z</time></trkpt><trkpt lat="39.8799218" lon="9.32891"><ele>1058.0</ele><time>2026-05-01T14:58:48.105Z</time></trkpt><trkpt lat="39.8798045" lon="9.3289705"><ele>1058.0</ele><time>2026-05-01T14:58:49.105Z</time></trkpt><trkpt lat="39.8797118" lon="9.3290218"><ele>1058.0</ele><time>2026-05-01T14:58:50.105Z</time></trkpt><trkpt lat="39.8796217" lon="9.3290737"><ele>1057.75</ele><time>2026-05-01T14:58:51.107Z</time></trkpt><trkpt lat="39.8795538" lon="9.3291445"><ele>1057.5</ele><time>2026-05-01T14:58:52.105Z</time></trkpt><trkpt lat="39.8795052" lon="9.329242"><ele>1057.25</ele><time>2026-05-01T14:58:53.105Z</time></trkpt><trkpt lat="39.8794712" lon="9.32948"><ele>1057.0</ele><time>2026-05-01T14:58:55.103Z</time></trkpt><trkpt lat="39.8794632" lon="9.329618"><ele>1055.25</ele><time>2026-05-01T14:58:56.105Z</time></trkpt><trkpt lat="39.8794825" lon="9.3297668"><ele>1053.5</ele><time>2026-05-01T14:58:57.105Z</time></trkpt><trkpt lat="39.8795218" lon="9.3299157"><ele>1051.75</ele><time>2026-05-01T14:58:58.108Z</time></trkpt><trkpt lat="39.879585" lon="9.330063"><ele>1050.0</ele><time>2026-05-01T14:58:59.105Z</time></trkpt><trkpt lat="39.8796568" lon="9.330221"><ele>1050.0</ele><time>2026-05-01T14:59:00.106Z</time></trkpt><trkpt lat="39.8797272" lon="9.3303808"><ele>1050.0</ele><time>2026-05-01T14:59:01.104Z</time></trkpt><trkpt lat="39.8797938" lon="9.3305413"><ele>1050.0</ele><time>2026-05-01T14:59:02.105Z</time></trkpt><trkpt lat="39.8798503" lon="9.3306972"><ele>1050.0</ele><time>2026-05-01T14:59:03.104Z</time></trkpt><trkpt lat="39.8798968" lon="9.3308598"><ele>1048.5</ele><time>2026-05-01T14:59:04.105Z</time></trkpt><trkpt lat="39.879927" lon="9.3310223"><ele>1047.0</ele><time>2026-05-01T14:59:05.106Z</time></trkpt><trkpt lat="39.8799427" lon="9.3311773"><ele>1045.5</ele><time>2026-05-01T14:59:06.105Z</time></trkpt><trkpt lat="39.8799393" lon="9.3313268"><ele>1044.0</ele><time>2026-05-01T14:59:07.106Z</time></trkpt><trkpt lat="39.8799152" lon="9.3314683"><ele>1042.6000000000001</ele><time>2026-05-01T14:59:08.108Z</time></trkpt><trkpt lat="39.879893" lon="9.3315945"><ele>1041.2</ele><time>2026-05-01T14:59:09.105Z</time></trkpt><trkpt lat="39.8798863" lon="9.3317207"><ele>1039.8000000000002</ele><time>2026-05-01T14:59:10.111Z</time></trkpt><trkpt lat="39.879896" lon="9.3318495"><ele>1038.4</ele><time>2026-05-01T14:59:11.106Z</time></trkpt><trkpt lat="39.8799322" lon="9.3319777"><ele>1037.0</ele><time>2026-05-01T14:59:12.106Z</time></trkpt><trkpt lat="39.8799828" lon="9.3320922"><ele>1037.0</ele><time>2026-05-01T14:59:13.106Z</time></trkpt><trkpt lat="39.8800542" lon="9.3321932"><ele>1037.0</ele><time>2026-05-01T14:59:14.106Z</time></trkpt><trkpt lat="39.880258" lon="9.3323422"><ele>1037.0</ele><time>2026-05-01T14:59:16.106Z</time></trkpt><trkpt lat="39.8803777" lon="9.3324045"><ele>1035.25</ele><time>2026-05-01T14:59:17.105Z</time></trkpt><trkpt lat="39.8804978" lon="9.3324665"><ele>1033.5</ele><time>2026-05-01T14:59:18.106Z</time></trkpt><trkpt lat="39.8806187" lon="9.3325225"><ele>1031.75</ele><time>2026-05-01T14:59:19.105Z</time></trkpt><trkpt lat="39.8807345" lon="9.3325875"><ele>1030.0</ele><time>2026-05-01T14:59:20.107Z</time></trkpt><trkpt lat="39.8808425" lon="9.3326572"><ele>1031.25</ele><time>2026-05-01T14:59:21.105Z</time></trkpt><trkpt lat="39.8809462" lon="9.3327312"><ele>1032.5</ele><time>2026-05-01T14:59:22.106Z</time></trkpt><trkpt lat="39.8810475" lon="9.3328042"><ele>1033.75</ele><time>2026-05-01T14:59:23.105Z</time></trkpt><trkpt lat="39.8811432" lon="9.3328777"><ele>1035.0</ele><time>2026-05-01T14:59:24.109Z</time></trkpt><trkpt lat="39.881245" lon="9.3329448"><ele>1035.0</ele><time>2026-05-01T14:59:25.106Z</time></trkpt><trkpt lat="39.8813447" lon="9.3330087"><ele>1035.0</ele><time>2026-05-01T14:59:26.107Z</time></trkpt><trkpt lat="39.8814438" lon="9.3330713"><ele>1035.0</ele><time>2026-05-01T14:59:27.106Z</time></trkpt><trkpt lat="39.8815403" lon="9.3331298"><ele>1035.0</ele><time>2026-05-01T14:59:28.106Z</time></trkpt><trkpt lat="39.8816367" lon="9.3331868"><ele>1035.0</ele><time>2026-05-01T14:59:29.107Z</time></trkpt><trkpt lat="39.881732" lon="9.3332393"><ele>1031.4</ele><time>2026-05-01T14:59:30.11Z</time></trkpt><trkpt lat="39.8818272" lon="9.3332925"><ele>1027.8</ele><time>2026-05-01T14:59:31.105Z</time></trkpt><trkpt lat="39.8819255" lon="9.3333375"><ele>1024.2</ele><time>2026-05-01T14:59:32.106Z</time></trkpt><trkpt lat="39.8820267" lon="9.3333728"><ele>1020.6</ele><time>2026-05-01T14:59:33.104Z</time></trkpt><trkpt lat="39.88213" lon="9.3334027"><ele>1017.0</ele><time>2026-05-01T14:59:34.105Z</time></trkpt><trkpt lat="39.8822227" lon="9.333425"><ele>1017.0</ele><time>2026-05-01T14:59:35.106Z</time></trkpt><trkpt lat="39.882389" lon="9.333444"><ele>1017.0</ele><time>2026-05-01T14:59:38.105Z</time></trkpt><trkpt lat="39.8824887" lon="9.333456"><ele>1017.0</ele><time>2026-05-01T14:59:57.106Z</time></trkpt><trkpt lat="39.8826557" lon="9.333472"><ele>1017.0</ele><time>2026-05-01T14:59:59.106Z</time></trkpt><trkpt lat="39.8827662" lon="9.33349"><ele>1015.0</ele><time>2026-05-01T15:00:00.106Z</time></trkpt><trkpt lat="39.882885" lon="9.333516"><ele>1013.0</ele><time>2026-05-01T15:00:01.105Z</time></trkpt><trkpt lat="39.8830175" lon="9.3335615"><ele>1011.0</ele><time>2026-05-01T15:00:02.105Z</time></trkpt><trkpt lat="39.8831575" lon="9.333611"><ele>1009.0</ele><time>2026-05-01T15:00:03.104Z</time></trkpt><trkpt lat="39.8833063" lon="9.333663"><ele>1007.3333333333333</ele><time>2026-05-01T15:00:04.106Z</time></trkpt><trkpt lat="39.883463" lon="9.3337172"><ele>1005.6666666666667</ele><time>2026-05-01T15:00:05.106Z</time></trkpt><trkpt lat="39.8836235" lon="9.3337668"><ele>1004.0</ele><time>2026-05-01T15:00:06.104Z</time></trkpt><trkpt lat="39.8837808" lon="9.3338175"><ele>1004.0</ele><time>2026-05-01T15:00:07.105Z</time></trkpt><trkpt lat="39.8839377" lon="9.3338673"><ele>1004.0</ele><time>2026-05-01T15:00:08.105Z</time></trkpt><trkpt lat="39.8840933" lon="9.3339193"><ele>1004.0</ele><time>2026-05-01T15:00:09.108Z</time></trkpt><trkpt lat="39.884242" lon="9.3339877"><ele>1000.6666666666667</ele><time>2026-05-01T15:00:10.104Z</time></trkpt><trkpt lat="39.8843885" lon="9.3340522"><ele>997.3333333333333</ele><time>2026-05-01T15:00:11.106Z</time></trkpt><trkpt lat="39.884536" lon="9.3341123"><ele>994.0</ele><time>2026-05-01T15:00:12.105Z</time></trkpt><trkpt lat="39.8846793" lon="9.3341602"><ele>994.0</ele><time>2026-05-01T15:00:13.107Z</time></trkpt><trkpt lat="39.8848122" lon="9.3342053"><ele>994.0</ele><time>2026-05-01T15:00:14.106Z</time></trkpt><trkpt lat="39.8849408" lon="9.334246"><ele>994.0</ele><time>2026-05-01T15:00:15.108Z</time></trkpt><trkpt lat="39.885062" lon="9.334306"><ele>994.0</ele><time>2026-05-01T15:00:16.109Z</time></trkpt><trkpt lat="39.8851727" lon="9.3343943"><ele>993.3333333333333</ele><time>2026-05-01T15:00:17.125Z</time></trkpt><trkpt lat="39.8852692" lon="9.3344923"><ele>992.6666666666667</ele><time>2026-05-01T15:00:18.108Z</time></trkpt><trkpt lat="39.8854368" lon="9.334725"><ele>992.0</ele><time>2026-05-01T15:00:20.107Z</time></trkpt><trkpt lat="39.8855112" lon="9.3348372"><ele>992.0000000000001</ele><time>2026-05-01T15:00:21.108Z</time></trkpt><trkpt lat="39.8855698" lon="9.334942"><ele>992.0</ele><time>2026-05-01T15:00:22.106Z</time></trkpt><trkpt lat="39.8856123" lon="9.3350495"><ele>992.0</ele><time>2026-05-01T15:00:23.106Z</time></trkpt><trkpt lat="39.8856415" lon="9.3351477"><ele>992.0</ele><time>2026-05-01T15:00:24.106Z</time></trkpt><trkpt lat="39.8856788" lon="9.3352483"><ele>992.0000000000001</ele><time>2026-05-01T15:00:26.106Z</time></trkpt><trkpt lat="39.8857502" lon="9.3352687"><ele>992.0</ele><time>2026-05-01T15:00:28.113Z</time></trkpt><trkpt lat="39.8858882" lon="9.3352445"><ele>991.8</ele><time>2026-05-01T15:00:30.115Z</time></trkpt><trkpt lat="39.885973" lon="9.3352272"><ele>991.6</ele><time>2026-05-01T15:00:31.108Z</time></trkpt><trkpt lat="39.8860652" lon="9.3352102"><ele>991.3999999999999</ele><time>2026-05-01T15:00:32.107Z</time></trkpt><trkpt lat="39.886166" lon="9.3351965"><ele>991.1999999999999</ele><time>2026-05-01T15:00:33.109Z</time></trkpt><trkpt lat="39.8862788" lon="9.335194"><ele>991.0</ele><time>2026-05-01T15:00:34.104Z</time></trkpt><trkpt lat="39.8863993" lon="9.3351938"><ele>991.0</ele><time>2026-05-01T15:00:35.105Z</time></trkpt><trkpt lat="39.8865218" lon="9.3351945"><ele>991.0</ele><time>2026-05-01T15:00:36.107Z</time></trkpt><trkpt lat="39.8866507" lon="9.335199"><ele>991.0</ele><time>2026-05-01T15:00:37.11Z</time></trkpt><trkpt lat="39.8867785" lon="9.3352228"><ele>991.0</ele><time>2026-05-01T15:00:38.108Z</time></trkpt><trkpt lat="39.8869023" lon="9.3352717"><ele>989.3333333333333</ele><time>2026-05-01T15:00:39.108Z</time></trkpt><trkpt lat="39.8871398" lon="9.3354528"><ele>987.6666666666667</ele><time>2026-05-01T15:00:41.106Z</time></trkpt><trkpt lat="39.8872573" lon="9.335553"><ele>986.0</ele><time>2026-05-01T15:00:42.106Z</time></trkpt><trkpt lat="39.8873787" lon="9.3356493"><ele>985.5</ele><time>2026-05-01T15:00:43.106Z</time></trkpt><trkpt lat="39.8875027" lon="9.3357467"><ele>985.0</ele><time>2026-05-01T15:00:44.106Z</time></trkpt><trkpt lat="39.887627" lon="9.3358393"><ele>984.5</ele><time>2026-05-01T15:00:45.106Z</time></trkpt><trkpt lat="39.8877592" lon="9.3359392"><ele>984.0</ele><time>2026-05-01T15:00:46.107Z</time></trkpt><trkpt lat="39.8878872" lon="9.3360303"><ele>984.0</ele><time>2026-05-01T15:00:47.106Z</time></trkpt><trkpt lat="39.8880197" lon="9.336123"><ele>984.0</ele><time>2026-05-01T15:00:48.106Z</time></trkpt><trkpt lat="39.8881445" lon="9.3362195"><ele>984.0</ele><time>2026-05-01T15:00:49.106Z</time></trkpt><trkpt lat="39.8882723" lon="9.336316"><ele>984.0</ele><time>2026-05-01T15:00:50.106Z</time></trkpt><trkpt lat="39.8884063" lon="9.3364232"><ele>983.0</ele><time>2026-05-01T15:00:51.105Z</time></trkpt><trkpt lat="39.8885412" lon="9.3365288"><ele>982.0</ele><time>2026-05-01T15:00:52.105Z</time></trkpt><trkpt lat="39.8886715" lon="9.3366315"><ele>981.0</ele><time>2026-05-01T15:00:53.104Z</time></trkpt><trkpt lat="39.8888042" lon="9.3367375"><ele>981.0</ele><time>2026-05-01T15:00:54.105Z</time></trkpt><trkpt lat="39.8889318" lon="9.3368442"><ele>981.0</ele><time>2026-05-01T15:00:55.107Z</time></trkpt><trkpt lat="39.8890555" lon="9.3369468"><ele>981.0</ele><time>2026-05-01T15:00:56.107Z</time></trkpt><trkpt lat="39.8891762" lon="9.3370442"><ele>981.0</ele><time>2026-05-01T15:00:57.109Z</time></trkpt><trkpt lat="39.8892982" lon="9.3371313"><ele>984.3333333333333</ele><time>2026-05-01T15:00:58.106Z</time></trkpt><trkpt lat="39.8894207" lon="9.337212"><ele>987.6666666666666</ele><time>2026-05-01T15:00:59.108Z</time></trkpt><trkpt lat="39.889535" lon="9.3372882"><ele>991.0</ele><time>2026-05-01T15:01:00.106Z</time></trkpt><trkpt lat="39.8897588" lon="9.3374307"><ele>991.0</ele><time>2026-05-01T15:01:02.108Z</time></trkpt><trkpt lat="39.889876" lon="9.3375062"><ele>991.0</ele><time>2026-05-01T15:01:03.107Z</time></trkpt><trkpt lat="39.8899857" lon="9.3375835"><ele>991.0</ele><time>2026-05-01T15:01:04.105Z</time></trkpt><trkpt lat="39.8900953" lon="9.3376575"><ele>991.0</ele><time>2026-05-01T15:01:05.105Z</time></trkpt><trkpt lat="39.890211" lon="9.3377307"><ele>992.25</ele><time>2026-05-01T15:01:06.106Z</time></trkpt><trkpt lat="39.8903278" lon="9.3378132"><ele>993.5</ele><time>2026-05-01T15:01:07.106Z</time></trkpt><trkpt lat="39.8904433" lon="9.3379055"><ele>994.75</ele><time>2026-05-01T15:01:08.105Z</time></trkpt><trkpt lat="39.8905643" lon="9.3380065"><ele>996.0</ele><time>2026-05-01T15:01:09.104Z</time></trkpt><trkpt lat="39.8906863" lon="9.3381092"><ele>996.0</ele><time>2026-05-01T15:01:10.106Z</time></trkpt><trkpt lat="39.890802" lon="9.3382135"><ele>996.0</ele><time>2026-05-01T15:01:11.106Z</time></trkpt><trkpt lat="39.8909128" lon="9.3383232"><ele>996.0</ele><time>2026-05-01T15:01:12.105Z</time></trkpt><trkpt lat="39.891008" lon="9.3384602"><ele>996.0</ele><time>2026-05-01T15:01:13.105Z</time></trkpt><trkpt lat="39.891099" lon="9.3386102"><ele>993.25</ele><time>2026-05-01T15:01:14.107Z</time></trkpt><trkpt lat="39.8911847" lon="9.3387533"><ele>990.5</ele><time>2026-05-01T15:01:15.106Z</time></trkpt><trkpt lat="39.891276" lon="9.3389085"><ele>987.75</ele><time>2026-05-01T15:01:16.107Z</time></trkpt><trkpt lat="39.8913605" lon="9.3390467"><ele>985.0</ele><time>2026-05-01T15:01:17.105Z</time></trkpt><trkpt lat="39.8914518" lon="9.3391782"><ele>985.0</ele><time>2026-05-01T15:01:18.108Z</time></trkpt><trkpt lat="39.891535" lon="9.339316"><ele>985.0</ele><time>2026-05-01T15:01:19.105Z</time></trkpt><trkpt lat="39.8916233" lon="9.3394457"><ele>985.0</ele><time>2026-05-01T15:01:20.107Z</time></trkpt><trkpt lat="39.891708" lon="9.3395557"><ele>985.0</ele><time>2026-05-01T15:01:21.106Z</time></trkpt><trkpt lat="39.8918338" lon="9.3396857"><ele>986.0</ele><time>2026-05-01T15:01:23.107Z</time></trkpt><trkpt lat="39.891893" lon="9.3397328"><ele>987.0000000000001</ele><time>2026-05-01T15:01:24.106Z</time></trkpt><trkpt lat="39.8919493" lon="9.3397752"><ele>988.0</ele><time>2026-05-01T15:01:25.107Z</time></trkpt><trkpt lat="39.8920095" lon="9.3398097"><ele>989.0</ele><time>2026-05-01T15:01:26.106Z</time></trkpt><trkpt lat="39.8920775" lon="9.3398338"><ele>990.0000000000001</ele><time>2026-05-01T15:01:27.107Z</time></trkpt><trkpt lat="39.8921535" lon="9.3398583"><ele>991.0</ele><time>2026-05-01T15:01:28.108Z</time></trkpt><trkpt lat="39.8922263" lon="9.3398905"><ele>992.0</ele><time>2026-05-01T15:01:29.106Z</time></trkpt><trkpt lat="39.8923015" lon="9.3399287"><ele>992.0000000000001</ele><time>2026-05-01T15:01:30.108Z</time></trkpt><trkpt lat="39.8923788" lon="9.3399653"><ele>992.0</ele><time>2026-05-01T15:01:31.107Z</time></trkpt><trkpt lat="39.8924613" lon="9.3400043"><ele>992.0</ele><time>2026-05-01T15:01:32.107Z</time></trkpt><trkpt lat="39.8925435" lon="9.3400477"><ele>992.0</ele><time>2026-05-01T15:01:33.106Z</time></trkpt><trkpt lat="39.8926203" lon="9.3401103"><ele>992.0000000000001</ele><time>2026-05-01T15:01:34.106Z</time></trkpt><trkpt lat="39.8926817" lon="9.340183"><ele>992.0</ele><time>2026-05-01T15:01:35.106Z</time></trkpt><trkpt lat="39.892718" lon="9.3402687"><ele>991.4000000000001</ele><time>2026-05-01T15:01:36.108Z</time></trkpt><trkpt lat="39.8927267" lon="9.3403763"><ele>990.8000000000001</ele><time>2026-05-01T15:01:37.104Z</time></trkpt><trkpt lat="39.8927013" lon="9.3404868"><ele>990.2</ele><time>2026-05-01T15:01:38.105Z</time></trkpt><trkpt lat="39.8926663" lon="9.3406018"><ele>989.6</ele><time>2026-05-01T15:01:39.104Z</time></trkpt><trkpt lat="39.8926243" lon="9.3407122"><ele>989.0</ele><time>2026-05-01T15:01:40.108Z</time></trkpt><trkpt lat="39.8925662" lon="9.340823"><ele>989.0</ele><time>2026-05-01T15:01:41.107Z</time></trkpt><trkpt lat="39.8925028" lon="9.340938"><ele>989.0</ele><time>2026-05-01T15:01:42.106Z</time></trkpt><trkpt lat="39.892383" lon="9.3411903"><ele>989.0</ele><time>2026-05-01T15:01:44.104Z</time></trkpt><trkpt lat="39.8923323" lon="9.341338"><ele>986.25</ele><time>2026-05-01T15:01:45.105Z</time></trkpt><trkpt lat="39.8922892" lon="9.3415057"><ele>983.5</ele><time>2026-05-01T15:01:46.109Z</time></trkpt><trkpt lat="39.892252" lon="9.3416778"><ele>980.75</ele><time>2026-05-01T15:01:47.107Z</time></trkpt><trkpt lat="39.8922193" lon="9.3418462"><ele>978.0</ele><time>2026-05-01T15:01:48.107Z</time></trkpt><trkpt lat="39.8921932" lon="9.3420058"><ele>978.0</ele><time>2026-05-01T15:01:49.108Z</time></trkpt><trkpt lat="39.8921713" lon="9.3421725"><ele>978.0</ele><time>2026-05-01T15:01:50.107Z</time></trkpt><trkpt lat="39.8921472" lon="9.3423337"><ele>978.0</ele><time>2026-05-01T15:01:51.106Z</time></trkpt><trkpt lat="39.892119" lon="9.342488"><ele>978.0</ele><time>2026-05-01T15:01:52.106Z</time></trkpt><trkpt lat="39.8920898" lon="9.3426415"><ele>974.5</ele><time>2026-05-01T15:01:53.105Z</time></trkpt><trkpt lat="39.8920578" lon="9.342795"><ele>971.0</ele><time>2026-05-01T15:01:54.107Z</time></trkpt><trkpt lat="39.8920207" lon="9.3429498"><ele>967.5</ele><time>2026-05-01T15:01:55.103Z</time></trkpt><trkpt lat="39.8919745" lon="9.3431038"><ele>964.0</ele><time>2026-05-01T15:01:56.106Z</time></trkpt><trkpt lat="39.891923" lon="9.3432572"><ele>966.5</ele><time>2026-05-01T15:01:57.104Z</time></trkpt><trkpt lat="39.8918645" lon="9.343412"><ele>969.0</ele><time>2026-05-01T15:01:58.107Z</time></trkpt><trkpt lat="39.8918057" lon="9.3435698"><ele>971.5</ele><time>2026-05-01T15:01:59.105Z</time></trkpt><trkpt lat="39.891749" lon="9.3437277"><ele>974.0</ele><time>2026-05-01T15:02:00.107Z</time></trkpt><trkpt lat="39.8916908" lon="9.343897"><ele>974.0</ele><time>2026-05-01T15:02:01.105Z</time></trkpt><trkpt lat="39.8916302" lon="9.3440643"><ele>974.0</ele><time>2026-05-01T15:02:02.106Z</time></trkpt><trkpt lat="39.8915667" lon="9.3442257"><ele>974.0</ele><time>2026-05-01T15:02:03.105Z</time></trkpt><trkpt lat="39.8914563" lon="9.3445468"><ele>974.0</ele><time>2026-05-01T15:02:05.106Z</time></trkpt><trkpt lat="39.8914022" lon="9.344695"><ele>974.0</ele><time>2026-05-01T15:02:06.108Z</time></trkpt><trkpt lat="39.89135" lon="9.344842"><ele>974.0</ele><time>2026-05-01T15:02:07.109Z</time></trkpt><trkpt lat="39.8913008" lon="9.3449768"><ele>974.0</ele><time>2026-05-01T15:02:08.106Z</time></trkpt><trkpt lat="39.8912648" lon="9.3451133"><ele>972.8333333333334</ele><time>2026-05-01T15:02:09.114Z</time></trkpt><trkpt lat="39.8912405" lon="9.3452425"><ele>971.6666666666667</ele><time>2026-05-01T15:02:10.105Z</time></trkpt><trkpt lat="39.8912252" lon="9.345351"><ele>970.5</ele><time>2026-05-01T15:02:11.105Z</time></trkpt><trkpt lat="39.8912137" lon="9.345447"><ele>969.3333333333333</ele><time>2026-05-01T15:02:12.106Z</time></trkpt><trkpt lat="39.8911983" lon="9.3455495"><ele>968.1666666666666</ele><time>2026-05-01T15:02:13.105Z</time></trkpt><trkpt lat="39.8911875" lon="9.3456518"><ele>967.0</ele><time>2026-05-01T15:02:14.105Z</time></trkpt><trkpt lat="39.8911777" lon="9.345754"><ele>966.9999999999999</ele><time>2026-05-01T15:02:15.105Z</time></trkpt><trkpt lat="39.89116" lon="9.3458567"><ele>967.0</ele><time>2026-05-01T15:02:16.104Z</time></trkpt><trkpt lat="39.8911427" lon="9.3459638"><ele>967.0</ele><time>2026-05-01T15:02:17.104Z</time></trkpt><trkpt lat="39.8911222" lon="9.3460667"><ele>967.0</ele><time>2026-05-01T15:02:18.104Z</time></trkpt><trkpt lat="39.8911048" lon="9.3461672"><ele>966.9999999999999</ele><time>2026-05-01T15:02:19.102Z</time></trkpt><trkpt lat="39.8910945" lon="9.3462728"><ele>967.0</ele><time>2026-05-01T15:02:20.111Z</time></trkpt><trkpt lat="39.8910852" lon="9.3463715"><ele>966.4000000000001</ele><time>2026-05-01T15:02:21.106Z</time></trkpt><trkpt lat="39.8910785" lon="9.3464673"><ele>965.8000000000001</ele><time>2026-05-01T15:02:22.105Z</time></trkpt><trkpt lat="39.8910675" lon="9.3465668"><ele>965.2</ele><time>2026-05-01T15:02:23.104Z</time></trkpt><trkpt lat="39.891054" lon="9.3466725"><ele>964.6</ele><time>2026-05-01T15:02:24.106Z</time></trkpt><trkpt lat="39.8910263" lon="9.3468968"><ele>964.0</ele><time>2026-05-01T15:02:26.104Z</time></trkpt><trkpt lat="39.8910142" lon="9.3470165"><ele>964.0</ele><time>2026-05-01T15:02:27.106Z</time></trkpt><trkpt lat="39.8910037" lon="9.347147"><ele>964.0000000000001</ele><time>2026-05-01T15:02:28.107Z</time></trkpt><trkpt lat="39.8909915" lon="9.3472805"><ele>964.0000000000001</ele><time>2026-05-01T15:02:29.104Z</time></trkpt><trkpt lat="39.8909765" lon="9.3474245"><ele>964.0</ele><time>2026-05-01T15:02:30.106Z</time></trkpt><trkpt lat="39.8909595" lon="9.3475643"><ele>964.0</ele><time>2026-05-01T15:02:31.103Z</time></trkpt><trkpt lat="39.8909457" lon="9.3477085"><ele>962.0</ele><time>2026-05-01T15:02:32.104Z</time></trkpt><trkpt lat="39.8909258" lon="9.3478628"><ele>960.0</ele><time>2026-05-01T15:02:33.104Z</time></trkpt><trkpt lat="39.8909053" lon="9.3480198"><ele>958.0</ele><time>2026-05-01T15:02:34.104Z</time></trkpt><trkpt lat="39.8908828" lon="9.3481742"><ele>956.0</ele><time>2026-05-01T15:02:35.104Z</time></trkpt><trkpt lat="39.890864" lon="9.348329"><ele>960.0</ele><time>2026-05-01T15:02:36.106Z</time></trkpt><trkpt lat="39.8908408" lon="9.3484885"><ele>964.0</ele><time>2026-05-01T15:02:37.106Z</time></trkpt><trkpt lat="39.8908178" lon="9.3486482"><ele>968.0</ele><time>2026-05-01T15:02:38.105Z</time></trkpt><trkpt lat="39.89079" lon="9.348809"><ele>972.0</ele><time>2026-05-01T15:02:39.106Z</time></trkpt><trkpt lat="39.8907622" lon="9.3489702"><ele>972.0</ele><time>2026-05-01T15:02:40.104Z</time></trkpt><trkpt lat="39.890735" lon="9.3491348"><ele>972.0</ele><time>2026-05-01T15:02:41.106Z</time></trkpt><trkpt lat="39.8907118" lon="9.3492927"><ele>972.0</ele><time>2026-05-01T15:02:42.106Z</time></trkpt><trkpt lat="39.8906882" lon="9.3494507"><ele>972.0</ele><time>2026-05-01T15:02:43.103Z</time></trkpt><trkpt lat="39.8906652" lon="9.3496063"><ele>971.6666666666667</ele><time>2026-05-01T15:02:44.106Z</time></trkpt><trkpt lat="39.890642" lon="9.3497597"><ele>971.3333333333334</ele><time>2026-05-01T15:02:45.105Z</time></trkpt><trkpt lat="39.8905967" lon="9.3500537"><ele>971.0</ele><time>2026-05-01T15:02:47.104Z</time></trkpt><trkpt lat="39.8905783" lon="9.3501872"><ele>971.0</ele><time>2026-05-01T15:02:48.106Z</time></trkpt><trkpt lat="39.8905552" lon="9.3503143"><ele>970.9999999999999</ele><time>2026-05-01T15:02:49.108Z</time></trkpt><trkpt lat="39.8905358" lon="9.3504425"><ele>970.9999999999999</ele><time>2026-05-01T15:02:50.105Z</time></trkpt><trkpt lat="39.890518" lon="9.3505733"><ele>971.0</ele><time>2026-05-01T15:02:51.105Z</time></trkpt><trkpt lat="39.8905092" lon="9.35071"><ele>971.0</ele><time>2026-05-01T15:02:52.105Z</time></trkpt><trkpt lat="39.8905127" lon="9.3508533"><ele>970.8</ele><time>2026-05-01T15:02:53.106Z</time></trkpt><trkpt lat="39.8905232" lon="9.350992"><ele>970.5999999999999</ele><time>2026-05-01T15:02:54.107Z</time></trkpt><trkpt lat="39.8905457" lon="9.3511342"><ele>970.4</ele><time>2026-05-01T15:02:55.105Z</time></trkpt><trkpt lat="39.8905632" lon="9.3512775"><ele>970.2</ele><time>2026-05-01T15:02:56.106Z</time></trkpt><trkpt lat="39.8905832" lon="9.3514222"><ele>970.0</ele><time>2026-05-01T15:02:57.105Z</time></trkpt><trkpt lat="39.8905963" lon="9.3515718"><ele>970.5</ele><time>2026-05-01T15:02:58.104Z</time></trkpt><trkpt lat="39.8906007" lon="9.3517262"><ele>971.0</ele><time>2026-05-01T15:02:59.105Z</time></trkpt><trkpt lat="39.8905998" lon="9.3518782"><ele>971.5</ele><time>2026-05-01T15:03:00.106Z</time></trkpt><trkpt lat="39.8905805" lon="9.3520202"><ele>972.0</ele><time>2026-05-01T15:03:01.107Z</time></trkpt><trkpt lat="39.8905488" lon="9.3521627"><ele>968.75</ele><time>2026-05-01T15:03:02.105Z</time></trkpt><trkpt lat="39.8904978" lon="9.3522995"><ele>965.5</ele><time>2026-05-01T15:03:03.109Z</time></trkpt><trkpt lat="39.8904308" lon="9.3524228"><ele>962.25</ele><time>2026-05-01T15:03:04.105Z</time></trkpt><trkpt lat="39.890341" lon="9.3525173"><ele>959.0</ele><time>2026-05-01T15:03:05.105Z</time></trkpt><trkpt lat="39.8902368" lon="9.3525878"><ele>964.6666666666667</ele><time>2026-05-01T15:03:06.106Z</time></trkpt><trkpt lat="39.890004" lon="9.3526585"><ele>970.3333333333333</ele><time>2026-05-01T15:03:08.104Z</time></trkpt><trkpt lat="39.8898897" lon="9.352701"><ele>976.0</ele><time>2026-05-01T15:03:09.107Z</time></trkpt><trkpt lat="39.8897945" lon="9.3527537"><ele>976.0</ele><time>2026-05-01T15:03:10.105Z</time></trkpt><trkpt lat="39.8897145" lon="9.3528205"><ele>975.9999999999999</ele><time>2026-05-01T15:03:11.108Z</time></trkpt><trkpt lat="39.8896482" lon="9.3528978"><ele>975.9999999999999</ele><time>2026-05-01T15:03:12.104Z</time></trkpt><trkpt lat="39.8895863" lon="9.3529788"><ele>976.0</ele><time>2026-05-01T15:03:13.106Z</time></trkpt><trkpt lat="39.8895523" lon="9.3530915"><ele>976.0</ele><time>2026-05-01T15:03:14.105Z</time></trkpt><trkpt lat="39.8895365" lon="9.3532312"><ele>970.5</ele><time>2026-05-01T15:03:15.105Z</time></trkpt><trkpt lat="39.8895123" lon="9.3533857"><ele>965.0</ele><time>2026-05-01T15:03:16.107Z</time></trkpt><trkpt lat="39.889486" lon="9.3535435"><ele>959.5</ele><time>2026-05-01T15:03:17.106Z</time></trkpt><trkpt lat="39.8894535" lon="9.3537007"><ele>954.0</ele><time>2026-05-01T15:03:18.106Z</time></trkpt><trkpt lat="39.8894103" lon="9.3538505"><ele>949.75</ele><time>2026-05-01T15:03:19.106Z</time></trkpt><trkpt lat="39.889357" lon="9.3539937"><ele>945.5</ele><time>2026-05-01T15:03:20.106Z</time></trkpt><trkpt lat="39.8892883" lon="9.3541177"><ele>941.25</ele><time>2026-05-01T15:03:21.105Z</time></trkpt><trkpt lat="39.8892135" lon="9.354237"><ele>937.0</ele><time>2026-05-01T15:03:22.106Z</time></trkpt><trkpt lat="39.8891413" lon="9.354354"><ele>942.2</ele><time>2026-05-01T15:03:23.105Z</time></trkpt><trkpt lat="39.8890748" lon="9.3544645"><ele>947.4000000000001</ele><time>2026-05-01T15:03:24.105Z</time></trkpt><trkpt lat="39.8890223" lon="9.3545713"><ele>952.5999999999999</ele><time>2026-05-01T15:03:25.104Z</time></trkpt><trkpt lat="39.888983" lon="9.3546817"><ele>957.8</ele><time>2026-05-01T15:03:26.104Z</time></trkpt><trkpt lat="39.888958" lon="9.3547967"><ele>963.0</ele><time>2026-05-01T15:03:27.106Z</time></trkpt><trkpt lat="39.888943" lon="9.3550513"><ele>963.0</ele><time>2026-05-01T15:03:29.105Z</time></trkpt><trkpt lat="39.8889432" lon="9.3551907"><ele>963.0</ele><time>2026-05-01T15:03:30.103Z</time></trkpt><trkpt lat="39.8889417" lon="9.3553382"><ele>963.0</ele><time>2026-05-01T15:03:31.107Z</time></trkpt><trkpt lat="39.888929" lon="9.3554803"><ele>963.0</ele><time>2026-05-01T15:03:32.108Z</time></trkpt><trkpt lat="39.8888893" lon="9.3556097"><ele>963.0</ele><time>2026-05-01T15:03:33.105Z</time></trkpt><trkpt lat="39.8888243" lon="9.3557238"><ele>960.4</ele><time>2026-05-01T15:03:34.105Z</time></trkpt><trkpt lat="39.88875" lon="9.3558273"><ele>957.8</ele><time>2026-05-01T15:03:35.104Z</time></trkpt><trkpt lat="39.8886798" lon="9.3559323"><ele>955.2</ele><time>2026-05-01T15:03:36.105Z</time></trkpt><trkpt lat="39.88863" lon="9.3560542"><ele>952.6</ele><time>2026-05-01T15:03:37.107Z</time></trkpt><trkpt lat="39.8885963" lon="9.3561917"><ele>950.0</ele><time>2026-05-01T15:03:38.105Z</time></trkpt><trkpt lat="39.888567" lon="9.356331"><ele>949.0</ele><time>2026-05-01T15:03:39.103Z</time></trkpt><trkpt lat="39.8885565" lon="9.3564988"><ele>948.0</ele><time>2026-05-01T15:03:40.102Z</time></trkpt><trkpt lat="39.8885542" lon="9.356663"><ele>947.0</ele><time>2026-05-01T15:03:41.105Z</time></trkpt><trkpt lat="39.8885423" lon="9.3568203"><ele>946.0</ele><time>2026-05-01T15:03:42.106Z</time></trkpt><trkpt lat="39.888535" lon="9.3569633"><ele>946.0</ele><time>2026-05-01T15:03:43.105Z</time></trkpt><trkpt lat="39.8885363" lon="9.3570978"><ele>945.9999999999999</ele><time>2026-05-01T15:03:44.105Z</time></trkpt><trkpt lat="39.8885497" lon="9.3572277"><ele>945.9999999999999</ele><time>2026-05-01T15:03:45.104Z</time></trkpt><trkpt lat="39.888584" lon="9.3573485"><ele>946.0</ele><time>2026-05-01T15:03:46.105Z</time></trkpt><trkpt lat="39.8886422" lon="9.3574548"><ele>946.0</ele><time>2026-05-01T15:03:47.104Z</time></trkpt><trkpt lat="39.8887067" lon="9.3575568"><ele>958.0</ele><time>2026-05-01T15:03:48.104Z</time></trkpt><trkpt lat="39.8888277" lon="9.3577302"><ele>958.0</ele><time>2026-05-01T15:03:50.105Z</time></trkpt><trkpt lat="39.8888738" lon="9.357788"><ele>958.0</ele><time>2026-05-01T15:03:51.104Z</time></trkpt><trkpt lat="39.888925" lon="9.3578543"><ele>958.0</ele><time>2026-05-01T15:03:53.104Z</time></trkpt><trkpt lat="39.8889938" lon="9.3578698"><ele>958.0</ele><time>2026-05-01T15:18:31.103Z</time></trkpt></trkseg></trk></gpx>